<?xml version='1.0' encoding='UTF-8'?><gpx version="1.1" creator="JPX - https://github.com/jenetics/jpx" xmlns="http://www.topografix.com/GPX/1/1"><trk><trkseg><trkpt lat="40.7208386" lon="14.8736957"><ele>351.0</ele><time>2026-03-29T06:45:49.964Z</time></trkpt><trkpt lat="40.7208835" lon="14.8738079"><ele>351.0</ele><time>2026-03-29T06:52:04.074Z</time></trkpt><trkpt lat="40.7208296" lon="14.8737616"><ele>351.0</ele><time>2026-03-29T06:52:10.958Z</time></trkpt><trkpt lat="40.7207672" lon="14.8737428"><ele>351.0</ele><time>2026-03-29T06:52:14.956Z</time></trkpt><trkpt lat="40.7207249" lon="14.8736739"><ele>351.0</ele><time>2026-03-29T06:52:28.946Z</time></trkpt><trkpt lat="40.7206584" lon="14.8736484"><ele>351.0</ele><time>2026-03-29T06:54:35.954Z</time></trkpt><trkpt lat="40.7206465" lon="14.8737916"><ele>351.0</ele><time>2026-03-29T06:54:40.955Z</time></trkpt><trkpt lat="40.7206415" lon="14.8739095"><ele>351.0</ele><time>2026-03-29T06:54:42.959Z</time></trkpt><trkpt lat="40.7206586" lon="14.8739998"><ele>351.0</ele><time>2026-03-29T06:54:45.962Z</time></trkpt><trkpt lat="40.7207636" lon="14.8740058"><ele>351.0</ele><time>2026-03-29T06:54:47.949Z</time></trkpt><trkpt lat="40.7208403" lon="14.8739895"><ele>351.0</ele><time>2026-03-29T06:54:48.952Z</time></trkpt><trkpt lat="40.7209272" lon="14.8739704"><ele>351.0</ele><time>2026-03-29T06:54:49.955Z</time></trkpt><trkpt lat="40.7210057" lon="14.8739557"><ele>353.1666666666667</ele><time>2026-03-29T06:54:50.948Z</time></trkpt><trkpt lat="40.7210935" lon="14.8739384"><ele>355.3333333333333</ele><time>2026-03-29T06:54:51.953Z</time></trkpt><trkpt lat="40.7211758" lon="14.8739253"><ele>357.5</ele><time>2026-03-29T06:54:52.948Z</time></trkpt><trkpt lat="40.7212536" lon="14.8739061"><ele>359.66666666666663</ele><time>2026-03-29T06:54:53.95Z</time></trkpt><trkpt lat="40.72133" lon="14.8738987"><ele>361.8333333333333</ele><time>2026-03-29T06:54:54.955Z</time></trkpt><trkpt lat="40.7214059" lon="14.8738821"><ele>364.0</ele><time>2026-03-29T06:54:55.949Z</time></trkpt><trkpt lat="40.7214829" lon="14.8738622"><ele>364.0</ele><time>2026-03-29T06:54:56.948Z</time></trkpt><trkpt lat="40.7215519" lon="14.8738963"><ele>364.0</ele><time>2026-03-29T06:54:57.953Z</time></trkpt><trkpt lat="40.7216123" lon="14.8739607"><ele>364.0</ele><time>2026-03-29T06:54:58.946Z</time></trkpt><trkpt lat="40.7217062" lon="14.8740473"><ele>364.0</ele><time>2026-03-29T06:54:59.944Z</time></trkpt><trkpt lat="40.7218052" lon="14.8741191"><ele>364.0</ele><time>2026-03-29T06:55:00.951Z</time></trkpt><trkpt lat="40.7219218" lon="14.8741489"><ele>366.5</ele><time>2026-03-29T06:55:01.945Z</time></trkpt><trkpt lat="40.72204" lon="14.8741338"><ele>369.0</ele><time>2026-03-29T06:55:02.946Z</time></trkpt><trkpt lat="40.7221644" lon="14.8741116"><ele>371.5</ele><time>2026-03-29T06:55:03.953Z</time></trkpt><trkpt lat="40.7222765" lon="14.8740968"><ele>374.0</ele><time>2026-03-29T06:55:04.95Z</time></trkpt><trkpt lat="40.7223864" lon="14.8740784"><ele>374.0</ele><time>2026-03-29T06:55:05.948Z</time></trkpt><trkpt lat="40.7224962" lon="14.8740461"><ele>374.0</ele><time>2026-03-29T06:55:06.945Z</time></trkpt><trkpt lat="40.7225946" lon="14.8739923"><ele>374.0</ele><time>2026-03-29T06:55:07.945Z</time></trkpt><trkpt lat="40.7227085" lon="14.873944"><ele>374.0</ele><time>2026-03-29T06:55:08.956Z</time></trkpt><trkpt lat="40.7228139" lon="14.8738686"><ele>376.75</ele><time>2026-03-29T06:55:09.947Z</time></trkpt><trkpt lat="40.7229166" lon="14.8737955"><ele>379.5</ele><time>2026-03-29T06:55:11.03Z</time></trkpt><trkpt lat="40.7230241" lon="14.873717"><ele>382.25</ele><time>2026-03-29T06:55:12.032Z</time></trkpt><trkpt lat="40.7231213" lon="14.8736622"><ele>385.0</ele><time>2026-03-29T06:55:12.961Z</time></trkpt><trkpt lat="40.7232109" lon="14.8735756"><ele>385.0</ele><time>2026-03-29T06:55:13.963Z</time></trkpt><trkpt lat="40.7232824" lon="14.8734564"><ele>385.0</ele><time>2026-03-29T06:55:15.061Z</time></trkpt><trkpt lat="40.7233471" lon="14.8733397"><ele>385.0</ele><time>2026-03-29T06:55:16.036Z</time></trkpt><trkpt lat="40.7234144" lon="14.8732134"><ele>385.0</ele><time>2026-03-29T06:55:16.989Z</time></trkpt><trkpt lat="40.7234837" lon="14.87308"><ele>386.4</ele><time>2026-03-29T06:55:17.949Z</time></trkpt><trkpt lat="40.7235328" lon="14.8729372"><ele>387.8</ele><time>2026-03-29T06:55:18.953Z</time></trkpt><trkpt lat="40.7235683" lon="14.8727942"><ele>389.20000000000005</ele><time>2026-03-29T06:55:19.976Z</time></trkpt><trkpt lat="40.7236101" lon="14.8726723"><ele>390.6</ele><time>2026-03-29T06:55:20.954Z</time></trkpt><trkpt lat="40.7236679" lon="14.8725696"><ele>392.0</ele><time>2026-03-29T06:55:22.028Z</time></trkpt><trkpt lat="40.7237246" lon="14.8725146"><ele>395.8333333333333</ele><time>2026-03-29T06:55:22.946Z</time></trkpt><trkpt lat="40.7237966" lon="14.8724773"><ele>399.66666666666663</ele><time>2026-03-29T06:55:23.958Z</time></trkpt><trkpt lat="40.723871" lon="14.8724576"><ele>403.5</ele><time>2026-03-29T06:55:24.978Z</time></trkpt><trkpt lat="40.7239467" lon="14.8724505"><ele>407.33333333333337</ele><time>2026-03-29T06:55:26.029Z</time></trkpt><trkpt lat="40.7240246" lon="14.8724234"><ele>411.1666666666667</ele><time>2026-03-29T06:55:27.031Z</time></trkpt><trkpt lat="40.7240989" lon="14.8724031"><ele>415.0</ele><time>2026-03-29T06:55:27.953Z</time></trkpt><trkpt lat="40.7241659" lon="14.8723966"><ele>415.0</ele><time>2026-03-29T06:55:28.945Z</time></trkpt><trkpt lat="40.7242343" lon="14.872413"><ele>415.0</ele><time>2026-03-29T06:55:30.949Z</time></trkpt><trkpt lat="40.7242983" lon="14.8724337"><ele>415.0</ele><time>2026-03-29T06:55:35.952Z</time></trkpt><trkpt lat="40.7243095" lon="14.8723143"><ele>415.0</ele><time>2026-03-29T06:55:39.952Z</time></trkpt><trkpt lat="40.724307" lon="14.8721889"><ele>415.0</ele><time>2026-03-29T06:55:40.958Z</time></trkpt><trkpt lat="40.7242844" lon="14.8720066"><ele>415.00000000000006</ele><time>2026-03-29T06:55:41.96Z</time></trkpt><trkpt lat="40.724264" lon="14.8718869"><ele>415.0</ele><time>2026-03-29T06:55:42.958Z</time></trkpt><trkpt lat="40.724259" lon="14.8717863"><ele>415.0</ele><time>2026-03-29T06:55:43.953Z</time></trkpt><trkpt lat="40.7242692" lon="14.8716878"><ele>415.0</ele><time>2026-03-29T06:55:45.004Z</time></trkpt><trkpt lat="40.7242947" lon="14.871591"><ele>415.00000000000006</ele><time>2026-03-29T06:55:45.957Z</time></trkpt><trkpt lat="40.724393" lon="14.8715428"><ele>415.0</ele><time>2026-03-29T06:55:47.959Z</time></trkpt><trkpt lat="40.7244524" lon="14.8714516"><ele>418.00000000000006</ele><time>2026-03-29T06:55:48.962Z</time></trkpt><trkpt lat="40.7245194" lon="14.8713816"><ele>421.0</ele><time>2026-03-29T06:55:49.957Z</time></trkpt><trkpt lat="40.7245835" lon="14.8713151"><ele>424.0</ele><time>2026-03-29T06:55:50.962Z</time></trkpt><trkpt lat="40.7246436" lon="14.8712617"><ele>427.0</ele><time>2026-03-29T06:55:52.026Z</time></trkpt><trkpt lat="40.7246574" lon="14.8711693"><ele>430.00000000000006</ele><time>2026-03-29T06:55:52.943Z</time></trkpt><trkpt lat="40.7246452" lon="14.8710673"><ele>433.0</ele><time>2026-03-29T06:55:53.948Z</time></trkpt><trkpt lat="40.7246123" lon="14.8709735"><ele>433.00000000000006</ele><time>2026-03-29T06:55:54.967Z</time></trkpt><trkpt lat="40.724546" lon="14.8709303"><ele>433.0</ele><time>2026-03-29T06:55:55.946Z</time></trkpt><trkpt lat="40.7246066" lon="14.8708528"><ele>433.0</ele><time>2026-03-29T06:56:00.959Z</time></trkpt><trkpt lat="40.7246783" lon="14.870894"><ele>433.0</ele><time>2026-03-29T06:56:02.031Z</time></trkpt><trkpt lat="40.7247723" lon="14.8709323"><ele>433.00000000000006</ele><time>2026-03-29T06:56:02.95Z</time></trkpt><trkpt lat="40.7248685" lon="14.87097"><ele>433.0</ele><time>2026-03-29T06:56:03.944Z</time></trkpt><trkpt lat="40.7249796" lon="14.8710148"><ele>433.0</ele><time>2026-03-29T06:56:04.948Z</time></trkpt><trkpt lat="40.7250959" lon="14.871054"><ele>432.99999999999994</ele><time>2026-03-29T06:56:05.946Z</time></trkpt><trkpt lat="40.7251916" lon="14.8710797"><ele>432.99999999999994</ele><time>2026-03-29T06:56:06.941Z</time></trkpt><trkpt lat="40.7252537" lon="14.8710936"><ele>433.0</ele><time>2026-03-29T06:56:07.941Z</time></trkpt><trkpt lat="40.7253502" lon="14.8711806"><ele>433.0</ele><time>2026-03-29T06:56:09.946Z</time></trkpt><trkpt lat="40.7254011" lon="14.8712858"><ele>437.33333333333337</ele><time>2026-03-29T06:56:12.025Z</time></trkpt><trkpt lat="40.7254154" lon="14.8713767"><ele>441.6666666666667</ele><time>2026-03-29T06:56:12.939Z</time></trkpt><trkpt lat="40.7254454" lon="14.8714636"><ele>446.0</ele><time>2026-03-29T06:56:13.939Z</time></trkpt><trkpt lat="40.725486" lon="14.8715744"><ele>450.33333333333337</ele><time>2026-03-29T06:56:14.947Z</time></trkpt><trkpt lat="40.7255161" lon="14.8716801"><ele>454.6666666666667</ele><time>2026-03-29T06:56:15.945Z</time></trkpt><trkpt lat="40.7255611" lon="14.8718037"><ele>459.0</ele><time>2026-03-29T06:56:16.944Z</time></trkpt><trkpt lat="40.7256047" lon="14.8719328"><ele>460.0</ele><time>2026-03-29T06:56:17.949Z</time></trkpt><trkpt lat="40.725663" lon="14.8720122"><ele>461.0</ele><time>2026-03-29T06:56:19.028Z</time></trkpt><trkpt lat="40.7256956" lon="14.8721465"><ele>462.0</ele><time>2026-03-29T06:56:21.028Z</time></trkpt><trkpt lat="40.7256725" lon="14.8722905"><ele>463.0</ele><time>2026-03-29T06:56:22.961Z</time></trkpt><trkpt lat="40.7256532" lon="14.8723747"><ele>464.0</ele><time>2026-03-29T06:56:27.961Z</time></trkpt><trkpt lat="40.7255923" lon="14.872352"><ele>465.0</ele><time>2026-03-29T06:57:29.938Z</time></trkpt><trkpt lat="40.7255696" lon="14.8722571"><ele>465.0</ele><time>2026-03-29T06:58:16.955Z</time></trkpt><trkpt lat="40.7256335" lon="14.872272"><ele>465.0</ele><time>2026-03-29T06:58:37.953Z</time></trkpt><trkpt lat="40.725581" lon="14.8723359"><ele>465.0</ele><time>2026-03-29T07:03:29.944Z</time></trkpt><trkpt lat="40.7255699" lon="14.8722166"><ele>465.0</ele><time>2026-03-29T07:04:41.946Z</time></trkpt><trkpt lat="40.7255547" lon="14.8720588"><ele>465.0</ele><time>2026-03-29T07:04:43.946Z</time></trkpt><trkpt lat="40.7256298" lon="14.8720205"><ele>465.0</ele><time>2026-03-29T07:04:47.946Z</time></trkpt><trkpt lat="40.7256621" lon="14.8721342"><ele>465.0</ele><time>2026-03-29T07:04:49.945Z</time></trkpt><trkpt lat="40.7256889" lon="14.8722256"><ele>465.0</ele><time>2026-03-29T07:04:50.945Z</time></trkpt><trkpt lat="40.7257069" lon="14.872306"><ele>465.0</ele><time>2026-03-29T07:04:51.945Z</time></trkpt><trkpt lat="40.725722" lon="14.8725085"><ele>465.0</ele><time>2026-03-29T07:04:53.946Z</time></trkpt><trkpt lat="40.7257389" lon="14.8726671"><ele>465.0</ele><time>2026-03-29T07:04:54.945Z</time></trkpt><trkpt lat="40.7257648" lon="14.872844"><ele>464.5</ele><time>2026-03-29T07:04:55.95Z</time></trkpt><trkpt lat="40.7257965" lon="14.8730416"><ele>464.0</ele><time>2026-03-29T07:04:56.947Z</time></trkpt><trkpt lat="40.7258248" lon="14.8732134"><ele>463.5</ele><time>2026-03-29T07:04:57.944Z</time></trkpt><trkpt lat="40.7258512" lon="14.8733865"><ele>463.0</ele><time>2026-03-29T07:04:58.947Z</time></trkpt><trkpt lat="40.72587" lon="14.8735641"><ele>463.0</ele><time>2026-03-29T07:04:59.948Z</time></trkpt><trkpt lat="40.7258944" lon="14.8737436"><ele>463.0</ele><time>2026-03-29T07:05:00.948Z</time></trkpt><trkpt lat="40.7259264" lon="14.8739075"><ele>463.0</ele><time>2026-03-29T07:05:01.95Z</time></trkpt><trkpt lat="40.7259671" lon="14.8740689"><ele>463.0</ele><time>2026-03-29T07:05:02.956Z</time></trkpt><trkpt lat="40.726025" lon="14.8742266"><ele>466.25</ele><time>2026-03-29T07:05:03.949Z</time></trkpt><trkpt lat="40.7260918" lon="14.874367"><ele>469.5</ele><time>2026-03-29T07:05:04.948Z</time></trkpt><trkpt lat="40.7261725" lon="14.8745011"><ele>472.75</ele><time>2026-03-29T07:05:05.949Z</time></trkpt><trkpt lat="40.7262512" lon="14.8746187"><ele>476.0</ele><time>2026-03-29T07:05:06.949Z</time></trkpt><trkpt lat="40.726331" lon="14.8746926"><ele>475.99999999999994</ele><time>2026-03-29T07:05:07.954Z</time></trkpt><trkpt lat="40.7264165" lon="14.8747264"><ele>476.0</ele><time>2026-03-29T07:05:08.951Z</time></trkpt><trkpt lat="40.7264854" lon="14.87472"><ele>476.0</ele><time>2026-03-29T07:05:09.954Z</time></trkpt><trkpt lat="40.726553" lon="14.8746803"><ele>476.0</ele><time>2026-03-29T07:05:10.952Z</time></trkpt><trkpt lat="40.7266348" lon="14.8746414"><ele>475.99999999999994</ele><time>2026-03-29T07:05:11.954Z</time></trkpt><trkpt lat="40.7267291" lon="14.8745933"><ele>476.0</ele><time>2026-03-29T07:05:12.959Z</time></trkpt><trkpt lat="40.726825" lon="14.8745445"><ele>475.99999999999994</ele><time>2026-03-29T07:05:13.947Z</time></trkpt><trkpt lat="40.7268885" lon="14.8744738"><ele>476.0</ele><time>2026-03-29T07:05:14.944Z</time></trkpt><trkpt lat="40.7269469" lon="14.8745137"><ele>476.0</ele><time>2026-03-29T07:05:19.951Z</time></trkpt><trkpt lat="40.7268764" lon="14.8745477"><ele>476.0</ele><time>2026-03-29T07:05:23.951Z</time></trkpt><trkpt lat="40.7268275" lon="14.87443"><ele>475.99999999999994</ele><time>2026-03-29T07:05:26.948Z</time></trkpt><trkpt lat="40.7268188" lon="14.8743212"><ele>476.0</ele><time>2026-03-29T07:05:28.954Z</time></trkpt><trkpt lat="40.7268627" lon="14.8742417"><ele>481.4</ele><time>2026-03-29T07:05:31.95Z</time></trkpt><trkpt lat="40.7269479" lon="14.8741675"><ele>486.8</ele><time>2026-03-29T07:05:33.951Z</time></trkpt><trkpt lat="40.7270501" lon="14.8740598"><ele>492.19999999999993</ele><time>2026-03-29T07:05:35.95Z</time></trkpt><trkpt lat="40.7271239" lon="14.8739866"><ele>497.59999999999997</ele><time>2026-03-29T07:05:36.947Z</time></trkpt><trkpt lat="40.7272013" lon="14.8739059"><ele>503.0</ele><time>2026-03-29T07:05:37.953Z</time></trkpt><trkpt lat="40.7272887" lon="14.8738375"><ele>503.0</ele><time>2026-03-29T07:05:38.948Z</time></trkpt><trkpt lat="40.7273937" lon="14.8737694"><ele>503.0</ele><time>2026-03-29T07:05:39.946Z</time></trkpt><trkpt lat="40.7275034" lon="14.8736886"><ele>503.0</ele><time>2026-03-29T07:05:40.955Z</time></trkpt><trkpt lat="40.7275942" lon="14.8736299"><ele>503.0</ele><time>2026-03-29T07:05:41.946Z</time></trkpt><trkpt lat="40.7276968" lon="14.8735199"><ele>509.5</ele><time>2026-03-29T07:05:42.948Z</time></trkpt><trkpt lat="40.7278007" lon="14.8734078"><ele>516.0</ele><time>2026-03-29T07:05:43.943Z</time></trkpt><trkpt lat="40.7279072" lon="14.8732727"><ele>522.5</ele><time>2026-03-29T07:05:44.951Z</time></trkpt><trkpt lat="40.7280214" lon="14.8731341"><ele>529.0</ele><time>2026-03-29T07:05:45.947Z</time></trkpt><trkpt lat="40.7281126" lon="14.8729941"><ele>529.0</ele><time>2026-03-29T07:05:46.948Z</time></trkpt><trkpt lat="40.7282214" lon="14.8728528"><ele>529.0</ele><time>2026-03-29T07:05:47.949Z</time></trkpt><trkpt lat="40.7283123" lon="14.8727126"><ele>529.0</ele><time>2026-03-29T07:05:48.944Z</time></trkpt><trkpt lat="40.7284121" lon="14.872548"><ele>536.0</ele><time>2026-03-29T07:05:49.948Z</time></trkpt><trkpt lat="40.7285044" lon="14.8724128"><ele>543.0</ele><time>2026-03-29T07:05:50.944Z</time></trkpt><trkpt lat="40.728643" lon="14.8722961"><ele>550.0</ele><time>2026-03-29T07:05:51.949Z</time></trkpt><trkpt lat="40.7287646" lon="14.8721793"><ele>550.0</ele><time>2026-03-29T07:05:52.947Z</time></trkpt><trkpt lat="40.7288821" lon="14.8720757"><ele>550.0</ele><time>2026-03-29T07:05:53.943Z</time></trkpt><trkpt lat="40.7289735" lon="14.8719644"><ele>550.0</ele><time>2026-03-29T07:05:54.951Z</time></trkpt><trkpt lat="40.7290683" lon="14.8718295"><ele>550.0</ele><time>2026-03-29T07:05:55.944Z</time></trkpt><trkpt lat="40.7291617" lon="14.8717013"><ele>553.5</ele><time>2026-03-29T07:05:56.95Z</time></trkpt><trkpt lat="40.7292503" lon="14.8715725"><ele>557.0</ele><time>2026-03-29T07:05:57.945Z</time></trkpt><trkpt lat="40.7293503" lon="14.8714593"><ele>560.5</ele><time>2026-03-29T07:05:58.947Z</time></trkpt><trkpt lat="40.7294507" lon="14.8713405"><ele>564.0</ele><time>2026-03-29T07:05:59.951Z</time></trkpt><trkpt lat="40.7295662" lon="14.8712439"><ele>565.5</ele><time>2026-03-29T07:06:00.951Z</time></trkpt><trkpt lat="40.7296919" lon="14.8711701"><ele>567.0</ele><time>2026-03-29T07:06:01.954Z</time></trkpt><trkpt lat="40.7298151" lon="14.8710885"><ele>568.5</ele><time>2026-03-29T07:06:02.949Z</time></trkpt><trkpt lat="40.7299451" lon="14.8709983"><ele>570.0</ele><time>2026-03-29T07:06:03.949Z</time></trkpt><trkpt lat="40.7300722" lon="14.8709101"><ele>575.25</ele><time>2026-03-29T07:06:04.95Z</time></trkpt><trkpt lat="40.7301947" lon="14.870829"><ele>580.5</ele><time>2026-03-29T07:06:05.947Z</time></trkpt><trkpt lat="40.7303116" lon="14.8707694"><ele>585.75</ele><time>2026-03-29T07:06:06.952Z</time></trkpt><trkpt lat="40.7304212" lon="14.870731"><ele>591.0</ele><time>2026-03-29T07:06:07.949Z</time></trkpt><trkpt lat="40.7305293" lon="14.8706778"><ele>592.0</ele><time>2026-03-29T07:06:08.956Z</time></trkpt><trkpt lat="40.7306342" lon="14.8705847"><ele>593.0</ele><time>2026-03-29T07:06:09.95Z</time></trkpt><trkpt lat="40.7307585" lon="14.8704912"><ele>594.0</ele><time>2026-03-29T07:06:10.95Z</time></trkpt><trkpt lat="40.7308861" lon="14.8704218"><ele>595.0</ele><time>2026-03-29T07:06:11.943Z</time></trkpt><trkpt lat="40.7310199" lon="14.8703757"><ele>600.8</ele><time>2026-03-29T07:06:12.951Z</time></trkpt><trkpt lat="40.7311493" lon="14.8703443"><ele>606.6</ele><time>2026-03-29T07:06:13.946Z</time></trkpt><trkpt lat="40.7312654" lon="14.8703389"><ele>612.4</ele><time>2026-03-29T07:06:14.942Z</time></trkpt><trkpt lat="40.7313304" lon="14.8703357"><ele>618.2</ele><time>2026-03-29T07:06:15.95Z</time></trkpt><trkpt lat="40.7313156" lon="14.8704174"><ele>624.0</ele><time>2026-03-29T07:06:18.955Z</time></trkpt><trkpt lat="40.7312532" lon="14.8705088"><ele>624.0</ele><time>2026-03-29T07:06:20.955Z</time></trkpt><trkpt lat="40.7312247" lon="14.8705893"><ele>624.0</ele><time>2026-03-29T07:06:22.957Z</time></trkpt><trkpt lat="40.7311751" lon="14.8707632"><ele>624.0</ele><time>2026-03-29T07:06:24.951Z</time></trkpt><trkpt lat="40.731184" lon="14.8708626"><ele>624.0</ele><time>2026-03-29T07:06:25.95Z</time></trkpt><trkpt lat="40.7311937" lon="14.8709847"><ele>624.0</ele><time>2026-03-29T07:06:26.956Z</time></trkpt><trkpt lat="40.7311859" lon="14.8710822"><ele>624.4</ele><time>2026-03-29T07:06:27.948Z</time></trkpt><trkpt lat="40.7311806" lon="14.8711982"><ele>624.8</ele><time>2026-03-29T07:06:28.948Z</time></trkpt><trkpt lat="40.73116" lon="14.8713161"><ele>625.2</ele><time>2026-03-29T07:06:29.949Z</time></trkpt><trkpt lat="40.7311564" lon="14.8714764"><ele>625.6</ele><time>2026-03-29T07:06:30.949Z</time></trkpt><trkpt lat="40.7311704" lon="14.8716448"><ele>626.0</ele><time>2026-03-29T07:06:31.952Z</time></trkpt><trkpt lat="40.7312" lon="14.8718176"><ele>627.2</ele><time>2026-03-29T07:06:32.95Z</time></trkpt><trkpt lat="40.7312187" lon="14.8720134"><ele>628.4000000000001</ele><time>2026-03-29T07:06:33.951Z</time></trkpt><trkpt lat="40.7312078" lon="14.8721556"><ele>629.6</ele><time>2026-03-29T07:06:34.951Z</time></trkpt><trkpt lat="40.7312138" lon="14.8722496"><ele>630.8000000000001</ele><time>2026-03-29T07:06:35.954Z</time></trkpt><trkpt lat="40.7312781" lon="14.8722041"><ele>632.0</ele><time>2026-03-29T07:06:39.958Z</time></trkpt><trkpt lat="40.7313312" lon="14.8720502"><ele>632.0</ele><time>2026-03-29T07:06:40.948Z</time></trkpt><trkpt lat="40.7313764" lon="14.8718756"><ele>632.0</ele><time>2026-03-29T07:06:41.944Z</time></trkpt><trkpt lat="40.7314452" lon="14.8717284"><ele>632.0</ele><time>2026-03-29T07:06:42.958Z</time></trkpt><trkpt lat="40.7315031" lon="14.8715646"><ele>632.0</ele><time>2026-03-29T07:06:43.95Z</time></trkpt><trkpt lat="40.7315547" lon="14.8714235"><ele>632.0</ele><time>2026-03-29T07:06:44.954Z</time></trkpt><trkpt lat="40.731616" lon="14.8713126"><ele>632.0</ele><time>2026-03-29T07:06:45.946Z</time></trkpt><trkpt lat="40.7317867" lon="14.8712706"><ele>632.0</ele><time>2026-03-29T07:06:47.947Z</time></trkpt><trkpt lat="40.7319122" lon="14.8712739"><ele>632.0</ele><time>2026-03-29T07:06:48.954Z</time></trkpt><trkpt lat="40.7320352" lon="14.8712707"><ele>632.0</ele><time>2026-03-29T07:06:49.957Z</time></trkpt><trkpt lat="40.7321614" lon="14.871241"><ele>632.0</ele><time>2026-03-29T07:06:50.953Z</time></trkpt><trkpt lat="40.7322812" lon="14.8712061"><ele>632.0</ele><time>2026-03-29T07:06:51.956Z</time></trkpt><trkpt lat="40.7323947" lon="14.8711642"><ele>632.0</ele><time>2026-03-29T07:06:52.948Z</time></trkpt><trkpt lat="40.7324936" lon="14.8711214"><ele>632.0</ele><time>2026-03-29T07:06:53.946Z</time></trkpt><trkpt lat="40.7325967" lon="14.8710717"><ele>632.0</ele><time>2026-03-29T07:06:54.949Z</time></trkpt><trkpt lat="40.7326794" lon="14.8710206"><ele>632.0</ele><time>2026-03-29T07:06:55.948Z</time></trkpt><trkpt lat="40.7327414" lon="14.8709791"><ele>632.0</ele><time>2026-03-29T07:06:56.953Z</time></trkpt><trkpt lat="40.732798" lon="14.8709173"><ele>632.0</ele><time>2026-03-29T07:06:57.949Z</time></trkpt><trkpt lat="40.7328409" lon="14.870787"><ele>631.0</ele><time>2026-03-29T07:06:58.954Z</time></trkpt><trkpt lat="40.7328733" lon="14.8706545"><ele>630.0</ele><time>2026-03-29T07:06:59.953Z</time></trkpt><trkpt lat="40.7329181" lon="14.8705668"><ele>629.0</ele><time>2026-03-29T07:07:00.956Z</time></trkpt><trkpt lat="40.7330235" lon="14.8704902"><ele>628.0</ele><time>2026-03-29T07:07:02.954Z</time></trkpt><trkpt lat="40.7330771" lon="14.8704308"><ele>627.0</ele><time>2026-03-29T07:07:03.952Z</time></trkpt><trkpt lat="40.7331228" lon="14.8703295"><ele>627.0</ele><time>2026-03-29T07:07:04.949Z</time></trkpt><trkpt lat="40.7331704" lon="14.8702184"><ele>627.0</ele><time>2026-03-29T07:07:05.957Z</time></trkpt><trkpt lat="40.7332386" lon="14.8701563"><ele>627.0</ele><time>2026-03-29T07:07:07.953Z</time></trkpt><trkpt lat="40.7333022" lon="14.8701654"><ele>627.0</ele><time>2026-03-29T07:07:08.955Z</time></trkpt><trkpt lat="40.7333701" lon="14.8701695"><ele>627.0</ele><time>2026-03-29T07:07:09.95Z</time></trkpt><trkpt lat="40.7334939" lon="14.8701068"><ele>627.0</ele><time>2026-03-29T07:07:11.945Z</time></trkpt><trkpt lat="40.7335732" lon="14.8700554"><ele>633.4000000000001</ele><time>2026-03-29T07:07:12.952Z</time></trkpt><trkpt lat="40.7336626" lon="14.8699878"><ele>639.8000000000001</ele><time>2026-03-29T07:07:13.943Z</time></trkpt><trkpt lat="40.7337762" lon="14.869967"><ele>646.2</ele><time>2026-03-29T07:07:14.948Z</time></trkpt><trkpt lat="40.7338985" lon="14.8699628"><ele>652.6</ele><time>2026-03-29T07:07:15.945Z</time></trkpt><trkpt lat="40.7339781" lon="14.8699683"><ele>659.0</ele><time>2026-03-29T07:07:16.943Z</time></trkpt><trkpt lat="40.7340704" lon="14.8700296"><ele>654.6</ele><time>2026-03-29T07:07:18.947Z</time></trkpt><trkpt lat="40.7340931" lon="14.8701165"><ele>650.2</ele><time>2026-03-29T07:07:19.943Z</time></trkpt><trkpt lat="40.7341111" lon="14.8702391"><ele>645.8000000000001</ele><time>2026-03-29T07:07:20.942Z</time></trkpt><trkpt lat="40.7341357" lon="14.8703774"><ele>641.4000000000001</ele><time>2026-03-29T07:07:21.948Z</time></trkpt><trkpt lat="40.7341466" lon="14.8704812"><ele>637.0</ele><time>2026-03-29T07:07:22.953Z</time></trkpt><trkpt lat="40.7342378" lon="14.8706117"><ele>637.0</ele><time>2026-03-29T07:07:24.946Z</time></trkpt><trkpt lat="40.7343097" lon="14.8706766"><ele>637.0</ele><time>2026-03-29T07:07:25.954Z</time></trkpt><trkpt lat="40.7343789" lon="14.8707505"><ele>637.0</ele><time>2026-03-29T07:07:26.953Z</time></trkpt><trkpt lat="40.7344532" lon="14.8708208"><ele>637.0</ele><time>2026-03-29T07:07:27.949Z</time></trkpt><trkpt lat="40.7345334" lon="14.8708646"><ele>637.0</ele><time>2026-03-29T07:07:28.948Z</time></trkpt><trkpt lat="40.7346313" lon="14.8708863"><ele>636.4</ele><time>2026-03-29T07:07:29.943Z</time></trkpt><trkpt lat="40.7347316" lon="14.8708661"><ele>635.8000000000001</ele><time>2026-03-29T07:07:30.945Z</time></trkpt><trkpt lat="40.7348137" lon="14.8708265"><ele>635.2</ele><time>2026-03-29T07:07:31.95Z</time></trkpt><trkpt lat="40.7348821" lon="14.8707622"><ele>634.6</ele><time>2026-03-29T07:07:32.95Z</time></trkpt><trkpt lat="40.7349346" lon="14.8706715"><ele>634.0</ele><time>2026-03-29T07:07:33.953Z</time></trkpt><trkpt lat="40.7349827" lon="14.8705681"><ele>634.0</ele><time>2026-03-29T07:07:34.949Z</time></trkpt><trkpt lat="40.735007" lon="14.8704486"><ele>634.0</ele><time>2026-03-29T07:07:35.943Z</time></trkpt><trkpt lat="40.7350322" lon="14.8703281"><ele>634.0</ele><time>2026-03-29T07:07:36.947Z</time></trkpt><trkpt lat="40.7350772" lon="14.8702168"><ele>634.0</ele><time>2026-03-29T07:07:37.95Z</time></trkpt><trkpt lat="40.7351246" lon="14.870143"><ele>634.0</ele><time>2026-03-29T07:07:38.952Z</time></trkpt><trkpt lat="40.7351401" lon="14.869975"><ele>637.4</ele><time>2026-03-29T07:07:40.948Z</time></trkpt><trkpt lat="40.7351522" lon="14.8698753"><ele>640.8</ele><time>2026-03-29T07:07:41.947Z</time></trkpt><trkpt lat="40.73519" lon="14.8697985"><ele>644.1999999999999</ele><time>2026-03-29T07:07:43.949Z</time></trkpt><trkpt lat="40.7352665" lon="14.8696949"><ele>647.5999999999999</ele><time>2026-03-29T07:07:45.945Z</time></trkpt><trkpt lat="40.7353583" lon="14.8695906"><ele>651.0</ele><time>2026-03-29T07:07:47.941Z</time></trkpt><trkpt lat="40.7354206" lon="14.869482"><ele>649.1999999999999</ele><time>2026-03-29T07:07:48.944Z</time></trkpt><trkpt lat="40.7354882" lon="14.8693891"><ele>647.4</ele><time>2026-03-29T07:07:49.944Z</time></trkpt><trkpt lat="40.7355481" lon="14.8692718"><ele>645.6</ele><time>2026-03-29T07:07:50.948Z</time></trkpt><trkpt lat="40.735614" lon="14.8691744"><ele>643.8</ele><time>2026-03-29T07:07:51.947Z</time></trkpt><trkpt lat="40.7356701" lon="14.8691273"><ele>642.0</ele><time>2026-03-29T07:07:52.946Z</time></trkpt><trkpt lat="40.735758" lon="14.8691357"><ele>642.0</ele><time>2026-03-29T07:07:53.949Z</time></trkpt><trkpt lat="40.735824" lon="14.8691568"><ele>642.0</ele><time>2026-03-29T07:07:54.945Z</time></trkpt><trkpt lat="40.7359059" lon="14.8691482"><ele>642.0</ele><time>2026-03-29T07:07:55.95Z</time></trkpt><trkpt lat="40.7360474" lon="14.8691193"><ele>642.0</ele><time>2026-03-29T07:07:56.952Z</time></trkpt><trkpt lat="40.7361715" lon="14.8690923"><ele>642.0</ele><time>2026-03-29T07:07:57.951Z</time></trkpt><trkpt lat="40.7362611" lon="14.8690387"><ele>637.0</ele><time>2026-03-29T07:07:58.951Z</time></trkpt><trkpt lat="40.7363626" lon="14.8689194"><ele>632.0</ele><time>2026-03-29T07:08:00.947Z</time></trkpt><trkpt lat="40.7363884" lon="14.868805"><ele>627.0</ele><time>2026-03-29T07:08:01.948Z</time></trkpt><trkpt lat="40.7364081" lon="14.8686636"><ele>622.0</ele><time>2026-03-29T07:08:02.945Z</time></trkpt><trkpt lat="40.7364298" lon="14.8685282"><ele>617.0</ele><time>2026-03-29T07:08:03.944Z</time></trkpt><trkpt lat="40.7364248" lon="14.8684439"><ele>619.1666666666666</ele><time>2026-03-29T07:08:04.946Z</time></trkpt><trkpt lat="40.7363888" lon="14.8683728"><ele>621.3333333333333</ele><time>2026-03-29T07:08:05.943Z</time></trkpt><trkpt lat="40.7363776" lon="14.8682444"><ele>623.5</ele><time>2026-03-29T07:08:07.948Z</time></trkpt><trkpt lat="40.7363767" lon="14.8680809"><ele>625.6666666666666</ele><time>2026-03-29T07:08:09.941Z</time></trkpt><trkpt lat="40.7363973" lon="14.8680013"><ele>627.8333333333334</ele><time>2026-03-29T07:08:10.946Z</time></trkpt><trkpt lat="40.7364416" lon="14.8679203"><ele>630.0</ele><time>2026-03-29T07:08:11.95Z</time></trkpt><trkpt lat="40.7364854" lon="14.8678283"><ele>630.0</ele><time>2026-03-29T07:08:12.953Z</time></trkpt><trkpt lat="40.7365231" lon="14.8677577"><ele>630.0</ele><time>2026-03-29T07:08:13.948Z</time></trkpt><trkpt lat="40.736634" lon="14.8676864"><ele>630.0</ele><time>2026-03-29T07:08:15.952Z</time></trkpt><trkpt lat="40.7366912" lon="14.8676512"><ele>630.0</ele><time>2026-03-29T07:08:16.941Z</time></trkpt><trkpt lat="40.7367707" lon="14.8675853"><ele>630.0</ele><time>2026-03-29T07:08:17.952Z</time></trkpt><trkpt lat="40.7368353" lon="14.8675112"><ele>630.0</ele><time>2026-03-29T07:08:18.948Z</time></trkpt><trkpt lat="40.736867" lon="14.8674012"><ele>629.8</ele><time>2026-03-29T07:08:19.946Z</time></trkpt><trkpt lat="40.7368659" lon="14.8672847"><ele>629.6</ele><time>2026-03-29T07:08:20.952Z</time></trkpt><trkpt lat="40.7368612" lon="14.867201"><ele>629.4</ele><time>2026-03-29T07:08:21.948Z</time></trkpt><trkpt lat="40.7368836" lon="14.8670356"><ele>629.2</ele><time>2026-03-29T07:08:23.945Z</time></trkpt><trkpt lat="40.7369122" lon="14.8668921"><ele>629.0</ele><time>2026-03-29T07:08:24.952Z</time></trkpt><trkpt lat="40.736937" lon="14.8667719"><ele>629.0</ele><time>2026-03-29T07:08:25.951Z</time></trkpt><trkpt lat="40.7369744" lon="14.8666277"><ele>629.0</ele><time>2026-03-29T07:08:27.942Z</time></trkpt><trkpt lat="40.7370894" lon="14.8666086"><ele>629.0</ele><time>2026-03-29T07:08:29.943Z</time></trkpt><trkpt lat="40.7371825" lon="14.866585"><ele>629.0</ele><time>2026-03-29T07:08:30.948Z</time></trkpt><trkpt lat="40.7372676" lon="14.8665093"><ele>629.0</ele><time>2026-03-29T07:08:31.953Z</time></trkpt><trkpt lat="40.7373866" lon="14.8664031"><ele>629.0</ele><time>2026-03-29T07:08:32.947Z</time></trkpt><trkpt lat="40.7375055" lon="14.8663192"><ele>629.0</ele><time>2026-03-29T07:08:33.943Z</time></trkpt><trkpt lat="40.7376088" lon="14.8662318"><ele>629.0</ele><time>2026-03-29T07:08:34.952Z</time></trkpt><trkpt lat="40.7376983" lon="14.8661415"><ele>629.0</ele><time>2026-03-29T07:08:35.946Z</time></trkpt><trkpt lat="40.7377906" lon="14.8660485"><ele>629.4</ele><time>2026-03-29T07:08:36.951Z</time></trkpt><trkpt lat="40.7378964" lon="14.865947"><ele>629.8</ele><time>2026-03-29T07:08:37.947Z</time></trkpt><trkpt lat="40.7379754" lon="14.8658804"><ele>630.2</ele><time>2026-03-29T07:08:38.941Z</time></trkpt><trkpt lat="40.7380474" lon="14.8658264"><ele>630.6</ele><time>2026-03-29T07:08:39.942Z</time></trkpt><trkpt lat="40.738108" lon="14.8657517"><ele>631.0</ele><time>2026-03-29T07:08:40.949Z</time></trkpt><trkpt lat="40.7381461" lon="14.8656597"><ele>631.0</ele><time>2026-03-29T07:08:41.942Z</time></trkpt><trkpt lat="40.7382041" lon="14.8655758"><ele>631.0</ele><time>2026-03-29T07:08:42.951Z</time></trkpt><trkpt lat="40.7382653" lon="14.8655161"><ele>631.0</ele><time>2026-03-29T07:08:43.946Z</time></trkpt><trkpt lat="40.7383399" lon="14.8654831"><ele>631.0</ele><time>2026-03-29T07:08:45.947Z</time></trkpt><trkpt lat="40.7384457" lon="14.8654351"><ele>631.0</ele><time>2026-03-29T07:08:47.941Z</time></trkpt><trkpt lat="40.7385078" lon="14.8653539"><ele>631.0</ele><time>2026-03-29T07:08:50.948Z</time></trkpt><trkpt lat="40.7385572" lon="14.8652773"><ele>631.2</ele><time>2026-03-29T07:08:52.946Z</time></trkpt><trkpt lat="40.7386144" lon="14.8651932"><ele>631.4000000000001</ele><time>2026-03-29T07:08:55.948Z</time></trkpt><trkpt lat="40.7386737" lon="14.8651647"><ele>631.6</ele><time>2026-03-29T07:09:00.951Z</time></trkpt><trkpt lat="40.7387906" lon="14.8652668"><ele>631.8000000000001</ele><time>2026-03-29T07:09:02.953Z</time></trkpt><trkpt lat="40.7388712" lon="14.8653045"><ele>632.0</ele><time>2026-03-29T07:09:03.949Z</time></trkpt><trkpt lat="40.7389495" lon="14.8652905"><ele>632.0</ele><time>2026-03-29T07:09:05.018Z</time></trkpt><trkpt lat="40.7390365" lon="14.8652307"><ele>632.0</ele><time>2026-03-29T07:09:05.95Z</time></trkpt><trkpt lat="40.7391116" lon="14.8651908"><ele>632.0</ele><time>2026-03-29T07:09:06.949Z</time></trkpt><trkpt lat="40.7391863" lon="14.8651276"><ele>632.0</ele><time>2026-03-29T07:09:07.949Z</time></trkpt><trkpt lat="40.7392726" lon="14.8650594"><ele>632.0</ele><time>2026-03-29T07:09:10.02Z</time></trkpt><trkpt lat="40.739319" lon="14.8649447"><ele>644.8</ele><time>2026-03-29T07:09:14.943Z</time></trkpt><trkpt lat="40.7393853" lon="14.8648791"><ele>657.6</ele><time>2026-03-29T07:09:16.947Z</time></trkpt><trkpt lat="40.7394479" lon="14.8648294"><ele>670.4</ele><time>2026-03-29T07:09:17.946Z</time></trkpt><trkpt lat="40.739577" lon="14.8648388"><ele>683.1999999999999</ele><time>2026-03-29T07:09:19.943Z</time></trkpt><trkpt lat="40.7396611" lon="14.8648362"><ele>696.0</ele><time>2026-03-29T07:09:20.94Z</time></trkpt><trkpt lat="40.7397718" lon="14.8648458"><ele>696.0</ele><time>2026-03-29T07:09:21.948Z</time></trkpt><trkpt lat="40.7398814" lon="14.8648418"><ele>696.0</ele><time>2026-03-29T07:09:22.94Z</time></trkpt><trkpt lat="40.739952" lon="14.864816"><ele>696.0</ele><time>2026-03-29T07:09:23.94Z</time></trkpt><trkpt lat="40.7400255" lon="14.8647727"><ele>696.0</ele><time>2026-03-29T07:09:24.945Z</time></trkpt><trkpt lat="40.7400962" lon="14.8647014"><ele>696.0</ele><time>2026-03-29T07:09:25.935Z</time></trkpt><trkpt lat="40.7401394" lon="14.864592"><ele>696.0</ele><time>2026-03-29T07:09:26.935Z</time></trkpt><trkpt lat="40.7401894" lon="14.8645094"><ele>696.0</ele><time>2026-03-29T07:09:27.94Z</time></trkpt><trkpt lat="40.7402156" lon="14.8643771"><ele>696.0</ele><time>2026-03-29T07:09:29.941Z</time></trkpt><trkpt lat="40.7402143" lon="14.8642409"><ele>696.0</ele><time>2026-03-29T07:09:30.943Z</time></trkpt><trkpt lat="40.7402075" lon="14.8641139"><ele>696.0</ele><time>2026-03-29T07:09:31.946Z</time></trkpt><trkpt lat="40.7402301" lon="14.8640223"><ele>696.0</ele><time>2026-03-29T07:09:32.943Z</time></trkpt><trkpt lat="40.7403026" lon="14.8639845"><ele>695.5</ele><time>2026-03-29T07:09:34.949Z</time></trkpt><trkpt lat="40.7404279" lon="14.8639489"><ele>695.0</ele><time>2026-03-29T07:09:36.942Z</time></trkpt><trkpt lat="40.7405436" lon="14.8639171"><ele>694.5</ele><time>2026-03-29T07:09:37.944Z</time></trkpt><trkpt lat="40.7406543" lon="14.8638871"><ele>694.0</ele><time>2026-03-29T07:09:38.942Z</time></trkpt><trkpt lat="40.7407534" lon="14.8638666"><ele>694.0</ele><time>2026-03-29T07:09:39.94Z</time></trkpt><trkpt lat="40.7408293" lon="14.8638547"><ele>694.0</ele><time>2026-03-29T07:09:40.942Z</time></trkpt><trkpt lat="40.7409159" lon="14.863838"><ele>694.0</ele><time>2026-03-29T07:09:41.94Z</time></trkpt><trkpt lat="40.7409999" lon="14.8638151"><ele>694.0</ele><time>2026-03-29T07:09:42.938Z</time></trkpt><trkpt lat="40.7410756" lon="14.8637715"><ele>694.0</ele><time>2026-03-29T07:09:43.94Z</time></trkpt><trkpt lat="40.7411442" lon="14.8637033"><ele>694.0</ele><time>2026-03-29T07:09:44.947Z</time></trkpt><trkpt lat="40.7412239" lon="14.8636151"><ele>690.6</ele><time>2026-03-29T07:09:45.946Z</time></trkpt><trkpt lat="40.7412943" lon="14.86351"><ele>687.2</ele><time>2026-03-29T07:09:46.945Z</time></trkpt><trkpt lat="40.7413593" lon="14.8634178"><ele>683.8000000000001</ele><time>2026-03-29T07:09:47.939Z</time></trkpt><trkpt lat="40.7414092" lon="14.8633297"><ele>680.4000000000001</ele><time>2026-03-29T07:09:48.944Z</time></trkpt><trkpt lat="40.7414289" lon="14.8632032"><ele>677.0</ele><time>2026-03-29T07:09:50.947Z</time></trkpt><trkpt lat="40.7414037" lon="14.8630862"><ele>677.0</ele><time>2026-03-29T07:09:52.946Z</time></trkpt><trkpt lat="40.7413378" lon="14.8629593"><ele>677.0</ele><time>2026-03-29T07:09:54.948Z</time></trkpt><trkpt lat="40.7412959" lon="14.8628778"><ele>677.0</ele><time>2026-03-29T07:09:55.943Z</time></trkpt><trkpt lat="40.7412489" lon="14.8628176"><ele>677.0</ele><time>2026-03-29T07:09:56.946Z</time></trkpt><trkpt lat="40.7412076" lon="14.8627515"><ele>677.0</ele><time>2026-03-29T07:09:57.942Z</time></trkpt><trkpt lat="40.7411734" lon="14.8626767"><ele>677.0</ele><time>2026-03-29T07:10:00.952Z</time></trkpt><trkpt lat="40.7412296" lon="14.8625956"><ele>676.5</ele><time>2026-03-29T07:10:02.951Z</time></trkpt><trkpt lat="40.7413048" lon="14.8625143"><ele>676.0</ele><time>2026-03-29T07:10:03.945Z</time></trkpt><trkpt lat="40.741401" lon="14.8624203"><ele>675.5</ele><time>2026-03-29T07:10:04.949Z</time></trkpt><trkpt lat="40.7415204" lon="14.8623734"><ele>675.0</ele><time>2026-03-29T07:10:05.946Z</time></trkpt><trkpt lat="40.7416254" lon="14.8623279"><ele>675.0</ele><time>2026-03-29T07:10:06.948Z</time></trkpt><trkpt lat="40.7416811" lon="14.8622875"><ele>675.0</ele><time>2026-03-29T07:10:07.946Z</time></trkpt><trkpt lat="40.7417094" lon="14.8622003"><ele>675.0</ele><time>2026-03-29T07:10:08.942Z</time></trkpt><trkpt lat="40.7417343" lon="14.8620153"><ele>675.0</ele><time>2026-03-29T07:10:10.942Z</time></trkpt><trkpt lat="40.7417688" lon="14.8619255"><ele>675.0</ele><time>2026-03-29T07:10:11.947Z</time></trkpt><trkpt lat="40.7418229" lon="14.8618213"><ele>677.1666666666666</ele><time>2026-03-29T07:10:12.944Z</time></trkpt><trkpt lat="40.7418595" lon="14.861753"><ele>679.3333333333334</ele><time>2026-03-29T07:10:13.948Z</time></trkpt><trkpt lat="40.741887" lon="14.8615987"><ele>681.5</ele><time>2026-03-29T07:10:15.946Z</time></trkpt><trkpt lat="40.741893" lon="14.861508"><ele>683.6666666666667</ele><time>2026-03-29T07:10:16.949Z</time></trkpt><trkpt lat="40.7418932" lon="14.8613968"><ele>685.8333333333334</ele><time>2026-03-29T07:10:17.948Z</time></trkpt><trkpt lat="40.7418649" lon="14.8612826"><ele>688.0</ele><time>2026-03-29T07:10:18.946Z</time></trkpt><trkpt lat="40.7418256" lon="14.8611862"><ele>688.0</ele><time>2026-03-29T07:10:19.946Z</time></trkpt><trkpt lat="40.7417804" lon="14.8610957"><ele>688.0</ele><time>2026-03-29T07:10:20.948Z</time></trkpt><trkpt lat="40.7417357" lon="14.8609922"><ele>688.0</ele><time>2026-03-29T07:10:21.941Z</time></trkpt><trkpt lat="40.7416758" lon="14.8609355"><ele>688.0</ele><time>2026-03-29T07:10:22.946Z</time></trkpt><trkpt lat="40.7416423" lon="14.8608303"><ele>688.0</ele><time>2026-03-29T07:10:25.945Z</time></trkpt><trkpt lat="40.7416913" lon="14.860765"><ele>688.0</ele><time>2026-03-29T07:10:26.948Z</time></trkpt><trkpt lat="40.7417788" lon="14.8607494"><ele>689.4</ele><time>2026-03-29T07:10:27.946Z</time></trkpt><trkpt lat="40.7418773" lon="14.8607457"><ele>690.8</ele><time>2026-03-29T07:10:28.948Z</time></trkpt><trkpt lat="40.7419916" lon="14.8607539"><ele>692.2</ele><time>2026-03-29T07:10:29.952Z</time></trkpt><trkpt lat="40.7421005" lon="14.8607489"><ele>693.6</ele><time>2026-03-29T07:10:30.943Z</time></trkpt><trkpt lat="40.7422186" lon="14.86076"><ele>695.0</ele><time>2026-03-29T07:10:31.941Z</time></trkpt><trkpt lat="40.7423246" lon="14.860813"><ele>691.6</ele><time>2026-03-29T07:10:32.944Z</time></trkpt><trkpt lat="40.7424239" lon="14.8608661"><ele>688.2</ele><time>2026-03-29T07:10:33.942Z</time></trkpt><trkpt lat="40.74251" lon="14.8609239"><ele>684.8</ele><time>2026-03-29T07:10:34.945Z</time></trkpt><trkpt lat="40.742592" lon="14.8610023"><ele>681.4</ele><time>2026-03-29T07:10:35.951Z</time></trkpt><trkpt lat="40.7426688" lon="14.8610302"><ele>678.0</ele><time>2026-03-29T07:10:36.949Z</time></trkpt><trkpt lat="40.7427557" lon="14.861066"><ele>677.0</ele><time>2026-03-29T07:10:37.947Z</time></trkpt><trkpt lat="40.7428507" lon="14.8611294"><ele>676.0</ele><time>2026-03-29T07:10:38.946Z</time></trkpt><trkpt lat="40.7429377" lon="14.8611296"><ele>675.0</ele><time>2026-03-29T07:10:40.946Z</time></trkpt><trkpt lat="40.7429994" lon="14.8610602"><ele>674.0</ele><time>2026-03-29T07:10:42.948Z</time></trkpt><trkpt lat="40.7430299" lon="14.8609686"><ele>673.0</ele><time>2026-03-29T07:10:43.948Z</time></trkpt><trkpt lat="40.7430626" lon="14.86089"><ele>672.0</ele><time>2026-03-29T07:10:44.953Z</time></trkpt><trkpt lat="40.7430969" lon="14.8607958"><ele>672.0</ele><time>2026-03-29T07:10:45.945Z</time></trkpt><trkpt lat="40.7431544" lon="14.8606447"><ele>672.0</ele><time>2026-03-29T07:10:46.953Z</time></trkpt><trkpt lat="40.7431952" lon="14.8604947"><ele>672.0</ele><time>2026-03-29T07:10:47.949Z</time></trkpt><trkpt lat="40.7432433" lon="14.860379"><ele>672.0</ele><time>2026-03-29T07:10:48.944Z</time></trkpt><trkpt lat="40.7432689" lon="14.8602898"><ele>672.0</ele><time>2026-03-29T07:10:49.948Z</time></trkpt><trkpt lat="40.7432756" lon="14.8601769"><ele>673.0</ele><time>2026-03-29T07:10:52.019Z</time></trkpt><trkpt lat="40.7432139" lon="14.8600683"><ele>674.0</ele><time>2026-03-29T07:10:53.949Z</time></trkpt><trkpt lat="40.7431716" lon="14.8599725"><ele>675.0</ele><time>2026-03-29T07:10:54.947Z</time></trkpt><trkpt lat="40.7431441" lon="14.8598658"><ele>676.0</ele><time>2026-03-29T07:10:55.945Z</time></trkpt><trkpt lat="40.7431196" lon="14.8597617"><ele>677.0</ele><time>2026-03-29T07:10:57.017Z</time></trkpt><trkpt lat="40.7430901" lon="14.8596783"><ele>678.0</ele><time>2026-03-29T07:10:57.948Z</time></trkpt><trkpt lat="40.7430627" lon="14.8595572"><ele>678.0</ele><time>2026-03-29T07:10:59.946Z</time></trkpt><trkpt lat="40.7430005" lon="14.8595129"><ele>678.0</ele><time>2026-03-29T07:11:00.956Z</time></trkpt><trkpt lat="40.7429411" lon="14.859472"><ele>678.0</ele><time>2026-03-29T07:11:01.951Z</time></trkpt><trkpt lat="40.7428473" lon="14.8593659"><ele>678.0</ele><time>2026-03-29T07:11:03.949Z</time></trkpt><trkpt lat="40.7428204" lon="14.8592712"><ele>678.0</ele><time>2026-03-29T07:11:04.944Z</time></trkpt><trkpt lat="40.7428007" lon="14.8591532"><ele>678.0</ele><time>2026-03-29T07:11:05.947Z</time></trkpt><trkpt lat="40.7427528" lon="14.8590371"><ele>684.3333333333334</ele><time>2026-03-29T07:11:06.947Z</time></trkpt><trkpt lat="40.7426846" lon="14.8589728"><ele>690.6666666666666</ele><time>2026-03-29T07:11:07.944Z</time></trkpt><trkpt lat="40.7426108" lon="14.8588981"><ele>697.0</ele><time>2026-03-29T07:11:08.94Z</time></trkpt><trkpt lat="40.7425224" lon="14.8587745"><ele>703.3333333333333</ele><time>2026-03-29T07:11:10.947Z</time></trkpt><trkpt lat="40.7424696" lon="14.8587011"><ele>709.6666666666666</ele><time>2026-03-29T07:11:11.949Z</time></trkpt><trkpt lat="40.7424251" lon="14.8586392"><ele>716.0</ele><time>2026-03-29T07:11:12.948Z</time></trkpt><trkpt lat="40.7423954" lon="14.8585633"><ele>716.0</ele><time>2026-03-29T07:11:13.941Z</time></trkpt><trkpt lat="40.742369" lon="14.8584833"><ele>716.0</ele><time>2026-03-29T07:11:14.948Z</time></trkpt><trkpt lat="40.7423734" lon="14.8583956"><ele>716.0</ele><time>2026-03-29T07:11:17.95Z</time></trkpt><trkpt lat="40.7424657" lon="14.8583268"><ele>716.0</ele><time>2026-03-29T07:11:19.941Z</time></trkpt><trkpt lat="40.7425503" lon="14.8582952"><ele>716.0</ele><time>2026-03-29T07:11:20.949Z</time></trkpt><trkpt lat="40.7426487" lon="14.8582403"><ele>716.0</ele><time>2026-03-29T07:11:21.947Z</time></trkpt><trkpt lat="40.7427372" lon="14.8581947"><ele>709.6666666666666</ele><time>2026-03-29T07:11:22.949Z</time></trkpt><trkpt lat="40.7428134" lon="14.8581475"><ele>703.3333333333333</ele><time>2026-03-29T07:11:23.945Z</time></trkpt><trkpt lat="40.7428576" lon="14.858075"><ele>697.0</ele><time>2026-03-29T07:11:24.947Z</time></trkpt><trkpt lat="40.7428912" lon="14.8579954"><ele>690.6666666666666</ele><time>2026-03-29T07:11:25.946Z</time></trkpt><trkpt lat="40.742881" lon="14.8578705"><ele>684.3333333333334</ele><time>2026-03-29T07:11:27.943Z</time></trkpt><trkpt lat="40.7428582" lon="14.8577509"><ele>678.0</ele><time>2026-03-29T07:11:30.952Z</time></trkpt><trkpt lat="40.7428671" lon="14.8576591"><ele>680.1428571428571</ele><time>2026-03-29T07:11:34.945Z</time></trkpt><trkpt lat="40.7429043" lon="14.8575772"><ele>682.2857142857143</ele><time>2026-03-29T07:11:42.949Z</time></trkpt><trkpt lat="40.7429514" lon="14.8575062"><ele>684.4285714285714</ele><time>2026-03-29T07:11:48.951Z</time></trkpt><trkpt lat="40.7430247" lon="14.8574886"><ele>686.5714285714286</ele><time>2026-03-29T07:11:54.941Z</time></trkpt><trkpt lat="40.7430885" lon="14.8575054"><ele>688.7142857142858</ele><time>2026-03-29T07:11:56.945Z</time></trkpt><trkpt lat="40.7431635" lon="14.8575101"><ele>690.8571428571429</ele><time>2026-03-29T07:11:59.949Z</time></trkpt><trkpt lat="40.7432288" lon="14.8575124"><ele>693.0</ele><time>2026-03-29T07:12:05.945Z</time></trkpt><trkpt lat="40.7432768" lon="14.8575806"><ele>693.0</ele><time>2026-03-29T07:12:10.949Z</time></trkpt><trkpt lat="40.743335" lon="14.8576144"><ele>693.0</ele><time>2026-03-29T07:12:13.944Z</time></trkpt><trkpt lat="40.7434632" lon="14.8576114"><ele>693.0</ele><time>2026-03-29T07:12:16.018Z</time></trkpt><trkpt lat="40.7435541" lon="14.8575969"><ele>693.0</ele><time>2026-03-29T07:12:17.021Z</time></trkpt><trkpt lat="40.7436293" lon="14.8575555"><ele>693.0</ele><time>2026-03-29T07:12:17.941Z</time></trkpt><trkpt lat="40.7436894" lon="14.8575192"><ele>693.0</ele><time>2026-03-29T07:12:18.941Z</time></trkpt><trkpt lat="40.7437448" lon="14.8574685"><ele>691.4</ele><time>2026-03-29T07:12:19.943Z</time></trkpt><trkpt lat="40.7438066" lon="14.857405"><ele>689.8</ele><time>2026-03-29T07:12:20.943Z</time></trkpt><trkpt lat="40.7438936" lon="14.8573933"><ele>688.2</ele><time>2026-03-29T07:12:22.945Z</time></trkpt><trkpt lat="40.7439755" lon="14.8575001"><ele>686.6</ele><time>2026-03-29T07:12:24.942Z</time></trkpt><trkpt lat="40.7440494" lon="14.8575704"><ele>685.0</ele><time>2026-03-29T07:12:25.938Z</time></trkpt><trkpt lat="40.7441285" lon="14.8576476"><ele>680.8333333333334</ele><time>2026-03-29T07:12:26.947Z</time></trkpt><trkpt lat="40.744167" lon="14.8577208"><ele>676.6666666666667</ele><time>2026-03-29T07:12:27.945Z</time></trkpt><trkpt lat="40.7442017" lon="14.8578411"><ele>672.5</ele><time>2026-03-29T07:12:28.95Z</time></trkpt><trkpt lat="40.7442434" lon="14.8579467"><ele>668.3333333333334</ele><time>2026-03-29T07:12:29.941Z</time></trkpt><trkpt lat="40.7443532" lon="14.8580355"><ele>664.1666666666666</ele><time>2026-03-29T07:12:31.942Z</time></trkpt><trkpt lat="40.7444052" lon="14.8580854"><ele>660.0</ele><time>2026-03-29T07:12:32.952Z</time></trkpt><trkpt lat="40.7444775" lon="14.8581231"><ele>659.8</ele><time>2026-03-29T07:12:33.943Z</time></trkpt><trkpt lat="40.7445695" lon="14.8581584"><ele>659.6</ele><time>2026-03-29T07:12:34.948Z</time></trkpt><trkpt lat="40.7446649" lon="14.8581916"><ele>659.4000000000001</ele><time>2026-03-29T07:12:35.94Z</time></trkpt><trkpt lat="40.7447521" lon="14.8582535"><ele>659.2</ele><time>2026-03-29T07:12:36.947Z</time></trkpt><trkpt lat="40.7448327" lon="14.8583301"><ele>659.0</ele><time>2026-03-29T07:12:37.954Z</time></trkpt><trkpt lat="40.7449073" lon="14.8583889"><ele>659.0</ele><time>2026-03-29T07:12:38.947Z</time></trkpt><trkpt lat="40.744969" lon="14.8584503"><ele>659.0</ele><time>2026-03-29T07:12:39.951Z</time></trkpt><trkpt lat="40.7450598" lon="14.8585608"><ele>659.0</ele><time>2026-03-29T07:12:41.946Z</time></trkpt><trkpt lat="40.7451172" lon="14.8586319"><ele>659.0</ele><time>2026-03-29T07:12:42.942Z</time></trkpt><trkpt lat="40.7451728" lon="14.8587003"><ele>659.0</ele><time>2026-03-29T07:12:43.944Z</time></trkpt><trkpt lat="40.74522" lon="14.8587559"><ele>659.0</ele><time>2026-03-29T07:12:44.948Z</time></trkpt><trkpt lat="40.7453297" lon="14.8588371"><ele>653.6</ele><time>2026-03-29T07:12:47.021Z</time></trkpt><trkpt lat="40.7454208" lon="14.8588461"><ele>648.2</ele><time>2026-03-29T07:12:48.95Z</time></trkpt><trkpt lat="40.7454993" lon="14.8588189"><ele>642.8000000000001</ele><time>2026-03-29T07:12:50.944Z</time></trkpt><trkpt lat="40.745636" lon="14.858841"><ele>637.4000000000001</ele><time>2026-03-29T07:12:52.945Z</time></trkpt><trkpt lat="40.7457016" lon="14.8588683"><ele>632.0</ele><time>2026-03-29T07:12:53.948Z</time></trkpt><trkpt lat="40.7457702" lon="14.858903"><ele>632.0</ele><time>2026-03-29T07:12:54.95Z</time></trkpt><trkpt lat="40.7458907" lon="14.8589655"><ele>632.0</ele><time>2026-03-29T07:12:56.943Z</time></trkpt><trkpt lat="40.7459444" lon="14.8590203"><ele>632.0</ele><time>2026-03-29T07:12:57.95Z</time></trkpt><trkpt lat="40.7459991" lon="14.8590981"><ele>632.0</ele><time>2026-03-29T07:12:58.948Z</time></trkpt><trkpt lat="40.7460631" lon="14.8591964"><ele>632.0</ele><time>2026-03-29T07:12:59.98Z</time></trkpt><trkpt lat="40.7461223" lon="14.8592993"><ele>628.3333333333333</ele><time>2026-03-29T07:13:00.946Z</time></trkpt><trkpt lat="40.7461798" lon="14.8593976"><ele>624.6666666666666</ele><time>2026-03-29T07:13:02.012Z</time></trkpt><trkpt lat="40.7462325" lon="14.8594938"><ele>621.0</ele><time>2026-03-29T07:13:02.946Z</time></trkpt><trkpt lat="40.7462874" lon="14.8595943"><ele>617.3333333333334</ele><time>2026-03-29T07:13:03.946Z</time></trkpt><trkpt lat="40.7463307" lon="14.859671"><ele>613.6666666666667</ele><time>2026-03-29T07:13:04.948Z</time></trkpt><trkpt lat="40.7463926" lon="14.8597353"><ele>610.0</ele><time>2026-03-29T07:13:06.945Z</time></trkpt><trkpt lat="40.7464931" lon="14.859764"><ele>610.0</ele><time>2026-03-29T07:13:08.947Z</time></trkpt><trkpt lat="40.7465541" lon="14.8597988"><ele>610.0</ele><time>2026-03-29T07:13:09.955Z</time></trkpt><trkpt lat="40.7466391" lon="14.8598655"><ele>610.0</ele><time>2026-03-29T07:13:11.947Z</time></trkpt><trkpt lat="40.7467219" lon="14.8599363"><ele>610.0</ele><time>2026-03-29T07:13:13.947Z</time></trkpt><trkpt lat="40.7468004" lon="14.8599354"><ele>610.0</ele><time>2026-03-29T07:13:14.949Z</time></trkpt><trkpt lat="40.7468878" lon="14.8599411"><ele>610.0</ele><time>2026-03-29T07:13:15.946Z</time></trkpt><trkpt lat="40.7469722" lon="14.8599693"><ele>604.4</ele><time>2026-03-29T07:13:16.947Z</time></trkpt><trkpt lat="40.7470439" lon="14.8599905"><ele>598.8</ele><time>2026-03-29T07:13:17.944Z</time></trkpt><trkpt lat="40.7471339" lon="14.8600694"><ele>593.2</ele><time>2026-03-29T07:13:19.949Z</time></trkpt><trkpt lat="40.7471828" lon="14.8601408"><ele>587.6</ele><time>2026-03-29T07:13:21.947Z</time></trkpt><trkpt lat="40.747168" lon="14.8602714"><ele>582.0</ele><time>2026-03-29T07:13:24.946Z</time></trkpt><trkpt lat="40.7471437" lon="14.8604382"><ele>582.0</ele><time>2026-03-29T07:13:26.94Z</time></trkpt><trkpt lat="40.7471214" lon="14.8605268"><ele>582.0</ele><time>2026-03-29T07:13:27.947Z</time></trkpt><trkpt lat="40.747098" lon="14.8606219"><ele>582.0</ele><time>2026-03-29T07:13:28.949Z</time></trkpt><trkpt lat="40.7470779" lon="14.8607081"><ele>582.0</ele><time>2026-03-29T07:13:29.94Z</time></trkpt><trkpt lat="40.7470603" lon="14.8608155"><ele>582.0</ele><time>2026-03-29T07:13:30.949Z</time></trkpt><trkpt lat="40.7470409" lon="14.860947"><ele>582.0</ele><time>2026-03-29T07:13:31.944Z</time></trkpt><trkpt lat="40.7470286" lon="14.8610858"><ele>580.4</ele><time>2026-03-29T07:13:32.946Z</time></trkpt><trkpt lat="40.7470216" lon="14.8611755"><ele>578.8000000000001</ele><time>2026-03-29T07:13:33.939Z</time></trkpt><trkpt lat="40.7469868" lon="14.86131"><ele>577.2</ele><time>2026-03-29T07:13:35.943Z</time></trkpt><trkpt lat="40.7469538" lon="14.8614819"><ele>575.6</ele><time>2026-03-29T07:13:37.95Z</time></trkpt><trkpt lat="40.7469365" lon="14.861565"><ele>574.0</ele><time>2026-03-29T07:13:38.947Z</time></trkpt><trkpt lat="40.7469008" lon="14.86169"><ele>572.8</ele><time>2026-03-29T07:13:40.944Z</time></trkpt><trkpt lat="40.7468639" lon="14.8618101"><ele>571.5999999999999</ele><time>2026-03-29T07:13:42.946Z</time></trkpt><trkpt lat="40.7468178" lon="14.8618862"><ele>570.4</ele><time>2026-03-29T07:13:44.947Z</time></trkpt><trkpt lat="40.7468828" lon="14.861973"><ele>569.1999999999999</ele><time>2026-03-29T07:13:47.023Z</time></trkpt><trkpt lat="40.7469951" lon="14.8620331"><ele>568.0</ele><time>2026-03-29T07:13:48.946Z</time></trkpt><trkpt lat="40.747058" lon="14.8620987"><ele>567.6666666666667</ele><time>2026-03-29T07:13:49.941Z</time></trkpt><trkpt lat="40.7471286" lon="14.862172"><ele>567.3333333333334</ele><time>2026-03-29T07:13:50.948Z</time></trkpt><trkpt lat="40.7472091" lon="14.8622207"><ele>567.0</ele><time>2026-03-29T07:13:51.94Z</time></trkpt><trkpt lat="40.7473047" lon="14.8622763"><ele>566.6666666666666</ele><time>2026-03-29T07:13:54.021Z</time></trkpt><trkpt lat="40.7473521" lon="14.8623464"><ele>566.3333333333333</ele><time>2026-03-29T07:13:55.946Z</time></trkpt><trkpt lat="40.7473294" lon="14.8624359"><ele>566.0</ele><time>2026-03-29T07:13:56.947Z</time></trkpt><trkpt lat="40.7472947" lon="14.8625285"><ele>563.1666666666666</ele><time>2026-03-29T07:13:57.939Z</time></trkpt><trkpt lat="40.7472581" lon="14.8626205"><ele>560.3333333333333</ele><time>2026-03-29T07:13:58.94Z</time></trkpt><trkpt lat="40.7472245" lon="14.8627057"><ele>557.5</ele><time>2026-03-29T07:13:59.938Z</time></trkpt><trkpt lat="40.7471911" lon="14.8627779"><ele>554.6666666666666</ele><time>2026-03-29T07:14:00.943Z</time></trkpt><trkpt lat="40.7471386" lon="14.8628965"><ele>551.8333333333334</ele><time>2026-03-29T07:14:02.943Z</time></trkpt><trkpt lat="40.747132" lon="14.8629815"><ele>549.0</ele><time>2026-03-29T07:14:03.944Z</time></trkpt><trkpt lat="40.7471497" lon="14.8630906"><ele>549.0</ele><time>2026-03-29T07:14:05.942Z</time></trkpt><trkpt lat="40.7472818" lon="14.8631746"><ele>549.0</ele><time>2026-03-29T07:14:07.947Z</time></trkpt><trkpt lat="40.7473538" lon="14.863187"><ele>549.0</ele><time>2026-03-29T07:14:08.953Z</time></trkpt><trkpt lat="40.7474051" lon="14.863236"><ele>549.0</ele><time>2026-03-29T07:14:09.949Z</time></trkpt><trkpt lat="40.7473927" lon="14.8633679"><ele>549.0</ele><time>2026-03-29T07:14:12.951Z</time></trkpt><trkpt lat="40.7473609" lon="14.8634486"><ele>546.1666666666666</ele><time>2026-03-29T07:14:13.949Z</time></trkpt><trkpt lat="40.7473529" lon="14.8635323"><ele>543.3333333333334</ele><time>2026-03-29T07:14:14.963Z</time></trkpt><trkpt lat="40.7473748" lon="14.8636138"><ele>540.5</ele><time>2026-03-29T07:14:16.015Z</time></trkpt><trkpt lat="40.7474225" lon="14.8637018"><ele>537.6666666666667</ele><time>2026-03-29T07:14:17.017Z</time></trkpt><trkpt lat="40.7474689" lon="14.863797"><ele>534.8333333333334</ele><time>2026-03-29T07:14:17.946Z</time></trkpt><trkpt lat="40.747501" lon="14.8639266"><ele>532.0</ele><time>2026-03-29T07:14:18.949Z</time></trkpt><trkpt lat="40.7475374" lon="14.86407"><ele>532.0</ele><time>2026-03-29T07:14:19.945Z</time></trkpt><trkpt lat="40.7475661" lon="14.8641975"><ele>532.0</ele><time>2026-03-29T07:14:20.947Z</time></trkpt><trkpt lat="40.7476151" lon="14.8643331"><ele>532.0</ele><time>2026-03-29T07:14:21.944Z</time></trkpt><trkpt lat="40.7476775" lon="14.864472"><ele>532.0</ele><time>2026-03-29T07:14:22.941Z</time></trkpt><trkpt lat="40.7477337" lon="14.8646007"><ele>532.0</ele><time>2026-03-29T07:14:24.015Z</time></trkpt><trkpt lat="40.7477772" lon="14.8647183"><ele>527.0</ele><time>2026-03-29T07:14:25.033Z</time></trkpt><trkpt lat="40.7478218" lon="14.8648105"><ele>522.0</ele><time>2026-03-29T07:14:26.031Z</time></trkpt><trkpt lat="40.7479032" lon="14.8649165"><ele>517.0</ele><time>2026-03-29T07:14:27.023Z</time></trkpt><trkpt lat="40.7479518" lon="14.8650117"><ele>512.0</ele><time>2026-03-29T07:14:27.957Z</time></trkpt><trkpt lat="40.7479923" lon="14.8651146"><ele>507.0</ele><time>2026-03-29T07:14:29.984Z</time></trkpt><trkpt lat="40.7480318" lon="14.8652098"><ele>505.3333333333333</ele><time>2026-03-29T07:14:31.96Z</time></trkpt><trkpt lat="40.7481165" lon="14.865309"><ele>503.66666666666663</ele><time>2026-03-29T07:14:34.039Z</time></trkpt><trkpt lat="40.7481805" lon="14.8653476"><ele>502.0</ele><time>2026-03-29T07:14:35.039Z</time></trkpt><trkpt lat="40.7482517" lon="14.8654116"><ele>500.3333333333333</ele><time>2026-03-29T07:14:36.956Z</time></trkpt><trkpt lat="40.7482551" lon="14.8654994"><ele>498.66666666666663</ele><time>2026-03-29T07:14:46.953Z</time></trkpt><trkpt lat="40.7481872" lon="14.8655473"><ele>497.0</ele><time>2026-03-29T07:15:49.964Z</time></trkpt><trkpt lat="40.7481344" lon="14.8656263"><ele>496.99999999999994</ele><time>2026-03-29T07:15:52.965Z</time></trkpt><trkpt lat="40.7481362" lon="14.8657281"><ele>497.0</ele><time>2026-03-29T07:15:56.963Z</time></trkpt><trkpt lat="40.7481024" lon="14.8658024"><ele>497.0</ele><time>2026-03-29T07:15:58.962Z</time></trkpt><trkpt lat="40.7480842" lon="14.8658825"><ele>497.0</ele><time>2026-03-29T07:16:01.085Z</time></trkpt><trkpt lat="40.7481668" lon="14.8659434"><ele>496.99999999999994</ele><time>2026-03-29T07:16:02.969Z</time></trkpt><trkpt lat="40.7482804" lon="14.8659542"><ele>497.0</ele><time>2026-03-29T07:16:04.967Z</time></trkpt><trkpt lat="40.7484114" lon="14.8659099"><ele>497.0</ele><time>2026-03-29T07:16:06.966Z</time></trkpt><trkpt lat="40.7484883" lon="14.8658669"><ele>497.00000000000006</ele><time>2026-03-29T07:16:07.967Z</time></trkpt><trkpt lat="40.7485487" lon="14.865819"><ele>497.00000000000006</ele><time>2026-03-29T07:16:08.961Z</time></trkpt><trkpt lat="40.7486154" lon="14.8657006"><ele>497.0</ele><time>2026-03-29T07:16:11.047Z</time></trkpt><trkpt lat="40.7486314" lon="14.8656185"><ele>497.0</ele><time>2026-03-29T07:16:12.031Z</time></trkpt><trkpt lat="40.7486233" lon="14.8654437"><ele>495.20000000000005</ele><time>2026-03-29T07:16:13.968Z</time></trkpt><trkpt lat="40.7485899" lon="14.8653613"><ele>493.40000000000003</ele><time>2026-03-29T07:16:15.068Z</time></trkpt><trkpt lat="40.7485728" lon="14.8652811"><ele>491.59999999999997</ele><time>2026-03-29T07:16:17.96Z</time></trkpt><trkpt lat="40.7486641" lon="14.8653111"><ele>489.79999999999995</ele><time>2026-03-29T07:16:19.962Z</time></trkpt><trkpt lat="40.7487459" lon="14.8653901"><ele>488.0</ele><time>2026-03-29T07:16:21.028Z</time></trkpt><trkpt lat="40.7488863" lon="14.8655138"><ele>488.0</ele><time>2026-03-29T07:16:22.039Z</time></trkpt><trkpt lat="40.748993" lon="14.8656392"><ele>488.0</ele><time>2026-03-29T07:16:22.967Z</time></trkpt><trkpt lat="40.7490797" lon="14.8657657"><ele>488.0</ele><time>2026-03-29T07:16:23.963Z</time></trkpt><trkpt lat="40.7491459" lon="14.8658913"><ele>488.0</ele><time>2026-03-29T07:16:24.965Z</time></trkpt><trkpt lat="40.7491881" lon="14.865994"><ele>485.75</ele><time>2026-03-29T07:16:25.96Z</time></trkpt><trkpt lat="40.7492058" lon="14.8661301"><ele>483.5</ele><time>2026-03-29T07:16:26.968Z</time></trkpt><trkpt lat="40.7492155" lon="14.8662919"><ele>481.25</ele><time>2026-03-29T07:16:27.963Z</time></trkpt><trkpt lat="40.7492073" lon="14.8664677"><ele>479.0</ele><time>2026-03-29T07:16:28.994Z</time></trkpt><trkpt lat="40.7492019" lon="14.8666354"><ele>477.5</ele><time>2026-03-29T07:16:29.997Z</time></trkpt><trkpt lat="40.7492008" lon="14.866803"><ele>476.0</ele><time>2026-03-29T07:16:30.965Z</time></trkpt><trkpt lat="40.7492096" lon="14.8669685"><ele>474.5</ele><time>2026-03-29T07:16:32.033Z</time></trkpt><trkpt lat="40.7492208" lon="14.8671309"><ele>473.0</ele><time>2026-03-29T07:16:32.962Z</time></trkpt><trkpt lat="40.7492268" lon="14.867268"><ele>473.0</ele><time>2026-03-29T07:16:33.963Z</time></trkpt><trkpt lat="40.7492464" lon="14.8673787"><ele>473.0</ele><time>2026-03-29T07:16:34.964Z</time></trkpt><trkpt lat="40.7492756" lon="14.8674615"><ele>473.0</ele><time>2026-03-29T07:16:36.973Z</time></trkpt><trkpt lat="40.7492773" lon="14.8673711"><ele>473.0</ele><time>2026-03-29T07:16:40.965Z</time></trkpt><trkpt lat="40.7492646" lon="14.8672864"><ele>473.0</ele><time>2026-03-29T07:16:42.026Z</time></trkpt><trkpt lat="40.749263" lon="14.8671844"><ele>473.0</ele><time>2026-03-29T07:16:43.97Z</time></trkpt><trkpt lat="40.7492609" lon="14.8670851"><ele>473.0</ele><time>2026-03-29T07:16:47.965Z</time></trkpt><trkpt lat="40.7492637" lon="14.8669664"><ele>472.99999999999994</ele><time>2026-03-29T07:16:49.964Z</time></trkpt><trkpt lat="40.7492789" lon="14.8668564"><ele>473.0</ele><time>2026-03-29T07:16:50.963Z</time></trkpt><trkpt lat="40.7492925" lon="14.8667401"><ele>473.0</ele><time>2026-03-29T07:16:51.965Z</time></trkpt><trkpt lat="40.7492935" lon="14.8666408"><ele>473.0</ele><time>2026-03-29T07:16:52.963Z</time></trkpt><trkpt lat="40.7493099" lon="14.8665498"><ele>472.99999999999994</ele><time>2026-03-29T07:16:53.964Z</time></trkpt><trkpt lat="40.7493443" lon="14.8664464"><ele>473.0</ele><time>2026-03-29T07:16:55.027Z</time></trkpt><trkpt lat="40.7493778" lon="14.8663072"><ele>470.0</ele><time>2026-03-29T07:16:55.962Z</time></trkpt><trkpt lat="40.7494092" lon="14.8661684"><ele>466.99999999999994</ele><time>2026-03-29T07:16:56.962Z</time></trkpt><trkpt lat="40.7494432" lon="14.8660268"><ele>463.99999999999994</ele><time>2026-03-29T07:16:57.969Z</time></trkpt><trkpt lat="40.7494816" lon="14.8658905"><ele>461.0</ele><time>2026-03-29T07:16:58.964Z</time></trkpt><trkpt lat="40.7495156" lon="14.8657646"><ele>458.0</ele><time>2026-03-29T07:16:59.971Z</time></trkpt><trkpt lat="40.7495372" lon="14.8656548"><ele>457.99999999999994</ele><time>2026-03-29T07:17:00.976Z</time></trkpt><trkpt lat="40.7495543" lon="14.8655634"><ele>458.0</ele><time>2026-03-29T07:17:01.966Z</time></trkpt><trkpt lat="40.7495665" lon="14.8654572"><ele>458.0</ele><time>2026-03-29T07:17:02.965Z</time></trkpt><trkpt lat="40.7495475" lon="14.8653397"><ele>458.0</ele><time>2026-03-29T07:17:03.963Z</time></trkpt><trkpt lat="40.7495364" lon="14.8652093"><ele>457.99999999999994</ele><time>2026-03-29T07:17:04.969Z</time></trkpt><trkpt lat="40.7495452" lon="14.8651086"><ele>458.0</ele><time>2026-03-29T07:17:05.966Z</time></trkpt><trkpt lat="40.7495736" lon="14.8649975"><ele>459.3333333333333</ele><time>2026-03-29T07:17:06.967Z</time></trkpt><trkpt lat="40.749603" lon="14.8648786"><ele>460.66666666666663</ele><time>2026-03-29T07:17:07.965Z</time></trkpt><trkpt lat="40.7496322" lon="14.8647658"><ele>462.0</ele><time>2026-03-29T07:17:08.96Z</time></trkpt><trkpt lat="40.7496552" lon="14.8646625"><ele>463.33333333333337</ele><time>2026-03-29T07:17:09.964Z</time></trkpt><trkpt lat="40.7496831" lon="14.8645479"><ele>464.6666666666667</ele><time>2026-03-29T07:17:11.025Z</time></trkpt><trkpt lat="40.7497109" lon="14.8644357"><ele>466.0</ele><time>2026-03-29T07:17:12.041Z</time></trkpt><trkpt lat="40.7497229" lon="14.8643273"><ele>468.20000000000005</ele><time>2026-03-29T07:17:12.966Z</time></trkpt><trkpt lat="40.7497393" lon="14.8642122"><ele>470.40000000000003</ele><time>2026-03-29T07:17:15Z</time></trkpt><trkpt lat="40.7498036" lon="14.8641148"><ele>472.6</ele><time>2026-03-29T07:17:16.967Z</time></trkpt><trkpt lat="40.749889" lon="14.8639187"><ele>474.8</ele><time>2026-03-29T07:17:19.029Z</time></trkpt><trkpt lat="40.7499309" lon="14.863828"><ele>477.0</ele><time>2026-03-29T07:17:20.028Z</time></trkpt><trkpt lat="40.7499641" lon="14.8637258"><ele>477.0</ele><time>2026-03-29T07:17:21.026Z</time></trkpt><trkpt lat="40.7499676" lon="14.863582"><ele>477.0</ele><time>2026-03-29T07:17:22.965Z</time></trkpt><trkpt lat="40.7499881" lon="14.8635034"><ele>477.0</ele><time>2026-03-29T07:17:23.967Z</time></trkpt><trkpt lat="40.7500303" lon="14.8634034"><ele>477.0</ele><time>2026-03-29T07:17:24.964Z</time></trkpt><trkpt lat="40.7500738" lon="14.8633029"><ele>477.0</ele><time>2026-03-29T07:17:25.963Z</time></trkpt><trkpt lat="40.7501242" lon="14.8631988"><ele>477.0</ele><time>2026-03-29T07:17:27.021Z</time></trkpt><trkpt lat="40.7501767" lon="14.8631204"><ele>479.1666666666667</ele><time>2026-03-29T07:17:27.962Z</time></trkpt><trkpt lat="40.750224" lon="14.8630163"><ele>481.33333333333337</ele><time>2026-03-29T07:17:28.963Z</time></trkpt><trkpt lat="40.7502538" lon="14.8629179"><ele>483.5</ele><time>2026-03-29T07:17:29.963Z</time></trkpt><trkpt lat="40.7502856" lon="14.8628278"><ele>485.6666666666667</ele><time>2026-03-29T07:17:30.967Z</time></trkpt><trkpt lat="40.7503119" lon="14.8627402"><ele>487.83333333333337</ele><time>2026-03-29T07:17:31.964Z</time></trkpt><trkpt lat="40.7503525" lon="14.8626033"><ele>490.0</ele><time>2026-03-29T07:17:33.965Z</time></trkpt><trkpt lat="40.7504138" lon="14.8625628"><ele>490.00000000000006</ele><time>2026-03-29T07:17:34.964Z</time></trkpt><trkpt lat="40.7504872" lon="14.8625429"><ele>490.0</ele><time>2026-03-29T07:17:35.965Z</time></trkpt><trkpt lat="40.7505693" lon="14.862515"><ele>490.0</ele><time>2026-03-29T07:17:36.966Z</time></trkpt><trkpt lat="40.7506654" lon="14.8624707"><ele>490.0</ele><time>2026-03-29T07:17:37.961Z</time></trkpt><trkpt lat="40.7507484" lon="14.8624045"><ele>490.00000000000006</ele><time>2026-03-29T07:17:38.965Z</time></trkpt><trkpt lat="40.7507974" lon="14.8623437"><ele>490.0</ele><time>2026-03-29T07:17:39.969Z</time></trkpt><trkpt lat="40.7508387" lon="14.8622517"><ele>490.00000000000006</ele><time>2026-03-29T07:17:42.031Z</time></trkpt><trkpt lat="40.7508752" lon="14.8621696"><ele>490.0</ele><time>2026-03-29T07:17:42.97Z</time></trkpt><trkpt lat="40.7509117" lon="14.8620859"><ele>490.0</ele><time>2026-03-29T07:17:43.963Z</time></trkpt><trkpt lat="40.7509335" lon="14.8619844"><ele>490.0</ele><time>2026-03-29T07:17:44.967Z</time></trkpt><trkpt lat="40.7509747" lon="14.8618767"><ele>490.00000000000006</ele><time>2026-03-29T07:17:45.968Z</time></trkpt><trkpt lat="40.7510443" lon="14.8617912"><ele>490.0</ele><time>2026-03-29T07:17:46.961Z</time></trkpt><trkpt lat="40.7511061" lon="14.8617011"><ele>492.75</ele><time>2026-03-29T07:17:47.957Z</time></trkpt><trkpt lat="40.7511427" lon="14.8616129"><ele>495.5</ele><time>2026-03-29T07:17:48.959Z</time></trkpt><trkpt lat="40.7512005" lon="14.8615347"><ele>498.25</ele><time>2026-03-29T07:17:50.029Z</time></trkpt><trkpt lat="40.7513301" lon="14.8614159"><ele>501.0</ele><time>2026-03-29T07:17:51.038Z</time></trkpt><trkpt lat="40.7514717" lon="14.8612696"><ele>501.0</ele><time>2026-03-29T07:17:52.03Z</time></trkpt><trkpt lat="40.7515711" lon="14.8611794"><ele>501.0</ele><time>2026-03-29T07:17:52.963Z</time></trkpt><trkpt lat="40.7516321" lon="14.861143"><ele>501.0</ele><time>2026-03-29T07:17:53.96Z</time></trkpt><trkpt lat="40.7517441" lon="14.8611185"><ele>501.0</ele><time>2026-03-29T07:17:55.963Z</time></trkpt><trkpt lat="40.7518306" lon="14.8611527"><ele>501.0</ele><time>2026-03-29T07:17:57.957Z</time></trkpt><trkpt lat="40.7517955" lon="14.8612551"><ele>501.0</ele><time>2026-03-29T07:18:01.963Z</time></trkpt><trkpt lat="40.7517289" lon="14.861279"><ele>501.0</ele><time>2026-03-29T07:18:03.963Z</time></trkpt><trkpt lat="40.7517605" lon="14.861207"><ele>501.0</ele><time>2026-03-29T07:18:07.964Z</time></trkpt><trkpt lat="40.7518562" lon="14.861181"><ele>501.0</ele><time>2026-03-29T07:18:11.029Z</time></trkpt><trkpt lat="40.7519772" lon="14.8611834"><ele>501.0</ele><time>2026-03-29T07:18:16.964Z</time></trkpt><trkpt lat="40.752038" lon="14.8613051"><ele>501.0</ele><time>2026-03-29T07:18:18.968Z</time></trkpt><trkpt lat="40.7520311" lon="14.8614328"><ele>501.0</ele><time>2026-03-29T07:18:20.968Z</time></trkpt><trkpt lat="40.7519803" lon="14.8614829"><ele>501.0</ele><time>2026-03-29T07:18:21.957Z</time></trkpt><trkpt lat="40.7518901" lon="14.8615469"><ele>501.0</ele><time>2026-03-29T07:18:22.961Z</time></trkpt><trkpt lat="40.7517934" lon="14.8616154"><ele>501.0</ele><time>2026-03-29T07:18:23.964Z</time></trkpt><trkpt lat="40.7517224" lon="14.8616798"><ele>501.0</ele><time>2026-03-29T07:18:24.963Z</time></trkpt><trkpt lat="40.7516593" lon="14.8617578"><ele>501.0</ele><time>2026-03-29T07:18:25.964Z</time></trkpt><trkpt lat="40.7516079" lon="14.861844"><ele>501.0</ele><time>2026-03-29T07:18:26.955Z</time></trkpt><trkpt lat="40.751585" lon="14.8620097"><ele>501.0</ele><time>2026-03-29T07:18:28.961Z</time></trkpt><trkpt lat="40.7515901" lon="14.8620927"><ele>501.0</ele><time>2026-03-29T07:18:29.967Z</time></trkpt><trkpt lat="40.7515809" lon="14.8621938"><ele>501.0</ele><time>2026-03-29T07:18:30.964Z</time></trkpt><trkpt lat="40.7515593" lon="14.862285"><ele>504.0</ele><time>2026-03-29T07:18:31.976Z</time></trkpt><trkpt lat="40.7515207" lon="14.8623966"><ele>507.0</ele><time>2026-03-29T07:18:32.966Z</time></trkpt><trkpt lat="40.751458" lon="14.862563"><ele>510.0</ele><time>2026-03-29T07:18:34.034Z</time></trkpt><trkpt lat="40.75138" lon="14.8627218"><ele>513.0</ele><time>2026-03-29T07:18:35.026Z</time></trkpt><trkpt lat="40.7513157" lon="14.8628445"><ele>513.0</ele><time>2026-03-29T07:18:36.03Z</time></trkpt><trkpt lat="40.7512837" lon="14.8629332"><ele>513.0</ele><time>2026-03-29T07:18:37.966Z</time></trkpt><trkpt lat="40.751365" lon="14.8629871"><ele>513.0</ele><time>2026-03-29T07:18:39.974Z</time></trkpt><trkpt lat="40.7514432" lon="14.8630062"><ele>513.0</ele><time>2026-03-29T07:18:40.977Z</time></trkpt><trkpt lat="40.7515523" lon="14.8630294"><ele>513.0</ele><time>2026-03-29T07:18:42.967Z</time></trkpt><trkpt lat="40.7516578" lon="14.8629593"><ele>513.0</ele><time>2026-03-29T07:18:44.957Z</time></trkpt><trkpt lat="40.75171" lon="14.862893"><ele>513.0</ele><time>2026-03-29T07:18:45.965Z</time></trkpt><trkpt lat="40.7517629" lon="14.8628392"><ele>513.0</ele><time>2026-03-29T07:18:46.967Z</time></trkpt><trkpt lat="40.7518438" lon="14.8627834"><ele>513.0</ele><time>2026-03-29T07:18:47.964Z</time></trkpt><trkpt lat="40.7519053" lon="14.8627309"><ele>513.0</ele><time>2026-03-29T07:18:48.967Z</time></trkpt><trkpt lat="40.7519691" lon="14.8625918"><ele>513.0</ele><time>2026-03-29T07:18:50.962Z</time></trkpt><trkpt lat="40.7520119" lon="14.862519"><ele>516.8333333333334</ele><time>2026-03-29T07:18:51.96Z</time></trkpt><trkpt lat="40.7520546" lon="14.8624479"><ele>520.6666666666666</ele><time>2026-03-29T07:18:52.964Z</time></trkpt><trkpt lat="40.7521067" lon="14.8624009"><ele>524.5</ele><time>2026-03-29T07:18:53.963Z</time></trkpt><trkpt lat="40.7521713" lon="14.8623414"><ele>528.3333333333333</ele><time>2026-03-29T07:18:54.958Z</time></trkpt><trkpt lat="40.7522579" lon="14.8622483"><ele>532.1666666666666</ele><time>2026-03-29T07:18:55.964Z</time></trkpt><trkpt lat="40.7523395" lon="14.8621625"><ele>536.0</ele><time>2026-03-29T07:18:56.963Z</time></trkpt><trkpt lat="40.7524381" lon="14.8620844"><ele>536.0</ele><time>2026-03-29T07:18:57.963Z</time></trkpt><trkpt lat="40.7525294" lon="14.8619816"><ele>536.0</ele><time>2026-03-29T07:18:59.032Z</time></trkpt><trkpt lat="40.7526138" lon="14.8618922"><ele>536.0</ele><time>2026-03-29T07:19:00.022Z</time></trkpt><trkpt lat="40.752695" lon="14.8618006"><ele>536.0</ele><time>2026-03-29T07:19:00.953Z</time></trkpt><trkpt lat="40.7527729" lon="14.8617054"><ele>536.0</ele><time>2026-03-29T07:19:02.033Z</time></trkpt><trkpt lat="40.7528521" lon="14.8616269"><ele>539.0</ele><time>2026-03-29T07:19:02.963Z</time></trkpt><trkpt lat="40.7529049" lon="14.8615763"><ele>542.0</ele><time>2026-03-29T07:19:03.964Z</time></trkpt><trkpt lat="40.7529524" lon="14.8614822"><ele>545.0</ele><time>2026-03-29T07:19:05.963Z</time></trkpt><trkpt lat="40.7529873" lon="14.8613805"><ele>548.0</ele><time>2026-03-29T07:19:06.965Z</time></trkpt><trkpt lat="40.7530262" lon="14.8612876"><ele>551.0</ele><time>2026-03-29T07:19:07.966Z</time></trkpt><trkpt lat="40.7530739" lon="14.8611797"><ele>554.0</ele><time>2026-03-29T07:19:09.033Z</time></trkpt><trkpt lat="40.75312" lon="14.8610779"><ele>554.0</ele><time>2026-03-29T07:19:09.972Z</time></trkpt><trkpt lat="40.753177" lon="14.8609663"><ele>554.0</ele><time>2026-03-29T07:19:10.964Z</time></trkpt><trkpt lat="40.7532446" lon="14.8608463"><ele>554.0</ele><time>2026-03-29T07:19:11.966Z</time></trkpt><trkpt lat="40.7533218" lon="14.8607349"><ele>554.0</ele><time>2026-03-29T07:19:12.965Z</time></trkpt><trkpt lat="40.7533677" lon="14.8606153"><ele>554.0</ele><time>2026-03-29T07:19:13.968Z</time></trkpt><trkpt lat="40.7534037" lon="14.8605185"><ele>555.3333333333333</ele><time>2026-03-29T07:19:14.97Z</time></trkpt><trkpt lat="40.7534129" lon="14.860435"><ele>556.6666666666666</ele><time>2026-03-29T07:19:15.976Z</time></trkpt><trkpt lat="40.7534052" lon="14.8602865"><ele>558.0</ele><time>2026-03-29T07:19:17.967Z</time></trkpt><trkpt lat="40.7534258" lon="14.8601983"><ele>559.3333333333334</ele><time>2026-03-29T07:19:18.96Z</time></trkpt><trkpt lat="40.753458" lon="14.860119"><ele>560.6666666666667</ele><time>2026-03-29T07:19:19.978Z</time></trkpt><trkpt lat="40.7534899" lon="14.8600419"><ele>562.0</ele><time>2026-03-29T07:19:20.96Z</time></trkpt><trkpt lat="40.7535468" lon="14.8599318"><ele>565.5</ele><time>2026-03-29T07:19:21.963Z</time></trkpt><trkpt lat="40.7535878" lon="14.859846"><ele>569.0</ele><time>2026-03-29T07:19:22.962Z</time></trkpt><trkpt lat="40.7536487" lon="14.859801"><ele>572.5</ele><time>2026-03-29T07:19:24.96Z</time></trkpt><trkpt lat="40.7537493" lon="14.8598041"><ele>576.0</ele><time>2026-03-29T07:19:26.968Z</time></trkpt><trkpt lat="40.7538376" lon="14.859793"><ele>579.5</ele><time>2026-03-29T07:19:27.964Z</time></trkpt><trkpt lat="40.7539259" lon="14.8597737"><ele>583.0</ele><time>2026-03-29T07:19:28.964Z</time></trkpt><trkpt lat="40.7539861" lon="14.8597465"><ele>583.0</ele><time>2026-03-29T07:19:29.967Z</time></trkpt><trkpt lat="40.7539552" lon="14.859658"><ele>583.0</ele><time>2026-03-29T07:19:32.967Z</time></trkpt><trkpt lat="40.7538712" lon="14.8596332"><ele>583.0</ele><time>2026-03-29T07:19:35.03Z</time></trkpt><trkpt lat="40.75396" lon="14.8595853"><ele>583.0</ele><time>2026-03-29T07:19:37.956Z</time></trkpt><trkpt lat="40.7540794" lon="14.8595736"><ele>583.0</ele><time>2026-03-29T07:19:39.954Z</time></trkpt><trkpt lat="40.7541526" lon="14.8595474"><ele>583.0</ele><time>2026-03-29T07:19:40.951Z</time></trkpt><trkpt lat="40.7542322" lon="14.8595138"><ele>583.0</ele><time>2026-03-29T07:19:41.952Z</time></trkpt><trkpt lat="40.754301" lon="14.8594762"><ele>583.0</ele><time>2026-03-29T07:19:42.956Z</time></trkpt><trkpt lat="40.754373" lon="14.8594608"><ele>583.0</ele><time>2026-03-29T07:19:43.954Z</time></trkpt><trkpt lat="40.7543264" lon="14.8594004"><ele>583.0</ele><time>2026-03-29T07:19:47.959Z</time></trkpt><trkpt lat="40.7542682" lon="14.8593139"><ele>583.0</ele><time>2026-03-29T07:19:49.955Z</time></trkpt><trkpt lat="40.7543357" lon="14.8592488"><ele>588.75</ele><time>2026-03-29T07:19:52.958Z</time></trkpt><trkpt lat="40.7544266" lon="14.8591608"><ele>594.5</ele><time>2026-03-29T07:19:53.958Z</time></trkpt><trkpt lat="40.7545145" lon="14.8590828"><ele>600.25</ele><time>2026-03-29T07:19:54.955Z</time></trkpt><trkpt lat="40.7546136" lon="14.8589931"><ele>606.0</ele><time>2026-03-29T07:19:55.948Z</time></trkpt><trkpt lat="40.7547193" lon="14.8589112"><ele>606.0</ele><time>2026-03-29T07:19:56.946Z</time></trkpt><trkpt lat="40.7548445" lon="14.8588144"><ele>606.0</ele><time>2026-03-29T07:19:57.955Z</time></trkpt><trkpt lat="40.754969" lon="14.8587098"><ele>606.0</ele><time>2026-03-29T07:19:58.956Z</time></trkpt><trkpt lat="40.7550762" lon="14.8586032"><ele>606.0</ele><time>2026-03-29T07:19:59.961Z</time></trkpt><trkpt lat="40.7551722" lon="14.8585231"><ele>605.6666666666666</ele><time>2026-03-29T07:20:00.952Z</time></trkpt><trkpt lat="40.7552679" lon="14.858473"><ele>605.3333333333334</ele><time>2026-03-29T07:20:01.955Z</time></trkpt><trkpt lat="40.755355" lon="14.8584601"><ele>605.0</ele><time>2026-03-29T07:20:02.956Z</time></trkpt><trkpt lat="40.7554321" lon="14.8584356"><ele>604.6666666666667</ele><time>2026-03-29T07:20:03.952Z</time></trkpt><trkpt lat="40.7555154" lon="14.8583991"><ele>604.3333333333334</ele><time>2026-03-29T07:20:04.954Z</time></trkpt><trkpt lat="40.7555826" lon="14.8583798"><ele>604.0</ele><time>2026-03-29T07:20:05.954Z</time></trkpt><trkpt lat="40.7557058" lon="14.8583192"><ele>608.8333333333334</ele><time>2026-03-29T07:20:07.958Z</time></trkpt><trkpt lat="40.7556724" lon="14.8582383"><ele>613.6666666666667</ele><time>2026-03-29T07:20:11.047Z</time></trkpt><trkpt lat="40.7556074" lon="14.8581799"><ele>618.5</ele><time>2026-03-29T07:20:12.054Z</time></trkpt><trkpt lat="40.7556115" lon="14.8580891"><ele>623.3333333333334</ele><time>2026-03-29T07:20:14.965Z</time></trkpt><trkpt lat="40.7556775" lon="14.8580536"><ele>628.1666666666666</ele><time>2026-03-29T07:20:15.949Z</time></trkpt><trkpt lat="40.7557914" lon="14.8580293"><ele>633.0</ele><time>2026-03-29T07:20:17.959Z</time></trkpt><trkpt lat="40.7558704" lon="14.8579989"><ele>633.0</ele><time>2026-03-29T07:20:18.979Z</time></trkpt><trkpt lat="40.7559481" lon="14.8579708"><ele>633.0</ele><time>2026-03-29T07:20:20.013Z</time></trkpt><trkpt lat="40.7560246" lon="14.8579414"><ele>633.0</ele><time>2026-03-29T07:20:20.955Z</time></trkpt><trkpt lat="40.7561061" lon="14.8578842"><ele>633.0</ele><time>2026-03-29T07:20:21.958Z</time></trkpt><trkpt lat="40.7561771" lon="14.8578137"><ele>633.0</ele><time>2026-03-29T07:20:22.954Z</time></trkpt><trkpt lat="40.7562565" lon="14.8577399"><ele>633.0</ele><time>2026-03-29T07:20:23.955Z</time></trkpt><trkpt lat="40.7563436" lon="14.8576839"><ele>629.25</ele><time>2026-03-29T07:20:24.958Z</time></trkpt><trkpt lat="40.7564423" lon="14.8576357"><ele>625.5</ele><time>2026-03-29T07:20:25.955Z</time></trkpt><trkpt lat="40.7565437" lon="14.8575654"><ele>621.75</ele><time>2026-03-29T07:20:27.038Z</time></trkpt><trkpt lat="40.7566385" lon="14.8574775"><ele>618.0</ele><time>2026-03-29T07:20:27.952Z</time></trkpt><trkpt lat="40.7567347" lon="14.857369"><ele>623.75</ele><time>2026-03-29T07:20:28.958Z</time></trkpt><trkpt lat="40.7568208" lon="14.8572453"><ele>629.5</ele><time>2026-03-29T07:20:29.992Z</time></trkpt><trkpt lat="40.7569193" lon="14.8571106"><ele>635.25</ele><time>2026-03-29T07:20:30.959Z</time></trkpt><trkpt lat="40.7570209" lon="14.8569899"><ele>641.0</ele><time>2026-03-29T07:20:31.961Z</time></trkpt><trkpt lat="40.7571281" lon="14.856887"><ele>641.0</ele><time>2026-03-29T07:20:32.957Z</time></trkpt><trkpt lat="40.7572371" lon="14.8568283"><ele>641.0</ele><time>2026-03-29T07:20:33.958Z</time></trkpt><trkpt lat="40.757314" lon="14.8567614"><ele>641.0</ele><time>2026-03-29T07:20:35.03Z</time></trkpt><trkpt lat="40.7573611" lon="14.8566964"><ele>641.0</ele><time>2026-03-29T07:20:36.033Z</time></trkpt><trkpt lat="40.7573886" lon="14.8566216"><ele>641.0</ele><time>2026-03-29T07:20:37.047Z</time></trkpt><trkpt lat="40.7574202" lon="14.8565249"><ele>641.0</ele><time>2026-03-29T07:20:37.956Z</time></trkpt><trkpt lat="40.7574671" lon="14.8564327"><ele>650.5</ele><time>2026-03-29T07:20:39.041Z</time></trkpt><trkpt lat="40.7575161" lon="14.8563313"><ele>660.0</ele><time>2026-03-29T07:20:40.043Z</time></trkpt><trkpt lat="40.7575703" lon="14.8562074"><ele>669.5</ele><time>2026-03-29T07:20:41.034Z</time></trkpt><trkpt lat="40.7576391" lon="14.8560599"><ele>679.0</ele><time>2026-03-29T07:20:42.038Z</time></trkpt><trkpt lat="40.7577222" lon="14.8559111"><ele>681.75</ele><time>2026-03-29T07:20:42.957Z</time></trkpt><trkpt lat="40.7578186" lon="14.8557616"><ele>684.5</ele><time>2026-03-29T07:20:44.046Z</time></trkpt><trkpt lat="40.7579302" lon="14.8556466"><ele>687.25</ele><time>2026-03-29T07:20:45.029Z</time></trkpt><trkpt lat="40.7580337" lon="14.8555794"><ele>690.0</ele><time>2026-03-29T07:20:45.965Z</time></trkpt><trkpt lat="40.7581026" lon="14.8555261"><ele>690.0</ele><time>2026-03-29T07:20:47.022Z</time></trkpt><trkpt lat="40.7581899" lon="14.8554811"><ele>690.0</ele><time>2026-03-29T07:20:47.964Z</time></trkpt><trkpt lat="40.7583068" lon="14.8553977"><ele>690.0</ele><time>2026-03-29T07:20:48.961Z</time></trkpt><trkpt lat="40.7584312" lon="14.8552985"><ele>690.0</ele><time>2026-03-29T07:20:49.978Z</time></trkpt><trkpt lat="40.7585493" lon="14.8551953"><ele>694.25</ele><time>2026-03-29T07:20:51.052Z</time></trkpt><trkpt lat="40.7586627" lon="14.8551132"><ele>698.5</ele><time>2026-03-29T07:20:52.032Z</time></trkpt><trkpt lat="40.7587803" lon="14.8550262"><ele>702.75</ele><time>2026-03-29T07:20:52.972Z</time></trkpt><trkpt lat="40.7588943" lon="14.8549338"><ele>707.0</ele><time>2026-03-29T07:20:54.023Z</time></trkpt><trkpt lat="40.7590221" lon="14.8548406"><ele>707.0</ele><time>2026-03-29T07:20:55.002Z</time></trkpt><trkpt lat="40.7591387" lon="14.8547666"><ele>707.0</ele><time>2026-03-29T07:20:56.032Z</time></trkpt><trkpt lat="40.7592281" lon="14.8547422"><ele>707.0</ele><time>2026-03-29T07:20:57.03Z</time></trkpt><trkpt lat="40.7592976" lon="14.854732"><ele>707.0</ele><time>2026-03-29T07:20:57.962Z</time></trkpt><trkpt lat="40.7593678" lon="14.8547158"><ele>707.0</ele><time>2026-03-29T07:20:59.954Z</time></trkpt><trkpt lat="40.7594115" lon="14.8545893"><ele>704.25</ele><time>2026-03-29T07:21:02.964Z</time></trkpt><trkpt lat="40.7594335" lon="14.8543643"><ele>701.5</ele><time>2026-03-29T07:21:04.97Z</time></trkpt><trkpt lat="40.7594755" lon="14.8542117"><ele>698.75</ele><time>2026-03-29T07:21:05.964Z</time></trkpt><trkpt lat="40.7595355" lon="14.8540399"><ele>696.0</ele><time>2026-03-29T07:21:06.967Z</time></trkpt><trkpt lat="40.7595756" lon="14.8538904"><ele>701.0</ele><time>2026-03-29T07:21:07.962Z</time></trkpt><trkpt lat="40.7595964" lon="14.8537535"><ele>706.0</ele><time>2026-03-29T07:21:08.968Z</time></trkpt><trkpt lat="40.7596087" lon="14.8536137"><ele>711.0</ele><time>2026-03-29T07:21:09.96Z</time></trkpt><trkpt lat="40.7595944" lon="14.8534715"><ele>716.0</ele><time>2026-03-29T07:21:10.984Z</time></trkpt><trkpt lat="40.7595787" lon="14.8533481"><ele>721.0</ele><time>2026-03-29T07:21:11.954Z</time></trkpt><trkpt lat="40.7595759" lon="14.8532397"><ele>723.5</ele><time>2026-03-29T07:21:12.97Z</time></trkpt><trkpt lat="40.7595803" lon="14.8531169"><ele>726.0</ele><time>2026-03-29T07:21:13.966Z</time></trkpt><trkpt lat="40.7595907" lon="14.8529494"><ele>728.5</ele><time>2026-03-29T07:21:14.967Z</time></trkpt><trkpt lat="40.7595907" lon="14.8528048"><ele>731.0</ele><time>2026-03-29T07:21:15.965Z</time></trkpt><trkpt lat="40.7595735" lon="14.852645"><ele>730.1999999999999</ele><time>2026-03-29T07:21:16.961Z</time></trkpt><trkpt lat="40.7595373" lon="14.8524995"><ele>729.4</ele><time>2026-03-29T07:21:17.965Z</time></trkpt><trkpt lat="40.7595258" lon="14.8523786"><ele>728.6</ele><time>2026-03-29T07:21:18.967Z</time></trkpt><trkpt lat="40.7595511" lon="14.8522556"><ele>727.8</ele><time>2026-03-29T07:21:19.964Z</time></trkpt><trkpt lat="40.7596102" lon="14.8521242"><ele>727.0</ele><time>2026-03-29T07:21:20.967Z</time></trkpt><trkpt lat="40.7596722" lon="14.8519775"><ele>727.0</ele><time>2026-03-29T07:21:21.962Z</time></trkpt><trkpt lat="40.759704" lon="14.8518399"><ele>727.0</ele><time>2026-03-29T07:21:22.966Z</time></trkpt><trkpt lat="40.7597274" lon="14.8517512"><ele>727.0</ele><time>2026-03-29T07:21:23.961Z</time></trkpt><trkpt lat="40.7597383" lon="14.8516588"><ele>727.0</ele><time>2026-03-29T07:21:24.976Z</time></trkpt><trkpt lat="40.7597328" lon="14.8515332"><ele>727.0</ele><time>2026-03-29T07:21:25.961Z</time></trkpt><trkpt lat="40.7597093" lon="14.8513977"><ele>726.6</ele><time>2026-03-29T07:21:27.034Z</time></trkpt><trkpt lat="40.759674" lon="14.8512593"><ele>726.2</ele><time>2026-03-29T07:21:27.982Z</time></trkpt><trkpt lat="40.7596394" lon="14.851128"><ele>725.8</ele><time>2026-03-29T07:21:29.034Z</time></trkpt><trkpt lat="40.7596034" lon="14.8510063"><ele>725.4</ele><time>2026-03-29T07:21:30.039Z</time></trkpt><trkpt lat="40.7595782" lon="14.8508942"><ele>725.0</ele><time>2026-03-29T07:21:31.03Z</time></trkpt><trkpt lat="40.7595591" lon="14.8507865"><ele>725.0</ele><time>2026-03-29T07:21:32.036Z</time></trkpt><trkpt lat="40.7595451" lon="14.8507017"><ele>725.0</ele><time>2026-03-29T07:21:32.957Z</time></trkpt><trkpt lat="40.7595266" lon="14.8505974"><ele>725.0</ele><time>2026-03-29T07:21:35.955Z</time></trkpt><trkpt lat="40.7594927" lon="14.8505245"><ele>725.0</ele><time>2026-03-29T07:21:42.966Z</time></trkpt><trkpt lat="40.7594395" lon="14.8504668"><ele>725.0</ele><time>2026-03-29T07:21:45.967Z</time></trkpt><trkpt lat="40.7594262" lon="14.8503577"><ele>725.0</ele><time>2026-03-29T07:21:53.957Z</time></trkpt><trkpt lat="40.7594244" lon="14.8502728"><ele>725.0</ele><time>2026-03-29T07:21:56.959Z</time></trkpt><trkpt lat="40.759402" lon="14.8501764"><ele>726.4285714285714</ele><time>2026-03-29T07:22:02.042Z</time></trkpt><trkpt lat="40.7594019" lon="14.8500895"><ele>727.8571428571429</ele><time>2026-03-29T07:22:47.963Z</time></trkpt><trkpt lat="40.7593645" lon="14.8500194"><ele>729.2857142857142</ele><time>2026-03-29T07:28:10.957Z</time></trkpt><trkpt lat="40.7593261" lon="14.849934"><ele>730.7142857142858</ele><time>2026-03-29T07:33:51.961Z</time></trkpt><trkpt lat="40.75934" lon="14.8498503"><ele>732.1428571428571</ele><time>2026-03-29T07:33:54.969Z</time></trkpt><trkpt lat="40.759387" lon="14.8497848"><ele>733.5714285714286</ele><time>2026-03-29T07:33:56.962Z</time></trkpt><trkpt lat="40.7594786" lon="14.8497206"><ele>735.0</ele><time>2026-03-29T07:33:58.954Z</time></trkpt><trkpt lat="40.7595678" lon="14.8496291"><ele>730.4</ele><time>2026-03-29T07:33:59.957Z</time></trkpt><trkpt lat="40.7596491" lon="14.8495584"><ele>725.8</ele><time>2026-03-29T07:34:00.957Z</time></trkpt><trkpt lat="40.7597425" lon="14.8494942"><ele>721.2</ele><time>2026-03-29T07:34:01.952Z</time></trkpt><trkpt lat="40.7598263" lon="14.849449"><ele>716.6</ele><time>2026-03-29T07:34:02.958Z</time></trkpt><trkpt lat="40.7598981" lon="14.8493872"><ele>712.0</ele><time>2026-03-29T07:34:03.959Z</time></trkpt><trkpt lat="40.7599717" lon="14.849307"><ele>712.1666666666667</ele><time>2026-03-29T07:34:04.961Z</time></trkpt><trkpt lat="40.7600398" lon="14.8492046"><ele>712.3333333333334</ele><time>2026-03-29T07:34:05.96Z</time></trkpt><trkpt lat="40.7600875" lon="14.8491229"><ele>712.5</ele><time>2026-03-29T07:34:06.951Z</time></trkpt><trkpt lat="40.7601445" lon="14.8490547"><ele>712.6666666666666</ele><time>2026-03-29T07:34:08.963Z</time></trkpt><trkpt lat="40.7601709" lon="14.8489642"><ele>712.8333333333333</ele><time>2026-03-29T07:36:14.959Z</time></trkpt><trkpt lat="40.7602028" lon="14.8488772"><ele>713.0</ele><time>2026-03-29T07:36:16.966Z</time></trkpt><trkpt lat="40.7602375" lon="14.8487769"><ele>706.75</ele><time>2026-03-29T07:36:18.961Z</time></trkpt><trkpt lat="40.7602377" lon="14.8486436"><ele>700.5</ele><time>2026-03-29T07:36:20.965Z</time></trkpt><trkpt lat="40.7602295" lon="14.8484599"><ele>694.25</ele><time>2026-03-29T07:36:22.962Z</time></trkpt><trkpt lat="40.7602225" lon="14.8483176"><ele>688.0</ele><time>2026-03-29T07:36:24.956Z</time></trkpt><trkpt lat="40.7602303" lon="14.8481841"><ele>688.0</ele><time>2026-03-29T07:36:26.952Z</time></trkpt><trkpt lat="40.7602247" lon="14.8480752"><ele>688.0</ele><time>2026-03-29T07:36:28.953Z</time></trkpt><trkpt lat="40.760229" lon="14.8479567"><ele>688.0</ele><time>2026-03-29T07:36:30.967Z</time></trkpt><trkpt lat="40.7602555" lon="14.8478449"><ele>688.0</ele><time>2026-03-29T07:36:32.956Z</time></trkpt><trkpt lat="40.760283" lon="14.8477349"><ele>688.0</ele><time>2026-03-29T07:36:34.966Z</time></trkpt><trkpt lat="40.7602811" lon="14.847633"><ele>688.0</ele><time>2026-03-29T07:36:36.959Z</time></trkpt><trkpt lat="40.7603033" lon="14.8475433"><ele>685.8333333333334</ele><time>2026-03-29T07:36:38.959Z</time></trkpt><trkpt lat="40.76033" lon="14.8474359"><ele>683.6666666666667</ele><time>2026-03-29T07:36:40.961Z</time></trkpt><trkpt lat="40.7603912" lon="14.8472659"><ele>681.5</ele><time>2026-03-29T07:36:42.966Z</time></trkpt><trkpt lat="40.7604275" lon="14.847187"><ele>679.3333333333334</ele><time>2026-03-29T07:36:43.961Z</time></trkpt><trkpt lat="40.7604575" lon="14.8471074"><ele>677.1666666666666</ele><time>2026-03-29T07:36:44.956Z</time></trkpt><trkpt lat="40.7604856" lon="14.8470316"><ele>675.0</ele><time>2026-03-29T07:36:45.958Z</time></trkpt><trkpt lat="40.7605459" lon="14.846872"><ele>672.8333333333334</ele><time>2026-03-29T07:36:47.958Z</time></trkpt><trkpt lat="40.7605724" lon="14.8467938"><ele>670.6666666666666</ele><time>2026-03-29T07:36:48.958Z</time></trkpt><trkpt lat="40.7606147" lon="14.8466599"><ele>668.5</ele><time>2026-03-29T07:36:50.96Z</time></trkpt><trkpt lat="40.7606393" lon="14.846568"><ele>666.3333333333333</ele><time>2026-03-29T07:36:52.957Z</time></trkpt><trkpt lat="40.7607154" lon="14.846511"><ele>664.1666666666666</ele><time>2026-03-29T07:36:54.96Z</time></trkpt><trkpt lat="40.7607718" lon="14.8466229"><ele>662.0</ele><time>2026-03-29T07:36:57.957Z</time></trkpt><trkpt lat="40.7608077" lon="14.8467463"><ele>664.1666666666666</ele><time>2026-03-29T07:36:59.96Z</time></trkpt><trkpt lat="40.7608377" lon="14.8468338"><ele>666.3333333333333</ele><time>2026-03-29T07:37:00.957Z</time></trkpt><trkpt lat="40.7608586" lon="14.8469152"><ele>668.5</ele><time>2026-03-29T07:37:01.956Z</time></trkpt><trkpt lat="40.7608938" lon="14.8470205"><ele>670.6666666666666</ele><time>2026-03-29T07:37:03.954Z</time></trkpt><trkpt lat="40.7609526" lon="14.8470538"><ele>672.8333333333334</ele><time>2026-03-29T07:37:05.956Z</time></trkpt><trkpt lat="40.7610353" lon="14.8470641"><ele>675.0</ele><time>2026-03-29T07:37:07.957Z</time></trkpt><trkpt lat="40.7611414" lon="14.8470651"><ele>669.6</ele><time>2026-03-29T07:37:09.959Z</time></trkpt><trkpt lat="40.7612617" lon="14.8470579"><ele>664.2</ele><time>2026-03-29T07:37:11.959Z</time></trkpt><trkpt lat="40.7613789" lon="14.8470507"><ele>658.8</ele><time>2026-03-29T07:37:13.959Z</time></trkpt><trkpt lat="40.7614582" lon="14.8470698"><ele>653.4</ele><time>2026-03-29T07:37:15.962Z</time></trkpt><trkpt lat="40.7613535" lon="14.8470357"><ele>648.0</ele><time>2026-03-29T07:37:22.95Z</time></trkpt><trkpt lat="40.7612714" lon="14.8469849"><ele>648.0</ele><time>2026-03-29T07:37:24.959Z</time></trkpt><trkpt lat="40.7612203" lon="14.8468907"><ele>648.0</ele><time>2026-03-29T07:37:27.963Z</time></trkpt><trkpt lat="40.7612525" lon="14.8467435"><ele>648.0</ele><time>2026-03-29T07:37:29.957Z</time></trkpt><trkpt lat="40.7612734" lon="14.8466582"><ele>648.0</ele><time>2026-03-29T07:37:30.954Z</time></trkpt><trkpt lat="40.7612851" lon="14.8465719"><ele>648.0</ele><time>2026-03-29T07:37:31.96Z</time></trkpt><trkpt lat="40.7612922" lon="14.8464564"><ele>648.0</ele><time>2026-03-29T07:37:32.962Z</time></trkpt><trkpt lat="40.7612964" lon="14.8463374"><ele>646.3333333333334</ele><time>2026-03-29T07:37:33.955Z</time></trkpt><trkpt lat="40.7612894" lon="14.8462359"><ele>644.6666666666666</ele><time>2026-03-29T07:37:34.95Z</time></trkpt><trkpt lat="40.7612793" lon="14.8461357"><ele>643.0</ele><time>2026-03-29T07:37:35.957Z</time></trkpt><trkpt lat="40.7612658" lon="14.8460334"><ele>641.3333333333333</ele><time>2026-03-29T07:37:36.958Z</time></trkpt><trkpt lat="40.7612603" lon="14.8459311"><ele>639.6666666666666</ele><time>2026-03-29T07:37:37.955Z</time></trkpt><trkpt lat="40.7612646" lon="14.8458324"><ele>638.0</ele><time>2026-03-29T07:37:38.955Z</time></trkpt><trkpt lat="40.7612629" lon="14.845736"><ele>635.7142857142858</ele><time>2026-03-29T07:37:39.959Z</time></trkpt><trkpt lat="40.7612542" lon="14.845638"><ele>633.4285714285713</ele><time>2026-03-29T07:37:40.952Z</time></trkpt><trkpt lat="40.7612385" lon="14.8455369"><ele>631.1428571428571</ele><time>2026-03-29T07:37:41.953Z</time></trkpt><trkpt lat="40.761213" lon="14.8454558"><ele>628.8571428571429</ele><time>2026-03-29T07:37:42.958Z</time></trkpt><trkpt lat="40.7612133" lon="14.8453713"><ele>626.5714285714287</ele><time>2026-03-29T07:37:45.955Z</time></trkpt><trkpt lat="40.7612564" lon="14.845289"><ele>624.2857142857142</ele><time>2026-03-29T07:37:48.963Z</time></trkpt><trkpt lat="40.7613065" lon="14.8452145"><ele>622.0</ele><time>2026-03-29T07:37:50.96Z</time></trkpt><trkpt lat="40.7613804" lon="14.8451433"><ele>621.0</ele><time>2026-03-29T07:37:52.962Z</time></trkpt><trkpt lat="40.7614621" lon="14.8450694"><ele>620.0</ele><time>2026-03-29T07:37:54.958Z</time></trkpt><trkpt lat="40.7615234" lon="14.8449803"><ele>619.0</ele><time>2026-03-29T07:37:56.955Z</time></trkpt><trkpt lat="40.7615832" lon="14.8448412"><ele>618.0</ele><time>2026-03-29T07:37:58.959Z</time></trkpt><trkpt lat="40.7616459" lon="14.8447437"><ele>617.0</ele><time>2026-03-29T07:38:00.962Z</time></trkpt><trkpt lat="40.7617275" lon="14.8446313"><ele>617.0</ele><time>2026-03-29T07:38:02.961Z</time></trkpt><trkpt lat="40.7617778" lon="14.8445558"><ele>617.0</ele><time>2026-03-29T07:38:03.957Z</time></trkpt><trkpt lat="40.7618343" lon="14.8444659"><ele>617.0</ele><time>2026-03-29T07:38:04.957Z</time></trkpt><trkpt lat="40.7618882" lon="14.8443766"><ele>617.0</ele><time>2026-03-29T07:38:05.955Z</time></trkpt><trkpt lat="40.7619395" lon="14.8442982"><ele>617.0</ele><time>2026-03-29T07:38:06.956Z</time></trkpt><trkpt lat="40.7620076" lon="14.8442059"><ele>617.0</ele><time>2026-03-29T07:38:08.954Z</time></trkpt><trkpt lat="40.7620741" lon="14.8441222"><ele>612.5</ele><time>2026-03-29T07:38:10.957Z</time></trkpt><trkpt lat="40.7621441" lon="14.8440357"><ele>608.0</ele><time>2026-03-29T07:38:12.956Z</time></trkpt><trkpt lat="40.7622148" lon="14.8440088"><ele>603.5</ele><time>2026-03-29T07:38:14.955Z</time></trkpt><trkpt lat="40.7622595" lon="14.8440981"><ele>599.0</ele><time>2026-03-29T07:38:17.954Z</time></trkpt><trkpt lat="40.7622492" lon="14.8441836"><ele>594.5</ele><time>2026-03-29T07:38:19.957Z</time></trkpt><trkpt lat="40.7622237" lon="14.8442731"><ele>590.0</ele><time>2026-03-29T07:38:22.95Z</time></trkpt><trkpt lat="40.762184" lon="14.8443488"><ele>590.0</ele><time>2026-03-29T07:38:25.956Z</time></trkpt><trkpt lat="40.7622729" lon="14.8442188"><ele>590.0</ele><time>2026-03-29T07:38:28.954Z</time></trkpt><trkpt lat="40.7623311" lon="14.844134"><ele>590.0</ele><time>2026-03-29T07:38:29.949Z</time></trkpt><trkpt lat="40.7623965" lon="14.8440489"><ele>590.0</ele><time>2026-03-29T07:38:30.952Z</time></trkpt><trkpt lat="40.7624621" lon="14.8439862"><ele>590.0</ele><time>2026-03-29T07:38:31.961Z</time></trkpt><trkpt lat="40.7625312" lon="14.8439161"><ele>590.0000000000001</ele><time>2026-03-29T07:38:32.955Z</time></trkpt><trkpt lat="40.7625896" lon="14.8438415"><ele>590.0</ele><time>2026-03-29T07:38:33.953Z</time></trkpt><trkpt lat="40.762639" lon="14.843765"><ele>590.0</ele><time>2026-03-29T07:38:34.958Z</time></trkpt><trkpt lat="40.762676" lon="14.8436837"><ele>590.0</ele><time>2026-03-29T07:38:35.955Z</time></trkpt><trkpt lat="40.7627116" lon="14.843607"><ele>590.0</ele><time>2026-03-29T07:38:36.956Z</time></trkpt><trkpt lat="40.762758" lon="14.843534"><ele>590.0000000000001</ele><time>2026-03-29T07:38:37.961Z</time></trkpt><trkpt lat="40.7628045" lon="14.8434646"><ele>590.0</ele><time>2026-03-29T07:38:38.961Z</time></trkpt><trkpt lat="40.7628478" lon="14.8433758"><ele>586.1666666666666</ele><time>2026-03-29T07:38:39.96Z</time></trkpt><trkpt lat="40.7628846" lon="14.8432858"><ele>582.3333333333333</ele><time>2026-03-29T07:38:40.955Z</time></trkpt><trkpt lat="40.7629146" lon="14.8431924"><ele>578.5</ele><time>2026-03-29T07:38:41.952Z</time></trkpt><trkpt lat="40.7629469" lon="14.8430999"><ele>574.6666666666666</ele><time>2026-03-29T07:38:42.954Z</time></trkpt><trkpt lat="40.7629798" lon="14.8429986"><ele>570.8333333333334</ele><time>2026-03-29T07:38:43.957Z</time></trkpt><trkpt lat="40.7630035" lon="14.8429082"><ele>567.0</ele><time>2026-03-29T07:38:44.956Z</time></trkpt><trkpt lat="40.7630422" lon="14.8428335"><ele>567.0</ele><time>2026-03-29T07:38:45.951Z</time></trkpt><trkpt lat="40.7631038" lon="14.842758"><ele>567.0</ele><time>2026-03-29T07:38:46.953Z</time></trkpt><trkpt lat="40.7631615" lon="14.8426704"><ele>567.0</ele><time>2026-03-29T07:38:47.951Z</time></trkpt><trkpt lat="40.7632209" lon="14.8425764"><ele>567.0</ele><time>2026-03-29T07:38:48.954Z</time></trkpt><trkpt lat="40.7632854" lon="14.8424757"><ele>567.0</ele><time>2026-03-29T07:38:49.952Z</time></trkpt><trkpt lat="40.763347" lon="14.8423699"><ele>566.6</ele><time>2026-03-29T07:38:50.959Z</time></trkpt><trkpt lat="40.7634147" lon="14.8422498"><ele>566.2</ele><time>2026-03-29T07:38:51.957Z</time></trkpt><trkpt lat="40.7634748" lon="14.8421153"><ele>565.8</ele><time>2026-03-29T07:38:52.954Z</time></trkpt><trkpt lat="40.7635316" lon="14.8419947"><ele>565.4</ele><time>2026-03-29T07:38:53.954Z</time></trkpt><trkpt lat="40.7635762" lon="14.8418714"><ele>565.0</ele><time>2026-03-29T07:38:54.955Z</time></trkpt><trkpt lat="40.7636006" lon="14.8417548"><ele>563.1666666666667</ele><time>2026-03-29T07:38:55.955Z</time></trkpt><trkpt lat="40.7636125" lon="14.8416484"><ele>561.3333333333334</ele><time>2026-03-29T07:38:56.952Z</time></trkpt><trkpt lat="40.7636335" lon="14.8415261"><ele>559.5</ele><time>2026-03-29T07:38:57.956Z</time></trkpt><trkpt lat="40.7636634" lon="14.8414084"><ele>557.6666666666666</ele><time>2026-03-29T07:38:58.959Z</time></trkpt><trkpt lat="40.7636876" lon="14.8412956"><ele>555.8333333333333</ele><time>2026-03-29T07:38:59.955Z</time></trkpt><trkpt lat="40.7637207" lon="14.8411854"><ele>554.0</ele><time>2026-03-29T07:39:00.955Z</time></trkpt><trkpt lat="40.7637704" lon="14.8410983"><ele>554.0</ele><time>2026-03-29T07:39:01.947Z</time></trkpt><trkpt lat="40.7638426" lon="14.8410351"><ele>554.0</ele><time>2026-03-29T07:39:02.959Z</time></trkpt><trkpt lat="40.7639102" lon="14.8409979"><ele>554.0</ele><time>2026-03-29T07:39:03.955Z</time></trkpt><trkpt lat="40.763968" lon="14.8409341"><ele>554.0</ele><time>2026-03-29T07:39:04.96Z</time></trkpt><trkpt lat="40.7640409" lon="14.8408761"><ele>554.0</ele><time>2026-03-29T07:39:05.957Z</time></trkpt><trkpt lat="40.764099" lon="14.8408404"><ele>554.0</ele><time>2026-03-29T07:39:06.958Z</time></trkpt><trkpt lat="40.7641795" lon="14.8408051"><ele>553.6666666666666</ele><time>2026-03-29T07:39:07.958Z</time></trkpt><trkpt lat="40.7642606" lon="14.8407561"><ele>553.3333333333333</ele><time>2026-03-29T07:39:08.964Z</time></trkpt><trkpt lat="40.7643393" lon="14.8407031"><ele>553.0</ele><time>2026-03-29T07:39:09.959Z</time></trkpt><trkpt lat="40.7644018" lon="14.8406614"><ele>552.6666666666666</ele><time>2026-03-29T07:39:10.957Z</time></trkpt><trkpt lat="40.7644644" lon="14.8406322"><ele>552.3333333333334</ele><time>2026-03-29T07:39:11.958Z</time></trkpt><trkpt lat="40.7645675" lon="14.8405789"><ele>552.0</ele><time>2026-03-29T07:39:13.958Z</time></trkpt><trkpt lat="40.764612" lon="14.8405167"><ele>552.1666666666666</ele><time>2026-03-29T07:39:15.957Z</time></trkpt><trkpt lat="40.764696" lon="14.8405095"><ele>552.3333333333334</ele><time>2026-03-29T07:39:21.958Z</time></trkpt><trkpt lat="40.7647647" lon="14.8404442"><ele>552.5</ele><time>2026-03-29T07:39:23.955Z</time></trkpt><trkpt lat="40.7648127" lon="14.840352"><ele>552.6666666666667</ele><time>2026-03-29T07:39:25.955Z</time></trkpt><trkpt lat="40.7648248" lon="14.840241"><ele>552.8333333333334</ele><time>2026-03-29T07:39:26.952Z</time></trkpt><trkpt lat="40.7648248" lon="14.840098"><ele>553.0</ele><time>2026-03-29T07:39:27.95Z</time></trkpt><trkpt lat="40.7648073" lon="14.8399719"><ele>553.0</ele><time>2026-03-29T07:39:28.955Z</time></trkpt><trkpt lat="40.7648138" lon="14.839889"><ele>553.0</ele><time>2026-03-29T07:39:29.951Z</time></trkpt><trkpt lat="40.7648194" lon="14.8397969"><ele>553.0</ele><time>2026-03-29T07:39:30.957Z</time></trkpt><trkpt lat="40.7648473" lon="14.8396882"><ele>553.0</ele><time>2026-03-29T07:39:31.957Z</time></trkpt><trkpt lat="40.764898" lon="14.8395661"><ele>553.0</ele><time>2026-03-29T07:39:32.952Z</time></trkpt><trkpt lat="40.7649593" lon="14.8394307"><ele>553.0</ele><time>2026-03-29T07:39:33.955Z</time></trkpt><trkpt lat="40.7650199" lon="14.8393262"><ele>552.0</ele><time>2026-03-29T07:39:34.953Z</time></trkpt><trkpt lat="40.76511" lon="14.8392573"><ele>551.0</ele><time>2026-03-29T07:39:35.958Z</time></trkpt><trkpt lat="40.7652277" lon="14.8391862"><ele>550.0</ele><time>2026-03-29T07:39:36.954Z</time></trkpt><trkpt lat="40.7653281" lon="14.8391292"><ele>549.0</ele><time>2026-03-29T07:39:37.947Z</time></trkpt><trkpt lat="40.7653942" lon="14.8390615"><ele>548.0</ele><time>2026-03-29T07:39:38.952Z</time></trkpt><trkpt lat="40.7654419" lon="14.8389584"><ele>548.0</ele><time>2026-03-29T07:39:39.956Z</time></trkpt><trkpt lat="40.7654922" lon="14.8388568"><ele>548.0</ele><time>2026-03-29T07:39:40.95Z</time></trkpt><trkpt lat="40.7655405" lon="14.8387748"><ele>548.0</ele><time>2026-03-29T07:39:41.954Z</time></trkpt><trkpt lat="40.7656372" lon="14.8386998"><ele>548.0</ele><time>2026-03-29T07:39:43.958Z</time></trkpt><trkpt lat="40.7657214" lon="14.8386832"><ele>548.0</ele><time>2026-03-29T07:39:44.95Z</time></trkpt><trkpt lat="40.7658291" lon="14.838674"><ele>548.0</ele><time>2026-03-29T07:39:45.956Z</time></trkpt><trkpt lat="40.7659231" lon="14.8386816"><ele>548.0</ele><time>2026-03-29T07:39:46.956Z</time></trkpt><trkpt lat="40.7659543" lon="14.8385756"><ele>548.0</ele><time>2026-03-29T07:39:48.95Z</time></trkpt><trkpt lat="40.7659392" lon="14.8384431"><ele>548.0</ele><time>2026-03-29T07:39:50.957Z</time></trkpt><trkpt lat="40.7659603" lon="14.8383621"><ele>548.0</ele><time>2026-03-29T07:39:51.958Z</time></trkpt><trkpt lat="40.7660061" lon="14.8382976"><ele>548.0</ele><time>2026-03-29T07:39:52.961Z</time></trkpt><trkpt lat="40.7660729" lon="14.8382286"><ele>547.5</ele><time>2026-03-29T07:39:53.959Z</time></trkpt><trkpt lat="40.7661538" lon="14.8381519"><ele>547.0</ele><time>2026-03-29T07:39:54.952Z</time></trkpt><trkpt lat="40.7662054" lon="14.8380907"><ele>546.5</ele><time>2026-03-29T07:39:55.96Z</time></trkpt><trkpt lat="40.7662638" lon="14.8380029"><ele>546.0</ele><time>2026-03-29T07:39:57.956Z</time></trkpt><trkpt lat="40.7662" lon="14.8379886"><ele>545.5</ele><time>2026-03-29T07:39:59.955Z</time></trkpt><trkpt lat="40.7661164" lon="14.8379881"><ele>545.0</ele><time>2026-03-29T07:40:00.955Z</time></trkpt><trkpt lat="40.7660218" lon="14.83802"><ele>542.1666666666666</ele><time>2026-03-29T07:40:01.962Z</time></trkpt><trkpt lat="40.7659383" lon="14.8380441"><ele>539.3333333333333</ele><time>2026-03-29T07:40:02.956Z</time></trkpt><trkpt lat="40.7658641" lon="14.8380716"><ele>536.5</ele><time>2026-03-29T07:40:03.959Z</time></trkpt><trkpt lat="40.7658051" lon="14.8381329"><ele>533.6666666666666</ele><time>2026-03-29T07:40:04.957Z</time></trkpt><trkpt lat="40.7657598" lon="14.8382376"><ele>530.8333333333334</ele><time>2026-03-29T07:40:05.958Z</time></trkpt><trkpt lat="40.7657146" lon="14.8383348"><ele>528.0</ele><time>2026-03-29T07:40:06.96Z</time></trkpt><trkpt lat="40.7656531" lon="14.8383957"><ele>528.0</ele><time>2026-03-29T07:40:07.952Z</time></trkpt><trkpt lat="40.7655856" lon="14.8384404"><ele>528.0</ele><time>2026-03-29T07:40:08.956Z</time></trkpt><trkpt lat="40.7654766" lon="14.838503"><ele>528.0</ele><time>2026-03-29T07:40:10.954Z</time></trkpt><trkpt lat="40.7654192" lon="14.8385547"><ele>528.0</ele><time>2026-03-29T07:40:11.958Z</time></trkpt><trkpt lat="40.7653584" lon="14.838623"><ele>528.0</ele><time>2026-03-29T07:40:12.955Z</time></trkpt><trkpt lat="40.7653075" lon="14.8386873"><ele>528.0</ele><time>2026-03-29T07:40:13.951Z</time></trkpt><trkpt lat="40.7652007" lon="14.8387222"><ele>528.3333333333334</ele><time>2026-03-29T07:40:15.955Z</time></trkpt><trkpt lat="40.7651218" lon="14.8387185"><ele>528.6666666666666</ele><time>2026-03-29T07:40:16.954Z</time></trkpt><trkpt lat="40.765056" lon="14.8387396"><ele>529.0</ele><time>2026-03-29T07:40:17.955Z</time></trkpt><trkpt lat="40.7649889" lon="14.8387296"><ele>529.3333333333333</ele><time>2026-03-29T07:40:18.95Z</time></trkpt><trkpt lat="40.7649092" lon="14.8387263"><ele>529.6666666666666</ele><time>2026-03-29T07:40:19.954Z</time></trkpt><trkpt lat="40.764835" lon="14.8387086"><ele>530.0</ele><time>2026-03-29T07:40:20.959Z</time></trkpt><trkpt lat="40.764723" lon="14.8387139"><ele>530.0</ele><time>2026-03-29T07:40:22.954Z</time></trkpt><trkpt lat="40.7646278" lon="14.838712"><ele>530.0</ele><time>2026-03-29T07:40:24.957Z</time></trkpt><trkpt lat="40.7645515" lon="14.8386729"><ele>530.0</ele><time>2026-03-29T07:40:25.953Z</time></trkpt><trkpt lat="40.7644431" lon="14.8386625"><ele>530.0</ele><time>2026-03-29T07:40:27.947Z</time></trkpt><trkpt lat="40.7643258" lon="14.8386396"><ele>530.0</ele><time>2026-03-29T07:40:29.95Z</time></trkpt><trkpt lat="40.764256" lon="14.8385932"><ele>530.8333333333333</ele><time>2026-03-29T07:40:30.956Z</time></trkpt><trkpt lat="40.764186" lon="14.8385595"><ele>531.6666666666666</ele><time>2026-03-29T07:40:31.952Z</time></trkpt><trkpt lat="40.7641209" lon="14.8385397"><ele>532.5</ele><time>2026-03-29T07:40:32.947Z</time></trkpt><trkpt lat="40.7640518" lon="14.8384924"><ele>533.3333333333334</ele><time>2026-03-29T07:40:34.957Z</time></trkpt><trkpt lat="40.7640446" lon="14.8383852"><ele>534.1666666666667</ele><time>2026-03-29T07:40:36.965Z</time></trkpt><trkpt lat="40.7641008" lon="14.8383131"><ele>535.0</ele><time>2026-03-29T07:40:39.954Z</time></trkpt><trkpt lat="40.7641894" lon="14.8383463"><ele>533.0</ele><time>2026-03-29T07:40:41.957Z</time></trkpt><trkpt lat="40.7642517" lon="14.8383694"><ele>531.0</ele><time>2026-03-29T07:40:42.966Z</time></trkpt><trkpt lat="40.7643479" lon="14.8383807"><ele>529.0</ele><time>2026-03-29T07:40:43.951Z</time></trkpt><trkpt lat="40.7644322" lon="14.8383788"><ele>527.0</ele><time>2026-03-29T07:40:44.952Z</time></trkpt><trkpt lat="40.7645266" lon="14.8383614"><ele>525.0</ele><time>2026-03-29T07:40:45.949Z</time></trkpt><trkpt lat="40.7646174" lon="14.8383337"><ele>523.0</ele><time>2026-03-29T07:40:46.952Z</time></trkpt><trkpt lat="40.7647123" lon="14.8382785"><ele>521.5</ele><time>2026-03-29T07:40:47.958Z</time></trkpt><trkpt lat="40.7648138" lon="14.838192"><ele>520.0</ele><time>2026-03-29T07:40:48.952Z</time></trkpt><trkpt lat="40.7648802" lon="14.8380408"><ele>518.5</ele><time>2026-03-29T07:40:49.951Z</time></trkpt><trkpt lat="40.7649138" lon="14.8379033"><ele>517.0</ele><time>2026-03-29T07:40:50.952Z</time></trkpt><trkpt lat="40.7649194" lon="14.8377533"><ele>518.8000000000001</ele><time>2026-03-29T07:40:51.955Z</time></trkpt><trkpt lat="40.7649039" lon="14.8376057"><ele>520.6</ele><time>2026-03-29T07:40:52.953Z</time></trkpt><trkpt lat="40.7648738" lon="14.8374772"><ele>522.4000000000001</ele><time>2026-03-29T07:40:53.95Z</time></trkpt><trkpt lat="40.7648419" lon="14.8373797"><ele>524.2</ele><time>2026-03-29T07:40:54.95Z</time></trkpt><trkpt lat="40.7648154" lon="14.8372901"><ele>526.0</ele><time>2026-03-29T07:40:55.957Z</time></trkpt><trkpt lat="40.7647953" lon="14.8371218"><ele>526.0</ele><time>2026-03-29T07:40:57.957Z</time></trkpt><trkpt lat="40.7648301" lon="14.8370032"><ele>526.0</ele><time>2026-03-29T07:40:58.955Z</time></trkpt><trkpt lat="40.7648841" lon="14.8368708"><ele>526.0</ele><time>2026-03-29T07:40:59.961Z</time></trkpt><trkpt lat="40.7649388" lon="14.8367503"><ele>526.0</ele><time>2026-03-29T07:41:00.958Z</time></trkpt><trkpt lat="40.7649837" lon="14.8366206"><ele>526.0</ele><time>2026-03-29T07:41:01.966Z</time></trkpt><trkpt lat="40.7650279" lon="14.8364642"><ele>528.8</ele><time>2026-03-29T07:41:02.961Z</time></trkpt><trkpt lat="40.7650627" lon="14.8363093"><ele>531.6</ele><time>2026-03-29T07:41:03.958Z</time></trkpt><trkpt lat="40.7650706" lon="14.8361714"><ele>534.4</ele><time>2026-03-29T07:41:04.963Z</time></trkpt><trkpt lat="40.7650637" lon="14.8360455"><ele>537.2</ele><time>2026-03-29T07:41:05.964Z</time></trkpt><trkpt lat="40.7650395" lon="14.8358988"><ele>540.0</ele><time>2026-03-29T07:41:06.96Z</time></trkpt><trkpt lat="40.7650079" lon="14.8357231"><ele>542.0</ele><time>2026-03-29T07:41:07.96Z</time></trkpt><trkpt lat="40.7649769" lon="14.8355381"><ele>544.0</ele><time>2026-03-29T07:41:08.957Z</time></trkpt><trkpt lat="40.7649434" lon="14.8353654"><ele>546.0</ele><time>2026-03-29T07:41:09.964Z</time></trkpt><trkpt lat="40.7649168" lon="14.835204"><ele>548.0</ele><time>2026-03-29T07:41:10.96Z</time></trkpt><trkpt lat="40.7649036" lon="14.8350453"><ele>548.0</ele><time>2026-03-29T07:41:11.952Z</time></trkpt><trkpt lat="40.7648947" lon="14.8348905"><ele>548.0</ele><time>2026-03-29T07:41:12.96Z</time></trkpt><trkpt lat="40.7648977" lon="14.8347367"><ele>548.0</ele><time>2026-03-29T07:41:13.956Z</time></trkpt><trkpt lat="40.7649131" lon="14.8345868"><ele>548.0</ele><time>2026-03-29T07:41:14.956Z</time></trkpt><trkpt lat="40.7649329" lon="14.8344373"><ele>548.0</ele><time>2026-03-29T07:41:15.959Z</time></trkpt><trkpt lat="40.7649529" lon="14.8343094"><ele>548.0</ele><time>2026-03-29T07:41:16.96Z</time></trkpt><trkpt lat="40.7649433" lon="14.8342096"><ele>548.0</ele><time>2026-03-29T07:41:17.964Z</time></trkpt><trkpt lat="40.7648979" lon="14.8340457"><ele>548.0</ele><time>2026-03-29T07:41:19.959Z</time></trkpt><trkpt lat="40.7648296" lon="14.8339347"><ele>548.0</ele><time>2026-03-29T07:41:21.962Z</time></trkpt><trkpt lat="40.7647092" lon="14.8338635"><ele>547.1999999999999</ele><time>2026-03-29T07:41:23.962Z</time></trkpt><trkpt lat="40.7646316" lon="14.8337864"><ele>546.4</ele><time>2026-03-29T07:41:24.956Z</time></trkpt><trkpt lat="40.7645453" lon="14.8336938"><ele>545.5999999999999</ele><time>2026-03-29T07:41:25.954Z</time></trkpt><trkpt lat="40.7644646" lon="14.8336058"><ele>544.8</ele><time>2026-03-29T07:41:26.963Z</time></trkpt><trkpt lat="40.764409" lon="14.8335323"><ele>544.0</ele><time>2026-03-29T07:41:27.962Z</time></trkpt><trkpt lat="40.7643678" lon="14.8334319"><ele>545.8333333333334</ele><time>2026-03-29T07:41:28.961Z</time></trkpt><trkpt lat="40.7643428" lon="14.8333342"><ele>547.6666666666667</ele><time>2026-03-29T07:41:29.958Z</time></trkpt><trkpt lat="40.7643226" lon="14.8332145"><ele>549.5</ele><time>2026-03-29T07:41:30.963Z</time></trkpt><trkpt lat="40.7643147" lon="14.8330975"><ele>551.3333333333334</ele><time>2026-03-29T07:41:31.959Z</time></trkpt><trkpt lat="40.7643209" lon="14.8329899"><ele>553.1666666666666</ele><time>2026-03-29T07:41:32.955Z</time></trkpt><trkpt lat="40.7643265" lon="14.8328961"><ele>555.0</ele><time>2026-03-29T07:41:33.957Z</time></trkpt><trkpt lat="40.7643356" lon="14.8328039"><ele>555.0</ele><time>2026-03-29T07:41:34.955Z</time></trkpt><trkpt lat="40.7643346" lon="14.8327055"><ele>555.0</ele><time>2026-03-29T07:41:35.961Z</time></trkpt><trkpt lat="40.764332" lon="14.8325729"><ele>555.0</ele><time>2026-03-29T07:41:37.966Z</time></trkpt><trkpt lat="40.7643712" lon="14.8324988"><ele>555.0</ele><time>2026-03-29T07:41:41.962Z</time></trkpt><trkpt lat="40.7644424" lon="14.8324142"><ele>555.0</ele><time>2026-03-29T07:41:45.957Z</time></trkpt><trkpt lat="40.7645253" lon="14.8323594"><ele>555.0</ele><time>2026-03-29T07:41:46.96Z</time></trkpt><trkpt lat="40.764617" lon="14.8323054"><ele>551.0</ele><time>2026-03-29T07:41:47.956Z</time></trkpt><trkpt lat="40.7647053" lon="14.8322458"><ele>547.0</ele><time>2026-03-29T07:41:48.958Z</time></trkpt><trkpt lat="40.7647926" lon="14.832175"><ele>543.0</ele><time>2026-03-29T07:41:49.964Z</time></trkpt><trkpt lat="40.7649118" lon="14.8320823"><ele>539.0</ele><time>2026-03-29T07:41:50.965Z</time></trkpt><trkpt lat="40.7650321" lon="14.8319934"><ele>539.0</ele><time>2026-03-29T07:41:51.954Z</time></trkpt><trkpt lat="40.7651218" lon="14.8319191"><ele>539.0</ele><time>2026-03-29T07:41:52.961Z</time></trkpt><trkpt lat="40.765204" lon="14.8318321"><ele>539.0</ele><time>2026-03-29T07:41:54.959Z</time></trkpt><trkpt lat="40.7652544" lon="14.8317538"><ele>539.0</ele><time>2026-03-29T07:41:57.954Z</time></trkpt><trkpt lat="40.7652084" lon="14.8316918"><ele>539.0</ele><time>2026-03-29T07:41:59.962Z</time></trkpt><trkpt lat="40.7651277" lon="14.8316036"><ele>541.6</ele><time>2026-03-29T07:42:00.957Z</time></trkpt><trkpt lat="40.7650392" lon="14.8315252"><ele>544.2</ele><time>2026-03-29T07:42:01.95Z</time></trkpt><trkpt lat="40.7649529" lon="14.831443"><ele>546.8000000000001</ele><time>2026-03-29T07:42:02.955Z</time></trkpt><trkpt lat="40.7648752" lon="14.8313653"><ele>549.4</ele><time>2026-03-29T07:42:03.96Z</time></trkpt><trkpt lat="40.764802" lon="14.8313117"><ele>552.0</ele><time>2026-03-29T07:42:04.958Z</time></trkpt><trkpt lat="40.7647284" lon="14.8312601"><ele>552.0</ele><time>2026-03-29T07:42:05.955Z</time></trkpt><trkpt lat="40.7646716" lon="14.8311991"><ele>552.0</ele><time>2026-03-29T07:42:06.958Z</time></trkpt><trkpt lat="40.7646657" lon="14.8310778"><ele>552.0</ele><time>2026-03-29T07:42:08.96Z</time></trkpt><trkpt lat="40.7647198" lon="14.8309834"><ele>552.0</ele><time>2026-03-29T07:42:10.954Z</time></trkpt><trkpt lat="40.7647767" lon="14.8309458"><ele>552.0</ele><time>2026-03-29T07:42:11.958Z</time></trkpt><trkpt lat="40.7648633" lon="14.8308827"><ele>552.0</ele><time>2026-03-29T07:42:13.96Z</time></trkpt><trkpt lat="40.7649078" lon="14.8308164"><ele>553.3333333333334</ele><time>2026-03-29T07:42:14.952Z</time></trkpt><trkpt lat="40.7649644" lon="14.8307235"><ele>554.6666666666666</ele><time>2026-03-29T07:42:15.964Z</time></trkpt><trkpt lat="40.7650129" lon="14.8306307"><ele>556.0</ele><time>2026-03-29T07:42:16.956Z</time></trkpt><trkpt lat="40.7650497" lon="14.8305575"><ele>557.3333333333333</ele><time>2026-03-29T07:42:17.959Z</time></trkpt><trkpt lat="40.7650936" lon="14.8304569"><ele>558.6666666666666</ele><time>2026-03-29T07:42:19.966Z</time></trkpt><trkpt lat="40.7651731" lon="14.8304348"><ele>560.0</ele><time>2026-03-29T07:42:21.957Z</time></trkpt><trkpt lat="40.7652606" lon="14.8304278"><ele>560.0</ele><time>2026-03-29T07:42:22.96Z</time></trkpt><trkpt lat="40.7653453" lon="14.8304295"><ele>560.0</ele><time>2026-03-29T07:42:23.965Z</time></trkpt><trkpt lat="40.7654474" lon="14.8304402"><ele>560.0</ele><time>2026-03-29T07:42:24.962Z</time></trkpt><trkpt lat="40.7655719" lon="14.8304175"><ele>560.0</ele><time>2026-03-29T07:42:25.957Z</time></trkpt><trkpt lat="40.7656841" lon="14.8303755"><ele>560.0</ele><time>2026-03-29T07:42:26.954Z</time></trkpt><trkpt lat="40.7657844" lon="14.8303596"><ele>560.0</ele><time>2026-03-29T07:42:27.955Z</time></trkpt><trkpt lat="40.765877" lon="14.8303543"><ele>560.0</ele><time>2026-03-29T07:42:28.958Z</time></trkpt><trkpt lat="40.7659689" lon="14.8303665"><ele>560.0</ele><time>2026-03-29T07:42:29.955Z</time></trkpt><trkpt lat="40.7660714" lon="14.8303653"><ele>560.0</ele><time>2026-03-29T07:42:30.958Z</time></trkpt><trkpt lat="40.7661628" lon="14.830354"><ele>560.0</ele><time>2026-03-29T07:42:31.957Z</time></trkpt><trkpt lat="40.7662578" lon="14.8303383"><ele>559.2</ele><time>2026-03-29T07:42:32.958Z</time></trkpt><trkpt lat="40.7663515" lon="14.8303154"><ele>558.4</ele><time>2026-03-29T07:42:33.959Z</time></trkpt><trkpt lat="40.7664321" lon="14.8302629"><ele>557.6</ele><time>2026-03-29T07:42:34.96Z</time></trkpt><trkpt lat="40.7665118" lon="14.8301996"><ele>556.8</ele><time>2026-03-29T07:42:35.964Z</time></trkpt><trkpt lat="40.766568" lon="14.830138"><ele>556.0</ele><time>2026-03-29T07:42:36.966Z</time></trkpt><trkpt lat="40.7664613" lon="14.830165"><ele>556.0</ele><time>2026-03-29T07:42:40.964Z</time></trkpt><trkpt lat="40.7663831" lon="14.8301919"><ele>556.0</ele><time>2026-03-29T07:42:41.964Z</time></trkpt><trkpt lat="40.766292" lon="14.8301943"><ele>556.0</ele><time>2026-03-29T07:42:42.96Z</time></trkpt><trkpt lat="40.7661858" lon="14.8301511"><ele>556.0</ele><time>2026-03-29T07:42:43.957Z</time></trkpt><trkpt lat="40.7660655" lon="14.8300899"><ele>556.0</ele><time>2026-03-29T07:42:44.959Z</time></trkpt><trkpt lat="40.7659481" lon="14.830027"><ele>561.8</ele><time>2026-03-29T07:42:45.964Z</time></trkpt><trkpt lat="40.765835" lon="14.8299685"><ele>567.6</ele><time>2026-03-29T07:42:46.961Z</time></trkpt><trkpt lat="40.7657248" lon="14.829925"><ele>573.4</ele><time>2026-03-29T07:42:47.957Z</time></trkpt><trkpt lat="40.7656178" lon="14.8298745"><ele>579.2</ele><time>2026-03-29T07:42:48.959Z</time></trkpt><trkpt lat="40.7655244" lon="14.8298336"><ele>585.0</ele><time>2026-03-29T07:42:49.965Z</time></trkpt><trkpt lat="40.7654295" lon="14.8297795"><ele>585.0</ele><time>2026-03-29T07:42:50.96Z</time></trkpt><trkpt lat="40.7653409" lon="14.829722"><ele>585.0</ele><time>2026-03-29T07:42:51.961Z</time></trkpt><trkpt lat="40.765246" lon="14.8296601"><ele>585.0</ele><time>2026-03-29T07:42:52.967Z</time></trkpt><trkpt lat="40.7651458" lon="14.8295951"><ele>585.0</ele><time>2026-03-29T07:42:53.962Z</time></trkpt><trkpt lat="40.7650719" lon="14.8295523"><ele>585.0</ele><time>2026-03-29T07:42:54.96Z</time></trkpt><trkpt lat="40.7650058" lon="14.8295491"><ele>587.3333333333334</ele><time>2026-03-29T07:42:55.959Z</time></trkpt><trkpt lat="40.7649408" lon="14.8295629"><ele>589.6666666666666</ele><time>2026-03-29T07:42:56.965Z</time></trkpt><trkpt lat="40.7648402" lon="14.8296234"><ele>592.0</ele><time>2026-03-29T07:42:58.962Z</time></trkpt><trkpt lat="40.764801" lon="14.8296977"><ele>594.3333333333333</ele><time>2026-03-29T07:42:59.957Z</time></trkpt><trkpt lat="40.7647609" lon="14.8297811"><ele>596.6666666666666</ele><time>2026-03-29T07:43:00.962Z</time></trkpt><trkpt lat="40.7647156" lon="14.8298849"><ele>599.0</ele><time>2026-03-29T07:43:01.958Z</time></trkpt><trkpt lat="40.7646773" lon="14.8299842"><ele>599.0</ele><time>2026-03-29T07:43:02.963Z</time></trkpt><trkpt lat="40.7646246" lon="14.8300821"><ele>599.0</ele><time>2026-03-29T07:43:03.956Z</time></trkpt><trkpt lat="40.7645667" lon="14.8301618"><ele>599.0</ele><time>2026-03-29T07:43:04.954Z</time></trkpt><trkpt lat="40.7645092" lon="14.8302385"><ele>599.0</ele><time>2026-03-29T07:43:05.961Z</time></trkpt><trkpt lat="40.7644424" lon="14.8303"><ele>599.0</ele><time>2026-03-29T07:43:06.959Z</time></trkpt><trkpt lat="40.7643567" lon="14.8303625"><ele>599.0</ele><time>2026-03-29T07:43:07.961Z</time></trkpt><trkpt lat="40.7642479" lon="14.8304273"><ele>597.8</ele><time>2026-03-29T07:43:08.957Z</time></trkpt><trkpt lat="40.7641355" lon="14.8304758"><ele>596.5999999999999</ele><time>2026-03-29T07:43:09.956Z</time></trkpt><trkpt lat="40.7640292" lon="14.8305241"><ele>595.4</ele><time>2026-03-29T07:43:10.96Z</time></trkpt><trkpt lat="40.7639357" lon="14.8305519"><ele>594.1999999999999</ele><time>2026-03-29T07:43:11.957Z</time></trkpt><trkpt lat="40.7638627" lon="14.8305744"><ele>593.0</ele><time>2026-03-29T07:43:12.961Z</time></trkpt><trkpt lat="40.7637994" lon="14.8306231"><ele>593.0</ele><time>2026-03-29T07:43:14.958Z</time></trkpt><trkpt lat="40.7637447" lon="14.8307536"><ele>593.0</ele><time>2026-03-29T07:43:16.959Z</time></trkpt><trkpt lat="40.7637199" lon="14.8308439"><ele>593.0</ele><time>2026-03-29T07:43:18.957Z</time></trkpt><trkpt lat="40.7636559" lon="14.8308655"><ele>593.0</ele><time>2026-03-29T07:43:20.965Z</time></trkpt><trkpt lat="40.7635193" lon="14.8307925"><ele>593.0</ele><time>2026-03-29T07:43:21.958Z</time></trkpt><trkpt lat="40.7633818" lon="14.8307364"><ele>597.25</ele><time>2026-03-29T07:43:22.96Z</time></trkpt><trkpt lat="40.7632366" lon="14.8307107"><ele>601.5</ele><time>2026-03-29T07:43:23.959Z</time></trkpt><trkpt lat="40.7630973" lon="14.8306749"><ele>605.75</ele><time>2026-03-29T07:43:24.96Z</time></trkpt><trkpt lat="40.7629529" lon="14.8306564"><ele>610.0</ele><time>2026-03-29T07:43:25.966Z</time></trkpt><trkpt lat="40.7628291" lon="14.8306474"><ele>610.0</ele><time>2026-03-29T07:43:26.956Z</time></trkpt><trkpt lat="40.7627092" lon="14.8306131"><ele>610.0</ele><time>2026-03-29T07:43:27.958Z</time></trkpt><trkpt lat="40.7626307" lon="14.8305956"><ele>610.0</ele><time>2026-03-29T07:43:28.959Z</time></trkpt><trkpt lat="40.7625496" lon="14.830562"><ele>610.0</ele><time>2026-03-29T07:43:30.952Z</time></trkpt><trkpt lat="40.7624558" lon="14.8305365"><ele>610.0</ele><time>2026-03-29T07:43:33.955Z</time></trkpt><trkpt lat="40.7623941" lon="14.8305106"><ele>610.0</ele><time>2026-03-29T07:43:35.974Z</time></trkpt><trkpt lat="40.7623155" lon="14.8305371"><ele>610.6</ele><time>2026-03-29T07:43:38.96Z</time></trkpt><trkpt lat="40.76226" lon="14.830461"><ele>611.2</ele><time>2026-03-29T07:44:44.955Z</time></trkpt><trkpt lat="40.7622468" lon="14.830332"><ele>611.8</ele><time>2026-03-29T07:44:45.952Z</time></trkpt><trkpt lat="40.762244" lon="14.8301902"><ele>612.4</ele><time>2026-03-29T07:44:46.954Z</time></trkpt><trkpt lat="40.7622376" lon="14.8300637"><ele>613.0</ele><time>2026-03-29T07:44:47.951Z</time></trkpt><trkpt lat="40.762239" lon="14.8299336"><ele>614.4</ele><time>2026-03-29T07:44:48.957Z</time></trkpt><trkpt lat="40.7622511" lon="14.8298188"><ele>615.8</ele><time>2026-03-29T07:44:49.955Z</time></trkpt><trkpt lat="40.7622634" lon="14.8296989"><ele>617.2</ele><time>2026-03-29T07:44:50.956Z</time></trkpt><trkpt lat="40.762266" lon="14.8295736"><ele>618.6</ele><time>2026-03-29T07:44:51.959Z</time></trkpt><trkpt lat="40.7622687" lon="14.8294486"><ele>620.0</ele><time>2026-03-29T07:44:52.953Z</time></trkpt><trkpt lat="40.7622707" lon="14.8293408"><ele>620.0</ele><time>2026-03-29T07:44:53.958Z</time></trkpt><trkpt lat="40.762269" lon="14.829238"><ele>620.0</ele><time>2026-03-29T07:44:54.954Z</time></trkpt><trkpt lat="40.7622601" lon="14.8291468"><ele>620.0</ele><time>2026-03-29T07:44:55.953Z</time></trkpt><trkpt lat="40.7622452" lon="14.8290628"><ele>620.0</ele><time>2026-03-29T07:44:56.963Z</time></trkpt><trkpt lat="40.7621524" lon="14.8291444"><ele>620.0</ele><time>2026-03-29T07:45:01.96Z</time></trkpt><trkpt lat="40.7621237" lon="14.8292584"><ele>620.0</ele><time>2026-03-29T07:45:02.948Z</time></trkpt><trkpt lat="40.7620865" lon="14.8293788"><ele>620.0</ele><time>2026-03-29T07:45:03.954Z</time></trkpt><trkpt lat="40.762032" lon="14.8294913"><ele>620.0</ele><time>2026-03-29T07:45:04.96Z</time></trkpt><trkpt lat="40.7619523" lon="14.8296218"><ele>620.0</ele><time>2026-03-29T07:45:05.957Z</time></trkpt><trkpt lat="40.7618783" lon="14.8297532"><ele>620.0</ele><time>2026-03-29T07:45:06.955Z</time></trkpt><trkpt lat="40.7618115" lon="14.8298836"><ele>617.5</ele><time>2026-03-29T07:45:07.952Z</time></trkpt><trkpt lat="40.7617332" lon="14.8300027"><ele>615.0</ele><time>2026-03-29T07:45:08.977Z</time></trkpt><trkpt lat="40.7616388" lon="14.8300935"><ele>612.5</ele><time>2026-03-29T07:45:09.955Z</time></trkpt><trkpt lat="40.76154" lon="14.8301729"><ele>610.0</ele><time>2026-03-29T07:45:10.959Z</time></trkpt><trkpt lat="40.7614377" lon="14.8302445"><ele>610.0</ele><time>2026-03-29T07:45:11.96Z</time></trkpt><trkpt lat="40.7613603" lon="14.830328"><ele>610.0</ele><time>2026-03-29T07:45:12.958Z</time></trkpt><trkpt lat="40.7612939" lon="14.8304102"><ele>610.0</ele><time>2026-03-29T07:45:13.957Z</time></trkpt><trkpt lat="40.7612208" lon="14.8304566"><ele>610.0</ele><time>2026-03-29T07:45:14.959Z</time></trkpt><trkpt lat="40.761134" lon="14.8304545"><ele>610.0</ele><time>2026-03-29T07:45:15.955Z</time></trkpt><trkpt lat="40.7610492" lon="14.8304241"><ele>610.0</ele><time>2026-03-29T07:45:16.951Z</time></trkpt><trkpt lat="40.7609699" lon="14.8303993"><ele>607.8333333333334</ele><time>2026-03-29T07:45:17.956Z</time></trkpt><trkpt lat="40.7608825" lon="14.8303943"><ele>605.6666666666667</ele><time>2026-03-29T07:45:18.961Z</time></trkpt><trkpt lat="40.7607945" lon="14.8304397"><ele>603.5</ele><time>2026-03-29T07:45:19.955Z</time></trkpt><trkpt lat="40.7607132" lon="14.8304819"><ele>601.3333333333334</ele><time>2026-03-29T07:45:20.956Z</time></trkpt><trkpt lat="40.7606476" lon="14.8304878"><ele>599.1666666666666</ele><time>2026-03-29T07:45:21.95Z</time></trkpt><trkpt lat="40.7605657" lon="14.8304538"><ele>597.0</ele><time>2026-03-29T07:45:22.953Z</time></trkpt><trkpt lat="40.7604926" lon="14.8303771"><ele>597.0</ele><time>2026-03-29T07:45:23.955Z</time></trkpt><trkpt lat="40.7604055" lon="14.8302698"><ele>597.0</ele><time>2026-03-29T07:45:24.959Z</time></trkpt><trkpt lat="40.760296" lon="14.8301714"><ele>597.0</ele><time>2026-03-29T07:45:25.954Z</time></trkpt><trkpt lat="40.7601715" lon="14.8300591"><ele>597.0</ele><time>2026-03-29T07:45:26.955Z</time></trkpt><trkpt lat="40.760034" lon="14.8299452"><ele>590.0</ele><time>2026-03-29T07:45:27.954Z</time></trkpt><trkpt lat="40.7599083" lon="14.8298611"><ele>583.0</ele><time>2026-03-29T07:45:28.955Z</time></trkpt><trkpt lat="40.7597722" lon="14.8297756"><ele>576.0</ele><time>2026-03-29T07:45:29.958Z</time></trkpt><trkpt lat="40.7596581" lon="14.8296769"><ele>569.0</ele><time>2026-03-29T07:45:30.952Z</time></trkpt><trkpt lat="40.7595448" lon="14.8295696"><ele>569.0</ele><time>2026-03-29T07:45:31.957Z</time></trkpt><trkpt lat="40.7594417" lon="14.8294539"><ele>569.0</ele><time>2026-03-29T07:45:32.958Z</time></trkpt><trkpt lat="40.7593407" lon="14.8293468"><ele>569.0</ele><time>2026-03-29T07:45:33.952Z</time></trkpt><trkpt lat="40.7592452" lon="14.8292371"><ele>569.0</ele><time>2026-03-29T07:45:34.956Z</time></trkpt><trkpt lat="40.7591524" lon="14.8291333"><ele>566.0</ele><time>2026-03-29T07:45:35.956Z</time></trkpt><trkpt lat="40.7590663" lon="14.8290334"><ele>563.0</ele><time>2026-03-29T07:45:36.955Z</time></trkpt><trkpt lat="40.7589896" lon="14.8289354"><ele>560.0</ele><time>2026-03-29T07:45:37.955Z</time></trkpt><trkpt lat="40.7589254" lon="14.8288389"><ele>557.0</ele><time>2026-03-29T07:45:38.957Z</time></trkpt><trkpt lat="40.7588743" lon="14.8287448"><ele>554.0</ele><time>2026-03-29T07:45:39.956Z</time></trkpt><trkpt lat="40.7588378" lon="14.8286686"><ele>554.0</ele><time>2026-03-29T07:45:40.952Z</time></trkpt><trkpt lat="40.7587709" lon="14.8285813"><ele>554.0</ele><time>2026-03-29T07:45:42.954Z</time></trkpt><trkpt lat="40.7586668" lon="14.8286163"><ele>554.0</ele><time>2026-03-29T07:45:44.964Z</time></trkpt><trkpt lat="40.7585877" lon="14.8286598"><ele>554.0</ele><time>2026-03-29T07:45:45.959Z</time></trkpt><trkpt lat="40.7585201" lon="14.8287339"><ele>554.0</ele><time>2026-03-29T07:45:46.953Z</time></trkpt><trkpt lat="40.7584563" lon="14.8288108"><ele>554.0</ele><time>2026-03-29T07:45:47.955Z</time></trkpt><trkpt lat="40.7583994" lon="14.8289073"><ele>554.0</ele><time>2026-03-29T07:45:48.956Z</time></trkpt><trkpt lat="40.7583373" lon="14.8290089"><ele>554.0</ele><time>2026-03-29T07:45:49.956Z</time></trkpt><trkpt lat="40.7582903" lon="14.8291212"><ele>554.0</ele><time>2026-03-29T07:45:50.958Z</time></trkpt><trkpt lat="40.7582653" lon="14.8292405"><ele>554.0</ele><time>2026-03-29T07:45:51.959Z</time></trkpt><trkpt lat="40.7582211" lon="14.8293529"><ele>554.0</ele><time>2026-03-29T07:45:52.952Z</time></trkpt><trkpt lat="40.7581494" lon="14.8294433"><ele>554.0</ele><time>2026-03-29T07:45:53.951Z</time></trkpt><trkpt lat="40.7580487" lon="14.8294938"><ele>554.0</ele><time>2026-03-29T07:45:54.95Z</time></trkpt><trkpt lat="40.7579676" lon="14.8295021"><ele>554.0</ele><time>2026-03-29T07:45:55.956Z</time></trkpt><trkpt lat="40.7578825" lon="14.8294525"><ele>554.0</ele><time>2026-03-29T07:45:56.955Z</time></trkpt><trkpt lat="40.7578313" lon="14.8293643"><ele>552.4</ele><time>2026-03-29T07:45:57.958Z</time></trkpt><trkpt lat="40.7577985" lon="14.8292716"><ele>550.8</ele><time>2026-03-29T07:45:58.956Z</time></trkpt><trkpt lat="40.7577813" lon="14.8291748"><ele>549.2</ele><time>2026-03-29T07:45:59.955Z</time></trkpt><trkpt lat="40.7577732" lon="14.8290644"><ele>547.6</ele><time>2026-03-29T07:46:00.953Z</time></trkpt><trkpt lat="40.7577801" lon="14.8289367"><ele>546.0</ele><time>2026-03-29T07:46:01.954Z</time></trkpt><trkpt lat="40.7577932" lon="14.8287836"><ele>546.0</ele><time>2026-03-29T07:46:02.946Z</time></trkpt><trkpt lat="40.7578179" lon="14.8286191"><ele>546.0</ele><time>2026-03-29T07:46:03.951Z</time></trkpt><trkpt lat="40.7578479" lon="14.8284321"><ele>546.0</ele><time>2026-03-29T07:46:04.947Z</time></trkpt><trkpt lat="40.7578798" lon="14.8282521"><ele>546.0</ele><time>2026-03-29T07:46:05.958Z</time></trkpt><trkpt lat="40.7578993" lon="14.8280695"><ele>543.0</ele><time>2026-03-29T07:46:06.954Z</time></trkpt><trkpt lat="40.7579073" lon="14.8278848"><ele>540.0</ele><time>2026-03-29T07:46:07.96Z</time></trkpt><trkpt lat="40.7579164" lon="14.8277255"><ele>537.0</ele><time>2026-03-29T07:46:08.953Z</time></trkpt><trkpt lat="40.7579222" lon="14.8276057"><ele>534.0</ele><time>2026-03-29T07:46:09.955Z</time></trkpt><trkpt lat="40.7579175" lon="14.8275126"><ele>531.0</ele><time>2026-03-29T07:46:10.954Z</time></trkpt><trkpt lat="40.7579193" lon="14.8274195"><ele>531.0</ele><time>2026-03-29T07:46:12.957Z</time></trkpt><trkpt lat="40.7578624" lon="14.8275123"><ele>531.0</ele><time>2026-03-29T07:46:22.956Z</time></trkpt><trkpt lat="40.7578243" lon="14.827608"><ele>531.0</ele><time>2026-03-29T07:46:24.96Z</time></trkpt><trkpt lat="40.7577977" lon="14.8276931"><ele>531.0</ele><time>2026-03-29T07:46:25.957Z</time></trkpt><trkpt lat="40.7577846" lon="14.8277878"><ele>531.0</ele><time>2026-03-29T07:46:27.958Z</time></trkpt><trkpt lat="40.7577494" lon="14.8278656"><ele>531.0</ele><time>2026-03-29T07:46:29.954Z</time></trkpt><trkpt lat="40.7577449" lon="14.8279504"><ele>531.0</ele><time>2026-03-29T07:46:31.961Z</time></trkpt><trkpt lat="40.757728" lon="14.828062"><ele>531.3333333333334</ele><time>2026-03-29T07:46:33.956Z</time></trkpt><trkpt lat="40.7576947" lon="14.8281742"><ele>531.6666666666666</ele><time>2026-03-29T07:46:35.956Z</time></trkpt><trkpt lat="40.7576825" lon="14.8282629"><ele>532.0</ele><time>2026-03-29T07:46:36.958Z</time></trkpt><trkpt lat="40.7576587" lon="14.828377"><ele>532.3333333333333</ele><time>2026-03-29T07:46:37.958Z</time></trkpt><trkpt lat="40.7576418" lon="14.8284904"><ele>532.6666666666666</ele><time>2026-03-29T07:46:38.957Z</time></trkpt><trkpt lat="40.7576226" lon="14.828598"><ele>533.0</ele><time>2026-03-29T07:46:39.962Z</time></trkpt><trkpt lat="40.7575951" lon="14.8287077"><ele>536.0</ele><time>2026-03-29T07:46:40.963Z</time></trkpt><trkpt lat="40.7575666" lon="14.8288351"><ele>539.0</ele><time>2026-03-29T07:46:41.956Z</time></trkpt><trkpt lat="40.7575359" lon="14.8289722"><ele>542.0</ele><time>2026-03-29T07:46:42.961Z</time></trkpt><trkpt lat="40.7575124" lon="14.8291038"><ele>545.0</ele><time>2026-03-29T07:46:43.953Z</time></trkpt><trkpt lat="40.7574892" lon="14.8292353"><ele>548.0</ele><time>2026-03-29T07:46:44.951Z</time></trkpt><trkpt lat="40.757461" lon="14.8293543"><ele>550.6666666666666</ele><time>2026-03-29T07:46:45.954Z</time></trkpt><trkpt lat="40.7574316" lon="14.8294668"><ele>553.3333333333333</ele><time>2026-03-29T07:46:46.953Z</time></trkpt><trkpt lat="40.7574098" lon="14.8295691"><ele>556.0</ele><time>2026-03-29T07:46:47.953Z</time></trkpt><trkpt lat="40.7574022" lon="14.8297125"><ele>558.6666666666666</ele><time>2026-03-29T07:46:49.956Z</time></trkpt><trkpt lat="40.7574072" lon="14.8298296"><ele>561.3333333333334</ele><time>2026-03-29T07:46:51.956Z</time></trkpt><trkpt lat="40.757416" lon="14.8299217"><ele>564.0</ele><time>2026-03-29T07:46:53.95Z</time></trkpt><trkpt lat="40.7574285" lon="14.8300167"><ele>564.0</ele><time>2026-03-29T07:46:55.953Z</time></trkpt><trkpt lat="40.757442" lon="14.8301014"><ele>564.0</ele><time>2026-03-29T07:46:57.959Z</time></trkpt><trkpt lat="40.7574643" lon="14.8302144"><ele>564.0</ele><time>2026-03-29T07:47:00.958Z</time></trkpt><trkpt lat="40.757499" lon="14.8302998"><ele>564.0</ele><time>2026-03-29T07:47:02.955Z</time></trkpt><trkpt lat="40.7575384" lon="14.8304152"><ele>564.0</ele><time>2026-03-29T07:47:04.957Z</time></trkpt><trkpt lat="40.7575504" lon="14.8305117"><ele>564.0</ele><time>2026-03-29T07:47:06.952Z</time></trkpt><trkpt lat="40.7575697" lon="14.8306161"><ele>567.3333333333334</ele><time>2026-03-29T07:47:08.958Z</time></trkpt><trkpt lat="40.7575857" lon="14.8307135"><ele>570.6666666666666</ele><time>2026-03-29T07:47:10.957Z</time></trkpt><trkpt lat="40.7575926" lon="14.830805"><ele>574.0</ele><time>2026-03-29T07:47:12.951Z</time></trkpt><trkpt lat="40.7575965" lon="14.8309027"><ele>577.3333333333333</ele><time>2026-03-29T07:47:15.954Z</time></trkpt><trkpt lat="40.7576175" lon="14.8310679"><ele>580.6666666666666</ele><time>2026-03-29T07:47:21.955Z</time></trkpt><trkpt lat="40.757608" lon="14.8311518"><ele>584.0</ele><time>2026-03-29T07:47:23.957Z</time></trkpt><trkpt lat="40.757594" lon="14.8312358"><ele>587.6666666666666</ele><time>2026-03-29T07:47:25.96Z</time></trkpt><trkpt lat="40.7575759" lon="14.8313667"><ele>591.3333333333333</ele><time>2026-03-29T07:47:27.949Z</time></trkpt><trkpt lat="40.7575645" lon="14.8315047"><ele>595.0</ele><time>2026-03-29T07:47:29.953Z</time></trkpt><trkpt lat="40.7575562" lon="14.8316348"><ele>598.6666666666666</ele><time>2026-03-29T07:47:31.955Z</time></trkpt><trkpt lat="40.7575436" lon="14.8317294"><ele>602.3333333333334</ele><time>2026-03-29T07:47:33.954Z</time></trkpt><trkpt lat="40.7575275" lon="14.8318201"><ele>606.0</ele><time>2026-03-29T07:47:35.948Z</time></trkpt><trkpt lat="40.7574953" lon="14.8319102"><ele>609.6666666666666</ele><time>2026-03-29T07:47:37.955Z</time></trkpt><trkpt lat="40.7574682" lon="14.8320042"><ele>613.3333333333334</ele><time>2026-03-29T07:47:39.958Z</time></trkpt><trkpt lat="40.757426" lon="14.8320825"><ele>617.0</ele><time>2026-03-29T07:47:41.953Z</time></trkpt><trkpt lat="40.7573836" lon="14.8321739"><ele>620.6666666666667</ele><time>2026-03-29T07:47:44.956Z</time></trkpt><trkpt lat="40.7573472" lon="14.832288"><ele>624.3333333333334</ele><time>2026-03-29T07:47:49.957Z</time></trkpt><trkpt lat="40.7573018" lon="14.8323769"><ele>628.0</ele><time>2026-03-29T07:47:52.955Z</time></trkpt><trkpt lat="40.7572793" lon="14.8324845"><ele>628.0</ele><time>2026-03-29T07:47:55.957Z</time></trkpt><trkpt lat="40.7572764" lon="14.8325801"><ele>628.0</ele><time>2026-03-29T07:47:58.952Z</time></trkpt><trkpt lat="40.7572463" lon="14.8326991"><ele>628.0</ele><time>2026-03-29T07:49:07.954Z</time></trkpt><trkpt lat="40.7572232" lon="14.8326012"><ele>628.0</ele><time>2026-03-29T07:49:13.949Z</time></trkpt><trkpt lat="40.7572518" lon="14.8325243"><ele>628.0</ele><time>2026-03-29T07:49:16.959Z</time></trkpt><trkpt lat="40.757227" lon="14.832398"><ele>628.0</ele><time>2026-03-29T07:49:23.952Z</time></trkpt><trkpt lat="40.757216" lon="14.8324952"><ele>627.9999999999999</ele><time>2026-03-29T07:50:00.961Z</time></trkpt><trkpt lat="40.7572219" lon="14.8326008"><ele>628.0</ele><time>2026-03-29T07:50:02.953Z</time></trkpt><trkpt lat="40.757233" lon="14.8326877"><ele>628.0</ele><time>2026-03-29T07:50:04.952Z</time></trkpt><trkpt lat="40.7572217" lon="14.8327951"><ele>628.0</ele><time>2026-03-29T07:50:08.955Z</time></trkpt><trkpt lat="40.7572211" lon="14.8329019"><ele>628.0</ele><time>2026-03-29T07:50:14.958Z</time></trkpt><trkpt lat="40.7571957" lon="14.8329821"><ele>627.9999999999999</ele><time>2026-03-29T07:50:21.953Z</time></trkpt><trkpt lat="40.7572617" lon="14.8329903"><ele>628.0</ele><time>2026-03-29T07:50:28.958Z</time></trkpt><trkpt lat="40.757326" lon="14.8329837"><ele>632.6666666666667</ele><time>2026-03-29T07:50:31.953Z</time></trkpt><trkpt lat="40.7573972" lon="14.8329999"><ele>637.3333333333334</ele><time>2026-03-29T07:50:33.952Z</time></trkpt><trkpt lat="40.7574609" lon="14.8329916"><ele>642.0</ele><time>2026-03-29T07:50:36.954Z</time></trkpt><trkpt lat="40.7575222" lon="14.8330163"><ele>646.6666666666666</ele><time>2026-03-29T07:50:39.95Z</time></trkpt><trkpt lat="40.7576059" lon="14.8330394"><ele>651.3333333333333</ele><time>2026-03-29T07:50:42.954Z</time></trkpt><trkpt lat="40.757699" lon="14.8330137"><ele>656.0</ele><time>2026-03-29T07:50:45.954Z</time></trkpt><trkpt lat="40.7577675" lon="14.8329506"><ele>661.25</ele><time>2026-03-29T07:50:48.955Z</time></trkpt><trkpt lat="40.7578266" lon="14.8329215"><ele>666.5</ele><time>2026-03-29T07:50:50.866Z</time></trkpt><trkpt lat="40.7579995" lon="14.832975"><ele>671.75</ele><time>2026-03-29T07:50:51.847Z</time></trkpt><trkpt lat="40.7581144" lon="14.8329606"><ele>677.0</ele><time>2026-03-29T07:50:52.957Z</time></trkpt><trkpt lat="40.7582171" lon="14.8329349"><ele>677.0</ele><time>2026-03-29T07:50:54.954Z</time></trkpt><trkpt lat="40.7583007" lon="14.8329426"><ele>677.0</ele><time>2026-03-29T07:50:56.948Z</time></trkpt><trkpt lat="40.7584002" lon="14.8329514"><ele>677.0</ele><time>2026-03-29T07:50:57.952Z</time></trkpt><trkpt lat="40.7585176" lon="14.8329991"><ele>677.0</ele><time>2026-03-29T07:50:58.952Z</time></trkpt><trkpt lat="40.7586231" lon="14.83302"><ele>677.0</ele><time>2026-03-29T07:51:00.958Z</time></trkpt><trkpt lat="40.7586568" lon="14.8331024"><ele>679.3333333333333</ele><time>2026-03-29T07:51:02.924Z</time></trkpt><trkpt lat="40.7585953" lon="14.8331477"><ele>681.6666666666666</ele><time>2026-03-29T07:51:05.956Z</time></trkpt><trkpt lat="40.7586833" lon="14.8331729"><ele>684.0</ele><time>2026-03-29T07:51:09.957Z</time></trkpt><trkpt lat="40.7587602" lon="14.8332158"><ele>686.3333333333334</ele><time>2026-03-29T07:51:16.948Z</time></trkpt><trkpt lat="40.7588728" lon="14.8332056"><ele>688.6666666666667</ele><time>2026-03-29T07:51:19.956Z</time></trkpt><trkpt lat="40.7589544" lon="14.8331819"><ele>691.0</ele><time>2026-03-29T07:51:20.953Z</time></trkpt><trkpt lat="40.7590215" lon="14.8331254"><ele>691.0</ele><time>2026-03-29T07:51:21.957Z</time></trkpt><trkpt lat="40.759072" lon="14.8330621"><ele>691.0</ele><time>2026-03-29T07:51:22.947Z</time></trkpt><trkpt lat="40.7591241" lon="14.83299"><ele>691.0</ele><time>2026-03-29T07:51:23.952Z</time></trkpt><trkpt lat="40.7591774" lon="14.8329205"><ele>691.0</ele><time>2026-03-29T07:51:24.951Z</time></trkpt><trkpt lat="40.7592292" lon="14.8328487"><ele>691.0</ele><time>2026-03-29T07:51:25.953Z</time></trkpt><trkpt lat="40.7593179" lon="14.8327487"><ele>691.0</ele><time>2026-03-29T07:51:27.951Z</time></trkpt><trkpt lat="40.7593778" lon="14.8327066"><ele>693.0</ele><time>2026-03-29T07:51:29.954Z</time></trkpt><trkpt lat="40.7594481" lon="14.8326677"><ele>695.0</ele><time>2026-03-29T07:51:31.955Z</time></trkpt><trkpt lat="40.7595177" lon="14.8326447"><ele>697.0</ele><time>2026-03-29T07:51:32.96Z</time></trkpt><trkpt lat="40.7595778" lon="14.8326133"><ele>699.0</ele><time>2026-03-29T07:51:33.957Z</time></trkpt><trkpt lat="40.7596748" lon="14.8325633"><ele>701.0</ele><time>2026-03-29T07:51:35.955Z</time></trkpt><trkpt lat="40.7597489" lon="14.832511"><ele>703.0</ele><time>2026-03-29T07:51:36.955Z</time></trkpt><trkpt lat="40.759836" lon="14.83246"><ele>695.25</ele><time>2026-03-29T07:51:37.957Z</time></trkpt><trkpt lat="40.7599317" lon="14.8324154"><ele>687.5</ele><time>2026-03-29T07:51:38.957Z</time></trkpt><trkpt lat="40.7600412" lon="14.8324054"><ele>679.75</ele><time>2026-03-29T07:51:39.951Z</time></trkpt><trkpt lat="40.7601577" lon="14.8323866"><ele>672.0</ele><time>2026-03-29T07:51:40.953Z</time></trkpt><trkpt lat="40.7602932" lon="14.8323791"><ele>669.25</ele><time>2026-03-29T07:51:41.957Z</time></trkpt><trkpt lat="40.7604156" lon="14.8323461"><ele>666.5</ele><time>2026-03-29T07:51:42.959Z</time></trkpt><trkpt lat="40.7605415" lon="14.8323169"><ele>663.75</ele><time>2026-03-29T07:51:43.952Z</time></trkpt><trkpt lat="40.7606872" lon="14.8323059"><ele>661.0</ele><time>2026-03-29T07:51:44.958Z</time></trkpt><trkpt lat="40.7608329" lon="14.83229"><ele>661.0</ele><time>2026-03-29T07:51:45.958Z</time></trkpt><trkpt lat="40.7609757" lon="14.8322744"><ele>661.0</ele><time>2026-03-29T07:51:46.959Z</time></trkpt><trkpt lat="40.7611072" lon="14.8322495"><ele>661.0</ele><time>2026-03-29T07:51:47.952Z</time></trkpt><trkpt lat="40.7612335" lon="14.832225"><ele>661.0</ele><time>2026-03-29T07:51:48.956Z</time></trkpt><trkpt lat="40.7613449" lon="14.8321838"><ele>655.5999999999999</ele><time>2026-03-29T07:51:49.957Z</time></trkpt><trkpt lat="40.7614401" lon="14.8321322"><ele>650.1999999999999</ele><time>2026-03-29T07:51:50.952Z</time></trkpt><trkpt lat="40.7615232" lon="14.832052"><ele>644.8</ele><time>2026-03-29T07:51:51.954Z</time></trkpt><trkpt lat="40.761583" lon="14.8319274"><ele>639.4</ele><time>2026-03-29T07:51:52.959Z</time></trkpt><trkpt lat="40.7616359" lon="14.8317881"><ele>634.0</ele><time>2026-03-29T07:51:53.954Z</time></trkpt><trkpt lat="40.7616856" lon="14.8316446"><ele>632.5</ele><time>2026-03-29T07:51:54.962Z</time></trkpt><trkpt lat="40.7617301" lon="14.8314977"><ele>631.0</ele><time>2026-03-29T07:51:55.956Z</time></trkpt><trkpt lat="40.7617684" lon="14.8313422"><ele>629.5</ele><time>2026-03-29T07:51:56.954Z</time></trkpt><trkpt lat="40.761804" lon="14.83119"><ele>628.0</ele><time>2026-03-29T07:51:57.956Z</time></trkpt><trkpt lat="40.7618502" lon="14.8310505"><ele>624.25</ele><time>2026-03-29T07:51:58.96Z</time></trkpt><trkpt lat="40.7619199" lon="14.8309213"><ele>620.5</ele><time>2026-03-29T07:51:59.953Z</time></trkpt><trkpt lat="40.7620051" lon="14.8308115"><ele>616.75</ele><time>2026-03-29T07:52:00.959Z</time></trkpt><trkpt lat="40.7620816" lon="14.8306964"><ele>613.0</ele><time>2026-03-29T07:52:01.96Z</time></trkpt><trkpt lat="40.7621398" lon="14.8305652"><ele>613.0</ele><time>2026-03-29T07:52:02.957Z</time></trkpt><trkpt lat="40.762176" lon="14.8304195"><ele>613.0</ele><time>2026-03-29T07:52:03.956Z</time></trkpt><trkpt lat="40.7621833" lon="14.8302657"><ele>613.0</ele><time>2026-03-29T07:52:04.962Z</time></trkpt><trkpt lat="40.7621801" lon="14.830102"><ele>613.0</ele><time>2026-03-29T07:52:05.955Z</time></trkpt><trkpt lat="40.7621911" lon="14.8299455"><ele>614.75</ele><time>2026-03-29T07:52:06.952Z</time></trkpt><trkpt lat="40.7622096" lon="14.8297893"><ele>616.5</ele><time>2026-03-29T07:52:07.957Z</time></trkpt><trkpt lat="40.7622287" lon="14.8296389"><ele>618.25</ele><time>2026-03-29T07:52:08.958Z</time></trkpt><trkpt lat="40.7622477" lon="14.8294757"><ele>620.0</ele><time>2026-03-29T07:52:09.956Z</time></trkpt><trkpt lat="40.7622508" lon="14.8293281"><ele>620.0</ele><time>2026-03-29T07:52:10.952Z</time></trkpt><trkpt lat="40.7622432" lon="14.829203"><ele>620.0</ele><time>2026-03-29T07:52:11.957Z</time></trkpt><trkpt lat="40.7622294" lon="14.8290939"><ele>620.0</ele><time>2026-03-29T07:52:12.951Z</time></trkpt><trkpt lat="40.76222" lon="14.828996"><ele>620.0</ele><time>2026-03-29T07:52:15.953Z</time></trkpt><trkpt lat="40.7622212" lon="14.8291091"><ele>620.0</ele><time>2026-03-29T07:52:18.943Z</time></trkpt><trkpt lat="40.7621954" lon="14.8292195"><ele>620.0</ele><time>2026-03-29T07:52:19.954Z</time></trkpt><trkpt lat="40.7621191" lon="14.8293615"><ele>620.0</ele><time>2026-03-29T07:52:20.95Z</time></trkpt><trkpt lat="40.7620331" lon="14.8294917"><ele>620.0</ele><time>2026-03-29T07:52:21.95Z</time></trkpt><trkpt lat="40.7619544" lon="14.8296394"><ele>620.0</ele><time>2026-03-29T07:52:22.95Z</time></trkpt><trkpt lat="40.7618487" lon="14.8298229"><ele>620.0</ele><time>2026-03-29T07:52:23.952Z</time></trkpt><trkpt lat="40.7617296" lon="14.8299482"><ele>617.5</ele><time>2026-03-29T07:52:24.954Z</time></trkpt><trkpt lat="40.7616141" lon="14.8300367"><ele>615.0</ele><time>2026-03-29T07:52:25.953Z</time></trkpt><trkpt lat="40.761497" lon="14.8301284"><ele>612.5</ele><time>2026-03-29T07:52:26.955Z</time></trkpt><trkpt lat="40.7614043" lon="14.8302256"><ele>610.0</ele><time>2026-03-29T07:52:27.947Z</time></trkpt><trkpt lat="40.761318" lon="14.8303122"><ele>610.0</ele><time>2026-03-29T07:52:28.954Z</time></trkpt><trkpt lat="40.7612382" lon="14.8303768"><ele>610.0</ele><time>2026-03-29T07:52:29.953Z</time></trkpt><trkpt lat="40.7611533" lon="14.8304027"><ele>610.0</ele><time>2026-03-29T07:52:30.953Z</time></trkpt><trkpt lat="40.7610722" lon="14.8303891"><ele>610.0</ele><time>2026-03-29T07:52:31.95Z</time></trkpt><trkpt lat="40.7609956" lon="14.8303693"><ele>610.0</ele><time>2026-03-29T07:52:32.954Z</time></trkpt><trkpt lat="40.7609318" lon="14.8303538"><ele>610.0</ele><time>2026-03-29T07:52:33.956Z</time></trkpt><trkpt lat="40.7608525" lon="14.8303844"><ele>607.8333333333334</ele><time>2026-03-29T07:52:34.955Z</time></trkpt><trkpt lat="40.7607703" lon="14.8304328"><ele>605.6666666666667</ele><time>2026-03-29T07:52:35.959Z</time></trkpt><trkpt lat="40.7607064" lon="14.830463"><ele>603.5</ele><time>2026-03-29T07:52:36.95Z</time></trkpt><trkpt lat="40.7605934" lon="14.8304453"><ele>601.3333333333334</ele><time>2026-03-29T07:52:38.954Z</time></trkpt><trkpt lat="40.7605315" lon="14.8303939"><ele>599.1666666666666</ele><time>2026-03-29T07:52:39.952Z</time></trkpt><trkpt lat="40.7604634" lon="14.8303393"><ele>597.0</ele><time>2026-03-29T07:52:40.956Z</time></trkpt><trkpt lat="40.7603626" lon="14.8302351"><ele>587.6666666666666</ele><time>2026-03-29T07:52:41.955Z</time></trkpt><trkpt lat="40.7602253" lon="14.8301139"><ele>578.3333333333333</ele><time>2026-03-29T07:52:42.95Z</time></trkpt><trkpt lat="40.7600642" lon="14.8299868"><ele>569.0</ele><time>2026-03-29T07:52:43.95Z</time></trkpt><trkpt lat="40.7599066" lon="14.8298801"><ele>569.0</ele><time>2026-03-29T07:52:44.956Z</time></trkpt><trkpt lat="40.7597573" lon="14.8297487"><ele>569.0</ele><time>2026-03-29T07:52:45.952Z</time></trkpt><trkpt lat="40.7596213" lon="14.8296106"><ele>569.0</ele><time>2026-03-29T07:52:46.957Z</time></trkpt><trkpt lat="40.759493" lon="14.8294777"><ele>571.3333333333333</ele><time>2026-03-29T07:52:47.95Z</time></trkpt><trkpt lat="40.7593613" lon="14.8293447"><ele>573.6666666666666</ele><time>2026-03-29T07:52:48.956Z</time></trkpt><trkpt lat="40.7592376" lon="14.8292105"><ele>576.0</ele><time>2026-03-29T07:52:49.952Z</time></trkpt><trkpt lat="40.7591167" lon="14.829085"><ele>571.6</ele><time>2026-03-29T07:52:50.958Z</time></trkpt><trkpt lat="40.7590151" lon="14.828963"><ele>567.2</ele><time>2026-03-29T07:52:51.949Z</time></trkpt><trkpt lat="40.7589388" lon="14.8288441"><ele>562.8</ele><time>2026-03-29T07:52:52.951Z</time></trkpt><trkpt lat="40.7588806" lon="14.8287386"><ele>558.4</ele><time>2026-03-29T07:52:53.957Z</time></trkpt><trkpt lat="40.7588426" lon="14.82864"><ele>554.0</ele><time>2026-03-29T07:52:54.959Z</time></trkpt><trkpt lat="40.7588062" lon="14.8285508"><ele>554.0</ele><time>2026-03-29T07:52:55.959Z</time></trkpt><trkpt lat="40.7587137" lon="14.8284827"><ele>554.0</ele><time>2026-03-29T07:52:57.957Z</time></trkpt><trkpt lat="40.758618" lon="14.8285249"><ele>554.0</ele><time>2026-03-29T07:52:58.956Z</time></trkpt><trkpt lat="40.7585046" lon="14.8286168"><ele>554.0</ele><time>2026-03-29T07:52:59.955Z</time></trkpt><trkpt lat="40.7584032" lon="14.8287508"><ele>552.0</ele><time>2026-03-29T07:53:00.962Z</time></trkpt><trkpt lat="40.7583213" lon="14.828882"><ele>550.0</ele><time>2026-03-29T07:53:01.954Z</time></trkpt><trkpt lat="40.758264" lon="14.8290127"><ele>548.0</ele><time>2026-03-29T07:53:02.956Z</time></trkpt><trkpt lat="40.7582272" lon="14.8291563"><ele>546.0</ele><time>2026-03-29T07:53:03.956Z</time></trkpt><trkpt lat="40.7581743" lon="14.8292818"><ele>546.0</ele><time>2026-03-29T07:53:04.956Z</time></trkpt><trkpt lat="40.7580884" lon="14.829385"><ele>546.0</ele><time>2026-03-29T07:53:05.954Z</time></trkpt><trkpt lat="40.7580055" lon="14.8294394"><ele>546.0</ele><time>2026-03-29T07:53:06.952Z</time></trkpt><trkpt lat="40.7579248" lon="14.8294256"><ele>546.0</ele><time>2026-03-29T07:53:07.952Z</time></trkpt><trkpt lat="40.7578697" lon="14.8293581"><ele>546.0</ele><time>2026-03-29T07:53:08.946Z</time></trkpt><trkpt lat="40.75783" lon="14.8292728"><ele>546.0</ele><time>2026-03-29T07:53:09.955Z</time></trkpt><trkpt lat="40.7578111" lon="14.8291591"><ele>546.0</ele><time>2026-03-29T07:53:10.959Z</time></trkpt><trkpt lat="40.7578" lon="14.8290222"><ele>546.0</ele><time>2026-03-29T07:53:11.951Z</time></trkpt><trkpt lat="40.7578109" lon="14.8288784"><ele>546.0</ele><time>2026-03-29T07:53:12.948Z</time></trkpt><trkpt lat="40.7578216" lon="14.8287318"><ele>546.0</ele><time>2026-03-29T07:53:13.949Z</time></trkpt><trkpt lat="40.7578386" lon="14.8285551"><ele>542.25</ele><time>2026-03-29T07:53:14.955Z</time></trkpt><trkpt lat="40.7578606" lon="14.8283675"><ele>538.5</ele><time>2026-03-29T07:53:15.952Z</time></trkpt><trkpt lat="40.7578865" lon="14.8281782"><ele>534.75</ele><time>2026-03-29T07:53:16.95Z</time></trkpt><trkpt lat="40.7579019" lon="14.8279906"><ele>531.0</ele><time>2026-03-29T07:53:17.951Z</time></trkpt><trkpt lat="40.7579192" lon="14.8278206"><ele>531.0</ele><time>2026-03-29T07:53:18.95Z</time></trkpt><trkpt lat="40.7579193" lon="14.8276801"><ele>531.0</ele><time>2026-03-29T07:53:19.954Z</time></trkpt><trkpt lat="40.7579217" lon="14.8275646"><ele>531.0</ele><time>2026-03-29T07:53:20.956Z</time></trkpt><trkpt lat="40.7579257" lon="14.8274653"><ele>531.0</ele><time>2026-03-29T07:53:21.949Z</time></trkpt><trkpt lat="40.7579371" lon="14.8273777"><ele>531.0</ele><time>2026-03-29T07:53:24.96Z</time></trkpt><trkpt lat="40.757878" lon="14.8274325"><ele>531.0</ele><time>2026-03-29T07:53:32.952Z</time></trkpt><trkpt lat="40.7578481" lon="14.8275409"><ele>531.0</ele><time>2026-03-29T07:53:34.954Z</time></trkpt><trkpt lat="40.7578211" lon="14.8276702"><ele>531.0</ele><time>2026-03-29T07:53:36.96Z</time></trkpt><trkpt lat="40.7578007" lon="14.8278037"><ele>531.0</ele><time>2026-03-29T07:53:38.955Z</time></trkpt><trkpt lat="40.7577668" lon="14.8278827"><ele>531.0</ele><time>2026-03-29T07:53:40.96Z</time></trkpt><trkpt lat="40.7577459" lon="14.8279718"><ele>531.0</ele><time>2026-03-29T07:53:42.956Z</time></trkpt><trkpt lat="40.75773" lon="14.8280543"><ele>531.0</ele><time>2026-03-29T07:53:44.958Z</time></trkpt><trkpt lat="40.7577097" lon="14.828159"><ele>531.4</ele><time>2026-03-29T07:53:46.955Z</time></trkpt><trkpt lat="40.7576959" lon="14.8282751"><ele>531.8</ele><time>2026-03-29T07:53:48.957Z</time></trkpt><trkpt lat="40.7576715" lon="14.8284039"><ele>532.1999999999999</ele><time>2026-03-29T07:53:50.959Z</time></trkpt><trkpt lat="40.7576372" lon="14.8285178"><ele>532.6</ele><time>2026-03-29T07:53:51.957Z</time></trkpt><trkpt lat="40.7575994" lon="14.8286101"><ele>533.0</ele><time>2026-03-29T07:53:52.956Z</time></trkpt><trkpt lat="40.757569" lon="14.8287234"><ele>536.0</ele><time>2026-03-29T07:53:53.95Z</time></trkpt><trkpt lat="40.7575411" lon="14.8288431"><ele>539.0</ele><time>2026-03-29T07:53:54.955Z</time></trkpt><trkpt lat="40.7575148" lon="14.8289512"><ele>542.0</ele><time>2026-03-29T07:53:55.959Z</time></trkpt><trkpt lat="40.7574813" lon="14.8290683"><ele>545.0</ele><time>2026-03-29T07:53:56.96Z</time></trkpt><trkpt lat="40.757455" lon="14.8291887"><ele>548.0</ele><time>2026-03-29T07:53:57.957Z</time></trkpt><trkpt lat="40.7574309" lon="14.8293079"><ele>550.6666666666666</ele><time>2026-03-29T07:53:58.957Z</time></trkpt><trkpt lat="40.7574135" lon="14.8294216"><ele>553.3333333333333</ele><time>2026-03-29T07:53:59.956Z</time></trkpt><trkpt lat="40.7574076" lon="14.8295326"><ele>556.0</ele><time>2026-03-29T07:54:00.957Z</time></trkpt><trkpt lat="40.7573995" lon="14.8296333"><ele>558.6666666666666</ele><time>2026-03-29T07:54:01.954Z</time></trkpt><trkpt lat="40.7573947" lon="14.8297349"><ele>561.3333333333334</ele><time>2026-03-29T07:54:02.956Z</time></trkpt><trkpt lat="40.7573945" lon="14.8298409"><ele>564.0</ele><time>2026-03-29T07:54:03.953Z</time></trkpt><trkpt lat="40.7573996" lon="14.8299366"><ele>564.0</ele><time>2026-03-29T07:54:04.957Z</time></trkpt><trkpt lat="40.7574231" lon="14.8300659"><ele>564.0</ele><time>2026-03-29T07:54:06.957Z</time></trkpt><trkpt lat="40.7574307" lon="14.8301539"><ele>564.0</ele><time>2026-03-29T07:54:09.958Z</time></trkpt><trkpt lat="40.7574504" lon="14.8302607"><ele>564.0</ele><time>2026-03-29T07:54:12.954Z</time></trkpt><trkpt lat="40.7574885" lon="14.8303744"><ele>564.0</ele><time>2026-03-29T07:54:15.955Z</time></trkpt><trkpt lat="40.7575158" lon="14.830477"><ele>564.0</ele><time>2026-03-29T07:54:18.956Z</time></trkpt><trkpt lat="40.7575531" lon="14.8305943"><ele>567.3333333333334</ele><time>2026-03-29T07:54:21.955Z</time></trkpt><trkpt lat="40.7575655" lon="14.8306954"><ele>570.6666666666666</ele><time>2026-03-29T07:54:24.958Z</time></trkpt><trkpt lat="40.757537" lon="14.8305671"><ele>574.0</ele><time>2026-03-29T07:54:25.945Z</time></trkpt><trkpt lat="40.7575568" lon="14.8306827"><ele>577.3333333333333</ele><time>2026-03-29T07:54:26.953Z</time></trkpt><trkpt lat="40.7575727" lon="14.8307653"><ele>580.6666666666666</ele><time>2026-03-29T07:54:29.959Z</time></trkpt><trkpt lat="40.7575703" lon="14.8308632"><ele>584.0</ele><time>2026-03-29T07:54:33.93Z</time></trkpt><trkpt lat="40.7575711" lon="14.8310225"><ele>587.6666666666666</ele><time>2026-03-29T07:54:37.949Z</time></trkpt><trkpt lat="40.757573" lon="14.8311117"><ele>591.3333333333333</ele><time>2026-03-29T07:54:39.951Z</time></trkpt><trkpt lat="40.7575418" lon="14.8311926"><ele>595.0</ele><time>2026-03-29T07:54:44.954Z</time></trkpt><trkpt lat="40.7575381" lon="14.8313292"><ele>598.6666666666666</ele><time>2026-03-29T07:54:47.949Z</time></trkpt><trkpt lat="40.7575454" lon="14.8314364"><ele>602.3333333333334</ele><time>2026-03-29T07:54:49.957Z</time></trkpt><trkpt lat="40.7575475" lon="14.8315232"><ele>606.0</ele><time>2026-03-29T07:54:51.885Z</time></trkpt><trkpt lat="40.75756" lon="14.8316236"><ele>606.0</ele><time>2026-03-29T07:54:55.961Z</time></trkpt><trkpt lat="40.7575035" lon="14.8317252"><ele>606.0</ele><time>2026-03-29T07:54:56.944Z</time></trkpt><trkpt lat="40.7574605" lon="14.8317946"><ele>606.0</ele><time>2026-03-29T07:54:57.953Z</time></trkpt><trkpt lat="40.7574258" lon="14.8318668"><ele>606.0</ele><time>2026-03-29T07:54:59.926Z</time></trkpt><trkpt lat="40.7573929" lon="14.8319424"><ele>606.0</ele><time>2026-03-29T07:55:01.867Z</time></trkpt><trkpt lat="40.7573579" lon="14.8320249"><ele>606.0</ele><time>2026-03-29T07:55:04.956Z</time></trkpt><trkpt lat="40.7573005" lon="14.8320876"><ele>606.0</ele><time>2026-03-29T07:55:08.927Z</time></trkpt><trkpt lat="40.757275" lon="14.8321779"><ele>610.4</ele><time>2026-03-29T07:55:12.951Z</time></trkpt><trkpt lat="40.7572447" lon="14.8322635"><ele>614.8</ele><time>2026-03-29T07:55:25.958Z</time></trkpt><trkpt lat="40.7571921" lon="14.8323447"><ele>619.1999999999999</ele><time>2026-03-29T07:55:29.927Z</time></trkpt><trkpt lat="40.7572152" lon="14.8325384"><ele>623.6</ele><time>2026-03-29T07:55:30.952Z</time></trkpt><trkpt lat="40.7572173" lon="14.8326375"><ele>628.0</ele><time>2026-03-29T07:55:33.95Z</time></trkpt><trkpt lat="40.757202" lon="14.8327417"><ele>631.9999999999999</ele><time>2026-03-29T07:55:39.951Z</time></trkpt><trkpt lat="40.7571971" lon="14.8328323"><ele>636.0</ele><time>2026-03-29T07:55:45.95Z</time></trkpt><trkpt lat="40.7571837" lon="14.8329142"><ele>640.0</ele><time>2026-03-29T07:55:52.958Z</time></trkpt><trkpt lat="40.7571454" lon="14.832986"><ele>644.0</ele><time>2026-03-29T07:56:03.95Z</time></trkpt><trkpt lat="40.7571691" lon="14.8330702"><ele>648.0</ele><time>2026-03-29T07:56:24.952Z</time></trkpt><trkpt lat="40.7572546" lon="14.8330751"><ele>651.9999999999999</ele><time>2026-03-29T07:56:29.862Z</time></trkpt><trkpt lat="40.7573278" lon="14.8330245"><ele>656.0</ele><time>2026-03-29T07:56:32.953Z</time></trkpt><trkpt lat="40.757396" lon="14.8329886"><ele>655.9999999999999</ele><time>2026-03-29T07:56:35.708Z</time></trkpt><trkpt lat="40.7574872" lon="14.8330086"><ele>656.0</ele><time>2026-03-29T07:56:38.953Z</time></trkpt><trkpt lat="40.7575505" lon="14.8329961"><ele>656.0</ele><time>2026-03-29T07:56:41.883Z</time></trkpt><trkpt lat="40.7576222" lon="14.8329982"><ele>656.0</ele><time>2026-03-29T07:56:45.952Z</time></trkpt><trkpt lat="40.7576954" lon="14.8330084"><ele>656.0</ele><time>2026-03-29T07:56:52.961Z</time></trkpt><trkpt lat="40.7577702" lon="14.8330303"><ele>655.9999999999999</ele><time>2026-03-29T07:56:56.952Z</time></trkpt><trkpt lat="40.7578325" lon="14.8329896"><ele>656.0</ele><time>2026-03-29T07:57:00.95Z</time></trkpt><trkpt lat="40.7578919" lon="14.8329539"><ele>660.1999999999999</ele><time>2026-03-29T07:57:02.959Z</time></trkpt><trkpt lat="40.7579699" lon="14.8329802"><ele>664.4</ele><time>2026-03-29T07:57:05.928Z</time></trkpt><trkpt lat="40.7580496" lon="14.832982"><ele>668.6</ele><time>2026-03-29T07:57:07.955Z</time></trkpt><trkpt lat="40.7581277" lon="14.8329944"><ele>672.8</ele><time>2026-03-29T07:57:09.952Z</time></trkpt><trkpt lat="40.7581963" lon="14.8330412"><ele>677.0</ele><time>2026-03-29T07:57:11.953Z</time></trkpt><trkpt lat="40.7583708" lon="14.8330556"><ele>677.0</ele><time>2026-03-29T07:57:13.95Z</time></trkpt><trkpt lat="40.7584736" lon="14.8330515"><ele>677.0</ele><time>2026-03-29T07:57:14.947Z</time></trkpt><trkpt lat="40.7585557" lon="14.8330769"><ele>677.0</ele><time>2026-03-29T07:57:16.953Z</time></trkpt><trkpt lat="40.7586417" lon="14.8331009"><ele>677.0</ele><time>2026-03-29T07:57:19.948Z</time></trkpt><trkpt lat="40.7586774" lon="14.8332264"><ele>677.0</ele><time>2026-03-29T07:57:26.869Z</time></trkpt><trkpt lat="40.7587126" lon="14.8333164"><ele>679.8</ele><time>2026-03-29T07:57:28.955Z</time></trkpt><trkpt lat="40.7587755" lon="14.8333595"><ele>682.6</ele><time>2026-03-29T07:57:30.953Z</time></trkpt><trkpt lat="40.7588508" lon="14.8333778"><ele>685.4</ele><time>2026-03-29T07:57:32.956Z</time></trkpt><trkpt lat="40.758934" lon="14.8333869"><ele>688.1999999999999</ele><time>2026-03-29T07:57:34.957Z</time></trkpt><trkpt lat="40.7590264" lon="14.8332686"><ele>691.0</ele><time>2026-03-29T07:57:35.951Z</time></trkpt><trkpt lat="40.7591018" lon="14.83313"><ele>691.0</ele><time>2026-03-29T07:57:36.957Z</time></trkpt><trkpt lat="40.7591604" lon="14.8330222"><ele>691.0</ele><time>2026-03-29T07:57:37.953Z</time></trkpt><trkpt lat="40.7592298" lon="14.8329397"><ele>691.0</ele><time>2026-03-29T07:57:38.954Z</time></trkpt><trkpt lat="40.7592859" lon="14.8328681"><ele>691.0</ele><time>2026-03-29T07:57:39.955Z</time></trkpt><trkpt lat="40.7593383" lon="14.8327855"><ele>691.0</ele><time>2026-03-29T07:57:41.948Z</time></trkpt><trkpt lat="40.7594625" lon="14.8327679"><ele>693.4</ele><time>2026-03-29T08:01:07.946Z</time></trkpt><trkpt lat="40.7595195" lon="14.8327178"><ele>695.8</ele><time>2026-03-29T08:06:59.952Z</time></trkpt><trkpt lat="40.7596048" lon="14.832659"><ele>698.1999999999999</ele><time>2026-03-29T08:07:07.958Z</time></trkpt><trkpt lat="40.7596961" lon="14.832599"><ele>700.5999999999999</ele><time>2026-03-29T08:07:09.953Z</time></trkpt><trkpt lat="40.7597843" lon="14.8325417"><ele>703.0</ele><time>2026-03-29T08:07:10.954Z</time></trkpt><trkpt lat="40.7598856" lon="14.8324687"><ele>696.8</ele><time>2026-03-29T08:07:11.951Z</time></trkpt><trkpt lat="40.7599816" lon="14.832417"><ele>690.5999999999999</ele><time>2026-03-29T08:07:12.957Z</time></trkpt><trkpt lat="40.7600514" lon="14.8324085"><ele>684.4000000000001</ele><time>2026-03-29T08:07:13.954Z</time></trkpt><trkpt lat="40.7601253" lon="14.8324195"><ele>678.2</ele><time>2026-03-29T08:07:14.953Z</time></trkpt><trkpt lat="40.7602416" lon="14.8324438"><ele>672.0</ele><time>2026-03-29T08:07:15.954Z</time></trkpt><trkpt lat="40.7603836" lon="14.8324499"><ele>668.3333333333334</ele><time>2026-03-29T08:07:16.96Z</time></trkpt><trkpt lat="40.760542" lon="14.8324339"><ele>664.6666666666667</ele><time>2026-03-29T08:07:17.955Z</time></trkpt><trkpt lat="40.7607144" lon="14.8323747"><ele>661.0</ele><time>2026-03-29T08:07:18.954Z</time></trkpt><trkpt lat="40.7608937" lon="14.8323117"><ele>652.0</ele><time>2026-03-29T08:07:19.954Z</time></trkpt><trkpt lat="40.761068" lon="14.8322652"><ele>643.0</ele><time>2026-03-29T08:07:21.043Z</time></trkpt><trkpt lat="40.7612198" lon="14.8322212"><ele>634.0</ele><time>2026-03-29T08:07:22.034Z</time></trkpt><trkpt lat="40.7613449" lon="14.8321656"><ele>634.0</ele><time>2026-03-29T08:07:22.964Z</time></trkpt><trkpt lat="40.7614601" lon="14.8320879"><ele>634.0</ele><time>2026-03-29T08:07:23.967Z</time></trkpt><trkpt lat="40.7615613" lon="14.8319793"><ele>634.0</ele><time>2026-03-29T08:07:24.966Z</time></trkpt><trkpt lat="40.7616464" lon="14.831811"><ele>634.0</ele><time>2026-03-29T08:07:25.965Z</time></trkpt><trkpt lat="40.7617165" lon="14.8316102"><ele>632.5</ele><time>2026-03-29T08:07:26.964Z</time></trkpt><trkpt lat="40.7617772" lon="14.8314213"><ele>631.0</ele><time>2026-03-29T08:07:27.968Z</time></trkpt><trkpt lat="40.7618224" lon="14.8312441"><ele>629.5</ele><time>2026-03-29T08:07:28.968Z</time></trkpt><trkpt lat="40.7618542" lon="14.8310915"><ele>628.0</ele><time>2026-03-29T08:07:30.035Z</time></trkpt><trkpt lat="40.7619026" lon="14.8309516"><ele>624.25</ele><time>2026-03-29T08:07:31.036Z</time></trkpt><trkpt lat="40.7619735" lon="14.830825"><ele>620.5</ele><time>2026-03-29T08:07:31.965Z</time></trkpt><trkpt lat="40.7620671" lon="14.8307106"><ele>616.75</ele><time>2026-03-29T08:07:32.951Z</time></trkpt><trkpt lat="40.762149" lon="14.8305677"><ele>613.0</ele><time>2026-03-29T08:07:34.018Z</time></trkpt><trkpt lat="40.7621993" lon="14.8304143"><ele>613.0</ele><time>2026-03-29T08:07:35.042Z</time></trkpt><trkpt lat="40.7622073" lon="14.8302364"><ele>613.0</ele><time>2026-03-29T08:07:35.988Z</time></trkpt><trkpt lat="40.7622069" lon="14.8300387"><ele>613.0</ele><time>2026-03-29T08:07:37.021Z</time></trkpt><trkpt lat="40.7622214" lon="14.8298404"><ele>613.0</ele><time>2026-03-29T08:07:37.959Z</time></trkpt><trkpt lat="40.7622406" lon="14.8296527"><ele>614.5</ele><time>2026-03-29T08:07:38.958Z</time></trkpt><trkpt lat="40.7622551" lon="14.8294684"><ele>616.0</ele><time>2026-03-29T08:07:40.05Z</time></trkpt><trkpt lat="40.7622604" lon="14.8293068"><ele>617.5</ele><time>2026-03-29T08:07:41.024Z</time></trkpt><trkpt lat="40.7622522" lon="14.8291618"><ele>619.0</ele><time>2026-03-29T08:07:42.046Z</time></trkpt><trkpt lat="40.7622335" lon="14.8290585"><ele>619.0</ele><time>2026-03-29T08:07:42.962Z</time></trkpt><trkpt lat="40.7621575" lon="14.8291951"><ele>619.0</ele><time>2026-03-29T08:07:47.967Z</time></trkpt><trkpt lat="40.7621165" lon="14.8293589"><ele>619.0</ele><time>2026-03-29T08:07:49.027Z</time></trkpt><trkpt lat="40.7620477" lon="14.8295229"><ele>619.0</ele><time>2026-03-29T08:07:50.033Z</time></trkpt><trkpt lat="40.7619595" lon="14.8296945"><ele>616.75</ele><time>2026-03-29T08:07:51.034Z</time></trkpt><trkpt lat="40.7618628" lon="14.82985"><ele>614.5</ele><time>2026-03-29T08:07:51.959Z</time></trkpt><trkpt lat="40.7617661" lon="14.8299813"><ele>612.25</ele><time>2026-03-29T08:07:52.956Z</time></trkpt><trkpt lat="40.7616747" lon="14.830087"><ele>610.0</ele><time>2026-03-29T08:07:53.961Z</time></trkpt><trkpt lat="40.7615583" lon="14.8301783"><ele>610.0</ele><time>2026-03-29T08:07:54.956Z</time></trkpt><trkpt lat="40.7614495" lon="14.8302525"><ele>610.0</ele><time>2026-03-29T08:07:55.957Z</time></trkpt><trkpt lat="40.761364" lon="14.8303308"><ele>610.0</ele><time>2026-03-29T08:07:56.966Z</time></trkpt><trkpt lat="40.7612929" lon="14.8304088"><ele>610.0</ele><time>2026-03-29T08:07:57.959Z</time></trkpt><trkpt lat="40.7612149" lon="14.830453"><ele>610.0</ele><time>2026-03-29T08:07:59.032Z</time></trkpt><trkpt lat="40.7611275" lon="14.8304677"><ele>610.0</ele><time>2026-03-29T08:08:00.029Z</time></trkpt><trkpt lat="40.7610436" lon="14.8304231"><ele>610.0</ele><time>2026-03-29T08:08:00.956Z</time></trkpt><trkpt lat="40.7609708" lon="14.830394"><ele>610.0</ele><time>2026-03-29T08:08:01.952Z</time></trkpt><trkpt lat="40.7609003" lon="14.8304009"><ele>610.0</ele><time>2026-03-29T08:08:02.944Z</time></trkpt><trkpt lat="40.7608159" lon="14.8304247"><ele>610.0</ele><time>2026-03-29T08:08:03.954Z</time></trkpt><trkpt lat="40.7607416" lon="14.8304351"><ele>610.0</ele><time>2026-03-29T08:08:04.951Z</time></trkpt><trkpt lat="40.7606627" lon="14.8304307"><ele>607.4</ele><time>2026-03-29T08:08:06.024Z</time></trkpt><trkpt lat="40.7605979" lon="14.8303944"><ele>604.8</ele><time>2026-03-29T08:08:07.019Z</time></trkpt><trkpt lat="40.7605277" lon="14.8303292"><ele>602.2</ele><time>2026-03-29T08:08:07.947Z</time></trkpt><trkpt lat="40.7604434" lon="14.8302385"><ele>599.6</ele><time>2026-03-29T08:08:08.949Z</time></trkpt><trkpt lat="40.7603418" lon="14.8301384"><ele>597.0</ele><time>2026-03-29T08:08:10.068Z</time></trkpt><trkpt lat="40.7602162" lon="14.8300538"><ele>587.6666666666666</ele><time>2026-03-29T08:08:11.038Z</time></trkpt><trkpt lat="40.7600777" lon="14.8299599"><ele>578.3333333333333</ele><time>2026-03-29T08:08:12.04Z</time></trkpt><trkpt lat="40.7599332" lon="14.8298716"><ele>569.0</ele><time>2026-03-29T08:08:12.96Z</time></trkpt><trkpt lat="40.7597943" lon="14.8297963"><ele>569.0</ele><time>2026-03-29T08:08:13.961Z</time></trkpt><trkpt lat="40.7596604" lon="14.8297062"><ele>569.0</ele><time>2026-03-29T08:08:15.071Z</time></trkpt><trkpt lat="40.759535" lon="14.8295919"><ele>569.0</ele><time>2026-03-29T08:08:16.038Z</time></trkpt><trkpt lat="40.7594163" lon="14.8294649"><ele>570.75</ele><time>2026-03-29T08:08:16.946Z</time></trkpt><trkpt lat="40.7592945" lon="14.8293456"><ele>572.5</ele><time>2026-03-29T08:08:17.958Z</time></trkpt><trkpt lat="40.7591779" lon="14.8292183"><ele>574.25</ele><time>2026-03-29T08:08:18.956Z</time></trkpt><trkpt lat="40.7590752" lon="14.8290997"><ele>576.0</ele><time>2026-03-29T08:08:19.968Z</time></trkpt><trkpt lat="40.7589845" lon="14.8289871"><ele>571.6</ele><time>2026-03-29T08:08:21.05Z</time></trkpt><trkpt lat="40.7589122" lon="14.8288649"><ele>567.2</ele><time>2026-03-29T08:08:21.952Z</time></trkpt><trkpt lat="40.7588545" lon="14.8287512"><ele>562.8</ele><time>2026-03-29T08:08:22.968Z</time></trkpt><trkpt lat="40.7588038" lon="14.8286595"><ele>558.4</ele><time>2026-03-29T08:08:23.953Z</time></trkpt><trkpt lat="40.7587295" lon="14.8285549"><ele>554.0</ele><time>2026-03-29T08:08:26.036Z</time></trkpt><trkpt lat="40.758652" lon="14.8285527"><ele>554.0</ele><time>2026-03-29T08:08:27.032Z</time></trkpt><trkpt lat="40.7585489" lon="14.8285859"><ele>554.0</ele><time>2026-03-29T08:08:27.95Z</time></trkpt><trkpt lat="40.7584726" lon="14.8286537"><ele>554.0</ele><time>2026-03-29T08:08:28.947Z</time></trkpt><trkpt lat="40.7583899" lon="14.8287561"><ele>554.0</ele><time>2026-03-29T08:08:29.99Z</time></trkpt><trkpt lat="40.7583194" lon="14.8288679"><ele>554.0</ele><time>2026-03-29T08:08:30.949Z</time></trkpt><trkpt lat="40.7582707" lon="14.828975"><ele>554.0</ele><time>2026-03-29T08:08:32.035Z</time></trkpt><trkpt lat="40.7582169" lon="14.8290869"><ele>554.0</ele><time>2026-03-29T08:08:32.955Z</time></trkpt><trkpt lat="40.7581815" lon="14.8292067"><ele>554.0</ele><time>2026-03-29T08:08:33.955Z</time></trkpt><trkpt lat="40.7581392" lon="14.8293004"><ele>554.0</ele><time>2026-03-29T08:08:34.948Z</time></trkpt><trkpt lat="40.7580579" lon="14.8293773"><ele>554.0</ele><time>2026-03-29T08:08:35.949Z</time></trkpt><trkpt lat="40.7579744" lon="14.8294073"><ele>554.0</ele><time>2026-03-29T08:08:36.95Z</time></trkpt><trkpt lat="40.7579037" lon="14.8293865"><ele>554.0</ele><time>2026-03-29T08:08:37.942Z</time></trkpt><trkpt lat="40.7578396" lon="14.8293457"><ele>554.0</ele><time>2026-03-29T08:08:39.034Z</time></trkpt><trkpt lat="40.7577987" lon="14.8292634"><ele>554.0</ele><time>2026-03-29T08:08:39.941Z</time></trkpt><trkpt lat="40.7577749" lon="14.8291421"><ele>554.0</ele><time>2026-03-29T08:08:41.013Z</time></trkpt><trkpt lat="40.7577676" lon="14.8290198"><ele>554.0</ele><time>2026-03-29T08:08:41.949Z</time></trkpt><trkpt lat="40.7577743" lon="14.8288727"><ele>552.0</ele><time>2026-03-29T08:08:42.954Z</time></trkpt><trkpt lat="40.7577973" lon="14.8287059"><ele>550.0</ele><time>2026-03-29T08:08:43.947Z</time></trkpt><trkpt lat="40.7578273" lon="14.8285366"><ele>548.0</ele><time>2026-03-29T08:08:44.954Z</time></trkpt><trkpt lat="40.757863" lon="14.8283609"><ele>546.0</ele><time>2026-03-29T08:08:45.948Z</time></trkpt><trkpt lat="40.7578774" lon="14.828199"><ele>543.0</ele><time>2026-03-29T08:08:46.949Z</time></trkpt><trkpt lat="40.7578942" lon="14.8280289"><ele>540.0</ele><time>2026-03-29T08:08:47.95Z</time></trkpt><trkpt lat="40.7579034" lon="14.8278741"><ele>537.0</ele><time>2026-03-29T08:08:48.949Z</time></trkpt><trkpt lat="40.757903" lon="14.8277404"><ele>534.0</ele><time>2026-03-29T08:08:49.945Z</time></trkpt><trkpt lat="40.7579054" lon="14.8276322"><ele>531.0</ele><time>2026-03-29T08:08:50.951Z</time></trkpt><trkpt lat="40.7579146" lon="14.8275306"><ele>531.0</ele><time>2026-03-29T08:08:51.953Z</time></trkpt><trkpt lat="40.7579222" lon="14.827445"><ele>531.0</ele><time>2026-03-29T08:08:52.955Z</time></trkpt><trkpt lat="40.7579219" lon="14.8273507"><ele>531.0</ele><time>2026-03-29T08:08:54.956Z</time></trkpt><trkpt lat="40.7578641" lon="14.8274279"><ele>531.0</ele><time>2026-03-29T08:11:05.961Z</time></trkpt><trkpt lat="40.7578264" lon="14.8275524"><ele>531.0</ele><time>2026-03-29T08:11:07.94Z</time></trkpt><trkpt lat="40.7578085" lon="14.8276368"><ele>531.0</ele><time>2026-03-29T08:11:09.042Z</time></trkpt><trkpt lat="40.7577751" lon="14.827799"><ele>531.0</ele><time>2026-03-29T08:11:10.964Z</time></trkpt><trkpt lat="40.7577496" lon="14.8279046"><ele>531.0</ele><time>2026-03-29T08:11:12.959Z</time></trkpt><trkpt lat="40.7577126" lon="14.8279842"><ele>531.0</ele><time>2026-03-29T08:11:14.961Z</time></trkpt><trkpt lat="40.757683" lon="14.8280853"><ele>531.0</ele><time>2026-03-29T08:11:16.957Z</time></trkpt><trkpt lat="40.757657" lon="14.8281807"><ele>531.0</ele><time>2026-03-29T08:11:18.959Z</time></trkpt><trkpt lat="40.7576469" lon="14.8283295"><ele>531.0</ele><time>2026-03-29T08:11:20.961Z</time></trkpt><trkpt lat="40.757621" lon="14.8284832"><ele>533.8333333333334</ele><time>2026-03-29T08:11:22.96Z</time></trkpt><trkpt lat="40.7575926" lon="14.8285605"><ele>536.6666666666666</ele><time>2026-03-29T08:11:24.036Z</time></trkpt><trkpt lat="40.7575587" lon="14.8286567"><ele>539.5</ele><time>2026-03-29T08:11:25.019Z</time></trkpt><trkpt lat="40.7575251" lon="14.8287477"><ele>542.3333333333333</ele><time>2026-03-29T08:11:26.043Z</time></trkpt><trkpt lat="40.7574999" lon="14.8288536"><ele>545.1666666666666</ele><time>2026-03-29T08:11:26.956Z</time></trkpt><trkpt lat="40.7574746" lon="14.8289561"><ele>548.0</ele><time>2026-03-29T08:11:27.951Z</time></trkpt><trkpt lat="40.7574559" lon="14.8290767"><ele>548.0</ele><time>2026-03-29T08:11:28.956Z</time></trkpt><trkpt lat="40.7574311" lon="14.8291971"><ele>548.0</ele><time>2026-03-29T08:11:29.953Z</time></trkpt><trkpt lat="40.7574044" lon="14.8293193"><ele>548.0</ele><time>2026-03-29T08:11:30.952Z</time></trkpt><trkpt lat="40.7573846" lon="14.8294375"><ele>548.0</ele><time>2026-03-29T08:11:31.959Z</time></trkpt><trkpt lat="40.757371" lon="14.8295416"><ele>548.0</ele><time>2026-03-29T08:11:32.978Z</time></trkpt><trkpt lat="40.7573682" lon="14.8296567"><ele>551.1999999999999</ele><time>2026-03-29T08:11:34.075Z</time></trkpt><trkpt lat="40.7573726" lon="14.8297707"><ele>554.4</ele><time>2026-03-29T08:11:35.02Z</time></trkpt><trkpt lat="40.7573767" lon="14.8298754"><ele>557.5999999999999</ele><time>2026-03-29T08:11:36.036Z</time></trkpt><trkpt lat="40.7573814" lon="14.8299709"><ele>560.8</ele><time>2026-03-29T08:11:37.032Z</time></trkpt><trkpt lat="40.7573924" lon="14.8300996"><ele>564.0</ele><time>2026-03-29T08:11:38.961Z</time></trkpt><trkpt lat="40.75742" lon="14.8302579"><ele>567.3333333333334</ele><time>2026-03-29T08:11:41.968Z</time></trkpt><trkpt lat="40.7574389" lon="14.8304"><ele>570.6666666666666</ele><time>2026-03-29T08:11:44.039Z</time></trkpt><trkpt lat="40.757461" lon="14.8305175"><ele>574.0</ele><time>2026-03-29T08:11:45.961Z</time></trkpt><trkpt lat="40.7574757" lon="14.8305994"><ele>577.3333333333333</ele><time>2026-03-29T08:11:47.961Z</time></trkpt><trkpt lat="40.7575003" lon="14.8307003"><ele>580.6666666666666</ele><time>2026-03-29T08:11:52.057Z</time></trkpt><trkpt lat="40.7575037" lon="14.8308375"><ele>584.0</ele><time>2026-03-29T08:12:02.037Z</time></trkpt><trkpt lat="40.7575208" lon="14.8309467"><ele>587.6666666666666</ele><time>2026-03-29T08:12:06.952Z</time></trkpt><trkpt lat="40.7575418" lon="14.8310537"><ele>591.3333333333333</ele><time>2026-03-29T08:12:10.972Z</time></trkpt><trkpt lat="40.7575529" lon="14.8311655"><ele>595.0</ele><time>2026-03-29T08:12:13.952Z</time></trkpt><trkpt lat="40.757548" lon="14.8312864"><ele>598.6666666666666</ele><time>2026-03-29T08:12:16.955Z</time></trkpt><trkpt lat="40.7575308" lon="14.8313789"><ele>602.3333333333334</ele><time>2026-03-29T08:12:18.955Z</time></trkpt><trkpt lat="40.7575041" lon="14.8315078"><ele>606.0</ele><time>2026-03-29T08:12:20.956Z</time></trkpt><trkpt lat="40.7574901" lon="14.8316082"><ele>606.0</ele><time>2026-03-29T08:12:22.956Z</time></trkpt><trkpt lat="40.7574862" lon="14.8317026"><ele>606.0</ele><time>2026-03-29T08:12:24.954Z</time></trkpt><trkpt lat="40.7574653" lon="14.8317915"><ele>606.0</ele><time>2026-03-29T08:12:26.953Z</time></trkpt><trkpt lat="40.7574294" lon="14.8318612"><ele>606.0</ele><time>2026-03-29T08:12:28.957Z</time></trkpt><trkpt lat="40.7573817" lon="14.8319313"><ele>606.0</ele><time>2026-03-29T08:12:30.954Z</time></trkpt><trkpt lat="40.7573283" lon="14.8320251"><ele>606.0</ele><time>2026-03-29T08:12:33.952Z</time></trkpt><trkpt lat="40.7573008" lon="14.8321286"><ele>606.0</ele><time>2026-03-29T08:12:36.951Z</time></trkpt><trkpt lat="40.7572566" lon="14.8322336"><ele>609.1428571428571</ele><time>2026-03-29T08:12:42.952Z</time></trkpt><trkpt lat="40.7572304" lon="14.8323234"><ele>612.2857142857142</ele><time>2026-03-29T08:12:44.962Z</time></trkpt><trkpt lat="40.7572085" lon="14.8324181"><ele>615.4285714285713</ele><time>2026-03-29T08:12:46.957Z</time></trkpt><trkpt lat="40.7572022" lon="14.832525"><ele>618.5714285714286</ele><time>2026-03-29T08:12:48.961Z</time></trkpt><trkpt lat="40.7571897" lon="14.8326237"><ele>621.7142857142857</ele><time>2026-03-29T08:12:51.953Z</time></trkpt><trkpt lat="40.7571697" lon="14.8327236"><ele>624.8571428571428</ele><time>2026-03-29T08:12:55.954Z</time></trkpt><trkpt lat="40.7571602" lon="14.832809"><ele>628.0</ele><time>2026-03-29T08:12:58.953Z</time></trkpt><trkpt lat="40.7571136" lon="14.8329299"><ele>632.6666666666667</ele><time>2026-03-29T08:13:04.958Z</time></trkpt><trkpt lat="40.7571698" lon="14.8329822"><ele>637.3333333333334</ele><time>2026-03-29T08:13:11.953Z</time></trkpt><trkpt lat="40.7572405" lon="14.8329743"><ele>642.0</ele><time>2026-03-29T08:13:14.954Z</time></trkpt><trkpt lat="40.7573112" lon="14.8329676"><ele>646.6666666666666</ele><time>2026-03-29T08:13:17.037Z</time></trkpt><trkpt lat="40.7574105" lon="14.8329532"><ele>651.3333333333333</ele><time>2026-03-29T08:13:18.959Z</time></trkpt><trkpt lat="40.7575022" lon="14.8329292"><ele>656.0</ele><time>2026-03-29T08:13:20.961Z</time></trkpt><trkpt lat="40.7575645" lon="14.8329011"><ele>656.0</ele><time>2026-03-29T08:13:22.957Z</time></trkpt><trkpt lat="40.757632" lon="14.8328917"><ele>656.0</ele><time>2026-03-29T08:13:24.955Z</time></trkpt><trkpt lat="40.7577484" lon="14.8329284"><ele>656.0</ele><time>2026-03-29T08:14:35.955Z</time></trkpt><trkpt lat="40.7578122" lon="14.8329475"><ele>656.0</ele><time>2026-03-29T08:14:38.958Z</time></trkpt><trkpt lat="40.757892" lon="14.8329373"><ele>656.0</ele><time>2026-03-29T08:14:40.954Z</time></trkpt><trkpt lat="40.7579843" lon="14.8329232"><ele>656.0</ele><time>2026-03-29T08:14:41.958Z</time></trkpt><trkpt lat="40.7580628" lon="14.8329365"><ele>659.5</ele><time>2026-03-29T08:14:42.962Z</time></trkpt><trkpt lat="40.7581439" lon="14.8329444"><ele>663.0</ele><time>2026-03-29T08:14:44.021Z</time></trkpt><trkpt lat="40.7582275" lon="14.8329697"><ele>666.5</ele><time>2026-03-29T08:14:45.02Z</time></trkpt><trkpt lat="40.7583219" lon="14.8330209"><ele>670.0</ele><time>2026-03-29T08:14:45.959Z</time></trkpt><trkpt lat="40.7584135" lon="14.8330671"><ele>673.5</ele><time>2026-03-29T08:14:47.027Z</time></trkpt><trkpt lat="40.7584921" lon="14.8330882"><ele>677.0</ele><time>2026-03-29T08:14:47.958Z</time></trkpt><trkpt lat="40.7585945" lon="14.8331665"><ele>679.3333333333333</ele><time>2026-03-29T08:14:49.956Z</time></trkpt><trkpt lat="40.7586301" lon="14.833237"><ele>681.6666666666666</ele><time>2026-03-29T08:14:54.05Z</time></trkpt><trkpt lat="40.7586585" lon="14.8333333"><ele>684.0</ele><time>2026-03-29T08:14:56.952Z</time></trkpt><trkpt lat="40.7587005" lon="14.8334168"><ele>686.3333333333334</ele><time>2026-03-29T08:14:59.956Z</time></trkpt><trkpt lat="40.7587567" lon="14.8334782"><ele>688.6666666666667</ele><time>2026-03-29T08:15:02.035Z</time></trkpt><trkpt lat="40.7588354" lon="14.8334384"><ele>691.0</ele><time>2026-03-29T08:15:03.947Z</time></trkpt><trkpt lat="40.7589007" lon="14.8333559"><ele>691.0</ele><time>2026-03-29T08:15:04.962Z</time></trkpt><trkpt lat="40.7589862" lon="14.8332347"><ele>691.0</ele><time>2026-03-29T08:15:05.954Z</time></trkpt><trkpt lat="40.759059" lon="14.833115"><ele>691.0</ele><time>2026-03-29T08:15:06.948Z</time></trkpt><trkpt lat="40.75912" lon="14.8330002"><ele>691.0</ele><time>2026-03-29T08:15:07.946Z</time></trkpt><trkpt lat="40.7592133" lon="14.8328929"><ele>691.0</ele><time>2026-03-29T08:15:08.951Z</time></trkpt><trkpt lat="40.7593124" lon="14.8327937"><ele>691.0</ele><time>2026-03-29T08:15:10.001Z</time></trkpt><trkpt lat="40.7593748" lon="14.8327512"><ele>691.0</ele><time>2026-03-29T08:15:10.954Z</time></trkpt><trkpt lat="40.759426" lon="14.8326963"><ele>691.0</ele><time>2026-03-29T08:15:12.95Z</time></trkpt><trkpt lat="40.7595049" lon="14.8326775"><ele>691.0</ele><time>2026-03-29T08:16:50.971Z</time></trkpt><trkpt lat="40.7595761" lon="14.8326299"><ele>691.0</ele><time>2026-03-29T08:16:53.964Z</time></trkpt><trkpt lat="40.7596695" lon="14.832585"><ele>687.1999999999999</ele><time>2026-03-29T08:16:55.97Z</time></trkpt><trkpt lat="40.7597421" lon="14.83253"><ele>683.4</ele><time>2026-03-29T08:16:56.968Z</time></trkpt><trkpt lat="40.7598158" lon="14.832463"><ele>679.6</ele><time>2026-03-29T08:16:57.969Z</time></trkpt><trkpt lat="40.759892" lon="14.8324118"><ele>675.8</ele><time>2026-03-29T08:16:58.971Z</time></trkpt><trkpt lat="40.7599826" lon="14.8323762"><ele>672.0</ele><time>2026-03-29T08:16:59.969Z</time></trkpt><trkpt lat="40.7600812" lon="14.8323809"><ele>672.0</ele><time>2026-03-29T08:17:00.971Z</time></trkpt><trkpt lat="40.7601979" lon="14.8324018"><ele>672.0</ele><time>2026-03-29T08:17:01.974Z</time></trkpt><trkpt lat="40.7603276" lon="14.8324052"><ele>672.0</ele><time>2026-03-29T08:17:02.968Z</time></trkpt><trkpt lat="40.7604524" lon="14.8324108"><ele>672.0</ele><time>2026-03-29T08:17:03.968Z</time></trkpt><trkpt lat="40.760589" lon="14.8323857"><ele>669.25</ele><time>2026-03-29T08:17:04.966Z</time></trkpt><trkpt lat="40.7607334" lon="14.8323561"><ele>666.5</ele><time>2026-03-29T08:17:05.968Z</time></trkpt><trkpt lat="40.7608791" lon="14.8323131"><ele>663.75</ele><time>2026-03-29T08:17:06.965Z</time></trkpt><trkpt lat="40.7610139" lon="14.8322936"><ele>661.0</ele><time>2026-03-29T08:17:07.969Z</time></trkpt><trkpt lat="40.7611291" lon="14.8322507"><ele>654.25</ele><time>2026-03-29T08:17:08.972Z</time></trkpt><trkpt lat="40.7612286" lon="14.8322091"><ele>647.5</ele><time>2026-03-29T08:17:09.973Z</time></trkpt><trkpt lat="40.7613385" lon="14.8321483"><ele>640.75</ele><time>2026-03-29T08:17:10.968Z</time></trkpt><trkpt lat="40.7614463" lon="14.8320633"><ele>634.0</ele><time>2026-03-29T08:17:11.966Z</time></trkpt><trkpt lat="40.7615461" lon="14.831929"><ele>632.5</ele><time>2026-03-29T08:17:12.976Z</time></trkpt><trkpt lat="40.7616209" lon="14.8317571"><ele>631.0</ele><time>2026-03-29T08:17:13.973Z</time></trkpt><trkpt lat="40.7616885" lon="14.8315823"><ele>629.5</ele><time>2026-03-29T08:17:14.978Z</time></trkpt><trkpt lat="40.7617476" lon="14.831417"><ele>628.0</ele><time>2026-03-29T08:17:15.974Z</time></trkpt><trkpt lat="40.7617974" lon="14.8312447"><ele>628.0</ele><time>2026-03-29T08:17:16.969Z</time></trkpt><trkpt lat="40.7618473" lon="14.8310932"><ele>628.0</ele><time>2026-03-29T08:17:17.976Z</time></trkpt><trkpt lat="40.7618939" lon="14.8309625"><ele>628.0</ele><time>2026-03-29T08:17:18.975Z</time></trkpt><trkpt lat="40.7619653" lon="14.8308419"><ele>628.0</ele><time>2026-03-29T08:17:19.971Z</time></trkpt><trkpt lat="40.7620449" lon="14.8307378"><ele>625.0</ele><time>2026-03-29T08:17:20.973Z</time></trkpt><trkpt lat="40.7621203" lon="14.8306477"><ele>622.0</ele><time>2026-03-29T08:17:21.967Z</time></trkpt><trkpt lat="40.7622004" lon="14.8305615"><ele>619.0</ele><time>2026-03-29T08:17:22.967Z</time></trkpt><trkpt lat="40.7622698" lon="14.830473"><ele>616.0</ele><time>2026-03-29T08:17:23.969Z</time></trkpt><trkpt lat="40.7623361" lon="14.8304054"><ele>613.0</ele><time>2026-03-29T08:17:25.972Z</time></trkpt><trkpt lat="40.7624106" lon="14.8304092"><ele>613.0</ele><time>2026-03-29T08:17:27.972Z</time></trkpt><trkpt lat="40.7624772" lon="14.8304506"><ele>613.0</ele><time>2026-03-29T08:17:28.969Z</time></trkpt><trkpt lat="40.76255" lon="14.8304823"><ele>613.0</ele><time>2026-03-29T08:17:29.969Z</time></trkpt><trkpt lat="40.7626501" lon="14.8305159"><ele>613.0</ele><time>2026-03-29T08:17:30.976Z</time></trkpt><trkpt lat="40.7628003" lon="14.8305522"><ele>613.0</ele><time>2026-03-29T08:17:31.973Z</time></trkpt><trkpt lat="40.7629446" lon="14.8305972"><ele>612.25</ele><time>2026-03-29T08:17:32.966Z</time></trkpt><trkpt lat="40.7630922" lon="14.8306271"><ele>611.5</ele><time>2026-03-29T08:17:33.969Z</time></trkpt><trkpt lat="40.7632299" lon="14.8306906"><ele>610.75</ele><time>2026-03-29T08:17:34.967Z</time></trkpt><trkpt lat="40.763348" lon="14.8307831"><ele>610.0</ele><time>2026-03-29T08:17:35.97Z</time></trkpt><trkpt lat="40.7634718" lon="14.8308719"><ele>610.0</ele><time>2026-03-29T08:17:36.97Z</time></trkpt><trkpt lat="40.7635271" lon="14.8309152"><ele>610.0</ele><time>2026-03-29T08:17:37.966Z</time></trkpt><trkpt lat="40.763593" lon="14.8309354"><ele>610.0</ele><time>2026-03-29T08:17:39.973Z</time></trkpt><trkpt lat="40.7636369" lon="14.8308459"><ele>610.0</ele><time>2026-03-29T08:17:41.973Z</time></trkpt><trkpt lat="40.7636857" lon="14.830734"><ele>610.0</ele><time>2026-03-29T08:17:43.968Z</time></trkpt><trkpt lat="40.7637317" lon="14.8306767"><ele>610.0</ele><time>2026-03-29T08:17:44.975Z</time></trkpt><trkpt lat="40.7638152" lon="14.8306203"><ele>606.6</ele><time>2026-03-29T08:17:45.981Z</time></trkpt><trkpt lat="40.7639018" lon="14.8305593"><ele>603.2</ele><time>2026-03-29T08:17:46.969Z</time></trkpt><trkpt lat="40.7640065" lon="14.8305003"><ele>599.8</ele><time>2026-03-29T08:17:47.976Z</time></trkpt><trkpt lat="40.7641034" lon="14.8304532"><ele>596.4</ele><time>2026-03-29T08:17:48.957Z</time></trkpt><trkpt lat="40.764208" lon="14.8303885"><ele>593.0</ele><time>2026-03-29T08:17:49.97Z</time></trkpt><trkpt lat="40.7643229" lon="14.8303149"><ele>594.0</ele><time>2026-03-29T08:17:50.969Z</time></trkpt><trkpt lat="40.7644234" lon="14.8302262"><ele>595.0</ele><time>2026-03-29T08:17:51.957Z</time></trkpt><trkpt lat="40.764499" lon="14.8301657"><ele>596.0</ele><time>2026-03-29T08:17:52.961Z</time></trkpt><trkpt lat="40.7645653" lon="14.8301151"><ele>597.0</ele><time>2026-03-29T08:17:53.951Z</time></trkpt><trkpt lat="40.7646337" lon="14.8300388"><ele>598.0</ele><time>2026-03-29T08:17:54.959Z</time></trkpt><trkpt lat="40.7646811" lon="14.8299661"><ele>599.0</ele><time>2026-03-29T08:17:55.956Z</time></trkpt><trkpt lat="40.7647489" lon="14.8298969"><ele>599.0</ele><time>2026-03-29T08:17:57.974Z</time></trkpt><trkpt lat="40.764815" lon="14.8299126"><ele>599.0</ele><time>2026-03-29T08:17:58.953Z</time></trkpt><trkpt lat="40.7648823" lon="14.829918"><ele>599.0</ele><time>2026-03-29T08:17:59.952Z</time></trkpt><trkpt lat="40.7649493" lon="14.8298952"><ele>599.0</ele><time>2026-03-29T08:18:00.957Z</time></trkpt><trkpt lat="40.7650207" lon="14.8298694"><ele>599.0</ele><time>2026-03-29T08:18:01.957Z</time></trkpt><trkpt lat="40.7651051" lon="14.8299146"><ele>599.0</ele><time>2026-03-29T08:18:03.957Z</time></trkpt><trkpt lat="40.7651886" lon="14.830001"><ele>595.5</ele><time>2026-03-29T08:18:05.954Z</time></trkpt><trkpt lat="40.7652585" lon="14.8300559"><ele>592.0</ele><time>2026-03-29T08:18:06.973Z</time></trkpt><trkpt lat="40.7654059" lon="14.8301051"><ele>588.5</ele><time>2026-03-29T08:18:07.969Z</time></trkpt><trkpt lat="40.765577" lon="14.8301154"><ele>585.0</ele><time>2026-03-29T08:18:08.975Z</time></trkpt><trkpt lat="40.7657279" lon="14.8301244"><ele>583.25</ele><time>2026-03-29T08:18:09.961Z</time></trkpt><trkpt lat="40.7658492" lon="14.8301458"><ele>581.5</ele><time>2026-03-29T08:18:10.959Z</time></trkpt><trkpt lat="40.7659625" lon="14.8301641"><ele>579.75</ele><time>2026-03-29T08:18:11.989Z</time></trkpt><trkpt lat="40.766076" lon="14.8301527"><ele>578.0</ele><time>2026-03-29T08:18:12.968Z</time></trkpt><trkpt lat="40.766194" lon="14.83012"><ele>578.0</ele><time>2026-03-29T08:18:13.973Z</time></trkpt><trkpt lat="40.7662963" lon="14.8300748"><ele>578.0</ele><time>2026-03-29T08:18:14.97Z</time></trkpt><trkpt lat="40.7664014" lon="14.8300379"><ele>578.0</ele><time>2026-03-29T08:18:15.972Z</time></trkpt><trkpt lat="40.7664919" lon="14.8300175"><ele>578.0</ele><time>2026-03-29T08:18:16.973Z</time></trkpt><trkpt lat="40.766589" lon="14.8300189"><ele>578.0</ele><time>2026-03-29T08:18:18.974Z</time></trkpt><trkpt lat="40.7665975" lon="14.8301174"><ele>573.6</ele><time>2026-03-29T08:18:20.974Z</time></trkpt><trkpt lat="40.7665357" lon="14.8302421"><ele>569.1999999999999</ele><time>2026-03-29T08:18:21.972Z</time></trkpt><trkpt lat="40.7664673" lon="14.830305"><ele>564.8</ele><time>2026-03-29T08:18:22.974Z</time></trkpt><trkpt lat="40.7663946" lon="14.8303385"><ele>560.4</ele><time>2026-03-29T08:18:23.97Z</time></trkpt><trkpt lat="40.7663063" lon="14.8303487"><ele>556.0</ele><time>2026-03-29T08:18:24.971Z</time></trkpt><trkpt lat="40.7662155" lon="14.830359"><ele>556.0</ele><time>2026-03-29T08:18:25.969Z</time></trkpt><trkpt lat="40.7661268" lon="14.8303679"><ele>556.0</ele><time>2026-03-29T08:18:26.965Z</time></trkpt><trkpt lat="40.7660478" lon="14.8303935"><ele>556.0</ele><time>2026-03-29T08:18:27.964Z</time></trkpt><trkpt lat="40.7659451" lon="14.8304459"><ele>556.0</ele><time>2026-03-29T08:18:28.977Z</time></trkpt><trkpt lat="40.7657967" lon="14.8305054"><ele>556.0</ele><time>2026-03-29T08:18:29.968Z</time></trkpt><trkpt lat="40.7656652" lon="14.8305366"><ele>556.8</ele><time>2026-03-29T08:18:30.972Z</time></trkpt><trkpt lat="40.7655455" lon="14.8305495"><ele>557.6</ele><time>2026-03-29T08:18:31.967Z</time></trkpt><trkpt lat="40.7654354" lon="14.8305286"><ele>558.4</ele><time>2026-03-29T08:18:32.963Z</time></trkpt><trkpt lat="40.7653434" lon="14.8304725"><ele>559.2</ele><time>2026-03-29T08:18:33.965Z</time></trkpt><trkpt lat="40.7652678" lon="14.8304172"><ele>560.0</ele><time>2026-03-29T08:18:34.973Z</time></trkpt><trkpt lat="40.7652083" lon="14.8303538"><ele>560.0</ele><time>2026-03-29T08:18:36.968Z</time></trkpt><trkpt lat="40.7652155" lon="14.8304853"><ele>560.0</ele><time>2026-03-29T08:18:39.962Z</time></trkpt><trkpt lat="40.7652143" lon="14.8305788"><ele>560.0</ele><time>2026-03-29T08:18:40.976Z</time></trkpt><trkpt lat="40.7651725" lon="14.830721"><ele>560.0</ele><time>2026-03-29T08:18:42.973Z</time></trkpt><trkpt lat="40.7650597" lon="14.8308272"><ele>560.0</ele><time>2026-03-29T08:18:44.973Z</time></trkpt><trkpt lat="40.7650004" lon="14.8308758"><ele>561.6</ele><time>2026-03-29T08:18:45.966Z</time></trkpt><trkpt lat="40.7649228" lon="14.8309681"><ele>563.2</ele><time>2026-03-29T08:18:47.966Z</time></trkpt><trkpt lat="40.7648947" lon="14.8310453"><ele>564.8</ele><time>2026-03-29T08:18:48.97Z</time></trkpt><trkpt lat="40.7648423" lon="14.8311732"><ele>566.4</ele><time>2026-03-29T08:18:50.97Z</time></trkpt><trkpt lat="40.7648931" lon="14.8312875"><ele>568.0</ele><time>2026-03-29T08:18:52.972Z</time></trkpt><trkpt lat="40.7649549" lon="14.8313464"><ele>565.3333333333334</ele><time>2026-03-29T08:18:53.967Z</time></trkpt><trkpt lat="40.7650412" lon="14.8314165"><ele>562.6666666666667</ele><time>2026-03-29T08:18:54.972Z</time></trkpt><trkpt lat="40.7651112" lon="14.8314856"><ele>560.0</ele><time>2026-03-29T08:18:55.971Z</time></trkpt><trkpt lat="40.7651825" lon="14.8315523"><ele>557.3333333333334</ele><time>2026-03-29T08:18:56.969Z</time></trkpt><trkpt lat="40.765233" lon="14.8316119"><ele>554.6666666666666</ele><time>2026-03-29T08:18:57.967Z</time></trkpt><trkpt lat="40.7652468" lon="14.8317198"><ele>552.0</ele><time>2026-03-29T08:19:00.968Z</time></trkpt><trkpt lat="40.7651499" lon="14.8318567"><ele>548.75</ele><time>2026-03-29T08:19:02.972Z</time></trkpt><trkpt lat="40.765053" lon="14.8319696"><ele>545.5</ele><time>2026-03-29T08:19:03.956Z</time></trkpt><trkpt lat="40.7649457" lon="14.8320704"><ele>542.25</ele><time>2026-03-29T08:19:04.961Z</time></trkpt><trkpt lat="40.7648499" lon="14.8321575"><ele>539.0</ele><time>2026-03-29T08:19:05.966Z</time></trkpt><trkpt lat="40.7647599" lon="14.8322206"><ele>539.0</ele><time>2026-03-29T08:19:06.97Z</time></trkpt><trkpt lat="40.7646702" lon="14.8322774"><ele>539.0</ele><time>2026-03-29T08:19:07.968Z</time></trkpt><trkpt lat="40.7645731" lon="14.8323283"><ele>539.0</ele><time>2026-03-29T08:19:08.97Z</time></trkpt><trkpt lat="40.7644753" lon="14.8323841"><ele>539.0</ele><time>2026-03-29T08:19:09.965Z</time></trkpt><trkpt lat="40.7643981" lon="14.8324692"><ele>539.0</ele><time>2026-03-29T08:19:10.958Z</time></trkpt><trkpt lat="40.7643499" lon="14.8325827"><ele>542.2</ele><time>2026-03-29T08:19:11.968Z</time></trkpt><trkpt lat="40.7643084" lon="14.8326949"><ele>545.4</ele><time>2026-03-29T08:19:12.969Z</time></trkpt><trkpt lat="40.7642859" lon="14.8328208"><ele>548.6</ele><time>2026-03-29T08:19:13.97Z</time></trkpt><trkpt lat="40.7642788" lon="14.8329422"><ele>551.8</ele><time>2026-03-29T08:19:14.966Z</time></trkpt><trkpt lat="40.7642773" lon="14.8330733"><ele>555.0</ele><time>2026-03-29T08:19:15.964Z</time></trkpt><trkpt lat="40.7643059" lon="14.8332349"><ele>555.0</ele><time>2026-03-29T08:19:16.969Z</time></trkpt><trkpt lat="40.7643325" lon="14.8333758"><ele>555.0</ele><time>2026-03-29T08:19:17.964Z</time></trkpt><trkpt lat="40.7643803" lon="14.8334934"><ele>555.0</ele><time>2026-03-29T08:19:18.965Z</time></trkpt><trkpt lat="40.7644434" lon="14.8336063"><ele>555.0</ele><time>2026-03-29T08:19:19.969Z</time></trkpt><trkpt lat="40.7645015" lon="14.8337051"><ele>555.0</ele><time>2026-03-29T08:19:20.965Z</time></trkpt><trkpt lat="40.7645698" lon="14.8337684"><ele>552.8</ele><time>2026-03-29T08:19:21.959Z</time></trkpt><trkpt lat="40.7646706" lon="14.8338311"><ele>550.6</ele><time>2026-03-29T08:19:22.963Z</time></trkpt><trkpt lat="40.764767" lon="14.8338769"><ele>548.4</ele><time>2026-03-29T08:19:23.966Z</time></trkpt><trkpt lat="40.7648403" lon="14.833888"><ele>546.2</ele><time>2026-03-29T08:19:25.971Z</time></trkpt><trkpt lat="40.7648909" lon="14.8340087"><ele>544.0</ele><time>2026-03-29T08:19:27.966Z</time></trkpt><trkpt lat="40.7649034" lon="14.8341422"><ele>544.0</ele><time>2026-03-29T08:19:28.963Z</time></trkpt><trkpt lat="40.7649016" lon="14.8342954"><ele>544.0</ele><time>2026-03-29T08:19:29.966Z</time></trkpt><trkpt lat="40.7648839" lon="14.8344645"><ele>544.0</ele><time>2026-03-29T08:19:30.971Z</time></trkpt><trkpt lat="40.7648748" lon="14.8346559"><ele>544.0</ele><time>2026-03-29T08:19:31.971Z</time></trkpt><trkpt lat="40.7648712" lon="14.8348447"><ele>545.0</ele><time>2026-03-29T08:19:32.965Z</time></trkpt><trkpt lat="40.7648838" lon="14.8350139"><ele>546.0</ele><time>2026-03-29T08:19:33.966Z</time></trkpt><trkpt lat="40.7649001" lon="14.8351665"><ele>547.0</ele><time>2026-03-29T08:19:34.969Z</time></trkpt><trkpt lat="40.7649296" lon="14.8353073"><ele>548.0</ele><time>2026-03-29T08:19:35.968Z</time></trkpt><trkpt lat="40.7649602" lon="14.8354678"><ele>548.1999999999999</ele><time>2026-03-29T08:19:36.974Z</time></trkpt><trkpt lat="40.765001" lon="14.8356307"><ele>548.4</ele><time>2026-03-29T08:19:37.972Z</time></trkpt><trkpt lat="40.7650472" lon="14.8357451"><ele>548.5999999999999</ele><time>2026-03-29T08:19:38.97Z</time></trkpt><trkpt lat="40.7650829" lon="14.8358301"><ele>548.8</ele><time>2026-03-29T08:19:39.968Z</time></trkpt><trkpt lat="40.765084" lon="14.8359936"><ele>549.0</ele><time>2026-03-29T08:19:41.973Z</time></trkpt><trkpt lat="40.7650772" lon="14.8361109"><ele>547.5</ele><time>2026-03-29T08:19:42.962Z</time></trkpt><trkpt lat="40.7650927" lon="14.836223"><ele>546.0</ele><time>2026-03-29T08:19:43.967Z</time></trkpt><trkpt lat="40.7651036" lon="14.8363373"><ele>544.5</ele><time>2026-03-29T08:19:44.967Z</time></trkpt><trkpt lat="40.7650915" lon="14.8364465"><ele>543.0</ele><time>2026-03-29T08:19:45.972Z</time></trkpt><trkpt lat="40.7650621" lon="14.8365476"><ele>541.5</ele><time>2026-03-29T08:19:46.986Z</time></trkpt><trkpt lat="40.7650286" lon="14.8366758"><ele>540.0</ele><time>2026-03-29T08:19:47.956Z</time></trkpt><trkpt lat="40.7649895" lon="14.8368105"><ele>537.6666666666666</ele><time>2026-03-29T08:19:49.045Z</time></trkpt><trkpt lat="40.7649596" lon="14.8369278"><ele>535.3333333333334</ele><time>2026-03-29T08:19:50.032Z</time></trkpt><trkpt lat="40.7649209" lon="14.8370303"><ele>533.0</ele><time>2026-03-29T08:19:51.033Z</time></trkpt><trkpt lat="40.7649061" lon="14.8371176"><ele>530.6666666666667</ele><time>2026-03-29T08:19:52.044Z</time></trkpt><trkpt lat="40.7649223" lon="14.8371987"><ele>528.3333333333334</ele><time>2026-03-29T08:19:52.967Z</time></trkpt><trkpt lat="40.7649866" lon="14.8373382"><ele>526.0</ele><time>2026-03-29T08:19:54.991Z</time></trkpt><trkpt lat="40.7650074" lon="14.8374269"><ele>526.0</ele><time>2026-03-29T08:19:56.044Z</time></trkpt><trkpt lat="40.7650342" lon="14.8375425"><ele>526.0</ele><time>2026-03-29T08:19:57.041Z</time></trkpt><trkpt lat="40.7650571" lon="14.8376611"><ele>526.0</ele><time>2026-03-29T08:19:57.967Z</time></trkpt><trkpt lat="40.7650788" lon="14.837773"><ele>526.0</ele><time>2026-03-29T08:19:58.966Z</time></trkpt><trkpt lat="40.7650619" lon="14.8379373"><ele>526.0</ele><time>2026-03-29T08:20:00.969Z</time></trkpt><trkpt lat="40.7649845" lon="14.8380761"><ele>524.2</ele><time>2026-03-29T08:20:02.965Z</time></trkpt><trkpt lat="40.7649083" lon="14.838137"><ele>522.4000000000001</ele><time>2026-03-29T08:20:03.971Z</time></trkpt><trkpt lat="40.7648262" lon="14.8381818"><ele>520.6</ele><time>2026-03-29T08:20:04.985Z</time></trkpt><trkpt lat="40.7647366" lon="14.8381999"><ele>518.8000000000001</ele><time>2026-03-29T08:20:05.962Z</time></trkpt><trkpt lat="40.7646459" lon="14.8381952"><ele>517.0</ele><time>2026-03-29T08:20:06.962Z</time></trkpt><trkpt lat="40.7645379" lon="14.8381838"><ele>517.0</ele><time>2026-03-29T08:20:07.967Z</time></trkpt><trkpt lat="40.7644365" lon="14.838189"><ele>517.0</ele><time>2026-03-29T08:20:09.05Z</time></trkpt><trkpt lat="40.7643339" lon="14.8381897"><ele>517.0</ele><time>2026-03-29T08:20:10.035Z</time></trkpt><trkpt lat="40.7642428" lon="14.8381805"><ele>517.0</ele><time>2026-03-29T08:20:11.031Z</time></trkpt><trkpt lat="40.764171" lon="14.838169"><ele>517.0</ele><time>2026-03-29T08:20:12.031Z</time></trkpt><trkpt lat="40.7640982" lon="14.8382055"><ele>517.0</ele><time>2026-03-29T08:20:13.966Z</time></trkpt><trkpt lat="40.7640349" lon="14.8382372"><ele>518.0</ele><time>2026-03-29T08:20:14.966Z</time></trkpt><trkpt lat="40.7641045" lon="14.8382449"><ele>519.0</ele><time>2026-03-29T08:20:20.962Z</time></trkpt><trkpt lat="40.7641867" lon="14.8382699"><ele>520.0</ele><time>2026-03-29T08:20:22.96Z</time></trkpt><trkpt lat="40.7642393" lon="14.83837"><ele>521.0</ele><time>2026-03-29T08:20:26.038Z</time></trkpt><trkpt lat="40.7642624" lon="14.8384502"><ele>522.0</ele><time>2026-03-29T08:20:30.964Z</time></trkpt><trkpt lat="40.7643244" lon="14.8385098"><ele>523.0</ele><time>2026-03-29T08:20:32.965Z</time></trkpt><trkpt lat="40.7644013" lon="14.8385665"><ele>524.4</ele><time>2026-03-29T08:20:33.957Z</time></trkpt><trkpt lat="40.7644701" lon="14.8386396"><ele>525.8</ele><time>2026-03-29T08:20:34.962Z</time></trkpt><trkpt lat="40.7645437" lon="14.8386813"><ele>527.2</ele><time>2026-03-29T08:20:35.968Z</time></trkpt><trkpt lat="40.7646668" lon="14.8386946"><ele>528.6</ele><time>2026-03-29T08:20:37.966Z</time></trkpt><trkpt lat="40.7647485" lon="14.8386881"><ele>530.0</ele><time>2026-03-29T08:20:38.968Z</time></trkpt><trkpt lat="40.7648255" lon="14.8387014"><ele>530.0</ele><time>2026-03-29T08:20:39.962Z</time></trkpt><trkpt lat="40.7649055" lon="14.8387136"><ele>530.0</ele><time>2026-03-29T08:20:41.047Z</time></trkpt><trkpt lat="40.7649794" lon="14.8387191"><ele>530.0</ele><time>2026-03-29T08:20:42.034Z</time></trkpt><trkpt lat="40.7650583" lon="14.838716"><ele>530.0</ele><time>2026-03-29T08:20:42.968Z</time></trkpt><trkpt lat="40.7651366" lon="14.8387134"><ele>530.0</ele><time>2026-03-29T08:20:43.968Z</time></trkpt><trkpt lat="40.7652388" lon="14.8386596"><ele>530.0</ele><time>2026-03-29T08:20:45.968Z</time></trkpt><trkpt lat="40.7653147" lon="14.8385454"><ele>529.6</ele><time>2026-03-29T08:20:47.96Z</time></trkpt><trkpt lat="40.7653673" lon="14.8384937"><ele>529.2</ele><time>2026-03-29T08:20:49.037Z</time></trkpt><trkpt lat="40.7654655" lon="14.8384415"><ele>528.8</ele><time>2026-03-29T08:20:51.034Z</time></trkpt><trkpt lat="40.7655696" lon="14.8383659"><ele>528.4</ele><time>2026-03-29T08:20:52.971Z</time></trkpt><trkpt lat="40.7656333" lon="14.8382621"><ele>528.0</ele><time>2026-03-29T08:20:54.968Z</time></trkpt><trkpt lat="40.7656759" lon="14.8381969"><ele>528.0</ele><time>2026-03-29T08:20:55.966Z</time></trkpt><trkpt lat="40.765733" lon="14.8381327"><ele>528.0</ele><time>2026-03-29T08:20:56.97Z</time></trkpt><trkpt lat="40.7657936" lon="14.8380674"><ele>528.0</ele><time>2026-03-29T08:20:57.973Z</time></trkpt><trkpt lat="40.7658828" lon="14.8379985"><ele>528.0</ele><time>2026-03-29T08:20:58.967Z</time></trkpt><trkpt lat="40.765978" lon="14.8379452"><ele>528.0</ele><time>2026-03-29T08:21:00.044Z</time></trkpt><trkpt lat="40.7660786" lon="14.8379043"><ele>528.6</ele><time>2026-03-29T08:21:01.041Z</time></trkpt><trkpt lat="40.7661749" lon="14.8378588"><ele>529.1999999999999</ele><time>2026-03-29T08:21:02.035Z</time></trkpt><trkpt lat="40.7662674" lon="14.8378035"><ele>529.8</ele><time>2026-03-29T08:21:02.96Z</time></trkpt><trkpt lat="40.7663442" lon="14.8377204"><ele>530.4</ele><time>2026-03-29T08:21:03.955Z</time></trkpt><trkpt lat="40.7664177" lon="14.837598"><ele>531.0</ele><time>2026-03-29T08:21:04.978Z</time></trkpt><trkpt lat="40.7664779" lon="14.8374514"><ele>531.0</ele><time>2026-03-29T08:21:06.038Z</time></trkpt><trkpt lat="40.7665361" lon="14.8373106"><ele>531.0</ele><time>2026-03-29T08:21:07.02Z</time></trkpt><trkpt lat="40.7665958" lon="14.8371542"><ele>531.0</ele><time>2026-03-29T08:21:07.95Z</time></trkpt><trkpt lat="40.7666574" lon="14.8370165"><ele>531.0</ele><time>2026-03-29T08:21:08.951Z</time></trkpt><trkpt lat="40.7667324" lon="14.8369222"><ele>531.0</ele><time>2026-03-29T08:21:09.965Z</time></trkpt><trkpt lat="40.7668221" lon="14.8368216"><ele>531.0</ele><time>2026-03-29T08:21:11.041Z</time></trkpt><trkpt lat="40.7668878" lon="14.8367434"><ele>531.0</ele><time>2026-03-29T08:21:12.034Z</time></trkpt><trkpt lat="40.7669571" lon="14.8366677"><ele>531.0</ele><time>2026-03-29T08:21:14.04Z</time></trkpt><trkpt lat="40.7670433" lon="14.8366614"><ele>531.0</ele><time>2026-03-29T08:21:17.961Z</time></trkpt><trkpt lat="40.7670917" lon="14.8367423"><ele>531.8</ele><time>2026-03-29T08:22:27.959Z</time></trkpt><trkpt lat="40.767156" lon="14.8368164"><ele>532.6</ele><time>2026-03-29T08:22:29.956Z</time></trkpt><trkpt lat="40.7672234" lon="14.8368491"><ele>533.4</ele><time>2026-03-29T08:22:30.948Z</time></trkpt><trkpt lat="40.7673385" lon="14.8368264"><ele>534.2</ele><time>2026-03-29T08:22:32.971Z</time></trkpt><trkpt lat="40.7674084" lon="14.8367409"><ele>535.0</ele><time>2026-03-29T08:22:34.021Z</time></trkpt><trkpt lat="40.7675021" lon="14.8366525"><ele>535.0</ele><time>2026-03-29T08:22:34.964Z</time></trkpt><trkpt lat="40.7675857" lon="14.836589"><ele>535.0</ele><time>2026-03-29T08:22:35.966Z</time></trkpt><trkpt lat="40.7676683" lon="14.8365398"><ele>535.0</ele><time>2026-03-29T08:22:36.969Z</time></trkpt><trkpt lat="40.7677904" lon="14.8365166"><ele>535.0</ele><time>2026-03-29T08:22:38.97Z</time></trkpt><trkpt lat="40.7678907" lon="14.8365126"><ele>535.0</ele><time>2026-03-29T08:22:40.992Z</time></trkpt><trkpt lat="40.7679915" lon="14.8365104"><ele>536.25</ele><time>2026-03-29T08:22:42.963Z</time></trkpt><trkpt lat="40.768084" lon="14.8365593"><ele>537.5</ele><time>2026-03-29T08:22:44.979Z</time></trkpt><trkpt lat="40.7682295" lon="14.8367181"><ele>538.75</ele><time>2026-03-29T08:22:47.968Z</time></trkpt><trkpt lat="40.7682733" lon="14.8367816"><ele>540.0</ele><time>2026-03-29T08:22:48.967Z</time></trkpt><trkpt lat="40.7683428" lon="14.8368853"><ele>544.25</ele><time>2026-03-29T08:22:51.03Z</time></trkpt><trkpt lat="40.7683852" lon="14.8369706"><ele>548.5</ele><time>2026-03-29T08:22:52.949Z</time></trkpt><trkpt lat="40.7684305" lon="14.8370876"><ele>552.75</ele><time>2026-03-29T08:22:54.954Z</time></trkpt><trkpt lat="40.7684726" lon="14.8373042"><ele>557.0</ele><time>2026-03-29T08:22:57.961Z</time></trkpt><trkpt lat="40.7685005" lon="14.8374385"><ele>557.0</ele><time>2026-03-29T08:22:59.964Z</time></trkpt><trkpt lat="40.7685162" lon="14.8375986"><ele>557.0</ele><time>2026-03-29T08:23:01.956Z</time></trkpt><trkpt lat="40.7685153" lon="14.8376833"><ele>557.0</ele><time>2026-03-29T08:23:02.955Z</time></trkpt><trkpt lat="40.7685319" lon="14.8378511"><ele>557.0</ele><time>2026-03-29T08:23:04.96Z</time></trkpt><trkpt lat="40.7685474" lon="14.8379793"><ele>557.0</ele><time>2026-03-29T08:23:07.037Z</time></trkpt><trkpt lat="40.7685541" lon="14.8380778"><ele>559.0</ele><time>2026-03-29T08:23:08.962Z</time></trkpt><trkpt lat="40.768563" lon="14.8382355"><ele>561.0</ele><time>2026-03-29T08:23:10.957Z</time></trkpt><trkpt lat="40.768563" lon="14.8384036"><ele>563.0</ele><time>2026-03-29T08:23:12.955Z</time></trkpt><trkpt lat="40.7685493" lon="14.838529"><ele>565.0</ele><time>2026-03-29T08:23:14.955Z</time></trkpt><trkpt lat="40.7685227" lon="14.8386781"><ele>567.1666666666667</ele><time>2026-03-29T08:23:17.036Z</time></trkpt><trkpt lat="40.768495" lon="14.8387763"><ele>569.3333333333334</ele><time>2026-03-29T08:23:17.959Z</time></trkpt><trkpt lat="40.7684558" lon="14.8389254"><ele>571.5</ele><time>2026-03-29T08:23:20.001Z</time></trkpt><trkpt lat="40.7684245" lon="14.8390143"><ele>573.6666666666666</ele><time>2026-03-29T08:23:20.95Z</time></trkpt><trkpt lat="40.7683921" lon="14.8391027"><ele>575.8333333333333</ele><time>2026-03-29T08:23:21.96Z</time></trkpt><trkpt lat="40.7683607" lon="14.8391936"><ele>578.0</ele><time>2026-03-29T08:23:22.954Z</time></trkpt><trkpt lat="40.7683342" lon="14.8392793"><ele>579.4285714285714</ele><time>2026-03-29T08:23:23.956Z</time></trkpt><trkpt lat="40.7683112" lon="14.8393787"><ele>580.8571428571429</ele><time>2026-03-29T08:23:25.036Z</time></trkpt><trkpt lat="40.7682923" lon="14.8394657"><ele>582.2857142857142</ele><time>2026-03-29T08:23:26.032Z</time></trkpt><trkpt lat="40.7682727" lon="14.8395532"><ele>583.7142857142858</ele><time>2026-03-29T08:23:27.033Z</time></trkpt><trkpt lat="40.7682544" lon="14.8396344"><ele>585.1428571428571</ele><time>2026-03-29T08:23:27.958Z</time></trkpt><trkpt lat="40.7682423" lon="14.8397256"><ele>586.5714285714286</ele><time>2026-03-29T08:23:28.962Z</time></trkpt><trkpt lat="40.7682594" lon="14.8398385"><ele>588.0</ele><time>2026-03-29T08:23:29.956Z</time></trkpt><trkpt lat="40.7682779" lon="14.8399686"><ele>588.0</ele><time>2026-03-29T08:23:30.957Z</time></trkpt><trkpt lat="40.7682966" lon="14.8400825"><ele>588.0</ele><time>2026-03-29T08:23:31.959Z</time></trkpt><trkpt lat="40.7683005" lon="14.8401911"><ele>588.0</ele><time>2026-03-29T08:23:32.955Z</time></trkpt><trkpt lat="40.7683148" lon="14.8402723"><ele>588.0</ele><time>2026-03-29T08:23:33.957Z</time></trkpt><trkpt lat="40.7683386" lon="14.8403501"><ele>588.0</ele><time>2026-03-29T08:23:34.973Z</time></trkpt><trkpt lat="40.7683881" lon="14.84048"><ele>588.0</ele><time>2026-03-29T08:23:36.957Z</time></trkpt><trkpt lat="40.7684478" lon="14.8405422"><ele>591.6</ele><time>2026-03-29T08:23:38.964Z</time></trkpt><trkpt lat="40.7685239" lon="14.8405505"><ele>595.1999999999999</ele><time>2026-03-29T08:23:39.955Z</time></trkpt><trkpt lat="40.7686383" lon="14.8405632"><ele>598.8</ele><time>2026-03-29T08:23:40.959Z</time></trkpt><trkpt lat="40.7687321" lon="14.8405647"><ele>602.4</ele><time>2026-03-29T08:23:42.043Z</time></trkpt><trkpt lat="40.7688333" lon="14.8404715"><ele>606.0</ele><time>2026-03-29T08:23:43.969Z</time></trkpt><trkpt lat="40.7688835" lon="14.8403749"><ele>607.1666666666666</ele><time>2026-03-29T08:23:45.009Z</time></trkpt><trkpt lat="40.7689256" lon="14.8402822"><ele>608.3333333333334</ele><time>2026-03-29T08:23:45.962Z</time></trkpt><trkpt lat="40.7689562" lon="14.8402068"><ele>609.5</ele><time>2026-03-29T08:23:46.965Z</time></trkpt><trkpt lat="40.7690156" lon="14.8400922"><ele>610.6666666666667</ele><time>2026-03-29T08:23:48.967Z</time></trkpt><trkpt lat="40.7690648" lon="14.8400142"><ele>611.8333333333334</ele><time>2026-03-29T08:23:49.996Z</time></trkpt><trkpt lat="40.7691281" lon="14.8399427"><ele>613.0</ele><time>2026-03-29T08:23:50.966Z</time></trkpt><trkpt lat="40.7691903" lon="14.8398675"><ele>610.3333333333334</ele><time>2026-03-29T08:23:52.036Z</time></trkpt><trkpt lat="40.7692582" lon="14.8397994"><ele>607.6666666666667</ele><time>2026-03-29T08:23:52.957Z</time></trkpt><trkpt lat="40.7693057" lon="14.8397405"><ele>605.0</ele><time>2026-03-29T08:23:53.954Z</time></trkpt><trkpt lat="40.7693733" lon="14.8397318"><ele>602.3333333333334</ele><time>2026-03-29T08:23:56.952Z</time></trkpt><trkpt lat="40.7693406" lon="14.8398544"><ele>599.6666666666666</ele><time>2026-03-29T08:23:58.966Z</time></trkpt><trkpt lat="40.7693065" lon="14.8399488"><ele>597.0</ele><time>2026-03-29T08:24:00.98Z</time></trkpt><trkpt lat="40.7692821" lon="14.8400485"><ele>600.2</ele><time>2026-03-29T08:24:02.961Z</time></trkpt><trkpt lat="40.7692539" lon="14.8401604"><ele>603.4000000000001</ele><time>2026-03-29T08:24:04.963Z</time></trkpt><trkpt lat="40.7692296" lon="14.8402855"><ele>606.5999999999999</ele><time>2026-03-29T08:24:06.964Z</time></trkpt><trkpt lat="40.7692202" lon="14.8404162"><ele>609.8</ele><time>2026-03-29T08:24:09.05Z</time></trkpt><trkpt lat="40.7692159" lon="14.8405015"><ele>613.0</ele><time>2026-03-29T08:24:10.024Z</time></trkpt><trkpt lat="40.7692206" lon="14.8406453"><ele>613.0</ele><time>2026-03-29T08:24:12.045Z</time></trkpt><trkpt lat="40.7692206" lon="14.8407762"><ele>613.0</ele><time>2026-03-29T08:24:14.959Z</time></trkpt><trkpt lat="40.7692228" lon="14.8408709"><ele>613.0</ele><time>2026-03-29T08:24:15.962Z</time></trkpt><trkpt lat="40.7692228" lon="14.8409596"><ele>613.0</ele><time>2026-03-29T08:24:16.956Z</time></trkpt><trkpt lat="40.7692187" lon="14.8410431"><ele>613.0</ele><time>2026-03-29T08:24:17.955Z</time></trkpt><trkpt lat="40.7692164" lon="14.8411702"><ele>613.0</ele><time>2026-03-29T08:24:19.957Z</time></trkpt><trkpt lat="40.7692164" lon="14.8412991"><ele>616.0</ele><time>2026-03-29T08:24:21.958Z</time></trkpt><trkpt lat="40.769229" lon="14.8413896"><ele>619.0</ele><time>2026-03-29T08:24:25.953Z</time></trkpt><trkpt lat="40.769253" lon="14.8414866"><ele>622.0</ele><time>2026-03-29T08:24:27.957Z</time></trkpt><trkpt lat="40.7692299" lon="14.8416678"><ele>625.0</ele><time>2026-03-29T08:24:29.957Z</time></trkpt><trkpt lat="40.7692007" lon="14.8417733"><ele>628.0</ele><time>2026-03-29T08:24:30.995Z</time></trkpt><trkpt lat="40.7691694" lon="14.8418722"><ele>628.1666666666667</ele><time>2026-03-29T08:24:31.962Z</time></trkpt><trkpt lat="40.7691219" lon="14.8419522"><ele>628.3333333333334</ele><time>2026-03-29T08:24:32.957Z</time></trkpt><trkpt lat="40.7690696" lon="14.8420366"><ele>628.5</ele><time>2026-03-29T08:24:33.954Z</time></trkpt><trkpt lat="40.7690482" lon="14.8421541"><ele>628.6666666666666</ele><time>2026-03-29T08:24:35.957Z</time></trkpt><trkpt lat="40.7690816" lon="14.8422573"><ele>628.8333333333333</ele><time>2026-03-29T08:24:37.959Z</time></trkpt><trkpt lat="40.7690943" lon="14.8423398"><ele>629.0</ele><time>2026-03-29T08:24:38.958Z</time></trkpt><trkpt lat="40.7690929" lon="14.8424322"><ele>629.0</ele><time>2026-03-29T08:24:40.032Z</time></trkpt><trkpt lat="40.7690922" lon="14.8425446"><ele>629.0</ele><time>2026-03-29T08:24:40.963Z</time></trkpt><trkpt lat="40.7690691" lon="14.8426597"><ele>629.0</ele><time>2026-03-29T08:24:41.961Z</time></trkpt><trkpt lat="40.7690521" lon="14.8428006"><ele>629.0</ele><time>2026-03-29T08:24:42.957Z</time></trkpt><trkpt lat="40.769029" lon="14.8429486"><ele>629.0</ele><time>2026-03-29T08:24:43.959Z</time></trkpt><trkpt lat="40.7690106" lon="14.8430563"><ele>626.8333333333333</ele><time>2026-03-29T08:24:44.961Z</time></trkpt><trkpt lat="40.7689878" lon="14.8431471"><ele>624.6666666666666</ele><time>2026-03-29T08:24:45.957Z</time></trkpt><trkpt lat="40.7689403" lon="14.8432314"><ele>622.5</ele><time>2026-03-29T08:24:46.957Z</time></trkpt><trkpt lat="40.768869" lon="14.8433148"><ele>620.3333333333334</ele><time>2026-03-29T08:24:47.971Z</time></trkpt><trkpt lat="40.7687926" lon="14.8433852"><ele>618.1666666666667</ele><time>2026-03-29T08:24:48.955Z</time></trkpt><trkpt lat="40.7687174" lon="14.843442"><ele>616.0</ele><time>2026-03-29T08:24:50.02Z</time></trkpt><trkpt lat="40.7686359" lon="14.8434703"><ele>613.8333333333334</ele><time>2026-03-29T08:24:51.011Z</time></trkpt><trkpt lat="40.7685516" lon="14.8434856"><ele>611.6666666666667</ele><time>2026-03-29T08:24:51.958Z</time></trkpt><trkpt lat="40.768488" lon="14.8435008"><ele>609.5</ele><time>2026-03-29T08:24:52.959Z</time></trkpt><trkpt lat="40.7684119" lon="14.8435615"><ele>607.3333333333334</ele><time>2026-03-29T08:24:55.034Z</time></trkpt><trkpt lat="40.7683712" lon="14.843641"><ele>605.1666666666666</ele><time>2026-03-29T08:24:55.956Z</time></trkpt><trkpt lat="40.768322" lon="14.8437267"><ele>603.0</ele><time>2026-03-29T08:24:56.958Z</time></trkpt><trkpt lat="40.7683049" lon="14.8438405"><ele>604.1999999999999</ele><time>2026-03-29T08:24:57.957Z</time></trkpt><trkpt lat="40.7682877" lon="14.8439815"><ele>605.4</ele><time>2026-03-29T08:24:58.983Z</time></trkpt><trkpt lat="40.7682575" lon="14.8441016"><ele>606.5999999999999</ele><time>2026-03-29T08:25:00.046Z</time></trkpt><trkpt lat="40.768196" lon="14.8442074"><ele>607.8</ele><time>2026-03-29T08:25:01.028Z</time></trkpt><trkpt lat="40.7681205" lon="14.8442985"><ele>609.0</ele><time>2026-03-29T08:25:01.958Z</time></trkpt><trkpt lat="40.7680586" lon="14.8443732"><ele>609.0</ele><time>2026-03-29T08:25:02.956Z</time></trkpt><trkpt lat="40.7680062" lon="14.8444396"><ele>609.0</ele><time>2026-03-29T08:25:03.958Z</time></trkpt><trkpt lat="40.7679449" lon="14.8445003"><ele>609.0</ele><time>2026-03-29T08:25:04.959Z</time></trkpt><trkpt lat="40.7678776" lon="14.8445673"><ele>609.0</ele><time>2026-03-29T08:25:05.956Z</time></trkpt><trkpt lat="40.7677936" lon="14.8446227"><ele>609.0</ele><time>2026-03-29T08:25:06.957Z</time></trkpt><trkpt lat="40.7676909" lon="14.8446691"><ele>609.0</ele><time>2026-03-29T08:25:07.962Z</time></trkpt><trkpt lat="40.767579" lon="14.8447045"><ele>609.1666666666666</ele><time>2026-03-29T08:25:09.03Z</time></trkpt><trkpt lat="40.7674813" lon="14.8447536"><ele>609.3333333333334</ele><time>2026-03-29T08:25:10.019Z</time></trkpt><trkpt lat="40.7674015" lon="14.844829"><ele>609.5</ele><time>2026-03-29T08:25:10.959Z</time></trkpt><trkpt lat="40.7673339" lon="14.8449082"><ele>609.6666666666667</ele><time>2026-03-29T08:25:11.953Z</time></trkpt><trkpt lat="40.7672879" lon="14.8449823"><ele>609.8333333333334</ele><time>2026-03-29T08:25:12.956Z</time></trkpt><trkpt lat="40.7672793" lon="14.8450753"><ele>610.0</ele><time>2026-03-29T08:25:14.96Z</time></trkpt><trkpt lat="40.7672895" lon="14.8451845"><ele>610.0</ele><time>2026-03-29T08:25:16.953Z</time></trkpt><trkpt lat="40.7672754" lon="14.8452686"><ele>610.0</ele><time>2026-03-29T08:25:17.955Z</time></trkpt><trkpt lat="40.7672509" lon="14.8453609"><ele>610.0</ele><time>2026-03-29T08:25:18.948Z</time></trkpt><trkpt lat="40.7672126" lon="14.8454899"><ele>610.0</ele><time>2026-03-29T08:25:19.958Z</time></trkpt><trkpt lat="40.767171" lon="14.8456538"><ele>610.0</ele><time>2026-03-29T08:25:20.976Z</time></trkpt><trkpt lat="40.7671394" lon="14.8458137"><ele>610.0</ele><time>2026-03-29T08:25:21.987Z</time></trkpt><trkpt lat="40.7670929" lon="14.8459549"><ele>610.0</ele><time>2026-03-29T08:25:22.957Z</time></trkpt><trkpt lat="40.7670257" lon="14.8460942"><ele>610.0</ele><time>2026-03-29T08:25:24.03Z</time></trkpt><trkpt lat="40.7669589" lon="14.846211"><ele>610.0</ele><time>2026-03-29T08:25:25.034Z</time></trkpt><trkpt lat="40.7668808" lon="14.8463189"><ele>612.0</ele><time>2026-03-29T08:25:26.027Z</time></trkpt><trkpt lat="40.7668079" lon="14.8464153"><ele>614.0</ele><time>2026-03-29T08:25:27.028Z</time></trkpt><trkpt lat="40.7667577" lon="14.8465028"><ele>616.0</ele><time>2026-03-29T08:25:27.965Z</time></trkpt><trkpt lat="40.7667281" lon="14.8465959"><ele>618.0</ele><time>2026-03-29T08:25:28.968Z</time></trkpt><trkpt lat="40.7666895" lon="14.8467077"><ele>620.0</ele><time>2026-03-29T08:25:31.034Z</time></trkpt><trkpt lat="40.766714" lon="14.8468067"><ele>622.0</ele><time>2026-03-29T08:25:33.966Z</time></trkpt><trkpt lat="40.7667109" lon="14.8468994"><ele>622.0</ele><time>2026-03-29T08:26:41.953Z</time></trkpt><trkpt lat="40.7666349" lon="14.8468333"><ele>622.0</ele><time>2026-03-29T08:26:44.966Z</time></trkpt><trkpt lat="40.766596" lon="14.8467472"><ele>622.0</ele><time>2026-03-29T08:26:45.97Z</time></trkpt><trkpt lat="40.766566" lon="14.8466488"><ele>622.0</ele><time>2026-03-29T08:26:46.967Z</time></trkpt><trkpt lat="40.7665376" lon="14.8465497"><ele>622.0</ele><time>2026-03-29T08:26:47.96Z</time></trkpt><trkpt lat="40.7665249" lon="14.846441"><ele>622.0</ele><time>2026-03-29T08:26:48.965Z</time></trkpt><trkpt lat="40.7665207" lon="14.8462912"><ele>622.0</ele><time>2026-03-29T08:26:50.962Z</time></trkpt><trkpt lat="40.7664341" lon="14.84627"><ele>622.0</ele><time>2026-03-29T08:26:52.96Z</time></trkpt><trkpt lat="40.7663259" lon="14.8463887"><ele>622.0</ele><time>2026-03-29T08:26:54.965Z</time></trkpt><trkpt lat="40.7662766" lon="14.8464805"><ele>622.0</ele><time>2026-03-29T08:26:55.994Z</time></trkpt><trkpt lat="40.7662919" lon="14.8466196"><ele>622.0</ele><time>2026-03-29T08:26:56.966Z</time></trkpt><trkpt lat="40.7663216" lon="14.8467633"><ele>622.0</ele><time>2026-03-29T08:26:57.96Z</time></trkpt><trkpt lat="40.7663546" lon="14.8468839"><ele>622.0</ele><time>2026-03-29T08:26:58.966Z</time></trkpt><trkpt lat="40.7663614" lon="14.8469825"><ele>622.0</ele><time>2026-03-29T08:26:59.963Z</time></trkpt><trkpt lat="40.7663373" lon="14.8471372"><ele>622.0</ele><time>2026-03-29T08:27:01.962Z</time></trkpt><trkpt lat="40.766287" lon="14.8471999"><ele>622.0</ele><time>2026-03-29T08:27:02.966Z</time></trkpt><trkpt lat="40.7662252" lon="14.8471507"><ele>622.0</ele><time>2026-03-29T08:27:03.966Z</time></trkpt><trkpt lat="40.7661654" lon="14.8470023"><ele>622.0</ele><time>2026-03-29T08:27:04.96Z</time></trkpt><trkpt lat="40.7661351" lon="14.8468549"><ele>622.0</ele><time>2026-03-29T08:27:05.983Z</time></trkpt><trkpt lat="40.7660819" lon="14.8467799"><ele>622.0</ele><time>2026-03-29T08:27:08.963Z</time></trkpt><trkpt lat="40.7660202" lon="14.8469474"><ele>622.0</ele><time>2026-03-29T08:27:10.969Z</time></trkpt><trkpt lat="40.7660253" lon="14.8470865"><ele>622.0</ele><time>2026-03-29T08:27:11.962Z</time></trkpt><trkpt lat="40.7660354" lon="14.8471918"><ele>624.6</ele><time>2026-03-29T08:27:12.965Z</time></trkpt><trkpt lat="40.765991" lon="14.8473275"><ele>627.2</ele><time>2026-03-29T08:27:14.968Z</time></trkpt><trkpt lat="40.7658888" lon="14.8473201"><ele>629.8</ele><time>2026-03-29T08:27:16.967Z</time></trkpt><trkpt lat="40.7658057" lon="14.8472877"><ele>632.4</ele><time>2026-03-29T08:27:17.962Z</time></trkpt><trkpt lat="40.7657421" lon="14.8472382"><ele>635.0</ele><time>2026-03-29T08:27:18.962Z</time></trkpt><trkpt lat="40.7656727" lon="14.8471839"><ele>635.0</ele><time>2026-03-29T08:27:19.965Z</time></trkpt><trkpt lat="40.7656383" lon="14.8472695"><ele>635.0</ele><time>2026-03-29T08:27:22.97Z</time></trkpt><trkpt lat="40.7656958" lon="14.8473596"><ele>635.0</ele><time>2026-03-29T08:27:23.962Z</time></trkpt><trkpt lat="40.7657769" lon="14.8474423"><ele>635.0</ele><time>2026-03-29T08:27:24.965Z</time></trkpt><trkpt lat="40.7658527" lon="14.8475084"><ele>635.0</ele><time>2026-03-29T08:27:26.965Z</time></trkpt><trkpt lat="40.7659635" lon="14.8474197"><ele>635.0</ele><time>2026-03-29T08:27:28.961Z</time></trkpt><trkpt lat="40.7660168" lon="14.8473233"><ele>635.0</ele><time>2026-03-29T08:27:29.956Z</time></trkpt><trkpt lat="40.7660755" lon="14.8472688"><ele>635.0</ele><time>2026-03-29T08:27:31.031Z</time></trkpt><trkpt lat="40.7661337" lon="14.8472308"><ele>635.0</ele><time>2026-03-29T08:27:31.959Z</time></trkpt><trkpt lat="40.7662316" lon="14.8471911"><ele>635.0</ele><time>2026-03-29T08:27:33.962Z</time></trkpt><trkpt lat="40.7662634" lon="14.8472912"><ele>635.0</ele><time>2026-03-29T08:27:35.958Z</time></trkpt><trkpt lat="40.7662446" lon="14.8473801"><ele>632.8</ele><time>2026-03-29T08:27:36.969Z</time></trkpt><trkpt lat="40.766231" lon="14.8474945"><ele>630.6</ele><time>2026-03-29T08:27:37.963Z</time></trkpt><trkpt lat="40.7662136" lon="14.8476109"><ele>628.4</ele><time>2026-03-29T08:27:38.961Z</time></trkpt><trkpt lat="40.7661932" lon="14.8477402"><ele>626.2</ele><time>2026-03-29T08:27:40.029Z</time></trkpt><trkpt lat="40.7661638" lon="14.8478821"><ele>624.0</ele><time>2026-03-29T08:27:41.033Z</time></trkpt><trkpt lat="40.7661291" lon="14.8480085"><ele>624.0</ele><time>2026-03-29T08:27:42.032Z</time></trkpt><trkpt lat="40.7660762" lon="14.8481118"><ele>624.0</ele><time>2026-03-29T08:27:42.958Z</time></trkpt><trkpt lat="40.765995" lon="14.8481576"><ele>624.0</ele><time>2026-03-29T08:27:43.959Z</time></trkpt><trkpt lat="40.7659174" lon="14.8481408"><ele>624.0</ele><time>2026-03-29T08:27:45.054Z</time></trkpt><trkpt lat="40.7658355" lon="14.8480713"><ele>624.0</ele><time>2026-03-29T08:27:46.027Z</time></trkpt><trkpt lat="40.7657887" lon="14.8479775"><ele>624.0</ele><time>2026-03-29T08:27:47.022Z</time></trkpt><trkpt lat="40.7657337" lon="14.8478762"><ele>625.8333333333334</ele><time>2026-03-29T08:27:47.966Z</time></trkpt><trkpt lat="40.7656973" lon="14.8477834"><ele>627.6666666666666</ele><time>2026-03-29T08:27:48.967Z</time></trkpt><trkpt lat="40.7656675" lon="14.847692"><ele>629.5</ele><time>2026-03-29T08:27:51.031Z</time></trkpt><trkpt lat="40.7656359" lon="14.8475966"><ele>631.3333333333333</ele><time>2026-03-29T08:27:53.967Z</time></trkpt><trkpt lat="40.7655695" lon="14.8475961"><ele>633.1666666666666</ele><time>2026-03-29T08:27:56.039Z</time></trkpt><trkpt lat="40.7655309" lon="14.8477038"><ele>635.0</ele><time>2026-03-29T08:27:57.964Z</time></trkpt><trkpt lat="40.7655552" lon="14.847807"><ele>637.0</ele><time>2026-03-29T08:27:58.961Z</time></trkpt><trkpt lat="40.7656018" lon="14.8479259"><ele>639.0</ele><time>2026-03-29T08:27:59.961Z</time></trkpt><trkpt lat="40.7656527" lon="14.8480474"><ele>641.0</ele><time>2026-03-29T08:28:00.967Z</time></trkpt><trkpt lat="40.765695" lon="14.848165"><ele>643.0</ele><time>2026-03-29T08:28:01.958Z</time></trkpt><trkpt lat="40.7657148" lon="14.8482442"><ele>645.0</ele><time>2026-03-29T08:28:02.972Z</time></trkpt><trkpt lat="40.7657124" lon="14.8483608"><ele>645.0</ele><time>2026-03-29T08:28:05.037Z</time></trkpt><trkpt lat="40.7657607" lon="14.8484437"><ele>645.0</ele><time>2026-03-29T08:28:06.961Z</time></trkpt><trkpt lat="40.7658441" lon="14.8484417"><ele>645.0</ele><time>2026-03-29T08:28:07.962Z</time></trkpt><trkpt lat="40.7659365" lon="14.8484316"><ele>645.0</ele><time>2026-03-29T08:28:08.963Z</time></trkpt><trkpt lat="40.7660178" lon="14.8483953"><ele>645.0</ele><time>2026-03-29T08:28:10.035Z</time></trkpt><trkpt lat="40.7660906" lon="14.8483685"><ele>645.0</ele><time>2026-03-29T08:28:11.029Z</time></trkpt><trkpt lat="40.7661606" lon="14.8483569"><ele>641.5</ele><time>2026-03-29T08:28:12.023Z</time></trkpt><trkpt lat="40.7662311" lon="14.8483395"><ele>638.0</ele><time>2026-03-29T08:28:12.966Z</time></trkpt><trkpt lat="40.7663006" lon="14.8482965"><ele>634.5</ele><time>2026-03-29T08:28:15.049Z</time></trkpt><trkpt lat="40.7662839" lon="14.84819"><ele>631.0</ele><time>2026-03-29T08:28:18.984Z</time></trkpt><trkpt lat="40.766293" lon="14.8480598"><ele>627.5</ele><time>2026-03-29T08:28:21.037Z</time></trkpt><trkpt lat="40.7663349" lon="14.8479821"><ele>624.0</ele><time>2026-03-29T08:28:21.964Z</time></trkpt><trkpt lat="40.7663834" lon="14.8479137"><ele>624.0</ele><time>2026-03-29T08:28:22.968Z</time></trkpt><trkpt lat="40.7664275" lon="14.8478492"><ele>624.0</ele><time>2026-03-29T08:28:23.962Z</time></trkpt><trkpt lat="40.7664701" lon="14.8477653"><ele>624.0</ele><time>2026-03-29T08:28:24.96Z</time></trkpt><trkpt lat="40.7665065" lon="14.8476602"><ele>624.0</ele><time>2026-03-29T08:28:25.961Z</time></trkpt><trkpt lat="40.7665411" lon="14.8475564"><ele>624.0</ele><time>2026-03-29T08:28:26.97Z</time></trkpt><trkpt lat="40.7665719" lon="14.8474477"><ele>624.0</ele><time>2026-03-29T08:28:27.961Z</time></trkpt><trkpt lat="40.7666015" lon="14.8473444"><ele>623.6</ele><time>2026-03-29T08:28:28.967Z</time></trkpt><trkpt lat="40.7666201" lon="14.8472489"><ele>623.2</ele><time>2026-03-29T08:28:30.032Z</time></trkpt><trkpt lat="40.7666243" lon="14.8471653"><ele>622.8000000000001</ele><time>2026-03-29T08:28:30.963Z</time></trkpt><trkpt lat="40.7666218" lon="14.8470283"><ele>622.4</ele><time>2026-03-29T08:28:32.959Z</time></trkpt><trkpt lat="40.7666042" lon="14.8468954"><ele>622.0</ele><time>2026-03-29T08:28:34.967Z</time></trkpt><trkpt lat="40.7665443" lon="14.8467282"><ele>622.0</ele><time>2026-03-29T08:28:37.046Z</time></trkpt><trkpt lat="40.7665217" lon="14.8466171"><ele>622.0</ele><time>2026-03-29T08:28:37.964Z</time></trkpt><trkpt lat="40.7665102" lon="14.8465055"><ele>622.0</ele><time>2026-03-29T08:28:38.965Z</time></trkpt><trkpt lat="40.7665091" lon="14.8464198"><ele>622.0</ele><time>2026-03-29T08:28:39.999Z</time></trkpt><trkpt lat="40.7665011" lon="14.8463316"><ele>622.0</ele><time>2026-03-29T08:28:40.97Z</time></trkpt><trkpt lat="40.7664152" lon="14.8462763"><ele>622.0</ele><time>2026-03-29T08:28:42.965Z</time></trkpt><trkpt lat="40.7663497" lon="14.846295"><ele>622.0</ele><time>2026-03-29T08:28:43.964Z</time></trkpt><trkpt lat="40.7662838" lon="14.8463379"><ele>622.0</ele><time>2026-03-29T08:28:44.959Z</time></trkpt><trkpt lat="40.7662358" lon="14.8464302"><ele>622.0</ele><time>2026-03-29T08:28:45.98Z</time></trkpt><trkpt lat="40.766221" lon="14.8465295"><ele>622.0</ele><time>2026-03-29T08:28:47.031Z</time></trkpt><trkpt lat="40.7662477" lon="14.8466528"><ele>622.0</ele><time>2026-03-29T08:28:47.961Z</time></trkpt><trkpt lat="40.7662918" lon="14.8467784"><ele>622.0</ele><time>2026-03-29T08:28:48.962Z</time></trkpt><trkpt lat="40.7663189" lon="14.8468707"><ele>622.0</ele><time>2026-03-29T08:28:49.992Z</time></trkpt><trkpt lat="40.7663414" lon="14.8469708"><ele>622.0</ele><time>2026-03-29T08:28:50.964Z</time></trkpt><trkpt lat="40.7663482" lon="14.8470735"><ele>622.0</ele><time>2026-03-29T08:28:51.965Z</time></trkpt><trkpt lat="40.7663094" lon="14.8471566"><ele>622.0</ele><time>2026-03-29T08:28:53.967Z</time></trkpt><trkpt lat="40.7662276" lon="14.8471146"><ele>622.0</ele><time>2026-03-29T08:28:54.963Z</time></trkpt><trkpt lat="40.7661438" lon="14.8470188"><ele>622.0</ele><time>2026-03-29T08:28:55.986Z</time></trkpt><trkpt lat="40.7661128" lon="14.8469397"><ele>622.0</ele><time>2026-03-29T08:28:56.987Z</time></trkpt><trkpt lat="40.7660909" lon="14.8468428"><ele>622.0</ele><time>2026-03-29T08:28:57.96Z</time></trkpt><trkpt lat="40.7660241" lon="14.84683"><ele>622.0</ele><time>2026-03-29T08:28:59.962Z</time></trkpt><trkpt lat="40.7660239" lon="14.8469153"><ele>622.0</ele><time>2026-03-29T08:29:00.961Z</time></trkpt><trkpt lat="40.7660313" lon="14.8470352"><ele>622.0</ele><time>2026-03-29T08:29:01.963Z</time></trkpt><trkpt lat="40.7660203" lon="14.8472147"><ele>622.0</ele><time>2026-03-29T08:29:03.96Z</time></trkpt><trkpt lat="40.7660053" lon="14.8473135"><ele>624.1666666666667</ele><time>2026-03-29T08:29:04.968Z</time></trkpt><trkpt lat="40.7659453" lon="14.8473583"><ele>626.3333333333334</ele><time>2026-03-29T08:29:07.961Z</time></trkpt><trkpt lat="40.7658769" lon="14.8473366"><ele>628.5</ele><time>2026-03-29T08:29:10.043Z</time></trkpt><trkpt lat="40.765826" lon="14.8474315"><ele>630.6666666666666</ele><time>2026-03-29T08:29:11.968Z</time></trkpt><trkpt lat="40.765873" lon="14.847571"><ele>632.8333333333333</ele><time>2026-03-29T08:29:13.964Z</time></trkpt><trkpt lat="40.765899" lon="14.8476479"><ele>635.0</ele><time>2026-03-29T08:29:15.958Z</time></trkpt><trkpt lat="40.765956" lon="14.847559"><ele>635.0</ele><time>2026-03-29T08:29:17.96Z</time></trkpt><trkpt lat="40.765998" lon="14.8474707"><ele>635.0</ele><time>2026-03-29T08:29:18.963Z</time></trkpt><trkpt lat="40.7660548" lon="14.8473714"><ele>635.0</ele><time>2026-03-29T08:29:20.036Z</time></trkpt><trkpt lat="40.7660993" lon="14.8473082"><ele>635.0</ele><time>2026-03-29T08:29:20.958Z</time></trkpt><trkpt lat="40.7661914" lon="14.8472676"><ele>635.0</ele><time>2026-03-29T08:29:22.965Z</time></trkpt><trkpt lat="40.7661962" lon="14.847388"><ele>635.0</ele><time>2026-03-29T08:29:24.967Z</time></trkpt><trkpt lat="40.7662148" lon="14.8474889"><ele>632.8</ele><time>2026-03-29T08:29:26.023Z</time></trkpt><trkpt lat="40.7662149" lon="14.8476048"><ele>630.6</ele><time>2026-03-29T08:29:27.035Z</time></trkpt><trkpt lat="40.7661927" lon="14.8477278"><ele>628.4</ele><time>2026-03-29T08:29:27.957Z</time></trkpt><trkpt lat="40.766176" lon="14.8478584"><ele>626.2</ele><time>2026-03-29T08:29:28.965Z</time></trkpt><trkpt lat="40.7661625" lon="14.8479863"><ele>624.0</ele><time>2026-03-29T08:29:30.038Z</time></trkpt><trkpt lat="40.7661252" lon="14.8481085"><ele>624.0</ele><time>2026-03-29T08:29:31.035Z</time></trkpt><trkpt lat="40.7660583" lon="14.8482016"><ele>624.0</ele><time>2026-03-29T08:29:32.033Z</time></trkpt><trkpt lat="40.7659605" lon="14.8482129"><ele>624.0</ele><time>2026-03-29T08:29:32.966Z</time></trkpt><trkpt lat="40.7658551" lon="14.8481337"><ele>624.0</ele><time>2026-03-29T08:29:33.967Z</time></trkpt><trkpt lat="40.7657814" lon="14.8480417"><ele>624.0</ele><time>2026-03-29T08:29:35.045Z</time></trkpt><trkpt lat="40.7657376" lon="14.8479101"><ele>626.2</ele><time>2026-03-29T08:29:36.024Z</time></trkpt><trkpt lat="40.7657318" lon="14.8477661"><ele>628.4</ele><time>2026-03-29T08:29:37.035Z</time></trkpt><trkpt lat="40.7657192" lon="14.847667"><ele>630.6</ele><time>2026-03-29T08:29:37.959Z</time></trkpt><trkpt lat="40.7656357" lon="14.847567"><ele>632.8</ele><time>2026-03-29T08:29:40.046Z</time></trkpt><trkpt lat="40.7655448" lon="14.8475127"><ele>635.0</ele><time>2026-03-29T08:29:42.964Z</time></trkpt><trkpt lat="40.765482" lon="14.8476516"><ele>637.0</ele><time>2026-03-29T08:29:45.022Z</time></trkpt><trkpt lat="40.7654886" lon="14.8477702"><ele>639.0</ele><time>2026-03-29T08:29:46.03Z</time></trkpt><trkpt lat="40.7655407" lon="14.8479042"><ele>641.0</ele><time>2026-03-29T08:29:47.024Z</time></trkpt><trkpt lat="40.7656008" lon="14.8480373"><ele>643.0</ele><time>2026-03-29T08:29:47.963Z</time></trkpt><trkpt lat="40.7656667" lon="14.848168"><ele>645.0</ele><time>2026-03-29T08:29:48.963Z</time></trkpt><trkpt lat="40.7657237" lon="14.8482823"><ele>645.0</ele><time>2026-03-29T08:29:49.962Z</time></trkpt><trkpt lat="40.7657326" lon="14.8483996"><ele>645.0</ele><time>2026-03-29T08:29:51.958Z</time></trkpt><trkpt lat="40.765818" lon="14.8484604"><ele>645.0</ele><time>2026-03-29T08:29:54.965Z</time></trkpt><trkpt lat="40.7659217" lon="14.8484368"><ele>645.0</ele><time>2026-03-29T08:29:55.959Z</time></trkpt><trkpt lat="40.7660226" lon="14.8484014"><ele>645.0</ele><time>2026-03-29T08:29:56.989Z</time></trkpt><trkpt lat="40.7661174" lon="14.8483636"><ele>641.5</ele><time>2026-03-29T08:29:57.969Z</time></trkpt><trkpt lat="40.7662018" lon="14.848338"><ele>638.0</ele><time>2026-03-29T08:29:58.968Z</time></trkpt><trkpt lat="40.7662673" lon="14.8483174"><ele>634.5</ele><time>2026-03-29T08:29:59.965Z</time></trkpt><trkpt lat="40.7663123" lon="14.8482496"><ele>631.0</ele><time>2026-03-29T08:30:02.962Z</time></trkpt><trkpt lat="40.7662513" lon="14.8481374"><ele>627.5</ele><time>2026-03-29T08:30:06Z</time></trkpt><trkpt lat="40.7662918" lon="14.8480076"><ele>624.0</ele><time>2026-03-29T08:30:07.96Z</time></trkpt><trkpt lat="40.7663476" lon="14.8479442"><ele>624.0</ele><time>2026-03-29T08:30:08.96Z</time></trkpt><trkpt lat="40.7664024" lon="14.8478669"><ele>624.0</ele><time>2026-03-29T08:30:09.955Z</time></trkpt><trkpt lat="40.7664662" lon="14.8477398"><ele>624.0</ele><time>2026-03-29T08:30:10.96Z</time></trkpt><trkpt lat="40.7665176" lon="14.8475977"><ele>624.0</ele><time>2026-03-29T08:30:11.963Z</time></trkpt><trkpt lat="40.7665643" lon="14.847455"><ele>624.0</ele><time>2026-03-29T08:30:12.957Z</time></trkpt><trkpt lat="40.7666066" lon="14.847309"><ele>623.6</ele><time>2026-03-29T08:30:13.985Z</time></trkpt><trkpt lat="40.766632" lon="14.8471722"><ele>623.2</ele><time>2026-03-29T08:30:14.994Z</time></trkpt><trkpt lat="40.7666466" lon="14.8470416"><ele>622.8000000000001</ele><time>2026-03-29T08:30:15.963Z</time></trkpt><trkpt lat="40.7666452" lon="14.8469246"><ele>622.4</ele><time>2026-03-29T08:30:17.029Z</time></trkpt><trkpt lat="40.7666289" lon="14.8468409"><ele>622.0</ele><time>2026-03-29T08:30:17.965Z</time></trkpt><trkpt lat="40.7665842" lon="14.8467262"><ele>622.0</ele><time>2026-03-29T08:30:19.962Z</time></trkpt><trkpt lat="40.7665375" lon="14.8465808"><ele>622.0</ele><time>2026-03-29T08:30:21.966Z</time></trkpt><trkpt lat="40.7665126" lon="14.8464982"><ele>622.0</ele><time>2026-03-29T08:30:22.966Z</time></trkpt><trkpt lat="40.766507" lon="14.846415"><ele>622.0</ele><time>2026-03-29T08:30:23.958Z</time></trkpt><trkpt lat="40.7664397" lon="14.8463597"><ele>622.0</ele><time>2026-03-29T08:30:26.962Z</time></trkpt><trkpt lat="40.7663156" lon="14.8463979"><ele>622.0</ele><time>2026-03-29T08:30:28.962Z</time></trkpt><trkpt lat="40.7662735" lon="14.8464757"><ele>622.0</ele><time>2026-03-29T08:30:30.036Z</time></trkpt><trkpt lat="40.7662707" lon="14.8465936"><ele>622.0</ele><time>2026-03-29T08:30:30.962Z</time></trkpt><trkpt lat="40.7662989" lon="14.8467182"><ele>622.0</ele><time>2026-03-29T08:30:31.964Z</time></trkpt><trkpt lat="40.7663217" lon="14.8468109"><ele>622.0</ele><time>2026-03-29T08:30:32.966Z</time></trkpt><trkpt lat="40.766337" lon="14.8469497"><ele>622.0</ele><time>2026-03-29T08:30:34.963Z</time></trkpt><trkpt lat="40.7663302" lon="14.8470393"><ele>622.0</ele><time>2026-03-29T08:30:35.965Z</time></trkpt><trkpt lat="40.7662453" lon="14.8471262"><ele>622.0</ele><time>2026-03-29T08:30:37.957Z</time></trkpt><trkpt lat="40.7661729" lon="14.8470751"><ele>622.0</ele><time>2026-03-29T08:30:39.962Z</time></trkpt><trkpt lat="40.7661355" lon="14.8469618"><ele>622.0</ele><time>2026-03-29T08:30:41.963Z</time></trkpt><trkpt lat="40.7660735" lon="14.8469078"><ele>622.0</ele><time>2026-03-29T08:30:44.971Z</time></trkpt><trkpt lat="40.76602" lon="14.847009"><ele>624.1666666666667</ele><time>2026-03-29T08:30:46.962Z</time></trkpt><trkpt lat="40.7660019" lon="14.8471183"><ele>626.3333333333334</ele><time>2026-03-29T08:30:48.97Z</time></trkpt><trkpt lat="40.7659658" lon="14.847239"><ele>628.5</ele><time>2026-03-29T08:30:51.025Z</time></trkpt><trkpt lat="40.7658913" lon="14.8472794"><ele>630.6666666666666</ele><time>2026-03-29T08:30:52.957Z</time></trkpt><trkpt lat="40.7658306" lon="14.8472455"><ele>632.8333333333333</ele><time>2026-03-29T08:30:53.969Z</time></trkpt><trkpt lat="40.7657592" lon="14.8472114"><ele>635.0</ele><time>2026-03-29T08:30:54.972Z</time></trkpt><trkpt lat="40.7656856" lon="14.8472431"><ele>635.0</ele><time>2026-03-29T08:30:56.964Z</time></trkpt><trkpt lat="40.7657131" lon="14.8473341"><ele>635.0</ele><time>2026-03-29T08:30:57.965Z</time></trkpt><trkpt lat="40.7657614" lon="14.8474289"><ele>635.0</ele><time>2026-03-29T08:30:58.959Z</time></trkpt><trkpt lat="40.7658059" lon="14.8475118"><ele>635.0</ele><time>2026-03-29T08:30:59.999Z</time></trkpt><trkpt lat="40.7658894" lon="14.8475472"><ele>635.0</ele><time>2026-03-29T08:31:01.965Z</time></trkpt><trkpt lat="40.765959" lon="14.847425"><ele>635.0</ele><time>2026-03-29T08:31:03.962Z</time></trkpt><trkpt lat="40.7660167" lon="14.8473365"><ele>632.4</ele><time>2026-03-29T08:31:04.997Z</time></trkpt><trkpt lat="40.7660729" lon="14.8472544"><ele>629.8</ele><time>2026-03-29T08:31:05.963Z</time></trkpt><trkpt lat="40.7661869" lon="14.8471922"><ele>627.2</ele><time>2026-03-29T08:31:07.962Z</time></trkpt><trkpt lat="40.7662616" lon="14.8471953"><ele>624.6</ele><time>2026-03-29T08:31:10.031Z</time></trkpt><trkpt lat="40.7662865" lon="14.8473454"><ele>622.0</ele><time>2026-03-29T08:31:11.96Z</time></trkpt><trkpt lat="40.7662729" lon="14.8474985"><ele>622.4</ele><time>2026-03-29T08:31:12.962Z</time></trkpt><trkpt lat="40.7662346" lon="14.8476537"><ele>622.8000000000001</ele><time>2026-03-29T08:31:13.962Z</time></trkpt><trkpt lat="40.7661918" lon="14.8477956"><ele>623.2</ele><time>2026-03-29T08:31:14.961Z</time></trkpt><trkpt lat="40.7661566" lon="14.8479344"><ele>623.6</ele><time>2026-03-29T08:31:15.961Z</time></trkpt><trkpt lat="40.7661073" lon="14.8480426"><ele>624.0</ele><time>2026-03-29T08:31:17.03Z</time></trkpt><trkpt lat="40.7660205" lon="14.8481059"><ele>628.2</ele><time>2026-03-29T08:31:17.963Z</time></trkpt><trkpt lat="40.7659247" lon="14.848103"><ele>632.4</ele><time>2026-03-29T08:31:18.96Z</time></trkpt><trkpt lat="40.7658451" lon="14.8480621"><ele>636.6</ele><time>2026-03-29T08:31:20.077Z</time></trkpt><trkpt lat="40.7657371" lon="14.8478911"><ele>640.8</ele><time>2026-03-29T08:31:21.958Z</time></trkpt><trkpt lat="40.7657188" lon="14.8477879"><ele>645.0</ele><time>2026-03-29T08:31:22.962Z</time></trkpt><trkpt lat="40.7656737" lon="14.8476481"><ele>645.0</ele><time>2026-03-29T08:31:24.964Z</time></trkpt><trkpt lat="40.7656419" lon="14.8475568"><ele>645.0</ele><time>2026-03-29T08:31:26.964Z</time></trkpt><trkpt lat="40.7655817" lon="14.8475175"><ele>645.0</ele><time>2026-03-29T08:31:28.963Z</time></trkpt><trkpt lat="40.7655228" lon="14.8475732"><ele>645.0</ele><time>2026-03-29T08:31:31.039Z</time></trkpt><trkpt lat="40.7655692" lon="14.8478039"><ele>645.0</ele><time>2026-03-29T08:31:32.963Z</time></trkpt><trkpt lat="40.7656372" lon="14.8479726"><ele>645.0</ele><time>2026-03-29T08:31:33.991Z</time></trkpt><trkpt lat="40.7656889" lon="14.8481011"><ele>645.0</ele><time>2026-03-29T08:31:35.034Z</time></trkpt><trkpt lat="40.7657107" lon="14.8482574"><ele>645.0</ele><time>2026-03-29T08:31:37.032Z</time></trkpt><trkpt lat="40.7656948" lon="14.8483846"><ele>645.0</ele><time>2026-03-29T08:31:38.963Z</time></trkpt><trkpt lat="40.7657582" lon="14.8484271"><ele>645.0</ele><time>2026-03-29T08:31:39.96Z</time></trkpt><trkpt lat="40.7658602" lon="14.8484248"><ele>645.0</ele><time>2026-03-29T08:31:40.955Z</time></trkpt><trkpt lat="40.7659613" lon="14.8483989"><ele>645.0</ele><time>2026-03-29T08:31:41.962Z</time></trkpt><trkpt lat="40.7660655" lon="14.8483617"><ele>645.0</ele><time>2026-03-29T08:31:43.022Z</time></trkpt><trkpt lat="40.7661736" lon="14.8483315"><ele>645.0</ele><time>2026-03-29T08:31:44.026Z</time></trkpt><trkpt lat="40.7662448" lon="14.8483155"><ele>645.0</ele><time>2026-03-29T08:31:45.027Z</time></trkpt><trkpt lat="40.7662599" lon="14.8482281"><ele>640.8</ele><time>2026-03-29T08:31:48.967Z</time></trkpt><trkpt lat="40.7662559" lon="14.8481279"><ele>636.6</ele><time>2026-03-29T08:31:50.97Z</time></trkpt><trkpt lat="40.7663218" lon="14.8480039"><ele>632.4</ele><time>2026-03-29T08:31:52.965Z</time></trkpt><trkpt lat="40.7664026" lon="14.8478448"><ele>628.2</ele><time>2026-03-29T08:31:54.968Z</time></trkpt><trkpt lat="40.7664483" lon="14.8477184"><ele>624.0</ele><time>2026-03-29T08:31:55.964Z</time></trkpt><trkpt lat="40.766496" lon="14.8475873"><ele>623.6</ele><time>2026-03-29T08:31:56.964Z</time></trkpt><trkpt lat="40.7665396" lon="14.8474661"><ele>623.2</ele><time>2026-03-29T08:31:57.969Z</time></trkpt><trkpt lat="40.766572" lon="14.8473497"><ele>622.8000000000001</ele><time>2026-03-29T08:31:58.963Z</time></trkpt><trkpt lat="40.7665986" lon="14.8472453"><ele>622.4</ele><time>2026-03-29T08:32:00.034Z</time></trkpt><trkpt lat="40.7666072" lon="14.8471482"><ele>622.0</ele><time>2026-03-29T08:32:00.99Z</time></trkpt><trkpt lat="40.7665764" lon="14.8469504"><ele>622.0</ele><time>2026-03-29T08:32:02.96Z</time></trkpt><trkpt lat="40.7665425" lon="14.8468157"><ele>622.0</ele><time>2026-03-29T08:32:03.963Z</time></trkpt><trkpt lat="40.7665196" lon="14.8466772"><ele>622.0</ele><time>2026-03-29T08:32:05.055Z</time></trkpt><trkpt lat="40.7665132" lon="14.8465405"><ele>622.0</ele><time>2026-03-29T08:32:06.024Z</time></trkpt><trkpt lat="40.7665199" lon="14.8464283"><ele>622.0</ele><time>2026-03-29T08:32:07.033Z</time></trkpt><trkpt lat="40.7665178" lon="14.8463245"><ele>622.0</ele><time>2026-03-29T08:32:08.966Z</time></trkpt><trkpt lat="40.7664303" lon="14.8462955"><ele>622.0</ele><time>2026-03-29T08:32:10.967Z</time></trkpt><trkpt lat="40.7663645" lon="14.8463302"><ele>622.0</ele><time>2026-03-29T08:32:12.036Z</time></trkpt><trkpt lat="40.7663155" lon="14.8464038"><ele>622.0</ele><time>2026-03-29T08:32:12.961Z</time></trkpt><trkpt lat="40.7662841" lon="14.8465155"><ele>622.0</ele><time>2026-03-29T08:32:13.963Z</time></trkpt><trkpt lat="40.766299" lon="14.8466767"><ele>622.0</ele><time>2026-03-29T08:32:14.961Z</time></trkpt><trkpt lat="40.7663261" lon="14.8468275"><ele>622.0</ele><time>2026-03-29T08:32:15.964Z</time></trkpt><trkpt lat="40.7663571" lon="14.846932"><ele>622.0</ele><time>2026-03-29T08:32:16.965Z</time></trkpt><trkpt lat="40.7663544" lon="14.8470604"><ele>622.0</ele><time>2026-03-29T08:32:18.961Z</time></trkpt><trkpt lat="40.7662798" lon="14.8471861"><ele>622.0</ele><time>2026-03-29T08:32:20.995Z</time></trkpt><trkpt lat="40.7661689" lon="14.8471275"><ele>622.0</ele><time>2026-03-29T08:32:22.962Z</time></trkpt><trkpt lat="40.766115" lon="14.8470402"><ele>622.0</ele><time>2026-03-29T08:32:23.966Z</time></trkpt><trkpt lat="40.7660927" lon="14.846958"><ele>622.0</ele><time>2026-03-29T08:32:24.992Z</time></trkpt><trkpt lat="40.7660864" lon="14.8468574"><ele>622.0</ele><time>2026-03-29T08:32:26.968Z</time></trkpt><trkpt lat="40.7659986" lon="14.8469261"><ele>622.0</ele><time>2026-03-29T08:32:29.044Z</time></trkpt><trkpt lat="40.765991" lon="14.8470298"><ele>622.0</ele><time>2026-03-29T08:32:30.037Z</time></trkpt><trkpt lat="40.7660088" lon="14.8471222"><ele>622.0</ele><time>2026-03-29T08:32:31.033Z</time></trkpt><trkpt lat="40.7659852" lon="14.8472652"><ele>624.1666666666667</ele><time>2026-03-29T08:32:32.959Z</time></trkpt><trkpt lat="40.76587" lon="14.84729"><ele>626.3333333333334</ele><time>2026-03-29T08:32:34.964Z</time></trkpt><trkpt lat="40.7658066" lon="14.8472675"><ele>628.5</ele><time>2026-03-29T08:32:35.963Z</time></trkpt><trkpt lat="40.7657435" lon="14.8472208"><ele>630.6666666666666</ele><time>2026-03-29T08:32:37.055Z</time></trkpt><trkpt lat="40.7656578" lon="14.8471815"><ele>632.8333333333333</ele><time>2026-03-29T08:32:38.963Z</time></trkpt><trkpt lat="40.7656645" lon="14.8472719"><ele>635.0</ele><time>2026-03-29T08:32:40.967Z</time></trkpt><trkpt lat="40.7657151" lon="14.8473637"><ele>635.0</ele><time>2026-03-29T08:32:41.957Z</time></trkpt><trkpt lat="40.7657931" lon="14.8474786"><ele>635.0</ele><time>2026-03-29T08:32:43.963Z</time></trkpt><trkpt lat="40.7658675" lon="14.8475154"><ele>635.0</ele><time>2026-03-29T08:32:46.041Z</time></trkpt><trkpt lat="40.765933" lon="14.8474543"><ele>635.0</ele><time>2026-03-29T08:32:47.043Z</time></trkpt><trkpt lat="40.7659863" lon="14.8473598"><ele>635.0</ele><time>2026-03-29T08:32:47.959Z</time></trkpt><trkpt lat="40.766021" lon="14.8472875"><ele>635.0</ele><time>2026-03-29T08:32:48.961Z</time></trkpt><trkpt lat="40.7661" lon="14.8472055"><ele>632.8</ele><time>2026-03-29T08:32:50.961Z</time></trkpt><trkpt lat="40.7661766" lon="14.8472029"><ele>630.6</ele><time>2026-03-29T08:32:53.96Z</time></trkpt><trkpt lat="40.7661845" lon="14.847342"><ele>628.4</ele><time>2026-03-29T08:32:56.036Z</time></trkpt><trkpt lat="40.766178" lon="14.8474786"><ele>626.2</ele><time>2026-03-29T08:32:56.967Z</time></trkpt><trkpt lat="40.7661578" lon="14.8476102"><ele>624.0</ele><time>2026-03-29T08:32:57.959Z</time></trkpt><trkpt lat="40.7661347" lon="14.8477449"><ele>624.0</ele><time>2026-03-29T08:32:59.063Z</time></trkpt><trkpt lat="40.7661184" lon="14.8478861"><ele>624.0</ele><time>2026-03-29T08:33:00.033Z</time></trkpt><trkpt lat="40.7661044" lon="14.8480382"><ele>624.0</ele><time>2026-03-29T08:33:01.02Z</time></trkpt><trkpt lat="40.7660439" lon="14.8481623"><ele>624.0</ele><time>2026-03-29T08:33:01.963Z</time></trkpt><trkpt lat="40.7659415" lon="14.8481812"><ele>624.0</ele><time>2026-03-29T08:33:02.968Z</time></trkpt><trkpt lat="40.7658351" lon="14.8481196"><ele>626.2</ele><time>2026-03-29T08:33:03.961Z</time></trkpt><trkpt lat="40.7657698" lon="14.8480251"><ele>628.4</ele><time>2026-03-29T08:33:05.038Z</time></trkpt><trkpt lat="40.7657183" lon="14.8479225"><ele>630.6</ele><time>2026-03-29T08:33:06.032Z</time></trkpt><trkpt lat="40.7656971" lon="14.8478112"><ele>632.8</ele><time>2026-03-29T08:33:07.033Z</time></trkpt><trkpt lat="40.7656805" lon="14.8477243"><ele>635.0</ele><time>2026-03-29T08:33:07.964Z</time></trkpt><trkpt lat="40.7656425" lon="14.8475955"><ele>635.0</ele><time>2026-03-29T08:33:09.995Z</time></trkpt><trkpt lat="40.7655884" lon="14.8475166"><ele>635.0</ele><time>2026-03-29T08:33:11.962Z</time></trkpt><trkpt lat="40.7655134" lon="14.8475348"><ele>635.0</ele><time>2026-03-29T08:33:13.967Z</time></trkpt><trkpt lat="40.7655274" lon="14.8477397"><ele>635.0</ele><time>2026-03-29T08:33:16.045Z</time></trkpt><trkpt lat="40.76559" lon="14.8478937"><ele>635.0</ele><time>2026-03-29T08:33:17.026Z</time></trkpt><trkpt lat="40.7656553" lon="14.8480357"><ele>637.0</ele><time>2026-03-29T08:33:17.96Z</time></trkpt><trkpt lat="40.7657191" lon="14.8481656"><ele>639.0</ele><time>2026-03-29T08:33:18.957Z</time></trkpt><trkpt lat="40.7657488" lon="14.8482694"><ele>641.0</ele><time>2026-03-29T08:33:19.956Z</time></trkpt><trkpt lat="40.7657434" lon="14.8483612"><ele>643.0</ele><time>2026-03-29T08:33:20.965Z</time></trkpt><trkpt lat="40.7658182" lon="14.848452"><ele>645.0</ele><time>2026-03-29T08:33:23.959Z</time></trkpt><trkpt lat="40.7659284" lon="14.8484196"><ele>640.8</ele><time>2026-03-29T08:33:24.96Z</time></trkpt><trkpt lat="40.7660411" lon="14.8483898"><ele>636.6</ele><time>2026-03-29T08:33:25.963Z</time></trkpt><trkpt lat="40.7661463" lon="14.8483388"><ele>632.4</ele><time>2026-03-29T08:33:26.968Z</time></trkpt><trkpt lat="40.7662266" lon="14.8483054"><ele>628.2</ele><time>2026-03-29T08:33:27.963Z</time></trkpt><trkpt lat="40.7662782" lon="14.8482484"><ele>624.0</ele><time>2026-03-29T08:33:30.969Z</time></trkpt><trkpt lat="40.7662531" lon="14.848131"><ele>624.0</ele><time>2026-03-29T08:33:32.964Z</time></trkpt><trkpt lat="40.7662836" lon="14.8479902"><ele>624.0</ele><time>2026-03-29T08:33:34.966Z</time></trkpt><trkpt lat="40.7663331" lon="14.8479114"><ele>624.0</ele><time>2026-03-29T08:33:35.981Z</time></trkpt><trkpt lat="40.7663938" lon="14.8478223"><ele>624.0</ele><time>2026-03-29T08:33:36.976Z</time></trkpt><trkpt lat="40.7664395" lon="14.8477281"><ele>624.0</ele><time>2026-03-29T08:33:37.96Z</time></trkpt><trkpt lat="40.7664805" lon="14.8476148"><ele>623.6</ele><time>2026-03-29T08:33:39.035Z</time></trkpt><trkpt lat="40.7665251" lon="14.8474936"><ele>623.2</ele><time>2026-03-29T08:33:40.033Z</time></trkpt><trkpt lat="40.7665685" lon="14.8473649"><ele>622.8000000000001</ele><time>2026-03-29T08:33:40.971Z</time></trkpt><trkpt lat="40.7666101" lon="14.8472219"><ele>622.4</ele><time>2026-03-29T08:33:42.025Z</time></trkpt><trkpt lat="40.7666199" lon="14.8470979"><ele>622.0</ele><time>2026-03-29T08:33:42.971Z</time></trkpt><trkpt lat="40.7665983" lon="14.8469467"><ele>622.0</ele><time>2026-03-29T08:33:43.966Z</time></trkpt><trkpt lat="40.7665496" lon="14.8467663"><ele>622.0</ele><time>2026-03-29T08:33:44.985Z</time></trkpt><trkpt lat="40.7665041" lon="14.846588"><ele>622.0</ele><time>2026-03-29T08:33:45.96Z</time></trkpt><trkpt lat="40.7664853" lon="14.8464441"><ele>622.0</ele><time>2026-03-29T08:33:47.029Z</time></trkpt><trkpt lat="40.7664884" lon="14.8463432"><ele>622.0</ele><time>2026-03-29T08:33:47.964Z</time></trkpt><trkpt lat="40.7663776" lon="14.8463086"><ele>622.0</ele><time>2026-03-29T08:33:51.962Z</time></trkpt><trkpt lat="40.7663202" lon="14.8463627"><ele>622.0</ele><time>2026-03-29T08:33:52.966Z</time></trkpt><trkpt lat="40.7662699" lon="14.8464479"><ele>622.0</ele><time>2026-03-29T08:33:53.975Z</time></trkpt><trkpt lat="40.7662571" lon="14.8465842"><ele>622.0</ele><time>2026-03-29T08:33:55.025Z</time></trkpt><trkpt lat="40.7662773" lon="14.8467284"><ele>622.0</ele><time>2026-03-29T08:33:56.045Z</time></trkpt><trkpt lat="40.7663093" lon="14.8468499"><ele>622.0</ele><time>2026-03-29T08:33:56.968Z</time></trkpt><trkpt lat="40.766333" lon="14.8469529"><ele>622.0</ele><time>2026-03-29T08:33:57.966Z</time></trkpt><trkpt lat="40.7663153" lon="14.8470858"><ele>622.0</ele><time>2026-03-29T08:33:59.966Z</time></trkpt><trkpt lat="40.7662591" lon="14.8471576"><ele>622.0</ele><time>2026-03-29T08:34:01.963Z</time></trkpt><trkpt lat="40.7661712" lon="14.8470051"><ele>622.0</ele><time>2026-03-29T08:34:04.033Z</time></trkpt><trkpt lat="40.7661224" lon="14.8469037"><ele>622.0</ele><time>2026-03-29T08:34:05.016Z</time></trkpt><trkpt lat="40.7660736" lon="14.84679"><ele>622.0</ele><time>2026-03-29T08:34:06.963Z</time></trkpt><trkpt lat="40.7660382" lon="14.8469958"><ele>622.0</ele><time>2026-03-29T08:34:09.958Z</time></trkpt><trkpt lat="40.766059" lon="14.8471213"><ele>622.0</ele><time>2026-03-29T08:34:10.964Z</time></trkpt><trkpt lat="40.7660473" lon="14.8472622"><ele>624.1666666666667</ele><time>2026-03-29T08:34:12.961Z</time></trkpt><trkpt lat="40.7659218" lon="14.8472799"><ele>626.3333333333334</ele><time>2026-03-29T08:34:15.028Z</time></trkpt><trkpt lat="40.7658409" lon="14.8472316"><ele>628.5</ele><time>2026-03-29T08:34:16.03Z</time></trkpt><trkpt lat="40.7657635" lon="14.8471848"><ele>630.6666666666666</ele><time>2026-03-29T08:34:16.951Z</time></trkpt><trkpt lat="40.7656908" lon="14.8471476"><ele>632.8333333333333</ele><time>2026-03-29T08:34:17.963Z</time></trkpt><trkpt lat="40.7656231" lon="14.8471358"><ele>635.0</ele><time>2026-03-29T08:34:18.96Z</time></trkpt><trkpt lat="40.7655453" lon="14.8471772"><ele>635.0</ele><time>2026-03-29T08:34:20.964Z</time></trkpt><trkpt lat="40.7655766" lon="14.8472883"><ele>635.0</ele><time>2026-03-29T08:34:22.962Z</time></trkpt><trkpt lat="40.7656885" lon="14.8473824"><ele>635.0</ele><time>2026-03-29T08:34:24.962Z</time></trkpt><trkpt lat="40.765765" lon="14.8473748"><ele>635.0</ele><time>2026-03-29T08:34:26.059Z</time></trkpt><trkpt lat="40.7658555" lon="14.8473018"><ele>635.0</ele><time>2026-03-29T08:34:27.028Z</time></trkpt><trkpt lat="40.7659562" lon="14.8472227"><ele>632.8333333333333</ele><time>2026-03-29T08:34:27.962Z</time></trkpt><trkpt lat="40.7660449" lon="14.8471611"><ele>630.6666666666666</ele><time>2026-03-29T08:34:28.964Z</time></trkpt><trkpt lat="40.766105" lon="14.8471212"><ele>628.5</ele><time>2026-03-29T08:34:29.963Z</time></trkpt><trkpt lat="40.7661864" lon="14.8471566"><ele>626.3333333333334</ele><time>2026-03-29T08:34:31.962Z</time></trkpt><trkpt lat="40.7662216" lon="14.8472729"><ele>624.1666666666667</ele><time>2026-03-29T08:34:33.954Z</time></trkpt><trkpt lat="40.7662215" lon="14.8473699"><ele>622.0</ele><time>2026-03-29T08:34:34.959Z</time></trkpt><trkpt lat="40.7662202" lon="14.8474933"><ele>622.0</ele><time>2026-03-29T08:34:36.029Z</time></trkpt><trkpt lat="40.766211" lon="14.8476226"><ele>622.0</ele><time>2026-03-29T08:34:37.033Z</time></trkpt><trkpt lat="40.7661853" lon="14.8477395"><ele>622.0</ele><time>2026-03-29T08:34:37.959Z</time></trkpt><trkpt lat="40.7661557" lon="14.8478628"><ele>622.0</ele><time>2026-03-29T08:34:38.963Z</time></trkpt><trkpt lat="40.7661197" lon="14.8479898"><ele>622.0</ele><time>2026-03-29T08:34:39.994Z</time></trkpt><trkpt lat="40.7660697" lon="14.8480993"><ele>625.8333333333334</ele><time>2026-03-29T08:34:41.031Z</time></trkpt><trkpt lat="40.7660091" lon="14.8481769"><ele>629.6666666666667</ele><time>2026-03-29T08:34:42.037Z</time></trkpt><trkpt lat="40.7659281" lon="14.8481768"><ele>633.5</ele><time>2026-03-29T08:34:42.962Z</time></trkpt><trkpt lat="40.7658507" lon="14.8481213"><ele>637.3333333333334</ele><time>2026-03-29T08:34:43.962Z</time></trkpt><trkpt lat="40.7657865" lon="14.848022"><ele>641.1666666666666</ele><time>2026-03-29T08:34:44.979Z</time></trkpt><trkpt lat="40.7657495" lon="14.8479063"><ele>645.0</ele><time>2026-03-29T08:34:46.024Z</time></trkpt><trkpt lat="40.7657396" lon="14.8477995"><ele>645.0</ele><time>2026-03-29T08:34:47.028Z</time></trkpt><trkpt lat="40.7656803" lon="14.8476631"><ele>645.0</ele><time>2026-03-29T08:34:48.965Z</time></trkpt><trkpt lat="40.7656164" lon="14.8475965"><ele>645.0</ele><time>2026-03-29T08:34:50.963Z</time></trkpt><trkpt lat="40.7655499" lon="14.8476439"><ele>645.0</ele><time>2026-03-29T08:34:53.967Z</time></trkpt><trkpt lat="40.7655449" lon="14.8477378"><ele>645.0</ele><time>2026-03-29T08:34:54.976Z</time></trkpt><trkpt lat="40.7655674" lon="14.8478584"><ele>645.0</ele><time>2026-03-29T08:34:55.962Z</time></trkpt><trkpt lat="40.7655987" lon="14.8479813"><ele>645.0</ele><time>2026-03-29T08:34:56.962Z</time></trkpt><trkpt lat="40.7656388" lon="14.848093"><ele>645.0</ele><time>2026-03-29T08:34:57.963Z</time></trkpt><trkpt lat="40.7656867" lon="14.8481884"><ele>645.0</ele><time>2026-03-29T08:34:58.967Z</time></trkpt><trkpt lat="40.7657255" lon="14.8482574"><ele>645.0</ele><time>2026-03-29T08:34:59.964Z</time></trkpt><trkpt lat="40.7657433" lon="14.8483834"><ele>645.0</ele><time>2026-03-29T08:35:01.97Z</time></trkpt><trkpt lat="40.7658359" lon="14.8484555"><ele>645.0</ele><time>2026-03-29T08:35:04.961Z</time></trkpt><trkpt lat="40.7658991" lon="14.8484485"><ele>645.0</ele><time>2026-03-29T08:35:05.958Z</time></trkpt><trkpt lat="40.765991" lon="14.8484184"><ele>645.0</ele><time>2026-03-29T08:35:06.99Z</time></trkpt><trkpt lat="40.7661092" lon="14.8483733"><ele>645.0</ele><time>2026-03-29T08:35:07.963Z</time></trkpt><trkpt lat="40.7662115" lon="14.8483461"><ele>645.0</ele><time>2026-03-29T08:35:08.965Z</time></trkpt><trkpt lat="40.7662831" lon="14.8483354"><ele>641.5</ele><time>2026-03-29T08:35:09.96Z</time></trkpt><trkpt lat="40.7663335" lon="14.8482792"><ele>638.0</ele><time>2026-03-29T08:35:12.97Z</time></trkpt><trkpt lat="40.766297" lon="14.8482109"><ele>634.5</ele><time>2026-03-29T08:35:14.962Z</time></trkpt><trkpt lat="40.7662498" lon="14.848097"><ele>631.0</ele><time>2026-03-29T08:35:17.028Z</time></trkpt><trkpt lat="40.7663013" lon="14.8479515"><ele>627.5</ele><time>2026-03-29T08:35:18.96Z</time></trkpt><trkpt lat="40.7663582" lon="14.8478718"><ele>624.0</ele><time>2026-03-29T08:35:19.962Z</time></trkpt><trkpt lat="40.7664105" lon="14.8477708"><ele>624.0</ele><time>2026-03-29T08:35:20.961Z</time></trkpt><trkpt lat="40.7664625" lon="14.8476413"><ele>624.0</ele><time>2026-03-29T08:35:21.959Z</time></trkpt><trkpt lat="40.7665108" lon="14.8475067"><ele>624.0</ele><time>2026-03-29T08:35:22.964Z</time></trkpt><trkpt lat="40.7665539" lon="14.8473631"><ele>624.0</ele><time>2026-03-29T08:35:23.991Z</time></trkpt><trkpt lat="40.7665835" lon="14.8472251"><ele>624.0</ele><time>2026-03-29T08:35:24.983Z</time></trkpt><trkpt lat="40.7665972" lon="14.8470816"><ele>623.6</ele><time>2026-03-29T08:35:25.965Z</time></trkpt><trkpt lat="40.7665898" lon="14.8469361"><ele>623.2</ele><time>2026-03-29T08:35:27.028Z</time></trkpt><trkpt lat="40.7665689" lon="14.846795"><ele>622.8000000000001</ele><time>2026-03-29T08:35:27.968Z</time></trkpt><trkpt lat="40.7665412" lon="14.8466565"><ele>622.4</ele><time>2026-03-29T08:35:28.962Z</time></trkpt><trkpt lat="40.7665147" lon="14.8465238"><ele>622.0</ele><time>2026-03-29T08:35:29.969Z</time></trkpt><trkpt lat="40.7665073" lon="14.8464022"><ele>622.0</ele><time>2026-03-29T08:35:30.965Z</time></trkpt><trkpt lat="40.7665035" lon="14.8463169"><ele>622.0</ele><time>2026-03-29T08:35:31.971Z</time></trkpt><trkpt lat="40.7664641" lon="14.8462489"><ele>622.0</ele><time>2026-03-29T08:35:34.967Z</time></trkpt><trkpt lat="40.7663523" lon="14.8463018"><ele>622.0</ele><time>2026-03-29T08:35:37.039Z</time></trkpt><trkpt lat="40.7662617" lon="14.8464199"><ele>622.0</ele><time>2026-03-29T08:35:38.965Z</time></trkpt><trkpt lat="40.7662313" lon="14.8465146"><ele>622.0</ele><time>2026-03-29T08:35:39.962Z</time></trkpt><trkpt lat="40.7662303" lon="14.846627"><ele>622.0</ele><time>2026-03-29T08:35:40.961Z</time></trkpt><trkpt lat="40.7662495" lon="14.8467326"><ele>622.0</ele><time>2026-03-29T08:35:41.963Z</time></trkpt><trkpt lat="40.766282" lon="14.8468256"><ele>622.0</ele><time>2026-03-29T08:35:42.965Z</time></trkpt><trkpt lat="40.7663061" lon="14.8469062"><ele>622.0</ele><time>2026-03-29T08:35:43.965Z</time></trkpt><trkpt lat="40.7663259" lon="14.8470365"><ele>622.0</ele><time>2026-03-29T08:35:45.983Z</time></trkpt><trkpt lat="40.7662823" lon="14.84717"><ele>622.0</ele><time>2026-03-29T08:35:47.957Z</time></trkpt><trkpt lat="40.7662031" lon="14.8471526"><ele>622.0</ele><time>2026-03-29T08:35:50.047Z</time></trkpt><trkpt lat="40.7661476" lon="14.8470533"><ele>622.0</ele><time>2026-03-29T08:35:51.032Z</time></trkpt><trkpt lat="40.7661032" lon="14.8469735"><ele>622.0</ele><time>2026-03-29T08:35:52.028Z</time></trkpt><trkpt lat="40.7660734" lon="14.8468835"><ele>622.0</ele><time>2026-03-29T08:35:53.968Z</time></trkpt><trkpt lat="40.7660194" lon="14.8469623"><ele>622.0</ele><time>2026-03-29T08:35:55.965Z</time></trkpt><trkpt lat="40.7660017" lon="14.8470498"><ele>624.6</ele><time>2026-03-29T08:35:56.963Z</time></trkpt><trkpt lat="40.7659959" lon="14.8471416"><ele>627.2</ele><time>2026-03-29T08:35:57.968Z</time></trkpt><trkpt lat="40.7659896" lon="14.8472793"><ele>629.8</ele><time>2026-03-29T08:36:00.034Z</time></trkpt><trkpt lat="40.7659119" lon="14.8473018"><ele>632.4</ele><time>2026-03-29T08:36:01.967Z</time></trkpt><trkpt lat="40.7658115" lon="14.8472646"><ele>635.0</ele><time>2026-03-29T08:36:03.96Z</time></trkpt><trkpt lat="40.7657209" lon="14.8471999"><ele>635.0</ele><time>2026-03-29T08:36:06.038Z</time></trkpt><trkpt lat="40.765657" lon="14.8472123"><ele>635.0</ele><time>2026-03-29T08:36:07.967Z</time></trkpt><trkpt lat="40.7657107" lon="14.8473901"><ele>635.0</ele><time>2026-03-29T08:36:09.961Z</time></trkpt><trkpt lat="40.7657648" lon="14.8474893"><ele>635.0</ele><time>2026-03-29T08:36:10.963Z</time></trkpt><trkpt lat="40.7658247" lon="14.8475406"><ele>635.0</ele><time>2026-03-29T08:36:11.985Z</time></trkpt><trkpt lat="40.7659003" lon="14.847534"><ele>635.0</ele><time>2026-03-29T08:36:13.96Z</time></trkpt><trkpt lat="40.7659881" lon="14.8474072"><ele>632.8333333333333</ele><time>2026-03-29T08:36:15.963Z</time></trkpt><trkpt lat="40.7660433" lon="14.8473283"><ele>630.6666666666666</ele><time>2026-03-29T08:36:17.06Z</time></trkpt><trkpt lat="40.7660911" lon="14.8472616"><ele>628.5</ele><time>2026-03-29T08:36:17.967Z</time></trkpt><trkpt lat="40.7661692" lon="14.8472172"><ele>626.3333333333334</ele><time>2026-03-29T08:36:19.965Z</time></trkpt><trkpt lat="40.7662313" lon="14.8472761"><ele>624.1666666666667</ele><time>2026-03-29T08:36:21.96Z</time></trkpt><trkpt lat="40.7662346" lon="14.8473813"><ele>622.0</ele><time>2026-03-29T08:36:22.959Z</time></trkpt><trkpt lat="40.7662391" lon="14.8474966"><ele>622.0</ele><time>2026-03-29T08:36:23.962Z</time></trkpt><trkpt lat="40.7662333" lon="14.8475884"><ele>622.0</ele><time>2026-03-29T08:36:25.042Z</time></trkpt><trkpt lat="40.7662273" lon="14.8477009"><ele>622.0</ele><time>2026-03-29T08:36:26.024Z</time></trkpt><trkpt lat="40.7662084" lon="14.8478117"><ele>622.0</ele><time>2026-03-29T08:36:27.025Z</time></trkpt><trkpt lat="40.766184" lon="14.8479238"><ele>622.0</ele><time>2026-03-29T08:36:27.972Z</time></trkpt><trkpt lat="40.7661333" lon="14.8480306"><ele>622.0</ele><time>2026-03-29T08:36:28.961Z</time></trkpt><trkpt lat="40.766077" lon="14.8481254"><ele>626.6</ele><time>2026-03-29T08:36:29.958Z</time></trkpt><trkpt lat="40.7660057" lon="14.8481741"><ele>631.2</ele><time>2026-03-29T08:36:30.956Z</time></trkpt><trkpt lat="40.7659039" lon="14.8481268"><ele>635.8</ele><time>2026-03-29T08:36:31.961Z</time></trkpt><trkpt lat="40.7658171" lon="14.8480482"><ele>640.4</ele><time>2026-03-29T08:36:32.958Z</time></trkpt><trkpt lat="40.7657515" lon="14.8479547"><ele>645.0</ele><time>2026-03-29T08:36:34.032Z</time></trkpt><trkpt lat="40.7657063" lon="14.8478479"><ele>645.0</ele><time>2026-03-29T08:36:35.035Z</time></trkpt><trkpt lat="40.7656847" lon="14.8477461"><ele>645.0</ele><time>2026-03-29T08:36:36.031Z</time></trkpt><trkpt lat="40.7656415" lon="14.8476404"><ele>645.0</ele><time>2026-03-29T08:36:37.962Z</time></trkpt><trkpt lat="40.7656104" lon="14.8475587"><ele>645.0</ele><time>2026-03-29T08:36:39.966Z</time></trkpt><trkpt lat="40.76553" lon="14.8476112"><ele>645.0</ele><time>2026-03-29T08:36:42.959Z</time></trkpt><trkpt lat="40.7655172" lon="14.8477159"><ele>645.0</ele><time>2026-03-29T08:36:43.959Z</time></trkpt><trkpt lat="40.7655558" lon="14.847834"><ele>645.0</ele><time>2026-03-29T08:36:44.957Z</time></trkpt><trkpt lat="40.7656136" lon="14.8479823"><ele>645.0</ele><time>2026-03-29T08:36:45.964Z</time></trkpt><trkpt lat="40.7656823" lon="14.8481221"><ele>645.0</ele><time>2026-03-29T08:36:46.962Z</time></trkpt><trkpt lat="40.7657278" lon="14.8482208"><ele>645.0</ele><time>2026-03-29T08:36:47.965Z</time></trkpt><trkpt lat="40.7657429" lon="14.8483105"><ele>645.0</ele><time>2026-03-29T08:36:48.965Z</time></trkpt><trkpt lat="40.7657189" lon="14.8484137"><ele>645.0</ele><time>2026-03-29T08:36:50.994Z</time></trkpt><trkpt lat="40.7658259" lon="14.8484631"><ele>645.0</ele><time>2026-03-29T08:36:52.965Z</time></trkpt><trkpt lat="40.7659344" lon="14.8484504"><ele>645.0</ele><time>2026-03-29T08:36:53.963Z</time></trkpt><trkpt lat="40.7660423" lon="14.8484203"><ele>645.0</ele><time>2026-03-29T08:36:54.962Z</time></trkpt><trkpt lat="40.766144" lon="14.848366"><ele>645.0</ele><time>2026-03-29T08:36:55.965Z</time></trkpt><trkpt lat="40.7662328" lon="14.8483344"><ele>640.8</ele><time>2026-03-29T08:36:56.964Z</time></trkpt><trkpt lat="40.7662881" lon="14.8482784"><ele>636.6</ele><time>2026-03-29T08:36:59.97Z</time></trkpt><trkpt lat="40.76627" lon="14.8481262"><ele>632.4</ele><time>2026-03-29T08:37:01.967Z</time></trkpt><trkpt lat="40.7663222" lon="14.8479812"><ele>628.2</ele><time>2026-03-29T08:37:03.967Z</time></trkpt><trkpt lat="40.7663842" lon="14.8479132"><ele>624.0</ele><time>2026-03-29T08:37:04.969Z</time></trkpt><trkpt lat="40.7664337" lon="14.8478241"><ele>624.0</ele><time>2026-03-29T08:37:06.03Z</time></trkpt><trkpt lat="40.766485" lon="14.8477067"><ele>624.0</ele><time>2026-03-29T08:37:06.965Z</time></trkpt><trkpt lat="40.7665261" lon="14.8475594"><ele>624.0</ele><time>2026-03-29T08:37:07.963Z</time></trkpt><trkpt lat="40.7665673" lon="14.8474133"><ele>624.0</ele><time>2026-03-29T08:37:08.97Z</time></trkpt><trkpt lat="40.7665932" lon="14.8472848"><ele>624.0</ele><time>2026-03-29T08:37:09.963Z</time></trkpt><trkpt lat="40.7666134" lon="14.8471487"><ele>623.6</ele><time>2026-03-29T08:37:10.964Z</time></trkpt><trkpt lat="40.7666147" lon="14.8470208"><ele>623.2</ele><time>2026-03-29T08:37:11.98Z</time></trkpt><trkpt lat="40.7665934" lon="14.8468865"><ele>622.8000000000001</ele><time>2026-03-29T08:37:12.964Z</time></trkpt><trkpt lat="40.766567" lon="14.8467454"><ele>622.4</ele><time>2026-03-29T08:37:13.963Z</time></trkpt><trkpt lat="40.7665374" lon="14.8465947"><ele>622.0</ele><time>2026-03-29T08:37:15.02Z</time></trkpt><trkpt lat="40.7665274" lon="14.84647"><ele>622.0</ele><time>2026-03-29T08:37:15.965Z</time></trkpt><trkpt lat="40.766526" lon="14.8463536"><ele>622.0</ele><time>2026-03-29T08:37:16.962Z</time></trkpt><trkpt lat="40.7665242" lon="14.84627"><ele>622.0</ele><time>2026-03-29T08:37:18.963Z</time></trkpt><trkpt lat="40.7664452" lon="14.8462775"><ele>622.0</ele><time>2026-03-29T08:37:20.963Z</time></trkpt><trkpt lat="40.7663388" lon="14.8463737"><ele>622.0</ele><time>2026-03-29T08:37:22.966Z</time></trkpt><trkpt lat="40.7662926" lon="14.846477"><ele>622.0</ele><time>2026-03-29T08:37:23.963Z</time></trkpt><trkpt lat="40.766291" lon="14.8466414"><ele>622.0</ele><time>2026-03-29T08:37:24.961Z</time></trkpt><trkpt lat="40.7663162" lon="14.8467901"><ele>622.0</ele><time>2026-03-29T08:37:25.995Z</time></trkpt><trkpt lat="40.7663427" lon="14.846923"><ele>622.0</ele><time>2026-03-29T08:37:26.96Z</time></trkpt><trkpt lat="40.7663634" lon="14.8470038"><ele>622.0</ele><time>2026-03-29T08:37:27.962Z</time></trkpt><trkpt lat="40.7663534" lon="14.8471288"><ele>622.0</ele><time>2026-03-29T08:37:29.959Z</time></trkpt><trkpt lat="40.7662926" lon="14.8471934"><ele>622.0</ele><time>2026-03-29T08:37:31.963Z</time></trkpt><trkpt lat="40.766223" lon="14.8470699"><ele>622.0</ele><time>2026-03-29T08:37:32.958Z</time></trkpt><trkpt lat="40.7661646" lon="14.8469362"><ele>622.0</ele><time>2026-03-29T08:37:33.956Z</time></trkpt><trkpt lat="40.7661224" lon="14.846856"><ele>622.0</ele><time>2026-03-29T08:37:35.033Z</time></trkpt><trkpt lat="40.7660082" lon="14.846885"><ele>624.6</ele><time>2026-03-29T08:37:38.961Z</time></trkpt><trkpt lat="40.7659633" lon="14.8470248"><ele>627.2</ele><time>2026-03-29T08:37:40.965Z</time></trkpt><trkpt lat="40.765942" lon="14.8471398"><ele>629.8</ele><time>2026-03-29T08:37:42.962Z</time></trkpt><trkpt lat="40.7658802" lon="14.8472201"><ele>632.4</ele><time>2026-03-29T08:37:45.033Z</time></trkpt><trkpt lat="40.7657717" lon="14.84722"><ele>635.0</ele><time>2026-03-29T08:37:46.962Z</time></trkpt><trkpt lat="40.765668" lon="14.8472377"><ele>635.0</ele><time>2026-03-29T08:37:48.958Z</time></trkpt><trkpt lat="40.7656068" lon="14.847304"><ele>635.0</ele><time>2026-03-29T08:37:50.961Z</time></trkpt><trkpt lat="40.7656447" lon="14.8473805"><ele>635.0</ele><time>2026-03-29T08:37:52.958Z</time></trkpt><trkpt lat="40.7657169" lon="14.8474543"><ele>635.0</ele><time>2026-03-29T08:37:54.953Z</time></trkpt><trkpt lat="40.7657896" lon="14.8475374"><ele>635.0</ele><time>2026-03-29T08:37:56.976Z</time></trkpt><trkpt lat="40.7658715" lon="14.8475744"><ele>635.0</ele><time>2026-03-29T08:37:58.966Z</time></trkpt><trkpt lat="40.7659364" lon="14.8475142"><ele>635.0</ele><time>2026-03-29T08:38:01.961Z</time></trkpt><trkpt lat="40.7659939" lon="14.8473969"><ele>635.0</ele><time>2026-03-29T08:38:04.033Z</time></trkpt><trkpt lat="40.766042" lon="14.8472631"><ele>635.0</ele><time>2026-03-29T08:38:06.038Z</time></trkpt><trkpt lat="40.7661097" lon="14.8471499"><ele>635.0</ele><time>2026-03-29T08:38:07.964Z</time></trkpt><trkpt lat="40.7662143" lon="14.8470777"><ele>635.0</ele><time>2026-03-29T08:38:09.962Z</time></trkpt><trkpt lat="40.7662777" lon="14.8470459"><ele>632.4</ele><time>2026-03-29T08:38:10.966Z</time></trkpt><trkpt lat="40.7663803" lon="14.8469662"><ele>629.8</ele><time>2026-03-29T08:38:12.965Z</time></trkpt><trkpt lat="40.7664701" lon="14.846895"><ele>627.2</ele><time>2026-03-29T08:38:14.965Z</time></trkpt><trkpt lat="40.766534" lon="14.8468412"><ele>624.6</ele><time>2026-03-29T08:38:16.964Z</time></trkpt><trkpt lat="40.7666512" lon="14.8468015"><ele>622.0</ele><time>2026-03-29T08:41:35.962Z</time></trkpt><trkpt lat="40.766572" lon="14.8467429"><ele>622.0</ele><time>2026-03-29T08:45:45.966Z</time></trkpt><trkpt lat="40.7665231" lon="14.8466326"><ele>622.0</ele><time>2026-03-29T08:45:47.978Z</time></trkpt><trkpt lat="40.7664941" lon="14.8465446"><ele>622.0</ele><time>2026-03-29T08:45:48.971Z</time></trkpt><trkpt lat="40.7664763" lon="14.8464462"><ele>622.0</ele><time>2026-03-29T08:45:50.97Z</time></trkpt><trkpt lat="40.7664138" lon="14.8464006"><ele>622.0</ele><time>2026-03-29T08:45:53.972Z</time></trkpt><trkpt lat="40.766308" lon="14.8464141"><ele>622.0</ele><time>2026-03-29T08:45:55.967Z</time></trkpt><trkpt lat="40.7662561" lon="14.8465498"><ele>622.0</ele><time>2026-03-29T08:45:57.963Z</time></trkpt><trkpt lat="40.7662579" lon="14.8466674"><ele>622.0</ele><time>2026-03-29T08:45:58.965Z</time></trkpt><trkpt lat="40.7662833" lon="14.8467983"><ele>622.0</ele><time>2026-03-29T08:46:00.022Z</time></trkpt><trkpt lat="40.7663137" lon="14.8469174"><ele>622.0</ele><time>2026-03-29T08:46:01.043Z</time></trkpt><trkpt lat="40.7663447" lon="14.8470067"><ele>622.0</ele><time>2026-03-29T08:46:02.03Z</time></trkpt><trkpt lat="40.7663856" lon="14.8471534"><ele>622.0</ele><time>2026-03-29T08:46:03.969Z</time></trkpt><trkpt lat="40.7662905" lon="14.8471976"><ele>622.0</ele><time>2026-03-29T08:46:05.968Z</time></trkpt><trkpt lat="40.7662149" lon="14.8471429"><ele>622.0</ele><time>2026-03-29T08:46:06.972Z</time></trkpt><trkpt lat="40.76615" lon="14.8470596"><ele>622.0</ele><time>2026-03-29T08:46:07.967Z</time></trkpt><trkpt lat="40.7660958" lon="14.8469579"><ele>622.0</ele><time>2026-03-29T08:46:09.079Z</time></trkpt><trkpt lat="40.7660878" lon="14.8468545"><ele>624.6</ele><time>2026-03-29T08:46:11.03Z</time></trkpt><trkpt lat="40.7660132" lon="14.8468248"><ele>627.2</ele><time>2026-03-29T08:46:13.968Z</time></trkpt><trkpt lat="40.7659867" lon="14.8469461"><ele>629.8</ele><time>2026-03-29T08:46:15.964Z</time></trkpt><trkpt lat="40.7659393" lon="14.847127"><ele>632.4</ele><time>2026-03-29T08:46:17.973Z</time></trkpt><trkpt lat="40.7659089" lon="14.84723"><ele>635.0</ele><time>2026-03-29T08:46:18.971Z</time></trkpt><trkpt lat="40.7657982" lon="14.8472292"><ele>635.0</ele><time>2026-03-29T08:46:20.974Z</time></trkpt><trkpt lat="40.765711" lon="14.8471626"><ele>635.0</ele><time>2026-03-29T08:46:22.969Z</time></trkpt><trkpt lat="40.7656338" lon="14.847182"><ele>635.0</ele><time>2026-03-29T08:46:24.958Z</time></trkpt><trkpt lat="40.7656773" lon="14.8473141"><ele>635.0</ele><time>2026-03-29T08:46:26.997Z</time></trkpt><trkpt lat="40.7657429" lon="14.8473961"><ele>635.0</ele><time>2026-03-29T08:46:27.974Z</time></trkpt><trkpt lat="40.7657889" lon="14.8474874"><ele>635.0</ele><time>2026-03-29T08:46:29.03Z</time></trkpt><trkpt lat="40.7658688" lon="14.847523"><ele>635.0</ele><time>2026-03-29T08:46:31.039Z</time></trkpt><trkpt lat="40.7659235" lon="14.8474576"><ele>635.0</ele><time>2026-03-29T08:46:32.033Z</time></trkpt><trkpt lat="40.7659842" lon="14.8473667"><ele>635.0</ele><time>2026-03-29T08:46:32.969Z</time></trkpt><trkpt lat="40.7660488" lon="14.847298"><ele>635.0</ele><time>2026-03-29T08:46:33.969Z</time></trkpt><trkpt lat="40.7660982" lon="14.8472455"><ele>635.0</ele><time>2026-03-29T08:46:34.964Z</time></trkpt><trkpt lat="40.7662079" lon="14.8472288"><ele>633.1666666666666</ele><time>2026-03-29T08:46:36.969Z</time></trkpt><trkpt lat="40.7662492" lon="14.8472921"><ele>631.3333333333333</ele><time>2026-03-29T08:46:38.966Z</time></trkpt><trkpt lat="40.7662464" lon="14.8473809"><ele>629.5</ele><time>2026-03-29T08:46:41.035Z</time></trkpt><trkpt lat="40.7662153" lon="14.847504"><ele>627.6666666666666</ele><time>2026-03-29T08:46:42.963Z</time></trkpt><trkpt lat="40.7661871" lon="14.8476244"><ele>625.8333333333334</ele><time>2026-03-29T08:46:43.966Z</time></trkpt><trkpt lat="40.7661598" lon="14.8477552"><ele>624.0</ele><time>2026-03-29T08:46:44.97Z</time></trkpt><trkpt lat="40.7661236" lon="14.8478954"><ele>624.0</ele><time>2026-03-29T08:46:45.968Z</time></trkpt><trkpt lat="40.7660827" lon="14.8480395"><ele>624.0</ele><time>2026-03-29T08:46:46.967Z</time></trkpt><trkpt lat="40.7660236" lon="14.848137"><ele>624.0</ele><time>2026-03-29T08:46:47.968Z</time></trkpt><trkpt lat="40.7659288" lon="14.8481141"><ele>624.0</ele><time>2026-03-29T08:46:48.965Z</time></trkpt><trkpt lat="40.765844" lon="14.8480586"><ele>624.0</ele><time>2026-03-29T08:46:50.043Z</time></trkpt><trkpt lat="40.7657682" lon="14.8479981"><ele>626.2</ele><time>2026-03-29T08:46:50.967Z</time></trkpt><trkpt lat="40.7657191" lon="14.8479058"><ele>628.4</ele><time>2026-03-29T08:46:51.966Z</time></trkpt><trkpt lat="40.7656768" lon="14.8477539"><ele>630.6</ele><time>2026-03-29T08:46:53.97Z</time></trkpt><trkpt lat="40.7656588" lon="14.8476621"><ele>632.8</ele><time>2026-03-29T08:46:55.974Z</time></trkpt><trkpt lat="40.7656169" lon="14.8475757"><ele>635.0</ele><time>2026-03-29T08:46:57.969Z</time></trkpt><trkpt lat="40.7655233" lon="14.8475605"><ele>637.0</ele><time>2026-03-29T08:46:59.964Z</time></trkpt><trkpt lat="40.7654897" lon="14.8476666"><ele>639.0</ele><time>2026-03-29T08:47:01.97Z</time></trkpt><trkpt lat="40.7655187" lon="14.8477469"><ele>641.0</ele><time>2026-03-29T08:47:02.97Z</time></trkpt><trkpt lat="40.7655674" lon="14.847874"><ele>643.0</ele><time>2026-03-29T08:47:03.969Z</time></trkpt><trkpt lat="40.765633" lon="14.8480137"><ele>645.0</ele><time>2026-03-29T08:47:05.047Z</time></trkpt><trkpt lat="40.7656658" lon="14.8480936"><ele>645.0</ele><time>2026-03-29T08:47:06.038Z</time></trkpt><trkpt lat="40.7656781" lon="14.8481768"><ele>645.0</ele><time>2026-03-29T08:47:07.03Z</time></trkpt><trkpt lat="40.7656925" lon="14.8482946"><ele>645.0</ele><time>2026-03-29T08:47:08.973Z</time></trkpt><trkpt lat="40.7657875" lon="14.8483551"><ele>645.0</ele><time>2026-03-29T08:47:10.964Z</time></trkpt><trkpt lat="40.7658778" lon="14.8483753"><ele>645.0</ele><time>2026-03-29T08:47:11.967Z</time></trkpt><trkpt lat="40.7659837" lon="14.848371"><ele>641.5</ele><time>2026-03-29T08:47:12.967Z</time></trkpt><trkpt lat="40.7660895" lon="14.8483589"><ele>638.0</ele><time>2026-03-29T08:47:13.966Z</time></trkpt><trkpt lat="40.7661866" lon="14.8483397"><ele>634.5</ele><time>2026-03-29T08:47:14.972Z</time></trkpt><trkpt lat="40.766265" lon="14.8483234"><ele>631.0</ele><time>2026-03-29T08:47:15.966Z</time></trkpt><trkpt lat="40.7662991" lon="14.8482485"><ele>627.5</ele><time>2026-03-29T08:47:19.973Z</time></trkpt><trkpt lat="40.7662489" lon="14.8481386"><ele>624.0</ele><time>2026-03-29T08:47:21.993Z</time></trkpt><trkpt lat="40.7662874" lon="14.8480263"><ele>624.0</ele><time>2026-03-29T08:47:23.97Z</time></trkpt><trkpt lat="40.7663426" lon="14.8479589"><ele>624.0</ele><time>2026-03-29T08:47:24.966Z</time></trkpt><trkpt lat="40.7663904" lon="14.8478721"><ele>624.0</ele><time>2026-03-29T08:47:25.968Z</time></trkpt><trkpt lat="40.7664398" lon="14.8477495"><ele>624.0</ele><time>2026-03-29T08:47:26.969Z</time></trkpt><trkpt lat="40.7664889" lon="14.8476151"><ele>624.0</ele><time>2026-03-29T08:47:27.967Z</time></trkpt><trkpt lat="40.76654" lon="14.847469"><ele>623.6</ele><time>2026-03-29T08:47:29.046Z</time></trkpt><trkpt lat="40.7665794" lon="14.8473153"><ele>623.2</ele><time>2026-03-29T08:47:30.031Z</time></trkpt><trkpt lat="40.7666038" lon="14.8471805"><ele>622.8000000000001</ele><time>2026-03-29T08:47:31.032Z</time></trkpt><trkpt lat="40.7666093" lon="14.8470451"><ele>622.4</ele><time>2026-03-29T08:47:31.972Z</time></trkpt><trkpt lat="40.7666012" lon="14.8469238"><ele>622.0</ele><time>2026-03-29T08:47:32.971Z</time></trkpt><trkpt lat="40.7665853" lon="14.8468009"><ele>622.0</ele><time>2026-03-29T08:47:33.96Z</time></trkpt><trkpt lat="40.7665594" lon="14.8466853"><ele>622.0</ele><time>2026-03-29T08:47:34.965Z</time></trkpt><trkpt lat="40.7665394" lon="14.846559"><ele>622.0</ele><time>2026-03-29T08:47:35.968Z</time></trkpt><trkpt lat="40.7665289" lon="14.8464399"><ele>622.0</ele><time>2026-03-29T08:47:36.982Z</time></trkpt><trkpt lat="40.766525" lon="14.8463516"><ele>622.0</ele><time>2026-03-29T08:47:38.001Z</time></trkpt><trkpt lat="40.7664595" lon="14.8462846"><ele>622.0</ele><time>2026-03-29T08:47:41.967Z</time></trkpt><trkpt lat="40.766393" lon="14.8462944"><ele>622.0</ele><time>2026-03-29T08:47:43.968Z</time></trkpt><trkpt lat="40.7663211" lon="14.8463566"><ele>622.0</ele><time>2026-03-29T08:47:45.967Z</time></trkpt><trkpt lat="40.7662634" lon="14.8464463"><ele>622.0</ele><time>2026-03-29T08:47:47.968Z</time></trkpt><trkpt lat="40.7662361" lon="14.8465529"><ele>622.0</ele><time>2026-03-29T08:47:51.046Z</time></trkpt><trkpt lat="40.7662154" lon="14.8466435"><ele>622.0</ele><time>2026-03-29T08:47:55.973Z</time></trkpt><trkpt lat="40.7662538" lon="14.8467519"><ele>622.0</ele><time>2026-03-29T08:48:14.968Z</time></trkpt><trkpt lat="40.7662292" lon="14.8468743"><ele>622.0</ele><time>2026-03-29T08:48:16.971Z</time></trkpt><trkpt lat="40.7661521" lon="14.8469397"><ele>622.0</ele><time>2026-03-29T08:48:18.972Z</time></trkpt><trkpt lat="40.7660505" lon="14.8468775"><ele>622.0</ele><time>2026-03-29T08:48:20.969Z</time></trkpt><trkpt lat="40.7659902" lon="14.8469181"><ele>622.0</ele><time>2026-03-29T08:48:25.965Z</time></trkpt><trkpt lat="40.7659982" lon="14.8470226"><ele>622.0</ele><time>2026-03-29T08:48:27.05Z</time></trkpt><trkpt lat="40.766019" lon="14.8471341"><ele>622.0</ele><time>2026-03-29T08:48:27.964Z</time></trkpt><trkpt lat="40.7660192" lon="14.8472215"><ele>624.1666666666667</ele><time>2026-03-29T08:48:28.968Z</time></trkpt><trkpt lat="40.7659534" lon="14.8473369"><ele>626.3333333333334</ele><time>2026-03-29T08:48:31.033Z</time></trkpt><trkpt lat="40.76589" lon="14.8473091"><ele>628.5</ele><time>2026-03-29T08:48:32.046Z</time></trkpt><trkpt lat="40.7658249" lon="14.8472639"><ele>630.6666666666666</ele><time>2026-03-29T08:48:32.971Z</time></trkpt><trkpt lat="40.7657404" lon="14.8471907"><ele>632.8333333333333</ele><time>2026-03-29T08:48:34.961Z</time></trkpt><trkpt lat="40.7656673" lon="14.8472169"><ele>635.0</ele><time>2026-03-29T08:48:36.968Z</time></trkpt><trkpt lat="40.7656602" lon="14.8473164"><ele>635.0</ele><time>2026-03-29T08:48:38.996Z</time></trkpt><trkpt lat="40.7656969" lon="14.8473902"><ele>635.0</ele><time>2026-03-29T08:48:39.98Z</time></trkpt><trkpt lat="40.7657735" lon="14.8474745"><ele>635.0</ele><time>2026-03-29T08:48:40.973Z</time></trkpt><trkpt lat="40.7658469" lon="14.8475381"><ele>635.0</ele><time>2026-03-29T08:48:42.97Z</time></trkpt><trkpt lat="40.7659418" lon="14.8474496"><ele>635.0</ele><time>2026-03-29T08:48:44.968Z</time></trkpt><trkpt lat="40.7660011" lon="14.8473744"><ele>632.4</ele><time>2026-03-29T08:48:45.967Z</time></trkpt><trkpt lat="40.7660627" lon="14.847307"><ele>629.8</ele><time>2026-03-29T08:48:47.037Z</time></trkpt><trkpt lat="40.7661227" lon="14.8472575"><ele>627.2</ele><time>2026-03-29T08:48:47.964Z</time></trkpt><trkpt lat="40.766206" lon="14.8472715"><ele>624.6</ele><time>2026-03-29T08:48:49.969Z</time></trkpt><trkpt lat="40.7662122" lon="14.8474558"><ele>622.0</ele><time>2026-03-29T08:48:51.967Z</time></trkpt><trkpt lat="40.7662085" lon="14.8475941"><ele>622.4</ele><time>2026-03-29T08:48:52.969Z</time></trkpt><trkpt lat="40.7661967" lon="14.8477487"><ele>622.8000000000001</ele><time>2026-03-29T08:48:53.965Z</time></trkpt><trkpt lat="40.7661745" lon="14.8479049"><ele>623.2</ele><time>2026-03-29T08:48:54.979Z</time></trkpt><trkpt lat="40.7661388" lon="14.8480312"><ele>623.6</ele><time>2026-03-29T08:48:55.983Z</time></trkpt><trkpt lat="40.766093" lon="14.8481426"><ele>624.0</ele><time>2026-03-29T08:48:56.964Z</time></trkpt><trkpt lat="40.7660346" lon="14.8482169"><ele>628.2</ele><time>2026-03-29T08:48:57.97Z</time></trkpt><trkpt lat="40.7659343" lon="14.8481878"><ele>632.4</ele><time>2026-03-29T08:48:58.967Z</time></trkpt><trkpt lat="40.7658323" lon="14.8481175"><ele>636.6</ele><time>2026-03-29T08:48:59.969Z</time></trkpt><trkpt lat="40.7657608" lon="14.8480232"><ele>640.8</ele><time>2026-03-29T08:49:00.966Z</time></trkpt><trkpt lat="40.7656976" lon="14.8479159"><ele>645.0</ele><time>2026-03-29T08:49:02.044Z</time></trkpt><trkpt lat="40.7656732" lon="14.8478111"><ele>645.0</ele><time>2026-03-29T08:49:02.966Z</time></trkpt><trkpt lat="40.7656644" lon="14.8476845"><ele>645.0</ele><time>2026-03-29T08:49:05.009Z</time></trkpt><trkpt lat="40.7656277" lon="14.8475793"><ele>645.0</ele><time>2026-03-29T08:49:07.97Z</time></trkpt><trkpt lat="40.7655439" lon="14.8475887"><ele>645.0</ele><time>2026-03-29T08:49:10.964Z</time></trkpt><trkpt lat="40.7655304" lon="14.8477254"><ele>645.0</ele><time>2026-03-29T08:49:12.965Z</time></trkpt><trkpt lat="40.7655808" lon="14.8478473"><ele>645.0</ele><time>2026-03-29T08:49:13.968Z</time></trkpt><trkpt lat="40.7656374" lon="14.8479977"><ele>645.0</ele><time>2026-03-29T08:49:14.961Z</time></trkpt><trkpt lat="40.7656757" lon="14.8481112"><ele>645.0</ele><time>2026-03-29T08:49:15.962Z</time></trkpt><trkpt lat="40.76569" lon="14.8482567"><ele>645.0</ele><time>2026-03-29T08:49:17.962Z</time></trkpt><trkpt lat="40.7657273" lon="14.8483848"><ele>645.0</ele><time>2026-03-29T08:49:19.999Z</time></trkpt><trkpt lat="40.765872" lon="14.8483965"><ele>645.0</ele><time>2026-03-29T08:49:21.955Z</time></trkpt><trkpt lat="40.7659641" lon="14.8483932"><ele>645.0</ele><time>2026-03-29T08:49:22.962Z</time></trkpt><trkpt lat="40.7660686" lon="14.8483649"><ele>645.0</ele><time>2026-03-29T08:49:24.036Z</time></trkpt><trkpt lat="40.7661626" lon="14.8483375"><ele>645.0</ele><time>2026-03-29T08:49:25.027Z</time></trkpt><trkpt lat="40.7662365" lon="14.8483007"><ele>645.0</ele><time>2026-03-29T08:49:27.974Z</time></trkpt><trkpt lat="40.7662523" lon="14.8481924"><ele>640.8</ele><time>2026-03-29T08:49:29.997Z</time></trkpt><trkpt lat="40.7662528" lon="14.8481065"><ele>636.6</ele><time>2026-03-29T08:49:30.97Z</time></trkpt><trkpt lat="40.7663163" lon="14.8479783"><ele>632.4</ele><time>2026-03-29T08:49:32.958Z</time></trkpt><trkpt lat="40.7663943" lon="14.8478327"><ele>628.2</ele><time>2026-03-29T08:49:34.968Z</time></trkpt><trkpt lat="40.7664411" lon="14.8477118"><ele>624.0</ele><time>2026-03-29T08:49:35.959Z</time></trkpt><trkpt lat="40.7664791" lon="14.8475799"><ele>623.6666666666666</ele><time>2026-03-29T08:49:36.954Z</time></trkpt><trkpt lat="40.7665054" lon="14.8474353"><ele>623.3333333333334</ele><time>2026-03-29T08:49:37.949Z</time></trkpt><trkpt lat="40.7665334" lon="14.8472999"><ele>623.0</ele><time>2026-03-29T08:49:38.967Z</time></trkpt><trkpt lat="40.7665328" lon="14.8471904"><ele>622.6666666666667</ele><time>2026-03-29T08:49:39.96Z</time></trkpt><trkpt lat="40.7665275" lon="14.8470971"><ele>622.3333333333334</ele><time>2026-03-29T08:49:40.96Z</time></trkpt><trkpt lat="40.7665206" lon="14.8469963"><ele>622.0</ele><time>2026-03-29T08:49:41.954Z</time></trkpt><trkpt lat="40.7664918" lon="14.846888"><ele>622.0</ele><time>2026-03-29T08:49:42.957Z</time></trkpt><trkpt lat="40.7664672" lon="14.8467561"><ele>622.0</ele><time>2026-03-29T08:49:43.957Z</time></trkpt><trkpt lat="40.7664547" lon="14.8466118"><ele>622.0</ele><time>2026-03-29T08:49:44.971Z</time></trkpt><trkpt lat="40.7664564" lon="14.8464814"><ele>622.0</ele><time>2026-03-29T08:49:45.968Z</time></trkpt><trkpt lat="40.7664727" lon="14.8463845"><ele>622.0</ele><time>2026-03-29T08:49:46.969Z</time></trkpt><trkpt lat="40.7664743" lon="14.8463001"><ele>622.0</ele><time>2026-03-29T08:49:48.975Z</time></trkpt><trkpt lat="40.7663992" lon="14.846324"><ele>622.0</ele><time>2026-03-29T08:49:49.968Z</time></trkpt><trkpt lat="40.766293" lon="14.8464269"><ele>622.0</ele><time>2026-03-29T08:49:52.044Z</time></trkpt><trkpt lat="40.7662635" lon="14.8465343"><ele>622.0</ele><time>2026-03-29T08:49:52.964Z</time></trkpt><trkpt lat="40.7662533" lon="14.8466733"><ele>622.0</ele><time>2026-03-29T08:49:53.963Z</time></trkpt><trkpt lat="40.7662743" lon="14.8468228"><ele>622.0</ele><time>2026-03-29T08:49:54.987Z</time></trkpt><trkpt lat="40.7663189" lon="14.8469499"><ele>622.0</ele><time>2026-03-29T08:49:56.026Z</time></trkpt><trkpt lat="40.7663498" lon="14.8470279"><ele>622.0</ele><time>2026-03-29T08:49:57.032Z</time></trkpt><trkpt lat="40.7663834" lon="14.8471133"><ele>622.0</ele><time>2026-03-29T08:49:58.974Z</time></trkpt><trkpt lat="40.7664203" lon="14.8471861"><ele>622.0</ele><time>2026-03-29T08:50:06.972Z</time></trkpt><trkpt lat="40.7664737" lon="14.8471318"><ele>622.0</ele><time>2026-03-29T08:50:09.973Z</time></trkpt><trkpt lat="40.7665341" lon="14.8470582"><ele>622.0</ele><time>2026-03-29T08:50:12.968Z</time></trkpt><trkpt lat="40.7665782" lon="14.8469887"><ele>622.0</ele><time>2026-03-29T08:50:15.97Z</time></trkpt><trkpt lat="40.7665468" lon="14.8468437"><ele>622.0</ele><time>2026-03-29T08:52:24.967Z</time></trkpt><trkpt lat="40.7665261" lon="14.8467384"><ele>622.0</ele><time>2026-03-29T08:52:25.968Z</time></trkpt><trkpt lat="40.7665135" lon="14.8466251"><ele>622.0</ele><time>2026-03-29T08:52:26.97Z</time></trkpt><trkpt lat="40.766512" lon="14.8465316"><ele>622.0</ele><time>2026-03-29T08:52:27.972Z</time></trkpt><trkpt lat="40.7665183" lon="14.8464053"><ele>622.0</ele><time>2026-03-29T08:52:29.965Z</time></trkpt><trkpt lat="40.766453" lon="14.8463901"><ele>622.0</ele><time>2026-03-29T08:52:33.958Z</time></trkpt><trkpt lat="40.7663728" lon="14.8464517"><ele>622.0</ele><time>2026-03-29T08:52:35.966Z</time></trkpt><trkpt lat="40.7662984" lon="14.8465003"><ele>622.0</ele><time>2026-03-29T08:52:37.967Z</time></trkpt><trkpt lat="40.7662537" lon="14.8465862"><ele>622.0</ele><time>2026-03-29T08:52:39.967Z</time></trkpt><trkpt lat="40.7662731" lon="14.8467114"><ele>622.0</ele><time>2026-03-29T08:52:41.961Z</time></trkpt><trkpt lat="40.7663007" lon="14.846804"><ele>622.0</ele><time>2026-03-29T08:52:44.969Z</time></trkpt><trkpt lat="40.7663329" lon="14.8468994"><ele>622.0</ele><time>2026-03-29T08:52:47.968Z</time></trkpt><trkpt lat="40.7663283" lon="14.846993"><ele>622.0</ele><time>2026-03-29T08:52:49.962Z</time></trkpt><trkpt lat="40.7662959" lon="14.8470778"><ele>622.0</ele><time>2026-03-29T08:52:52.971Z</time></trkpt><trkpt lat="40.7662216" lon="14.8470161"><ele>622.0</ele><time>2026-03-29T08:52:54.969Z</time></trkpt><trkpt lat="40.7661678" lon="14.8469487"><ele>622.0</ele><time>2026-03-29T08:52:55.968Z</time></trkpt><trkpt lat="40.7661127" lon="14.8468862"><ele>622.0</ele><time>2026-03-29T08:52:56.97Z</time></trkpt><trkpt lat="40.7661118" lon="14.846791"><ele>622.0</ele><time>2026-03-29T08:52:58.969Z</time></trkpt><trkpt lat="40.7660535" lon="14.8468744"><ele>622.0</ele><time>2026-03-29T08:53:03.965Z</time></trkpt><trkpt lat="40.7660446" lon="14.8469982"><ele>622.0</ele><time>2026-03-29T08:53:04.968Z</time></trkpt><trkpt lat="40.7660718" lon="14.847131"><ele>622.0</ele><time>2026-03-29T08:53:06.967Z</time></trkpt><trkpt lat="40.7660594" lon="14.8472445"><ele>622.0</ele><time>2026-03-29T08:53:08.969Z</time></trkpt><trkpt lat="40.7659888" lon="14.8472496"><ele>624.6</ele><time>2026-03-29T08:53:11.065Z</time></trkpt><trkpt lat="40.7658889" lon="14.8472201"><ele>627.2</ele><time>2026-03-29T08:53:12.969Z</time></trkpt><trkpt lat="40.7657609" lon="14.8471832"><ele>629.8</ele><time>2026-03-29T08:53:14.968Z</time></trkpt><trkpt lat="40.7656909" lon="14.8471662"><ele>632.4</ele><time>2026-03-29T08:53:15.971Z</time></trkpt><trkpt lat="40.7657199" lon="14.8473378"><ele>635.0</ele><time>2026-03-29T08:53:19.028Z</time></trkpt><trkpt lat="40.7657828" lon="14.8474503"><ele>635.0</ele><time>2026-03-29T08:53:20.024Z</time></trkpt><trkpt lat="40.7658345" lon="14.8475428"><ele>635.0</ele><time>2026-03-29T08:53:21.043Z</time></trkpt><trkpt lat="40.7659008" lon="14.8475734"><ele>635.0</ele><time>2026-03-29T08:53:22.966Z</time></trkpt><trkpt lat="40.7659634" lon="14.8475299"><ele>635.0</ele><time>2026-03-29T08:53:24.964Z</time></trkpt><trkpt lat="40.7660414" lon="14.8474175"><ele>635.0</ele><time>2026-03-29T08:53:27.04Z</time></trkpt><trkpt lat="40.7661115" lon="14.8473926"><ele>635.0</ele><time>2026-03-29T08:53:28.97Z</time></trkpt><trkpt lat="40.7661802" lon="14.8474611"><ele>632.25</ele><time>2026-03-29T08:53:30.97Z</time></trkpt><trkpt lat="40.7661883" lon="14.8476552"><ele>629.5</ele><time>2026-03-29T08:53:32.974Z</time></trkpt><trkpt lat="40.7661678" lon="14.847803"><ele>626.75</ele><time>2026-03-29T08:53:34.03Z</time></trkpt><trkpt lat="40.7661357" lon="14.8479449"><ele>624.0</ele><time>2026-03-29T08:53:35.03Z</time></trkpt><trkpt lat="40.7660817" lon="14.8480882"><ele>628.2</ele><time>2026-03-29T08:53:36.035Z</time></trkpt><trkpt lat="40.766016" lon="14.8481794"><ele>632.4</ele><time>2026-03-29T08:53:37.034Z</time></trkpt><trkpt lat="40.7659159" lon="14.8481986"><ele>636.6</ele><time>2026-03-29T08:53:37.97Z</time></trkpt><trkpt lat="40.7658145" lon="14.8481377"><ele>640.8</ele><time>2026-03-29T08:53:38.963Z</time></trkpt><trkpt lat="40.7657538" lon="14.8480381"><ele>645.0</ele><time>2026-03-29T08:53:40.078Z</time></trkpt><trkpt lat="40.7657182" lon="14.8479111"><ele>645.0</ele><time>2026-03-29T08:53:41.031Z</time></trkpt><trkpt lat="40.7657005" lon="14.8477873"><ele>645.0</ele><time>2026-03-29T08:53:42.035Z</time></trkpt><trkpt lat="40.7656949" lon="14.8476506"><ele>645.0</ele><time>2026-03-29T08:53:43.971Z</time></trkpt><trkpt lat="40.7656552" lon="14.8475826"><ele>645.0</ele><time>2026-03-29T08:53:46.97Z</time></trkpt><trkpt lat="40.765564" lon="14.8476276"><ele>645.0</ele><time>2026-03-29T08:53:48.971Z</time></trkpt><trkpt lat="40.7655308" lon="14.8477569"><ele>645.0</ele><time>2026-03-29T08:53:50.966Z</time></trkpt><trkpt lat="40.7655711" lon="14.8478541"><ele>645.0</ele><time>2026-03-29T08:53:51.964Z</time></trkpt><trkpt lat="40.7656481" lon="14.8479981"><ele>645.0</ele><time>2026-03-29T08:53:52.968Z</time></trkpt><trkpt lat="40.7656978" lon="14.8481235"><ele>645.0</ele><time>2026-03-29T08:53:53.966Z</time></trkpt><trkpt lat="40.7657176" lon="14.8482633"><ele>645.0</ele><time>2026-03-29T08:53:55.981Z</time></trkpt><trkpt lat="40.7657297" lon="14.8483874"><ele>645.0</ele><time>2026-03-29T08:53:57.97Z</time></trkpt><trkpt lat="40.7657819" lon="14.8484435"><ele>645.0</ele><time>2026-03-29T08:53:58.964Z</time></trkpt><trkpt lat="40.76587" lon="14.8484653"><ele>645.0</ele><time>2026-03-29T08:53:59.967Z</time></trkpt><trkpt lat="40.7659892" lon="14.848421"><ele>645.0</ele><time>2026-03-29T08:54:00.966Z</time></trkpt><trkpt lat="40.7661076" lon="14.8483693"><ele>645.0</ele><time>2026-03-29T08:54:01.961Z</time></trkpt><trkpt lat="40.7661953" lon="14.8483367"><ele>640.8</ele><time>2026-03-29T08:54:02.969Z</time></trkpt><trkpt lat="40.7662718" lon="14.8483282"><ele>636.6</ele><time>2026-03-29T08:54:05.966Z</time></trkpt><trkpt lat="40.7662795" lon="14.8482375"><ele>632.4</ele><time>2026-03-29T08:54:07.969Z</time></trkpt><trkpt lat="40.7662911" lon="14.8480993"><ele>628.2</ele><time>2026-03-29T08:54:10.027Z</time></trkpt><trkpt lat="40.7663698" lon="14.8479037"><ele>624.0</ele><time>2026-03-29T08:54:11.972Z</time></trkpt><trkpt lat="40.7664155" lon="14.8477505"><ele>623.5</ele><time>2026-03-29T08:54:12.966Z</time></trkpt><trkpt lat="40.7664677" lon="14.8475926"><ele>623.0</ele><time>2026-03-29T08:54:13.967Z</time></trkpt><trkpt lat="40.7665145" lon="14.8474524"><ele>622.5</ele><time>2026-03-29T08:54:14.963Z</time></trkpt><trkpt lat="40.7665617" lon="14.8473192"><ele>622.0</ele><time>2026-03-29T08:54:15.967Z</time></trkpt><trkpt lat="40.766589" lon="14.8471879"><ele>622.0</ele><time>2026-03-29T08:54:17.047Z</time></trkpt><trkpt lat="40.7666056" lon="14.8470761"><ele>622.0</ele><time>2026-03-29T08:54:17.966Z</time></trkpt><trkpt lat="40.7666141" lon="14.8469516"><ele>622.0</ele><time>2026-03-29T08:54:18.961Z</time></trkpt><trkpt lat="40.7665865" lon="14.8468179"><ele>622.0</ele><time>2026-03-29T08:54:19.967Z</time></trkpt><trkpt lat="40.766544" lon="14.8466529"><ele>622.0</ele><time>2026-03-29T08:54:20.964Z</time></trkpt><trkpt lat="40.7665263" lon="14.8465288"><ele>622.0</ele><time>2026-03-29T08:54:21.962Z</time></trkpt><trkpt lat="40.7665092" lon="14.8464182"><ele>622.0</ele><time>2026-03-29T08:54:22.964Z</time></trkpt><trkpt lat="40.7665295" lon="14.8462679"><ele>622.0</ele><time>2026-03-29T08:54:24.991Z</time></trkpt><trkpt lat="40.7664224" lon="14.8462968"><ele>622.0</ele><time>2026-03-29T08:54:28.965Z</time></trkpt><trkpt lat="40.7663598" lon="14.8463581"><ele>622.0</ele><time>2026-03-29T08:54:29.969Z</time></trkpt><trkpt lat="40.7663198" lon="14.8464337"><ele>622.0</ele><time>2026-03-29T08:54:31.067Z</time></trkpt><trkpt lat="40.7662959" lon="14.846536"><ele>622.0</ele><time>2026-03-29T08:54:32.036Z</time></trkpt><trkpt lat="40.7662968" lon="14.8466391"><ele>622.0</ele><time>2026-03-29T08:54:32.965Z</time></trkpt><trkpt lat="40.7663129" lon="14.8467232"><ele>622.0</ele><time>2026-03-29T08:54:33.966Z</time></trkpt><trkpt lat="40.766356" lon="14.8468543"><ele>622.0</ele><time>2026-03-29T08:54:35.966Z</time></trkpt><trkpt lat="40.7663268" lon="14.846976"><ele>622.0</ele><time>2026-03-29T08:54:37.965Z</time></trkpt><trkpt lat="40.7662586" lon="14.8469644"><ele>622.0</ele><time>2026-03-29T08:54:40.02Z</time></trkpt><trkpt lat="40.7661993" lon="14.8469077"><ele>622.0</ele><time>2026-03-29T08:54:41.035Z</time></trkpt><trkpt lat="40.7661505" lon="14.8468266"><ele>622.0</ele><time>2026-03-29T08:54:42.971Z</time></trkpt><trkpt lat="40.7660639" lon="14.8468489"><ele>622.0</ele><time>2026-03-29T08:54:44.97Z</time></trkpt><trkpt lat="40.766014" lon="14.8469478"><ele>622.0</ele><time>2026-03-29T08:54:46.965Z</time></trkpt><trkpt lat="40.7659801" lon="14.8470874"><ele>622.0</ele><time>2026-03-29T08:54:48.978Z</time></trkpt><trkpt lat="40.7659336" lon="14.8472029"><ele>624.1666666666667</ele><time>2026-03-29T08:54:50.97Z</time></trkpt><trkpt lat="40.7658706" lon="14.8471898"><ele>626.3333333333334</ele><time>2026-03-29T08:54:52.03Z</time></trkpt><trkpt lat="40.7657926" lon="14.8471505"><ele>628.5</ele><time>2026-03-29T08:54:52.973Z</time></trkpt><trkpt lat="40.7656903" lon="14.8471395"><ele>630.6666666666666</ele><time>2026-03-29T08:54:54.977Z</time></trkpt><trkpt lat="40.765657" lon="14.8472108"><ele>632.8333333333333</ele><time>2026-03-29T08:54:56.962Z</time></trkpt><trkpt lat="40.7657194" lon="14.847353"><ele>635.0</ele><time>2026-03-29T08:54:58.968Z</time></trkpt><trkpt lat="40.7658163" lon="14.8474053"><ele>635.0</ele><time>2026-03-29T08:55:01.033Z</time></trkpt><trkpt lat="40.7658919" lon="14.8473487"><ele>635.0</ele><time>2026-03-29T08:55:02.036Z</time></trkpt><trkpt lat="40.765977" lon="14.8472558"><ele>635.0</ele><time>2026-03-29T08:55:02.965Z</time></trkpt><trkpt lat="40.7660578" lon="14.8471878"><ele>635.0</ele><time>2026-03-29T08:55:03.961Z</time></trkpt><trkpt lat="40.7661218" lon="14.8471527"><ele>635.0</ele><time>2026-03-29T08:55:04.972Z</time></trkpt><trkpt lat="40.766223" lon="14.8471475"><ele>632.25</ele><time>2026-03-29T08:55:06.972Z</time></trkpt><trkpt lat="40.766249" lon="14.8472667"><ele>629.5</ele><time>2026-03-29T08:55:10.966Z</time></trkpt><trkpt lat="40.7662736" lon="14.8473697"><ele>626.75</ele><time>2026-03-29T08:55:14.083Z</time></trkpt><trkpt lat="40.7661876" lon="14.8475598"><ele>624.0</ele><time>2026-03-29T08:55:15.967Z</time></trkpt><trkpt lat="40.7660864" lon="14.8476698"><ele>628.2</ele><time>2026-03-29T08:55:16.963Z</time></trkpt><trkpt lat="40.7659529" lon="14.8478038"><ele>632.4</ele><time>2026-03-29T08:55:17.966Z</time></trkpt><trkpt lat="40.7658423" lon="14.8478582"><ele>636.6</ele><time>2026-03-29T08:55:18.96Z</time></trkpt><trkpt lat="40.7657687" lon="14.8478041"><ele>640.8</ele><time>2026-03-29T08:55:20.036Z</time></trkpt><trkpt lat="40.7657268" lon="14.8477311"><ele>645.0</ele><time>2026-03-29T08:55:21.027Z</time></trkpt><trkpt lat="40.7656638" lon="14.8476332"><ele>645.0</ele><time>2026-03-29T08:55:22.965Z</time></trkpt><trkpt lat="40.765611" lon="14.8475541"><ele>645.0</ele><time>2026-03-29T08:55:25.968Z</time></trkpt><trkpt lat="40.7655339" lon="14.847577"><ele>645.0</ele><time>2026-03-29T08:55:27.968Z</time></trkpt><trkpt lat="40.7655244" lon="14.8476601"><ele>645.0</ele><time>2026-03-29T08:55:28.967Z</time></trkpt><trkpt lat="40.7655481" lon="14.847776"><ele>645.0</ele><time>2026-03-29T08:55:29.959Z</time></trkpt><trkpt lat="40.7656027" lon="14.8479142"><ele>645.0</ele><time>2026-03-29T08:55:30.972Z</time></trkpt><trkpt lat="40.7656703" lon="14.8480598"><ele>645.0</ele><time>2026-03-29T08:55:31.963Z</time></trkpt><trkpt lat="40.7657373" lon="14.8481843"><ele>645.0</ele><time>2026-03-29T08:55:32.958Z</time></trkpt><trkpt lat="40.7657673" lon="14.8482744"><ele>645.0</ele><time>2026-03-29T08:55:33.968Z</time></trkpt><trkpt lat="40.7657454" lon="14.8484012"><ele>645.0</ele><time>2026-03-29T08:55:35.968Z</time></trkpt><trkpt lat="40.7658133" lon="14.8484665"><ele>645.0</ele><time>2026-03-29T08:55:37.97Z</time></trkpt><trkpt lat="40.7659266" lon="14.8484515"><ele>640.8</ele><time>2026-03-29T08:55:38.971Z</time></trkpt><trkpt lat="40.766054" lon="14.8484018"><ele>636.6</ele><time>2026-03-29T08:55:39.968Z</time></trkpt><trkpt lat="40.7661646" lon="14.8483431"><ele>632.4</ele><time>2026-03-29T08:55:40.979Z</time></trkpt><trkpt lat="40.7662347" lon="14.8483107"><ele>628.2</ele><time>2026-03-29T08:55:41.967Z</time></trkpt><trkpt lat="40.7662486" lon="14.8481758"><ele>624.0</ele><time>2026-03-29T08:55:45.972Z</time></trkpt><trkpt lat="40.766262" lon="14.8480627"><ele>624.0</ele><time>2026-03-29T08:55:47.969Z</time></trkpt><trkpt lat="40.7663153" lon="14.8480122"><ele>624.0</ele><time>2026-03-29T08:55:48.973Z</time></trkpt><trkpt lat="40.766374" lon="14.8479424"><ele>624.0</ele><time>2026-03-29T08:55:49.97Z</time></trkpt><trkpt lat="40.766427" lon="14.8478357"><ele>624.0</ele><time>2026-03-29T08:55:50.97Z</time></trkpt><trkpt lat="40.7664751" lon="14.847696"><ele>624.0</ele><time>2026-03-29T08:55:51.963Z</time></trkpt><trkpt lat="40.766523" lon="14.8475552"><ele>623.6</ele><time>2026-03-29T08:55:52.963Z</time></trkpt><trkpt lat="40.7665626" lon="14.847417"><ele>623.2</ele><time>2026-03-29T08:55:53.963Z</time></trkpt><trkpt lat="40.7665847" lon="14.8472818"><ele>622.8000000000001</ele><time>2026-03-29T08:55:54.965Z</time></trkpt><trkpt lat="40.7665905" lon="14.8471602"><ele>622.4</ele><time>2026-03-29T08:55:55.967Z</time></trkpt><trkpt lat="40.766583" lon="14.8470282"><ele>622.0</ele><time>2026-03-29T08:55:56.965Z</time></trkpt><trkpt lat="40.7665542" lon="14.8468666"><ele>622.0</ele><time>2026-03-29T08:55:57.96Z</time></trkpt><trkpt lat="40.7665174" lon="14.8466974"><ele>622.0</ele><time>2026-03-29T08:55:58.964Z</time></trkpt><trkpt lat="40.7664926" lon="14.8465427"><ele>622.0</ele><time>2026-03-29T08:55:59.964Z</time></trkpt><trkpt lat="40.7665039" lon="14.8464391"><ele>622.0</ele><time>2026-03-29T08:56:00.96Z</time></trkpt><trkpt lat="40.7665337" lon="14.8463227"><ele>622.0</ele><time>2026-03-29T08:56:02.964Z</time></trkpt><trkpt lat="40.7664277" lon="14.8463363"><ele>622.0</ele><time>2026-03-29T08:56:04.969Z</time></trkpt><trkpt lat="40.7663644" lon="14.8464064"><ele>622.0</ele><time>2026-03-29T08:56:05.97Z</time></trkpt><trkpt lat="40.766315" lon="14.8464974"><ele>622.0</ele><time>2026-03-29T08:56:06.966Z</time></trkpt><trkpt lat="40.766299" lon="14.8466111"><ele>622.0</ele><time>2026-03-29T08:56:07.96Z</time></trkpt><trkpt lat="40.766316" lon="14.8467541"><ele>622.0</ele><time>2026-03-29T08:56:08.975Z</time></trkpt><trkpt lat="40.7663435" lon="14.8468847"><ele>622.0</ele><time>2026-03-29T08:56:09.958Z</time></trkpt><trkpt lat="40.7663804" lon="14.8469856"><ele>622.0</ele><time>2026-03-29T08:56:10.964Z</time></trkpt><trkpt lat="40.7663997" lon="14.8470785"><ele>622.0</ele><time>2026-03-29T08:56:11.963Z</time></trkpt><trkpt lat="40.7663617" lon="14.8471976"><ele>622.0</ele><time>2026-03-29T08:56:13.961Z</time></trkpt><trkpt lat="40.7662799" lon="14.8472266"><ele>622.0</ele><time>2026-03-29T08:56:15.968Z</time></trkpt><trkpt lat="40.7661844" lon="14.8470956"><ele>622.0</ele><time>2026-03-29T08:56:17.967Z</time></trkpt><trkpt lat="40.7661439" lon="14.8469942"><ele>622.0</ele><time>2026-03-29T08:56:18.965Z</time></trkpt><trkpt lat="40.7661444" lon="14.8468975"><ele>622.0</ele><time>2026-03-29T08:56:19.968Z</time></trkpt><trkpt lat="40.7660824" lon="14.8470169"><ele>622.0</ele><time>2026-03-29T08:56:25.967Z</time></trkpt><trkpt lat="40.7660194" lon="14.8471386"><ele>622.0</ele><time>2026-03-29T08:56:27.969Z</time></trkpt><trkpt lat="40.7658944" lon="14.8471583"><ele>624.1666666666667</ele><time>2026-03-29T08:56:29.963Z</time></trkpt><trkpt lat="40.76582" lon="14.8471426"><ele>626.3333333333334</ele><time>2026-03-29T08:56:30.971Z</time></trkpt><trkpt lat="40.7657518" lon="14.8471189"><ele>628.5</ele><time>2026-03-29T08:56:31.964Z</time></trkpt><trkpt lat="40.7656541" lon="14.8471254"><ele>630.6666666666666</ele><time>2026-03-29T08:56:33.973Z</time></trkpt><trkpt lat="40.7656803" lon="14.8472383"><ele>632.8333333333333</ele><time>2026-03-29T08:56:35.969Z</time></trkpt><trkpt lat="40.7657377" lon="14.8473411"><ele>635.0</ele><time>2026-03-29T08:56:37.04Z</time></trkpt><trkpt lat="40.7657962" lon="14.8474416"><ele>635.0</ele><time>2026-03-29T08:56:37.968Z</time></trkpt><trkpt lat="40.7658442" lon="14.8475076"><ele>635.0</ele><time>2026-03-29T08:56:38.968Z</time></trkpt><trkpt lat="40.7659486" lon="14.8474206"><ele>635.0</ele><time>2026-03-29T08:56:41.037Z</time></trkpt><trkpt lat="40.766021" lon="14.847329"><ele>635.0</ele><time>2026-03-29T08:56:42.028Z</time></trkpt><trkpt lat="40.7660802" lon="14.8472545"><ele>635.0</ele><time>2026-03-29T08:56:42.965Z</time></trkpt><trkpt lat="40.7661805" lon="14.8472294"><ele>633.1666666666666</ele><time>2026-03-29T08:56:44.969Z</time></trkpt><trkpt lat="40.7662412" lon="14.8473015"><ele>631.3333333333333</ele><time>2026-03-29T08:56:46.958Z</time></trkpt><trkpt lat="40.7662409" lon="14.8474295"><ele>629.5</ele><time>2026-03-29T08:56:48.991Z</time></trkpt><trkpt lat="40.7662334" lon="14.8475296"><ele>627.6666666666666</ele><time>2026-03-29T08:56:50.033Z</time></trkpt><trkpt lat="40.766222" lon="14.847646"><ele>625.8333333333334</ele><time>2026-03-29T08:56:50.965Z</time></trkpt><trkpt lat="40.7661989" lon="14.8477721"><ele>624.0</ele><time>2026-03-29T08:56:51.97Z</time></trkpt><trkpt lat="40.7661714" lon="14.8478921"><ele>624.0</ele><time>2026-03-29T08:56:52.96Z</time></trkpt><trkpt lat="40.7661358" lon="14.8480114"><ele>624.0</ele><time>2026-03-29T08:56:53.968Z</time></trkpt><trkpt lat="40.7660864" lon="14.8481142"><ele>624.0</ele><time>2026-03-29T08:56:54.962Z</time></trkpt><trkpt lat="40.7660167" lon="14.8481717"><ele>624.0</ele><time>2026-03-29T08:56:55.969Z</time></trkpt><trkpt lat="40.7659271" lon="14.848137"><ele>624.0</ele><time>2026-03-29T08:56:57.027Z</time></trkpt><trkpt lat="40.7658287" lon="14.8480441"><ele>625.8333333333334</ele><time>2026-03-29T08:56:57.963Z</time></trkpt><trkpt lat="40.7657418" lon="14.8479416"><ele>627.6666666666666</ele><time>2026-03-29T08:56:59.032Z</time></trkpt><trkpt lat="40.7656886" lon="14.8478511"><ele>629.5</ele><time>2026-03-29T08:56:59.967Z</time></trkpt><trkpt lat="40.7656531" lon="14.8477801"><ele>631.3333333333333</ele><time>2026-03-29T08:57:00.969Z</time></trkpt><trkpt lat="40.7656093" lon="14.8476774"><ele>633.1666666666666</ele><time>2026-03-29T08:57:02.966Z</time></trkpt><trkpt lat="40.7656016" lon="14.8475878"><ele>635.0</ele><time>2026-03-29T08:57:05.969Z</time></trkpt><trkpt lat="40.7655311" lon="14.8475832"><ele>637.0</ele><time>2026-03-29T08:57:07.964Z</time></trkpt><trkpt lat="40.7654881" lon="14.8476872"><ele>639.0</ele><time>2026-03-29T08:57:09.967Z</time></trkpt><trkpt lat="40.765529" lon="14.8477986"><ele>641.0</ele><time>2026-03-29T08:57:10.974Z</time></trkpt><trkpt lat="40.7656032" lon="14.8479429"><ele>643.0</ele><time>2026-03-29T08:57:11.963Z</time></trkpt><trkpt lat="40.7656756" lon="14.8480888"><ele>645.0</ele><time>2026-03-29T08:57:12.963Z</time></trkpt><trkpt lat="40.7657214" lon="14.848208"><ele>645.0</ele><time>2026-03-29T08:57:13.962Z</time></trkpt><trkpt lat="40.7657401" lon="14.8482941"><ele>645.0</ele><time>2026-03-29T08:57:14.968Z</time></trkpt><trkpt lat="40.7657419" lon="14.8483995"><ele>645.0</ele><time>2026-03-29T08:57:16.967Z</time></trkpt><trkpt lat="40.765885" lon="14.8484265"><ele>645.0</ele><time>2026-03-29T08:57:18.968Z</time></trkpt><trkpt lat="40.7659958" lon="14.8484103"><ele>645.0</ele><time>2026-03-29T08:57:19.97Z</time></trkpt><trkpt lat="40.7661209" lon="14.8483675"><ele>640.8</ele><time>2026-03-29T08:57:20.974Z</time></trkpt><trkpt lat="40.7662234" lon="14.8483336"><ele>636.6</ele><time>2026-03-29T08:57:21.972Z</time></trkpt><trkpt lat="40.7662558" lon="14.8482279"><ele>632.4</ele><time>2026-03-29T08:57:26.969Z</time></trkpt><trkpt lat="40.7662447" lon="14.848092"><ele>628.2</ele><time>2026-03-29T08:57:28.969Z</time></trkpt><trkpt lat="40.7663478" lon="14.8479673"><ele>624.0</ele><time>2026-03-29T08:57:30.965Z</time></trkpt><trkpt lat="40.7664023" lon="14.8478795"><ele>624.0</ele><time>2026-03-29T08:57:31.966Z</time></trkpt><trkpt lat="40.766448" lon="14.8477672"><ele>624.0</ele><time>2026-03-29T08:57:32.967Z</time></trkpt><trkpt lat="40.7664867" lon="14.847639"><ele>624.0</ele><time>2026-03-29T08:57:33.964Z</time></trkpt><trkpt lat="40.7665241" lon="14.8474909"><ele>624.0</ele><time>2026-03-29T08:57:34.966Z</time></trkpt><trkpt lat="40.7665584" lon="14.8473487"><ele>624.0</ele><time>2026-03-29T08:57:35.968Z</time></trkpt><trkpt lat="40.766575" lon="14.8472319"><ele>623.6</ele><time>2026-03-29T08:57:36.975Z</time></trkpt><trkpt lat="40.7665847" lon="14.84714"><ele>623.2</ele><time>2026-03-29T08:57:37.967Z</time></trkpt><trkpt lat="40.7666238" lon="14.8470081"><ele>622.8000000000001</ele><time>2026-03-29T08:57:39.966Z</time></trkpt><trkpt lat="40.7666385" lon="14.8471699"><ele>622.4</ele><time>2026-03-29T09:03:12.035Z</time></trkpt><trkpt lat="40.7666662" lon="14.8472798"><ele>622.0</ele><time>2026-03-29T09:03:12.968Z</time></trkpt><trkpt lat="40.7666844" lon="14.8473849"><ele>622.0</ele><time>2026-03-29T09:03:13.967Z</time></trkpt><trkpt lat="40.7667125" lon="14.8474837"><ele>622.0</ele><time>2026-03-29T09:03:14.967Z</time></trkpt><trkpt lat="40.7667389" lon="14.8475921"><ele>622.0</ele><time>2026-03-29T09:03:15.966Z</time></trkpt><trkpt lat="40.7667614" lon="14.8477155"><ele>622.0</ele><time>2026-03-29T09:03:16.967Z</time></trkpt><trkpt lat="40.7667739" lon="14.8478583"><ele>622.0</ele><time>2026-03-29T09:03:17.968Z</time></trkpt><trkpt lat="40.766781" lon="14.8480223"><ele>622.4</ele><time>2026-03-29T09:03:18.983Z</time></trkpt><trkpt lat="40.7667942" lon="14.8481852"><ele>622.8000000000001</ele><time>2026-03-29T09:03:19.984Z</time></trkpt><trkpt lat="40.7668071" lon="14.8483346"><ele>623.2</ele><time>2026-03-29T09:03:20.967Z</time></trkpt><trkpt lat="40.7668147" lon="14.8484606"><ele>623.6</ele><time>2026-03-29T09:03:22.03Z</time></trkpt><trkpt lat="40.7668257" lon="14.8485698"><ele>624.0</ele><time>2026-03-29T09:03:22.966Z</time></trkpt><trkpt lat="40.7668463" lon="14.8486828"><ele>625.8</ele><time>2026-03-29T09:03:23.972Z</time></trkpt><trkpt lat="40.7668693" lon="14.8487922"><ele>627.5999999999999</ele><time>2026-03-29T09:03:24.965Z</time></trkpt><trkpt lat="40.7668726" lon="14.8488962"><ele>629.4</ele><time>2026-03-29T09:03:26.969Z</time></trkpt><trkpt lat="40.7668838" lon="14.8489797"><ele>631.1999999999999</ele><time>2026-03-29T09:03:28.999Z</time></trkpt><trkpt lat="40.7669252" lon="14.8491077"><ele>633.0</ele><time>2026-03-29T09:03:30.969Z</time></trkpt><trkpt lat="40.7669457" lon="14.8492627"><ele>635.0</ele><time>2026-03-29T09:03:32.959Z</time></trkpt><trkpt lat="40.7669281" lon="14.8494131"><ele>637.0</ele><time>2026-03-29T09:03:34.966Z</time></trkpt><trkpt lat="40.7669278" lon="14.8494974"><ele>639.0</ele><time>2026-03-29T09:03:35.97Z</time></trkpt><trkpt lat="40.7669226" lon="14.8496546"><ele>641.0</ele><time>2026-03-29T09:03:37.968Z</time></trkpt><trkpt lat="40.7669074" lon="14.8497738"><ele>643.0</ele><time>2026-03-29T09:03:39.972Z</time></trkpt><trkpt lat="40.7668924" lon="14.8498713"><ele>643.0</ele><time>2026-03-29T09:03:41.962Z</time></trkpt><trkpt lat="40.7668655" lon="14.8500091"><ele>643.0</ele><time>2026-03-29T09:03:43.964Z</time></trkpt><trkpt lat="40.7668835" lon="14.8501919"><ele>643.0</ele><time>2026-03-29T09:03:46.042Z</time></trkpt><trkpt lat="40.7669072" lon="14.8502758"><ele>643.0</ele><time>2026-03-29T09:03:47.039Z</time></trkpt><trkpt lat="40.7669375" lon="14.8503529"><ele>643.0</ele><time>2026-03-29T09:03:47.968Z</time></trkpt><trkpt lat="40.7669625" lon="14.8504447"><ele>644.5999999999999</ele><time>2026-03-29T09:03:48.968Z</time></trkpt><trkpt lat="40.7669844" lon="14.8505409"><ele>646.1999999999999</ele><time>2026-03-29T09:03:49.968Z</time></trkpt><trkpt lat="40.7670121" lon="14.8506298"><ele>647.8</ele><time>2026-03-29T09:03:50.966Z</time></trkpt><trkpt lat="40.7670464" lon="14.8507151"><ele>649.4</ele><time>2026-03-29T09:03:51.971Z</time></trkpt><trkpt lat="40.7670951" lon="14.8508505"><ele>651.0</ele><time>2026-03-29T09:03:54.042Z</time></trkpt><trkpt lat="40.7671691" lon="14.8509765"><ele>652.0</ele><time>2026-03-29T09:03:55.966Z</time></trkpt><trkpt lat="40.7672278" lon="14.8510482"><ele>653.0</ele><time>2026-03-29T09:03:57.967Z</time></trkpt><trkpt lat="40.7672951" lon="14.8510814"><ele>654.0</ele><time>2026-03-29T09:03:59.965Z</time></trkpt><trkpt lat="40.7674278" lon="14.8511389"><ele>655.0</ele><time>2026-03-29T09:04:01.967Z</time></trkpt><trkpt lat="40.7674976" lon="14.8511909"><ele>656.0</ele><time>2026-03-29T09:04:02.966Z</time></trkpt><trkpt lat="40.7675494" lon="14.8512637"><ele>657.0</ele><time>2026-03-29T09:04:03.968Z</time></trkpt><trkpt lat="40.7675934" lon="14.8513274"><ele>657.0</ele><time>2026-03-29T09:04:05.03Z</time></trkpt><trkpt lat="40.7676547" lon="14.8514497"><ele>657.0</ele><time>2026-03-29T09:04:07.038Z</time></trkpt><trkpt lat="40.7676823" lon="14.8515893"><ele>657.0</ele><time>2026-03-29T09:04:08.969Z</time></trkpt><trkpt lat="40.767676" lon="14.8516735"><ele>657.0</ele><time>2026-03-29T09:04:09.976Z</time></trkpt><trkpt lat="40.7676523" lon="14.8517842"><ele>657.0</ele><time>2026-03-29T09:04:10.972Z</time></trkpt><trkpt lat="40.7676191" lon="14.8519234"><ele>659.0</ele><time>2026-03-29T09:04:11.964Z</time></trkpt><trkpt lat="40.7675804" lon="14.8520633"><ele>661.0</ele><time>2026-03-29T09:04:12.969Z</time></trkpt><trkpt lat="40.767538" lon="14.8521898"><ele>663.0</ele><time>2026-03-29T09:04:14.046Z</time></trkpt><trkpt lat="40.7674923" lon="14.8523118"><ele>665.0</ele><time>2026-03-29T09:04:15.034Z</time></trkpt><trkpt lat="40.7674557" lon="14.8524319"><ele>667.0</ele><time>2026-03-29T09:04:16.034Z</time></trkpt><trkpt lat="40.7674243" lon="14.8525605"><ele>668.0</ele><time>2026-03-29T09:04:17.035Z</time></trkpt><trkpt lat="40.7674004" lon="14.8526894"><ele>669.0</ele><time>2026-03-29T09:04:17.968Z</time></trkpt><trkpt lat="40.7673917" lon="14.8527996"><ele>670.0</ele><time>2026-03-29T09:04:18.964Z</time></trkpt><trkpt lat="40.7673888" lon="14.8528964"><ele>671.0</ele><time>2026-03-29T09:04:20.082Z</time></trkpt><trkpt lat="40.7674347" lon="14.8530337"><ele>672.0</ele><time>2026-03-29T09:04:22.03Z</time></trkpt><trkpt lat="40.7674932" lon="14.8530861"><ele>673.0</ele><time>2026-03-29T09:04:22.972Z</time></trkpt><trkpt lat="40.7675663" lon="14.8531462"><ele>673.0</ele><time>2026-03-29T09:04:23.972Z</time></trkpt><trkpt lat="40.7676517" lon="14.8532084"><ele>673.0</ele><time>2026-03-29T09:04:24.992Z</time></trkpt><trkpt lat="40.767733" lon="14.8532933"><ele>673.0</ele><time>2026-03-29T09:04:26.041Z</time></trkpt><trkpt lat="40.7678164" lon="14.853377"><ele>673.0</ele><time>2026-03-29T09:04:27.043Z</time></trkpt><trkpt lat="40.7678986" lon="14.8534583"><ele>673.0</ele><time>2026-03-29T09:04:27.969Z</time></trkpt><trkpt lat="40.7679786" lon="14.8535309"><ele>673.4</ele><time>2026-03-29T09:04:28.964Z</time></trkpt><trkpt lat="40.7680569" lon="14.8535901"><ele>673.8</ele><time>2026-03-29T09:04:30.069Z</time></trkpt><trkpt lat="40.7682259" lon="14.8536674"><ele>674.2</ele><time>2026-03-29T09:04:32.04Z</time></trkpt><trkpt lat="40.7683074" lon="14.8536918"><ele>674.6</ele><time>2026-03-29T09:04:32.969Z</time></trkpt><trkpt lat="40.7683883" lon="14.8537009"><ele>675.0</ele><time>2026-03-29T09:04:35.077Z</time></trkpt><trkpt lat="40.768392" lon="14.8538204"><ele>675.0</ele><time>2026-03-29T09:04:40.053Z</time></trkpt><trkpt lat="40.7683654" lon="14.8539935"><ele>675.0</ele><time>2026-03-29T09:04:41.965Z</time></trkpt><trkpt lat="40.7683677" lon="14.8541034"><ele>675.0</ele><time>2026-03-29T09:04:43.968Z</time></trkpt><trkpt lat="40.7683745" lon="14.8542374"><ele>675.0</ele><time>2026-03-29T09:04:50.972Z</time></trkpt><trkpt lat="40.7683595" lon="14.8543488"><ele>675.0</ele><time>2026-03-29T09:04:53.978Z</time></trkpt><trkpt lat="40.768337" lon="14.854448"><ele>672.4285714285714</ele><time>2026-03-29T09:04:56.973Z</time></trkpt><trkpt lat="40.7683085" lon="14.8545372"><ele>669.8571428571429</ele><time>2026-03-29T09:05:00.039Z</time></trkpt><trkpt lat="40.7682825" lon="14.8546266"><ele>667.2857142857142</ele><time>2026-03-29T09:05:03.97Z</time></trkpt><trkpt lat="40.7682865" lon="14.8547473"><ele>664.7142857142858</ele><time>2026-03-29T09:05:06.974Z</time></trkpt><trkpt lat="40.7682994" lon="14.8548328"><ele>662.1428571428572</ele><time>2026-03-29T09:05:10.012Z</time></trkpt><trkpt lat="40.7682929" lon="14.8549195"><ele>659.5714285714286</ele><time>2026-03-29T09:05:12.97Z</time></trkpt><trkpt lat="40.7682282" lon="14.8549733"><ele>657.0</ele><time>2026-03-29T09:05:18.968Z</time></trkpt><trkpt lat="40.7681508" lon="14.8549993"><ele>657.0</ele><time>2026-03-29T09:05:21.965Z</time></trkpt><trkpt lat="40.7681252" lon="14.8550934"><ele>657.0</ele><time>2026-03-29T09:05:30.038Z</time></trkpt><trkpt lat="40.7681503" lon="14.855175"><ele>657.0</ele><time>2026-03-29T09:05:36.967Z</time></trkpt><trkpt lat="40.7681668" lon="14.8552836"><ele>657.0</ele><time>2026-03-29T09:05:48.966Z</time></trkpt><trkpt lat="40.7681869" lon="14.8553772"><ele>657.0</ele><time>2026-03-29T09:05:51.967Z</time></trkpt><trkpt lat="40.7682068" lon="14.8554689"><ele>657.0</ele><time>2026-03-29T09:05:56.039Z</time></trkpt><trkpt lat="40.7682338" lon="14.8555853"><ele>652.0</ele><time>2026-03-29T09:06:00.968Z</time></trkpt><trkpt lat="40.7682521" lon="14.8556734"><ele>647.0</ele><time>2026-03-29T09:06:02.965Z</time></trkpt><trkpt lat="40.768241" lon="14.8557813"><ele>642.0</ele><time>2026-03-29T09:06:04.969Z</time></trkpt><trkpt lat="40.7682184" lon="14.8559362"><ele>637.0</ele><time>2026-03-29T09:06:06.958Z</time></trkpt><trkpt lat="40.7681927" lon="14.8560367"><ele>632.0</ele><time>2026-03-29T09:06:07.969Z</time></trkpt><trkpt lat="40.768158" lon="14.8561641"><ele>625.6666666666666</ele><time>2026-03-29T09:06:08.955Z</time></trkpt><trkpt lat="40.7681241" lon="14.8562982"><ele>619.3333333333334</ele><time>2026-03-29T09:06:09.956Z</time></trkpt><trkpt lat="40.7680968" lon="14.8564424"><ele>613.0</ele><time>2026-03-29T09:06:10.951Z</time></trkpt><trkpt lat="40.7679928" lon="14.8567326"><ele>608.5</ele><time>2026-03-29T09:06:12.959Z</time></trkpt><trkpt lat="40.7679566" lon="14.8568577"><ele>604.0</ele><time>2026-03-29T09:06:13.962Z</time></trkpt><trkpt lat="40.7679133" lon="14.8569425"><ele>599.5</ele><time>2026-03-29T09:06:15.953Z</time></trkpt><trkpt lat="40.7679812" lon="14.8569457"><ele>595.0</ele><time>2026-03-29T09:06:27.952Z</time></trkpt><trkpt lat="40.7680496" lon="14.8569799"><ele>590.5</ele><time>2026-03-29T09:06:29.96Z</time></trkpt><trkpt lat="40.768121" lon="14.8570348"><ele>586.0</ele><time>2026-03-29T09:06:31.955Z</time></trkpt><trkpt lat="40.7681964" lon="14.8570889"><ele>586.0</ele><time>2026-03-29T09:06:33.965Z</time></trkpt><trkpt lat="40.7682612" lon="14.8571365"><ele>586.0</ele><time>2026-03-29T09:06:35.965Z</time></trkpt><trkpt lat="40.7683206" lon="14.8571934"><ele>586.0</ele><time>2026-03-29T09:06:37.97Z</time></trkpt><trkpt lat="40.768372" lon="14.8572634"><ele>586.0</ele><time>2026-03-29T09:06:39.97Z</time></trkpt><trkpt lat="40.7684303" lon="14.857324"><ele>586.0</ele><time>2026-03-29T09:06:41.965Z</time></trkpt><trkpt lat="40.7685142" lon="14.8572923"><ele>586.0</ele><time>2026-03-29T09:06:45.969Z</time></trkpt><trkpt lat="40.7686139" lon="14.8573337"><ele>583.8333333333334</ele><time>2026-03-29T09:06:47.974Z</time></trkpt><trkpt lat="40.768682" lon="14.8573902"><ele>581.6666666666667</ele><time>2026-03-29T09:06:48.968Z</time></trkpt><trkpt lat="40.7687427" lon="14.8574582"><ele>579.5</ele><time>2026-03-29T09:06:49.965Z</time></trkpt><trkpt lat="40.7688199" lon="14.8575403"><ele>577.3333333333334</ele><time>2026-03-29T09:06:51.967Z</time></trkpt><trkpt lat="40.768878" lon="14.8576456"><ele>575.1666666666666</ele><time>2026-03-29T09:06:54.969Z</time></trkpt><trkpt lat="40.7689242" lon="14.8577351"><ele>573.0</ele><time>2026-03-29T09:06:57.976Z</time></trkpt><trkpt lat="40.7689848" lon="14.857791"><ele>573.0</ele><time>2026-03-29T09:06:59.967Z</time></trkpt><trkpt lat="40.7690268" lon="14.8578619"><ele>573.0</ele><time>2026-03-29T09:07:02.966Z</time></trkpt><trkpt lat="40.7690625" lon="14.8579816"><ele>573.0</ele><time>2026-03-29T09:13:29.961Z</time></trkpt><trkpt lat="40.7690785" lon="14.8580693"><ele>573.0</ele><time>2026-03-29T09:13:31.961Z</time></trkpt><trkpt lat="40.7691132" lon="14.8581626"><ele>573.0</ele><time>2026-03-29T09:13:33.96Z</time></trkpt><trkpt lat="40.76913" lon="14.8582469"><ele>573.0</ele><time>2026-03-29T09:13:35.96Z</time></trkpt><trkpt lat="40.7690795" lon="14.8583182"><ele>573.0</ele><time>2026-03-29T09:13:38.993Z</time></trkpt><trkpt lat="40.7690158" lon="14.8583301"><ele>573.0</ele><time>2026-03-29T09:13:41.009Z</time></trkpt><trkpt lat="40.7689417" lon="14.8583142"><ele>573.0</ele><time>2026-03-29T09:13:42.957Z</time></trkpt><trkpt lat="40.7688727" lon="14.8583668"><ele>573.0</ele><time>2026-03-29T09:13:45.964Z</time></trkpt><trkpt lat="40.7689193" lon="14.8584604"><ele>573.0</ele><time>2026-03-29T09:13:48.959Z</time></trkpt><trkpt lat="40.7689912" lon="14.8585154"><ele>573.0</ele><time>2026-03-29T09:13:50.958Z</time></trkpt><trkpt lat="40.7690806" lon="14.8586032"><ele>572.5</ele><time>2026-03-29T09:13:53.005Z</time></trkpt><trkpt lat="40.7691288" lon="14.8586651"><ele>572.0</ele><time>2026-03-29T09:13:55.954Z</time></trkpt><trkpt lat="40.7691383" lon="14.8587671"><ele>571.5</ele><time>2026-03-29T09:15:09.953Z</time></trkpt><trkpt lat="40.7690992" lon="14.8588448"><ele>571.0</ele><time>2026-03-29T09:15:11.948Z</time></trkpt><trkpt lat="40.7690393" lon="14.8589087"><ele>570.5</ele><time>2026-03-29T09:15:13.948Z</time></trkpt><trkpt lat="40.7689553" lon="14.8589525"><ele>570.0</ele><time>2026-03-29T09:15:15.95Z</time></trkpt><trkpt lat="40.7688621" lon="14.8589945"><ele>570.0</ele><time>2026-03-29T09:15:17.95Z</time></trkpt><trkpt lat="40.7687639" lon="14.8590418"><ele>570.0</ele><time>2026-03-29T09:15:19.95Z</time></trkpt><trkpt lat="40.7686926" lon="14.859067"><ele>570.0</ele><time>2026-03-29T09:15:21.945Z</time></trkpt><trkpt lat="40.7686479" lon="14.8591387"><ele>570.0</ele><time>2026-03-29T09:15:23.947Z</time></trkpt><trkpt lat="40.7686372" lon="14.8593251"><ele>570.0</ele><time>2026-03-29T09:15:25.949Z</time></trkpt><trkpt lat="40.7686234" lon="14.8594651"><ele>566.6666666666666</ele><time>2026-03-29T09:15:26.945Z</time></trkpt><trkpt lat="40.7686199" lon="14.8596059"><ele>563.3333333333334</ele><time>2026-03-29T09:15:27.95Z</time></trkpt><trkpt lat="40.7686232" lon="14.8597088"><ele>560.0</ele><time>2026-03-29T09:15:28.948Z</time></trkpt><trkpt lat="40.7685821" lon="14.8597974"><ele>556.6666666666667</ele><time>2026-03-29T09:15:29.953Z</time></trkpt><trkpt lat="40.7685538" lon="14.859884"><ele>553.3333333333334</ele><time>2026-03-29T09:15:30.957Z</time></trkpt><trkpt lat="40.7685242" lon="14.8599808"><ele>550.0</ele><time>2026-03-29T09:15:31.952Z</time></trkpt><trkpt lat="40.7685026" lon="14.860082"><ele>552.7142857142858</ele><time>2026-03-29T09:15:32.952Z</time></trkpt><trkpt lat="40.7684817" lon="14.860175"><ele>555.4285714285714</ele><time>2026-03-29T09:15:33.945Z</time></trkpt><trkpt lat="40.7684516" lon="14.8602507"><ele>558.1428571428571</ele><time>2026-03-29T09:15:34.946Z</time></trkpt><trkpt lat="40.7684199" lon="14.8603332"><ele>560.8571428571429</ele><time>2026-03-29T09:15:35.95Z</time></trkpt><trkpt lat="40.7683739" lon="14.8604206"><ele>563.5714285714286</ele><time>2026-03-29T09:15:36.951Z</time></trkpt><trkpt lat="40.768328" lon="14.8605019"><ele>566.2857142857143</ele><time>2026-03-29T09:15:37.948Z</time></trkpt><trkpt lat="40.7682811" lon="14.8605662"><ele>569.0</ele><time>2026-03-29T09:15:38.952Z</time></trkpt><trkpt lat="40.7682237" lon="14.8606173"><ele>569.0000000000001</ele><time>2026-03-29T09:15:39.951Z</time></trkpt><trkpt lat="40.7681664" lon="14.8606653"><ele>569.0</ele><time>2026-03-29T09:15:40.95Z</time></trkpt><trkpt lat="40.768106" lon="14.8607311"><ele>569.0</ele><time>2026-03-29T09:15:41.955Z</time></trkpt><trkpt lat="40.7680548" lon="14.8607879"><ele>569.0</ele><time>2026-03-29T09:15:42.95Z</time></trkpt><trkpt lat="40.7680015" lon="14.8608404"><ele>569.0</ele><time>2026-03-29T09:15:43.948Z</time></trkpt><trkpt lat="40.7679545" lon="14.8608977"><ele>569.0000000000001</ele><time>2026-03-29T09:15:44.945Z</time></trkpt><trkpt lat="40.7679023" lon="14.8609554"><ele>569.0</ele><time>2026-03-29T09:15:45.951Z</time></trkpt><trkpt lat="40.767856" lon="14.8610134"><ele>565.8333333333333</ele><time>2026-03-29T09:15:46.946Z</time></trkpt><trkpt lat="40.7678006" lon="14.8610816"><ele>562.6666666666666</ele><time>2026-03-29T09:15:47.954Z</time></trkpt><trkpt lat="40.7677494" lon="14.8611519"><ele>559.5</ele><time>2026-03-29T09:15:48.95Z</time></trkpt><trkpt lat="40.7677089" lon="14.8612284"><ele>556.3333333333334</ele><time>2026-03-29T09:15:49.946Z</time></trkpt><trkpt lat="40.7676579" lon="14.861349"><ele>553.1666666666667</ele><time>2026-03-29T09:15:51.951Z</time></trkpt><trkpt lat="40.7676666" lon="14.8614606"><ele>550.0</ele><time>2026-03-29T09:15:53.952Z</time></trkpt><trkpt lat="40.7676343" lon="14.8615594"><ele>550.0</ele><time>2026-03-29T09:15:56.953Z</time></trkpt><trkpt lat="40.7675214" lon="14.8616473"><ele>550.0</ele><time>2026-03-29T09:15:58.951Z</time></trkpt><trkpt lat="40.7674581" lon="14.8616885"><ele>550.0</ele><time>2026-03-29T09:15:59.948Z</time></trkpt><trkpt lat="40.7674007" lon="14.8617401"><ele>550.0</ele><time>2026-03-29T09:16:00.948Z</time></trkpt><trkpt lat="40.7673191" lon="14.8617977"><ele>550.0</ele><time>2026-03-29T09:16:02.952Z</time></trkpt><trkpt lat="40.7672483" lon="14.8618068"><ele>550.0</ele><time>2026-03-29T09:16:04.948Z</time></trkpt><trkpt lat="40.767157" lon="14.8618705"><ele>555.8</ele><time>2026-03-29T09:16:06.951Z</time></trkpt><trkpt lat="40.7670831" lon="14.8619087"><ele>561.6</ele><time>2026-03-29T09:16:07.947Z</time></trkpt><trkpt lat="40.7669804" lon="14.8619288"><ele>567.4</ele><time>2026-03-29T09:16:08.949Z</time></trkpt><trkpt lat="40.7668585" lon="14.8619174"><ele>573.2</ele><time>2026-03-29T09:16:09.953Z</time></trkpt><trkpt lat="40.7667316" lon="14.8618777"><ele>579.0</ele><time>2026-03-29T09:16:10.949Z</time></trkpt><trkpt lat="40.7666154" lon="14.8618587"><ele>579.0</ele><time>2026-03-29T09:16:11.947Z</time></trkpt><trkpt lat="40.7664805" lon="14.861854"><ele>579.0</ele><time>2026-03-29T09:16:12.947Z</time></trkpt><trkpt lat="40.7663469" lon="14.8618468"><ele>579.0</ele><time>2026-03-29T09:16:14.056Z</time></trkpt><trkpt lat="40.7662269" lon="14.8618365"><ele>579.0</ele><time>2026-03-29T09:16:15.01Z</time></trkpt><trkpt lat="40.7661207" lon="14.8618421"><ele>575.3333333333334</ele><time>2026-03-29T09:16:16.016Z</time></trkpt><trkpt lat="40.7660194" lon="14.861843"><ele>571.6666666666666</ele><time>2026-03-29T09:16:17.007Z</time></trkpt><trkpt lat="40.7659212" lon="14.861859"><ele>568.0</ele><time>2026-03-29T09:16:17.996Z</time></trkpt><trkpt lat="40.7658479" lon="14.8618938"><ele>564.3333333333333</ele><time>2026-03-29T09:16:19.039Z</time></trkpt><trkpt lat="40.7657885" lon="14.8619255"><ele>560.6666666666666</ele><time>2026-03-29T09:16:20.031Z</time></trkpt><trkpt lat="40.7657353" lon="14.8619912"><ele>557.0</ele><time>2026-03-29T09:16:21.04Z</time></trkpt><trkpt lat="40.7656847" lon="14.8620757"><ele>557.0</ele><time>2026-03-29T09:16:21.97Z</time></trkpt><trkpt lat="40.7656268" lon="14.8621339"><ele>557.0</ele><time>2026-03-29T09:16:22.974Z</time></trkpt><trkpt lat="40.7655555" lon="14.8621746"><ele>557.0</ele><time>2026-03-29T09:16:23.971Z</time></trkpt><trkpt lat="40.7654959" lon="14.8622067"><ele>557.0</ele><time>2026-03-29T09:16:25.048Z</time></trkpt><trkpt lat="40.7654133" lon="14.8622217"><ele>557.0</ele><time>2026-03-29T09:16:26.035Z</time></trkpt><trkpt lat="40.7653336" lon="14.8622574"><ele>557.0</ele><time>2026-03-29T09:16:27.03Z</time></trkpt><trkpt lat="40.7652637" lon="14.8622919"><ele>551.75</ele><time>2026-03-29T09:16:27.955Z</time></trkpt><trkpt lat="40.7651598" lon="14.8623806"><ele>546.5</ele><time>2026-03-29T09:16:29.952Z</time></trkpt><trkpt lat="40.7651092" lon="14.8625399"><ele>541.25</ele><time>2026-03-29T09:16:31.948Z</time></trkpt><trkpt lat="40.765032" lon="14.8626561"><ele>536.0</ele><time>2026-03-29T09:16:34.035Z</time></trkpt><trkpt lat="40.7649462" lon="14.8627495"><ele>536.0</ele><time>2026-03-29T09:16:36.029Z</time></trkpt><trkpt lat="40.7648438" lon="14.8628363"><ele>536.0</ele><time>2026-03-29T09:16:37.949Z</time></trkpt><trkpt lat="40.7647389" lon="14.8629368"><ele>536.0</ele><time>2026-03-29T09:16:39.946Z</time></trkpt><trkpt lat="40.7646935" lon="14.8629969"><ele>536.0</ele><time>2026-03-29T09:16:40.953Z</time></trkpt><trkpt lat="40.7646347" lon="14.8630753"><ele>536.0</ele><time>2026-03-29T09:16:41.953Z</time></trkpt><trkpt lat="40.7646001" lon="14.8631484"><ele>536.0</ele><time>2026-03-29T09:16:42.945Z</time></trkpt><trkpt lat="40.7645669" lon="14.8632267"><ele>536.0</ele><time>2026-03-29T09:16:43.956Z</time></trkpt><trkpt lat="40.7645668" lon="14.8634062"><ele>536.0</ele><time>2026-03-29T09:16:45.947Z</time></trkpt><trkpt lat="40.7645911" lon="14.8635145"><ele>536.0</ele><time>2026-03-29T09:16:46.958Z</time></trkpt><trkpt lat="40.7646237" lon="14.8636638"><ele>536.0</ele><time>2026-03-29T09:16:47.951Z</time></trkpt><trkpt lat="40.7646608" lon="14.8638179"><ele>534.1666666666666</ele><time>2026-03-29T09:16:48.952Z</time></trkpt><trkpt lat="40.7646864" lon="14.8639411"><ele>532.3333333333333</ele><time>2026-03-29T09:16:49.95Z</time></trkpt><trkpt lat="40.7646948" lon="14.8640699"><ele>530.5</ele><time>2026-03-29T09:16:51.033Z</time></trkpt><trkpt lat="40.7646825" lon="14.8641796"><ele>528.6666666666666</ele><time>2026-03-29T09:16:52.043Z</time></trkpt><trkpt lat="40.7646749" lon="14.8642642"><ele>526.8333333333334</ele><time>2026-03-29T09:16:52.949Z</time></trkpt><trkpt lat="40.7646925" lon="14.864355"><ele>525.0</ele><time>2026-03-29T09:16:55.951Z</time></trkpt><trkpt lat="40.7647756" lon="14.8644248"><ele>521.1666666666666</ele><time>2026-03-29T09:17:00.959Z</time></trkpt><trkpt lat="40.764853" lon="14.8644618"><ele>517.3333333333334</ele><time>2026-03-29T09:17:02.953Z</time></trkpt><trkpt lat="40.7649338" lon="14.8645505"><ele>513.5</ele><time>2026-03-29T09:17:04.953Z</time></trkpt><trkpt lat="40.7649712" lon="14.8646638"><ele>509.6666666666667</ele><time>2026-03-29T09:17:06.95Z</time></trkpt><trkpt lat="40.7649873" lon="14.8647563"><ele>505.83333333333337</ele><time>2026-03-29T09:17:07.958Z</time></trkpt><trkpt lat="40.7650103" lon="14.8648413"><ele>502.0</ele><time>2026-03-29T09:17:08.943Z</time></trkpt><trkpt lat="40.7650367" lon="14.8649229"><ele>502.0</ele><time>2026-03-29T09:17:09.953Z</time></trkpt><trkpt lat="40.7650745" lon="14.865035"><ele>502.00000000000006</ele><time>2026-03-29T09:17:11.954Z</time></trkpt><trkpt lat="40.7651389" lon="14.8651111"><ele>502.00000000000006</ele><time>2026-03-29T09:17:14.999Z</time></trkpt><trkpt lat="40.7652229" lon="14.8651724"><ele>502.0</ele><time>2026-03-29T09:17:16.955Z</time></trkpt><trkpt lat="40.7653014" lon="14.8651904"><ele>502.0</ele><time>2026-03-29T09:17:18.944Z</time></trkpt><trkpt lat="40.765409" lon="14.8652129"><ele>502.00000000000006</ele><time>2026-03-29T09:17:20.953Z</time></trkpt><trkpt lat="40.7654846" lon="14.8652483"><ele>502.0</ele><time>2026-03-29T09:17:22.953Z</time></trkpt><trkpt lat="40.7655282" lon="14.8653144"><ele>502.0</ele><time>2026-03-29T09:17:23.947Z</time></trkpt><trkpt lat="40.7655721" lon="14.8654106"><ele>502.0</ele><time>2026-03-29T09:17:24.96Z</time></trkpt><trkpt lat="40.7655915" lon="14.8655204"><ele>502.00000000000006</ele><time>2026-03-29T09:17:26.954Z</time></trkpt><trkpt lat="40.7655878" lon="14.8656082"><ele>502.0</ele><time>2026-03-29T09:17:28.948Z</time></trkpt><trkpt lat="40.7656032" lon="14.8657011"><ele>502.00000000000006</ele><time>2026-03-29T09:17:29.952Z</time></trkpt><trkpt lat="40.7656097" lon="14.8658032"><ele>502.0</ele><time>2026-03-29T09:17:30.947Z</time></trkpt><trkpt lat="40.7656369" lon="14.8658795"><ele>502.0</ele><time>2026-03-29T09:17:31.949Z</time></trkpt><trkpt lat="40.7657137" lon="14.8660192"><ele>502.0</ele><time>2026-03-29T09:17:33.953Z</time></trkpt><trkpt lat="40.7657569" lon="14.8660809"><ele>502.00000000000006</ele><time>2026-03-29T09:17:34.954Z</time></trkpt><trkpt lat="40.7658195" lon="14.8661309"><ele>502.0</ele><time>2026-03-29T09:17:35.95Z</time></trkpt><trkpt lat="40.7658873" lon="14.8661546"><ele>502.50000000000006</ele><time>2026-03-29T09:17:36.956Z</time></trkpt><trkpt lat="40.765964" lon="14.8661607"><ele>503.0</ele><time>2026-03-29T09:17:37.954Z</time></trkpt><trkpt lat="40.766072" lon="14.8661737"><ele>503.5</ele><time>2026-03-29T09:17:39.954Z</time></trkpt><trkpt lat="40.7661425" lon="14.8661582"><ele>504.0</ele><time>2026-03-29T09:17:40.958Z</time></trkpt><trkpt lat="40.7662133" lon="14.8661218"><ele>504.50000000000006</ele><time>2026-03-29T09:17:42.953Z</time></trkpt><trkpt lat="40.7662996" lon="14.8661109"><ele>505.0</ele><time>2026-03-29T09:17:44.948Z</time></trkpt><trkpt lat="40.7663712" lon="14.8661088"><ele>505.0</ele><time>2026-03-29T09:17:46.954Z</time></trkpt><trkpt lat="40.7664433" lon="14.86608"><ele>505.0</ele><time>2026-03-29T09:17:48.895Z</time></trkpt><trkpt lat="40.7665748" lon="14.8661311"><ele>505.0</ele><time>2026-03-29T09:17:51.913Z</time></trkpt><trkpt lat="40.7666619" lon="14.8661891"><ele>505.0</ele><time>2026-03-29T09:17:52.954Z</time></trkpt><trkpt lat="40.7667311" lon="14.8662076"><ele>505.0</ele><time>2026-03-29T09:17:54.957Z</time></trkpt><trkpt lat="40.7668034" lon="14.8662194"><ele>509.8</ele><time>2026-03-29T09:17:56.95Z</time></trkpt><trkpt lat="40.7669445" lon="14.8663013"><ele>514.6</ele><time>2026-03-29T09:17:58.958Z</time></trkpt><trkpt lat="40.7670101" lon="14.8663379"><ele>519.4</ele><time>2026-03-29T09:17:59.951Z</time></trkpt><trkpt lat="40.767058" lon="14.8664367"><ele>524.2</ele><time>2026-03-29T09:18:03.95Z</time></trkpt><trkpt lat="40.7670317" lon="14.8665771"><ele>529.0</ele><time>2026-03-29T09:18:05.946Z</time></trkpt><trkpt lat="40.7669663" lon="14.866699"><ele>530.75</ele><time>2026-03-29T09:18:06.952Z</time></trkpt><trkpt lat="40.7668765" lon="14.8668257"><ele>532.5</ele><time>2026-03-29T09:18:07.95Z</time></trkpt><trkpt lat="40.766774" lon="14.8669482"><ele>534.25</ele><time>2026-03-29T09:18:08.95Z</time></trkpt><trkpt lat="40.7666954" lon="14.8670709"><ele>536.0</ele><time>2026-03-29T09:18:09.955Z</time></trkpt><trkpt lat="40.7666512" lon="14.8671967"><ele>532.8333333333333</ele><time>2026-03-29T09:18:10.947Z</time></trkpt><trkpt lat="40.7666256" lon="14.8672887"><ele>529.6666666666666</ele><time>2026-03-29T09:18:11.951Z</time></trkpt><trkpt lat="40.7666512" lon="14.8673756"><ele>526.5</ele><time>2026-03-29T09:18:12.954Z</time></trkpt><trkpt lat="40.7667111" lon="14.8674591"><ele>523.3333333333334</ele><time>2026-03-29T09:18:13.952Z</time></trkpt><trkpt lat="40.7667837" lon="14.8675374"><ele>520.1666666666667</ele><time>2026-03-29T09:18:14.954Z</time></trkpt><trkpt lat="40.7668497" lon="14.8676137"><ele>517.0</ele><time>2026-03-29T09:18:15.952Z</time></trkpt><trkpt lat="40.7669041" lon="14.8677062"><ele>517.0</ele><time>2026-03-29T09:18:16.954Z</time></trkpt><trkpt lat="40.7669521" lon="14.8678147"><ele>517.0</ele><time>2026-03-29T09:18:17.95Z</time></trkpt><trkpt lat="40.7669968" lon="14.8679277"><ele>517.0</ele><time>2026-03-29T09:18:18.948Z</time></trkpt><trkpt lat="40.7670337" lon="14.8680289"><ele>517.0</ele><time>2026-03-29T09:18:19.956Z</time></trkpt><trkpt lat="40.7670819" lon="14.8681134"><ele>517.0</ele><time>2026-03-29T09:18:20.952Z</time></trkpt><trkpt lat="40.7671533" lon="14.8682131"><ele>517.0</ele><time>2026-03-29T09:18:21.957Z</time></trkpt><trkpt lat="40.7672466" lon="14.8683257"><ele>517.0</ele><time>2026-03-29T09:18:22.953Z</time></trkpt><trkpt lat="40.7673421" lon="14.8684395"><ele>517.0</ele><time>2026-03-29T09:18:23.951Z</time></trkpt><trkpt lat="40.7674144" lon="14.8685344"><ele>517.0</ele><time>2026-03-29T09:18:24.95Z</time></trkpt><trkpt lat="40.7674774" lon="14.8686125"><ele>517.0</ele><time>2026-03-29T09:18:25.953Z</time></trkpt><trkpt lat="40.7675519" lon="14.8686722"><ele>516.6666666666667</ele><time>2026-03-29T09:18:26.955Z</time></trkpt><trkpt lat="40.7676469" lon="14.8687045"><ele>516.3333333333334</ele><time>2026-03-29T09:18:27.95Z</time></trkpt><trkpt lat="40.7677293" lon="14.8687315"><ele>516.0</ele><time>2026-03-29T09:18:28.952Z</time></trkpt><trkpt lat="40.7678186" lon="14.8687563"><ele>515.6666666666666</ele><time>2026-03-29T09:18:29.947Z</time></trkpt><trkpt lat="40.7679111" lon="14.8687703"><ele>515.3333333333333</ele><time>2026-03-29T09:18:30.952Z</time></trkpt><trkpt lat="40.7679887" lon="14.8687747"><ele>515.0</ele><time>2026-03-29T09:18:32.026Z</time></trkpt><trkpt lat="40.7680459" lon="14.8687376"><ele>515.0</ele><time>2026-03-29T09:18:33.955Z</time></trkpt><trkpt lat="40.7680319" lon="14.8688539"><ele>515.0</ele><time>2026-03-29T09:18:37.951Z</time></trkpt><trkpt lat="40.768001" lon="14.8689356"><ele>515.0</ele><time>2026-03-29T09:18:38.951Z</time></trkpt><trkpt lat="40.7679861" lon="14.8690793"><ele>515.0</ele><time>2026-03-29T09:18:40.952Z</time></trkpt><trkpt lat="40.7680856" lon="14.8692607"><ele>515.0</ele><time>2026-03-29T09:18:42.952Z</time></trkpt><trkpt lat="40.7681913" lon="14.8694215"><ele>513.0</ele><time>2026-03-29T09:18:44.026Z</time></trkpt><trkpt lat="40.7682915" lon="14.8695766"><ele>511.0</ele><time>2026-03-29T09:18:45.018Z</time></trkpt><trkpt lat="40.7683755" lon="14.8697234"><ele>509.0</ele><time>2026-03-29T09:18:46.023Z</time></trkpt><trkpt lat="40.7684168" lon="14.86985"><ele>507.0</ele><time>2026-03-29T09:18:46.956Z</time></trkpt><trkpt lat="40.7684527" lon="14.8699786"><ele>509.0</ele><time>2026-03-29T09:18:47.951Z</time></trkpt><trkpt lat="40.7685057" lon="14.870124"><ele>511.0</ele><time>2026-03-29T09:18:48.952Z</time></trkpt><trkpt lat="40.7685651" lon="14.8702946"><ele>513.0</ele><time>2026-03-29T09:18:49.948Z</time></trkpt><trkpt lat="40.7686144" lon="14.8704473"><ele>515.0</ele><time>2026-03-29T09:18:50.951Z</time></trkpt><trkpt lat="40.768656" lon="14.8705629"><ele>517.8333333333333</ele><time>2026-03-29T09:18:52.022Z</time></trkpt><trkpt lat="40.7686871" lon="14.8706639"><ele>520.6666666666666</ele><time>2026-03-29T09:18:52.949Z</time></trkpt><trkpt lat="40.7687189" lon="14.8707847"><ele>523.5</ele><time>2026-03-29T09:18:53.946Z</time></trkpt><trkpt lat="40.7687386" lon="14.8708916"><ele>526.3333333333334</ele><time>2026-03-29T09:18:54.945Z</time></trkpt><trkpt lat="40.7687485" lon="14.8709806"><ele>529.1666666666667</ele><time>2026-03-29T09:18:56.956Z</time></trkpt><trkpt lat="40.7686735" lon="14.8709819"><ele>532.0</ele><time>2026-03-29T09:19:00.005Z</time></trkpt><trkpt lat="40.7685927" lon="14.8709666"><ele>534.4</ele><time>2026-03-29T09:19:00.945Z</time></trkpt><trkpt lat="40.7684961" lon="14.8709567"><ele>536.8000000000001</ele><time>2026-03-29T09:19:02.016Z</time></trkpt><trkpt lat="40.7684012" lon="14.870936"><ele>539.2</ele><time>2026-03-29T09:19:02.95Z</time></trkpt><trkpt lat="40.7683068" lon="14.870881"><ele>541.6</ele><time>2026-03-29T09:19:03.945Z</time></trkpt><trkpt lat="40.7681992" lon="14.8708272"><ele>544.0</ele><time>2026-03-29T09:19:04.949Z</time></trkpt><trkpt lat="40.7680814" lon="14.8707966"><ele>538.2</ele><time>2026-03-29T09:19:05.948Z</time></trkpt><trkpt lat="40.7679808" lon="14.8707457"><ele>532.4</ele><time>2026-03-29T09:19:06.95Z</time></trkpt><trkpt lat="40.7679037" lon="14.8706673"><ele>526.6</ele><time>2026-03-29T09:19:07.996Z</time></trkpt><trkpt lat="40.7678328" lon="14.8705828"><ele>520.8</ele><time>2026-03-29T09:19:09.02Z</time></trkpt><trkpt lat="40.7677664" lon="14.870517"><ele>515.0</ele><time>2026-03-29T09:19:10.015Z</time></trkpt><trkpt lat="40.7677016" lon="14.870465"><ele>514.6666666666666</ele><time>2026-03-29T09:19:11.022Z</time></trkpt><trkpt lat="40.7676294" lon="14.8704275"><ele>514.3333333333333</ele><time>2026-03-29T09:19:11.949Z</time></trkpt><trkpt lat="40.7675503" lon="14.870385"><ele>514.0</ele><time>2026-03-29T09:19:12.949Z</time></trkpt><trkpt lat="40.767465" lon="14.8703405"><ele>513.6666666666666</ele><time>2026-03-29T09:19:13.957Z</time></trkpt><trkpt lat="40.7673818" lon="14.8702977"><ele>513.3333333333334</ele><time>2026-03-29T09:19:14.951Z</time></trkpt><trkpt lat="40.7673055" lon="14.8702649"><ele>513.0</ele><time>2026-03-29T09:19:15.948Z</time></trkpt><trkpt lat="40.7672255" lon="14.870236"><ele>513.0</ele><time>2026-03-29T09:19:17.012Z</time></trkpt><trkpt lat="40.7671405" lon="14.8702359"><ele>513.0</ele><time>2026-03-29T09:19:17.951Z</time></trkpt><trkpt lat="40.7670508" lon="14.8702558"><ele>513.0</ele><time>2026-03-29T09:19:18.952Z</time></trkpt><trkpt lat="40.7669667" lon="14.8702885"><ele>513.0</ele><time>2026-03-29T09:19:19.97Z</time></trkpt><trkpt lat="40.7668851" lon="14.8702939"><ele>513.0</ele><time>2026-03-29T09:19:21.02Z</time></trkpt><trkpt lat="40.7667828" lon="14.8702466"><ele>513.5</ele><time>2026-03-29T09:19:22.956Z</time></trkpt><trkpt lat="40.7667256" lon="14.8702039"><ele>514.0</ele><time>2026-03-29T09:19:23.951Z</time></trkpt><trkpt lat="40.7666571" lon="14.870161"><ele>514.5</ele><time>2026-03-29T09:19:24.947Z</time></trkpt><trkpt lat="40.766573" lon="14.870113"><ele>515.0</ele><time>2026-03-29T09:19:25.982Z</time></trkpt><trkpt lat="40.7664935" lon="14.8700719"><ele>515.5</ele><time>2026-03-29T09:19:27.017Z</time></trkpt><trkpt lat="40.7664262" lon="14.8700414"><ele>516.0</ele><time>2026-03-29T09:19:27.955Z</time></trkpt><trkpt lat="40.7663476" lon="14.8700234"><ele>513.2</ele><time>2026-03-29T09:19:28.952Z</time></trkpt><trkpt lat="40.7662579" lon="14.8700239"><ele>510.40000000000003</ele><time>2026-03-29T09:19:29.984Z</time></trkpt><trkpt lat="40.7661873" lon="14.870029"><ele>507.6</ele><time>2026-03-29T09:19:31.017Z</time></trkpt><trkpt lat="40.7660799" lon="14.8700351"><ele>504.8</ele><time>2026-03-29T09:19:32.952Z</time></trkpt><trkpt lat="40.7659388" lon="14.8699983"><ele>502.0</ele><time>2026-03-29T09:19:34.947Z</time></trkpt><trkpt lat="40.7658312" lon="14.8699663"><ele>502.0</ele><time>2026-03-29T09:19:36.028Z</time></trkpt><trkpt lat="40.7657179" lon="14.8699323"><ele>502.0</ele><time>2026-03-29T09:19:37.03Z</time></trkpt><trkpt lat="40.7656142" lon="14.8699095"><ele>502.0</ele><time>2026-03-29T09:19:37.952Z</time></trkpt><trkpt lat="40.7654929" lon="14.8698996"><ele>502.0</ele><time>2026-03-29T09:19:38.949Z</time></trkpt><trkpt lat="40.7653624" lon="14.8699089"><ele>502.0</ele><time>2026-03-29T09:19:39.952Z</time></trkpt><trkpt lat="40.7652305" lon="14.8699202"><ele>502.0</ele><time>2026-03-29T09:19:40.955Z</time></trkpt><trkpt lat="40.7651094" lon="14.8699246"><ele>502.0</ele><time>2026-03-29T09:19:41.949Z</time></trkpt><trkpt lat="40.7649854" lon="14.8699254"><ele>502.0</ele><time>2026-03-29T09:19:42.955Z</time></trkpt><trkpt lat="40.7648598" lon="14.8699292"><ele>504.8</ele><time>2026-03-29T09:19:43.995Z</time></trkpt><trkpt lat="40.764748" lon="14.8699251"><ele>507.6</ele><time>2026-03-29T09:19:45.03Z</time></trkpt><trkpt lat="40.7646418" lon="14.8699066"><ele>510.40000000000003</ele><time>2026-03-29T09:19:46.029Z</time></trkpt><trkpt lat="40.7645259" lon="14.8698829"><ele>513.2</ele><time>2026-03-29T09:19:47.03Z</time></trkpt><trkpt lat="40.7644294" lon="14.8698702"><ele>516.0</ele><time>2026-03-29T09:19:47.953Z</time></trkpt><trkpt lat="40.7643637" lon="14.8698721"><ele>516.6666666666666</ele><time>2026-03-29T09:19:48.953Z</time></trkpt><trkpt lat="40.7642971" lon="14.8698993"><ele>517.3333333333334</ele><time>2026-03-29T09:19:49.954Z</time></trkpt><trkpt lat="40.764239" lon="14.8699403"><ele>518.0</ele><time>2026-03-29T09:19:50.955Z</time></trkpt><trkpt lat="40.7641918" lon="14.8700113"><ele>518.6666666666667</ele><time>2026-03-29T09:19:51.956Z</time></trkpt><trkpt lat="40.7641539" lon="14.8701085"><ele>519.3333333333334</ele><time>2026-03-29T09:19:52.948Z</time></trkpt><trkpt lat="40.7641264" lon="14.8702256"><ele>520.0</ele><time>2026-03-29T09:19:53.951Z</time></trkpt><trkpt lat="40.7641016" lon="14.8703132"><ele>520.0</ele><time>2026-03-29T09:19:54.961Z</time></trkpt><trkpt lat="40.7640688" lon="14.870385"><ele>520.0</ele><time>2026-03-29T09:19:56.949Z</time></trkpt><trkpt lat="40.7640049" lon="14.8704362"><ele>520.0</ele><time>2026-03-29T09:20:33.957Z</time></trkpt><trkpt lat="40.7639521" lon="14.8704949"><ele>520.0</ele><time>2026-03-29T09:20:36.959Z</time></trkpt><trkpt lat="40.7638893" lon="14.8705651"><ele>520.0</ele><time>2026-03-29T09:20:38.966Z</time></trkpt><trkpt lat="40.7637998" lon="14.8706528"><ele>520.0</ele><time>2026-03-29T09:20:39.957Z</time></trkpt><trkpt lat="40.7636998" lon="14.8707372"><ele>520.0</ele><time>2026-03-29T09:20:40.959Z</time></trkpt><trkpt lat="40.7636206" lon="14.8708024"><ele>520.0</ele><time>2026-03-29T09:20:41.96Z</time></trkpt><trkpt lat="40.7635623" lon="14.8709"><ele>520.0</ele><time>2026-03-29T09:20:43.961Z</time></trkpt><trkpt lat="40.7636367" lon="14.8709828"><ele>520.0</ele><time>2026-03-29T09:20:45.958Z</time></trkpt><trkpt lat="40.7637154" lon="14.8710298"><ele>520.0</ele><time>2026-03-29T09:20:47.076Z</time></trkpt><trkpt lat="40.763835" lon="14.8711342"><ele>516.7142857142858</ele><time>2026-03-29T09:20:48.967Z</time></trkpt><trkpt lat="40.7638715" lon="14.8712022"><ele>513.4285714285714</ele><time>2026-03-29T09:20:49.986Z</time></trkpt><trkpt lat="40.763905" lon="14.8712786"><ele>510.14285714285717</ele><time>2026-03-29T09:20:51.04Z</time></trkpt><trkpt lat="40.7639468" lon="14.8713474"><ele>506.8571428571429</ele><time>2026-03-29T09:20:52.03Z</time></trkpt><trkpt lat="40.763998" lon="14.8714096"><ele>503.57142857142856</ele><time>2026-03-29T09:20:52.992Z</time></trkpt><trkpt lat="40.7640553" lon="14.8714664"><ele>500.2857142857143</ele><time>2026-03-29T09:20:54.035Z</time></trkpt><trkpt lat="40.7641415" lon="14.8715529"><ele>497.0</ele><time>2026-03-29T09:20:56.03Z</time></trkpt><trkpt lat="40.7641728" lon="14.8716495"><ele>493.0</ele><time>2026-03-29T09:20:57.954Z</time></trkpt><trkpt lat="40.7642118" lon="14.8717834"><ele>489.00000000000006</ele><time>2026-03-29T09:20:59.956Z</time></trkpt><trkpt lat="40.7642988" lon="14.8718919"><ele>485.00000000000006</ele><time>2026-03-29T09:21:02.03Z</time></trkpt><trkpt lat="40.7643945" lon="14.8719463"><ele>481.0</ele><time>2026-03-29T09:21:03.966Z</time></trkpt><trkpt lat="40.7644413" lon="14.8720429"><ele>477.0</ele><time>2026-03-29T09:21:05.972Z</time></trkpt><trkpt lat="40.7644836" lon="14.8721581"><ele>480.20000000000005</ele><time>2026-03-29T09:21:07.971Z</time></trkpt><trkpt lat="40.7645016" lon="14.8722793"><ele>483.40000000000003</ele><time>2026-03-29T09:21:10.076Z</time></trkpt><trkpt lat="40.764449" lon="14.8723883"><ele>486.59999999999997</ele><time>2026-03-29T09:21:13.969Z</time></trkpt><trkpt lat="40.7644402" lon="14.8724789"><ele>489.79999999999995</ele><time>2026-03-29T09:21:15.97Z</time></trkpt><trkpt lat="40.7643785" lon="14.8725713"><ele>493.0</ele><time>2026-03-29T09:21:18.972Z</time></trkpt><trkpt lat="40.764291" lon="14.872664"><ele>493.00000000000006</ele><time>2026-03-29T09:21:20.972Z</time></trkpt><trkpt lat="40.7642342" lon="14.8727252"><ele>493.0</ele><time>2026-03-29T09:21:21.976Z</time></trkpt><trkpt lat="40.7641547" lon="14.8727983"><ele>493.0</ele><time>2026-03-29T09:21:22.966Z</time></trkpt><trkpt lat="40.764072" lon="14.872862"><ele>493.0</ele><time>2026-03-29T09:21:23.971Z</time></trkpt><trkpt lat="40.7639927" lon="14.8729265"><ele>493.00000000000006</ele><time>2026-03-29T09:21:24.974Z</time></trkpt><trkpt lat="40.7639368" lon="14.8729785"><ele>493.0</ele><time>2026-03-29T09:21:25.97Z</time></trkpt><trkpt lat="40.7638875" lon="14.8730377"><ele>493.0</ele><time>2026-03-29T09:21:26.975Z</time></trkpt><trkpt lat="40.763825" lon="14.8731765"><ele>492.99999999999994</ele><time>2026-03-29T09:21:28.971Z</time></trkpt><trkpt lat="40.7638176" lon="14.8732608"><ele>492.99999999999994</ele><time>2026-03-29T09:21:29.97Z</time></trkpt><trkpt lat="40.763841" lon="14.8734165"><ele>493.0</ele><time>2026-03-29T09:21:31.974Z</time></trkpt><trkpt lat="40.763857" lon="14.8735367"><ele>493.0</ele><time>2026-03-29T09:21:33.967Z</time></trkpt><trkpt lat="40.7638223" lon="14.8736345"><ele>493.00000000000006</ele><time>2026-03-29T09:21:36.976Z</time></trkpt><trkpt lat="40.7637799" lon="14.8737168"><ele>493.0</ele><time>2026-03-29T09:21:39.968Z</time></trkpt><trkpt lat="40.7637106" lon="14.8736849"><ele>493.0</ele><time>2026-03-29T09:22:01.968Z</time></trkpt><trkpt lat="40.7636599" lon="14.8735805"><ele>493.0</ele><time>2026-03-29T09:22:04.047Z</time></trkpt><trkpt lat="40.7636201" lon="14.8734752"><ele>493.00000000000006</ele><time>2026-03-29T09:22:05.971Z</time></trkpt><trkpt lat="40.7635726" lon="14.8733694"><ele>493.0</ele><time>2026-03-29T09:22:07.971Z</time></trkpt><trkpt lat="40.7635275" lon="14.8733002"><ele>493.0</ele><time>2026-03-29T09:22:09.971Z</time></trkpt><trkpt lat="40.7634804" lon="14.8732354"><ele>492.99999999999994</ele><time>2026-03-29T09:22:12.047Z</time></trkpt><trkpt lat="40.7634176" lon="14.8731558"><ele>492.99999999999994</ele><time>2026-03-29T09:22:13.961Z</time></trkpt><trkpt lat="40.7634118" lon="14.8730366"><ele>493.0</ele><time>2026-03-29T09:22:15.969Z</time></trkpt><trkpt lat="40.7635136" lon="14.8729235"><ele>493.0</ele><time>2026-03-29T09:22:17.965Z</time></trkpt><trkpt lat="40.7635931" lon="14.8728779"><ele>493.00000000000006</ele><time>2026-03-29T09:22:18.967Z</time></trkpt><trkpt lat="40.7636736" lon="14.8728393"><ele>493.0</ele><time>2026-03-29T09:22:20.023Z</time></trkpt><trkpt lat="40.7637438" lon="14.8728009"><ele>493.0</ele><time>2026-03-29T09:22:21.03Z</time></trkpt><trkpt lat="40.7637959" lon="14.8727189"><ele>493.0</ele><time>2026-03-29T09:22:22.969Z</time></trkpt><trkpt lat="40.7638149" lon="14.8726068"><ele>493.00000000000006</ele><time>2026-03-29T09:22:24.966Z</time></trkpt><trkpt lat="40.7638163" lon="14.8725223"><ele>493.0</ele><time>2026-03-29T09:22:27.97Z</time></trkpt><trkpt lat="40.7637521" lon="14.8725752"><ele>490.33333333333337</ele><time>2026-03-29T09:22:30.971Z</time></trkpt><trkpt lat="40.7636824" lon="14.8725733"><ele>487.6666666666667</ele><time>2026-03-29T09:22:32.97Z</time></trkpt><trkpt lat="40.7635898" lon="14.8725777"><ele>485.0</ele><time>2026-03-29T09:22:35.042Z</time></trkpt><trkpt lat="40.7635201" lon="14.8725571"><ele>482.33333333333337</ele><time>2026-03-29T09:22:36.968Z</time></trkpt><trkpt lat="40.763556" lon="14.8724813"><ele>479.6666666666667</ele><time>2026-03-29T09:22:38.971Z</time></trkpt><trkpt lat="40.7635453" lon="14.8723571"><ele>477.0</ele><time>2026-03-29T09:22:42.038Z</time></trkpt><trkpt lat="40.7634439" lon="14.8723072"><ele>469.8</ele><time>2026-03-29T09:22:46.05Z</time></trkpt><trkpt lat="40.7633548" lon="14.8722545"><ele>462.6</ele><time>2026-03-29T09:22:47.966Z</time></trkpt><trkpt lat="40.7632901" lon="14.8722094"><ele>455.40000000000003</ele><time>2026-03-29T09:22:49.969Z</time></trkpt><trkpt lat="40.7631874" lon="14.872099"><ele>448.20000000000005</ele><time>2026-03-29T09:22:51.969Z</time></trkpt><trkpt lat="40.7631355" lon="14.872022"><ele>441.0</ele><time>2026-03-29T09:22:52.969Z</time></trkpt><trkpt lat="40.7630808" lon="14.8719576"><ele>441.0</ele><time>2026-03-29T09:22:53.999Z</time></trkpt><trkpt lat="40.7630182" lon="14.8719105"><ele>441.0</ele><time>2026-03-29T09:22:54.999Z</time></trkpt><trkpt lat="40.7629485" lon="14.871894"><ele>441.0</ele><time>2026-03-29T09:22:55.965Z</time></trkpt><trkpt lat="40.7628733" lon="14.8718829"><ele>441.0</ele><time>2026-03-29T09:22:57.042Z</time></trkpt><trkpt lat="40.7627986" lon="14.8718577"><ele>441.0</ele><time>2026-03-29T09:22:57.969Z</time></trkpt><trkpt lat="40.7627216" lon="14.8718162"><ele>441.0</ele><time>2026-03-29T09:22:58.971Z</time></trkpt><trkpt lat="40.7626605" lon="14.8717794"><ele>441.0</ele><time>2026-03-29T09:22:59.967Z</time></trkpt><trkpt lat="40.762591" lon="14.87176"><ele>439.8333333333333</ele><time>2026-03-29T09:23:00.97Z</time></trkpt><trkpt lat="40.7625062" lon="14.8717529"><ele>438.66666666666663</ele><time>2026-03-29T09:23:01.965Z</time></trkpt><trkpt lat="40.7624206" lon="14.8717646"><ele>437.5</ele><time>2026-03-29T09:23:02.967Z</time></trkpt><trkpt lat="40.7623453" lon="14.8717618"><ele>436.3333333333333</ele><time>2026-03-29T09:23:03.971Z</time></trkpt><trkpt lat="40.762268" lon="14.8717169"><ele>435.16666666666663</ele><time>2026-03-29T09:23:05.964Z</time></trkpt><trkpt lat="40.7623538" lon="14.8717668"><ele>434.0</ele><time>2026-03-29T09:23:10.962Z</time></trkpt><trkpt lat="40.7624297" lon="14.8718302"><ele>433.99999999999994</ele><time>2026-03-29T09:23:12.991Z</time></trkpt><trkpt lat="40.7623823" lon="14.8718878"><ele>434.0</ele><time>2026-03-29T09:23:18.968Z</time></trkpt><trkpt lat="40.7622892" lon="14.8719602"><ele>434.0</ele><time>2026-03-29T09:23:20.972Z</time></trkpt><trkpt lat="40.762179" lon="14.871946"><ele>434.0</ele><time>2026-03-29T09:23:22.97Z</time></trkpt><trkpt lat="40.7620949" lon="14.87188"><ele>433.99999999999994</ele><time>2026-03-29T09:23:25.031Z</time></trkpt><trkpt lat="40.7620534" lon="14.8718142"><ele>434.0</ele><time>2026-03-29T09:23:25.972Z</time></trkpt><trkpt lat="40.762012" lon="14.8717321"><ele>434.0</ele><time>2026-03-29T09:23:26.968Z</time></trkpt><trkpt lat="40.7619723" lon="14.8716645"><ele>434.0</ele><time>2026-03-29T09:23:27.968Z</time></trkpt><trkpt lat="40.7619472" lon="14.871584"><ele>434.0</ele><time>2026-03-29T09:23:30.043Z</time></trkpt><trkpt lat="40.7619785" lon="14.8716597"><ele>434.0</ele><time>2026-03-29T09:23:36.967Z</time></trkpt><trkpt lat="40.7619906" lon="14.8717522"><ele>434.0</ele><time>2026-03-29T09:23:38.972Z</time></trkpt><trkpt lat="40.761932" lon="14.8717149"><ele>434.0</ele><time>2026-03-29T09:23:42.971Z</time></trkpt><trkpt lat="40.7618777" lon="14.8716466"><ele>434.0</ele><time>2026-03-29T09:23:44.974Z</time></trkpt><trkpt lat="40.7618041" lon="14.8715469"><ele>428.8333333333333</ele><time>2026-03-29T09:23:46.968Z</time></trkpt><trkpt lat="40.7617757" lon="14.8714499"><ele>423.66666666666663</ele><time>2026-03-29T09:23:48.971Z</time></trkpt><trkpt lat="40.7617181" lon="14.8713753"><ele>418.5</ele><time>2026-03-29T09:23:51.969Z</time></trkpt><trkpt lat="40.7616558" lon="14.8714114"><ele>413.33333333333337</ele><time>2026-03-29T09:23:53.969Z</time></trkpt><trkpt lat="40.7615733" lon="14.8714097"><ele>408.1666666666667</ele><time>2026-03-29T09:23:56.97Z</time></trkpt><trkpt lat="40.7614813" lon="14.8713742"><ele>403.0</ele><time>2026-03-29T09:23:58.97Z</time></trkpt><trkpt lat="40.7613561" lon="14.8713264"><ele>403.00000000000006</ele><time>2026-03-29T09:24:00.974Z</time></trkpt><trkpt lat="40.7612671" lon="14.8713143"><ele>403.0</ele><time>2026-03-29T09:24:01.972Z</time></trkpt><trkpt lat="40.7611852" lon="14.8712858"><ele>403.0</ele><time>2026-03-29T09:24:02.967Z</time></trkpt><trkpt lat="40.7611082" lon="14.8712506"><ele>403.0</ele><time>2026-03-29T09:24:03.97Z</time></trkpt><trkpt lat="40.7610335" lon="14.8712242"><ele>403.00000000000006</ele><time>2026-03-29T09:24:04.966Z</time></trkpt><trkpt lat="40.760958" lon="14.8712063"><ele>403.0</ele><time>2026-03-29T09:24:06.034Z</time></trkpt><trkpt lat="40.7608825" lon="14.8711826"><ele>402.33333333333337</ele><time>2026-03-29T09:24:07.039Z</time></trkpt><trkpt lat="40.7608213" lon="14.8711532"><ele>401.6666666666667</ele><time>2026-03-29T09:24:07.968Z</time></trkpt><trkpt lat="40.7607619" lon="14.871124"><ele>401.0</ele><time>2026-03-29T09:24:08.972Z</time></trkpt><trkpt lat="40.7606921" lon="14.8710853"><ele>400.33333333333337</ele><time>2026-03-29T09:24:10.09Z</time></trkpt><trkpt lat="40.7606178" lon="14.8710543"><ele>399.6666666666667</ele><time>2026-03-29T09:24:11.034Z</time></trkpt><trkpt lat="40.7605567" lon="14.8710231"><ele>399.0</ele><time>2026-03-29T09:24:12.002Z</time></trkpt><trkpt lat="40.7604865" lon="14.8709057"><ele>399.0</ele><time>2026-03-29T09:24:13.966Z</time></trkpt><trkpt lat="40.7604899" lon="14.8709949"><ele>399.0</ele><time>2026-03-29T09:24:26.973Z</time></trkpt><trkpt lat="40.7605141" lon="14.8710811"><ele>399.0</ele><time>2026-03-29T09:24:30.968Z</time></trkpt><trkpt lat="40.7605653" lon="14.8711494"><ele>399.0</ele><time>2026-03-29T09:24:33.967Z</time></trkpt><trkpt lat="40.7606127" lon="14.8712104"><ele>399.0</ele><time>2026-03-29T09:24:36.97Z</time></trkpt><trkpt lat="40.76066" lon="14.8712853"><ele>399.0</ele><time>2026-03-29T09:24:38.964Z</time></trkpt><trkpt lat="40.7607229" lon="14.8713562"><ele>399.0</ele><time>2026-03-29T09:24:41.966Z</time></trkpt><trkpt lat="40.7607836" lon="14.8714235"><ele>399.0</ele><time>2026-03-29T09:24:43.97Z</time></trkpt><trkpt lat="40.7609418" lon="14.8714194"><ele>399.0</ele><time>2026-03-29T09:24:44.963Z</time></trkpt><trkpt lat="40.7610179" lon="14.8714235"><ele>399.0</ele><time>2026-03-29T09:24:45.967Z</time></trkpt><trkpt lat="40.7610845" lon="14.8714413"><ele>399.0</ele><time>2026-03-29T09:24:48.967Z</time></trkpt><trkpt lat="40.7611434" lon="14.8714826"><ele>399.0</ele><time>2026-03-29T09:25:00.973Z</time></trkpt><trkpt lat="40.7611915" lon="14.871546"><ele>399.0</ele><time>2026-03-29T09:25:02.972Z</time></trkpt><trkpt lat="40.7612443" lon="14.8715966"><ele>399.6</ele><time>2026-03-29T09:25:04.974Z</time></trkpt><trkpt lat="40.7613167" lon="14.871658"><ele>400.2</ele><time>2026-03-29T09:25:06.966Z</time></trkpt><trkpt lat="40.7613854" lon="14.8716787"><ele>400.8</ele><time>2026-03-29T09:25:08.97Z</time></trkpt><trkpt lat="40.7614321" lon="14.8717387"><ele>401.40000000000003</ele><time>2026-03-29T09:25:11.969Z</time></trkpt><trkpt lat="40.7615919" lon="14.8719069"><ele>402.0</ele><time>2026-03-29T09:25:14.971Z</time></trkpt><trkpt lat="40.7616407" lon="14.8719812"><ele>402.0</ele><time>2026-03-29T09:25:16.973Z</time></trkpt><trkpt lat="40.7616817" lon="14.872057"><ele>402.0</ele><time>2026-03-29T09:25:17.967Z</time></trkpt><trkpt lat="40.7617303" lon="14.8721488"><ele>402.0</ele><time>2026-03-29T09:25:19.976Z</time></trkpt><trkpt lat="40.7617873" lon="14.8722502"><ele>402.0</ele><time>2026-03-29T09:25:22.043Z</time></trkpt><trkpt lat="40.76183" lon="14.8723376"><ele>402.0</ele><time>2026-03-29T09:25:23.963Z</time></trkpt><trkpt lat="40.7618752" lon="14.87242"><ele>402.0</ele><time>2026-03-29T09:25:25.97Z</time></trkpt><trkpt lat="40.7619124" lon="14.8725326"><ele>403.6</ele><time>2026-03-29T09:25:27.963Z</time></trkpt><trkpt lat="40.7619499" lon="14.8726419"><ele>405.20000000000005</ele><time>2026-03-29T09:25:30.032Z</time></trkpt><trkpt lat="40.7620053" lon="14.8727252"><ele>406.8</ele><time>2026-03-29T09:25:32.041Z</time></trkpt><trkpt lat="40.7620662" lon="14.8728139"><ele>408.4</ele><time>2026-03-29T09:25:34.971Z</time></trkpt><trkpt lat="40.7621299" lon="14.8728775"><ele>410.0</ele><time>2026-03-29T09:25:36.969Z</time></trkpt><trkpt lat="40.7622218" lon="14.8729782"><ele>409.99999999999994</ele><time>2026-03-29T09:25:39.059Z</time></trkpt><trkpt lat="40.7622779" lon="14.8730564"><ele>410.0</ele><time>2026-03-29T09:25:40.028Z</time></trkpt><trkpt lat="40.762329" lon="14.8731248"><ele>410.0</ele><time>2026-03-29T09:25:41.048Z</time></trkpt><trkpt lat="40.7623798" lon="14.8731793"><ele>410.0</ele><time>2026-03-29T09:25:41.973Z</time></trkpt><trkpt lat="40.7624589" lon="14.8732693"><ele>409.99999999999994</ele><time>2026-03-29T09:25:43.966Z</time></trkpt><trkpt lat="40.76254" lon="14.8733803"><ele>410.0</ele><time>2026-03-29T09:25:45.966Z</time></trkpt><trkpt lat="40.7626131" lon="14.8734939"><ele>411.49999999999994</ele><time>2026-03-29T09:25:47.966Z</time></trkpt><trkpt lat="40.7626622" lon="14.8735854"><ele>413.0</ele><time>2026-03-29T09:25:49.965Z</time></trkpt><trkpt lat="40.7627083" lon="14.8736584"><ele>414.5</ele><time>2026-03-29T09:25:51.97Z</time></trkpt><trkpt lat="40.7627538" lon="14.8737452"><ele>416.0</ele><time>2026-03-29T09:25:53.969Z</time></trkpt><trkpt lat="40.7627782" lon="14.8738646"><ele>417.49999999999994</ele><time>2026-03-29T09:25:56.033Z</time></trkpt><trkpt lat="40.7627726" lon="14.8739955"><ele>419.0</ele><time>2026-03-29T09:25:57.97Z</time></trkpt><trkpt lat="40.7627705" lon="14.8741597"><ele>423.79999999999995</ele><time>2026-03-29T09:25:59.965Z</time></trkpt><trkpt lat="40.7627831" lon="14.874308"><ele>428.59999999999997</ele><time>2026-03-29T09:26:01.967Z</time></trkpt><trkpt lat="40.7627964" lon="14.8744017"><ele>433.4</ele><time>2026-03-29T09:26:02.963Z</time></trkpt><trkpt lat="40.7628104" lon="14.8745716"><ele>438.2</ele><time>2026-03-29T09:26:04.973Z</time></trkpt><trkpt lat="40.7628292" lon="14.8746615"><ele>443.0</ele><time>2026-03-29T09:26:05.966Z</time></trkpt><trkpt lat="40.7628553" lon="14.8747995"><ele>442.99999999999994</ele><time>2026-03-29T09:26:07.967Z</time></trkpt><trkpt lat="40.7628544" lon="14.8749133"><ele>443.0</ele><time>2026-03-29T09:26:09.966Z</time></trkpt><trkpt lat="40.7628754" lon="14.8750352"><ele>443.0</ele><time>2026-03-29T09:26:11.973Z</time></trkpt><trkpt lat="40.7629024" lon="14.8751506"><ele>443.0</ele><time>2026-03-29T09:26:13.963Z</time></trkpt><trkpt lat="40.7629246" lon="14.8752318"><ele>442.99999999999994</ele><time>2026-03-29T09:26:16.044Z</time></trkpt><trkpt lat="40.7629626" lon="14.875334"><ele>443.0</ele><time>2026-03-29T09:26:18.953Z</time></trkpt><trkpt lat="40.763014" lon="14.8754148"><ele>443.3333333333333</ele><time>2026-03-29T09:26:21.949Z</time></trkpt><trkpt lat="40.7630635" lon="14.8754886"><ele>443.66666666666663</ele><time>2026-03-29T09:26:25.95Z</time></trkpt><trkpt lat="40.7631227" lon="14.8755701"><ele>444.0</ele><time>2026-03-29T09:26:40.953Z</time></trkpt><trkpt lat="40.76318" lon="14.8756176"><ele>444.33333333333337</ele><time>2026-03-29T09:26:43.957Z</time></trkpt><trkpt lat="40.7632216" lon="14.8756918"><ele>444.6666666666667</ele><time>2026-03-29T09:26:49.955Z</time></trkpt><trkpt lat="40.7631409" lon="14.875698"><ele>445.0</ele><time>2026-03-29T09:27:18.953Z</time></trkpt><trkpt lat="40.7630693" lon="14.8756898"><ele>445.0</ele><time>2026-03-29T09:27:35.959Z</time></trkpt><trkpt lat="40.7629952" lon="14.8756294"><ele>445.0</ele><time>2026-03-29T09:27:37.953Z</time></trkpt><trkpt lat="40.7628978" lon="14.8755495"><ele>445.0</ele><time>2026-03-29T09:27:39.955Z</time></trkpt><trkpt lat="40.7628241" lon="14.8755232"><ele>445.0</ele><time>2026-03-29T09:27:42.015Z</time></trkpt><trkpt lat="40.7627457" lon="14.8754404"><ele>445.0</ele><time>2026-03-29T09:27:45.955Z</time></trkpt><trkpt lat="40.7626977" lon="14.8752962"><ele>443.00000000000006</ele><time>2026-03-29T09:27:47.953Z</time></trkpt><trkpt lat="40.7626723" lon="14.8752127"><ele>441.0</ele><time>2026-03-29T09:27:48.958Z</time></trkpt><trkpt lat="40.7626509" lon="14.8751248"><ele>439.0</ele><time>2026-03-29T09:27:50.015Z</time></trkpt><trkpt lat="40.7626407" lon="14.8750355"><ele>437.0</ele><time>2026-03-29T09:27:51.019Z</time></trkpt><trkpt lat="40.7626188" lon="14.8749321"><ele>435.00000000000006</ele><time>2026-03-29T09:27:52.951Z</time></trkpt><trkpt lat="40.7625946" lon="14.8748146"><ele>433.0</ele><time>2026-03-29T09:27:54.959Z</time></trkpt><trkpt lat="40.7625363" lon="14.8746601"><ele>433.00000000000006</ele><time>2026-03-29T09:27:57.017Z</time></trkpt><trkpt lat="40.7624874" lon="14.8745741"><ele>433.0</ele><time>2026-03-29T09:27:57.953Z</time></trkpt><trkpt lat="40.7624433" lon="14.8744994"><ele>433.0</ele><time>2026-03-29T09:27:58.955Z</time></trkpt><trkpt lat="40.7623977" lon="14.8744416"><ele>433.0</ele><time>2026-03-29T09:27:59.953Z</time></trkpt><trkpt lat="40.7623027" lon="14.8743587"><ele>433.00000000000006</ele><time>2026-03-29T09:28:01.952Z</time></trkpt><trkpt lat="40.7622068" lon="14.8743129"><ele>433.0</ele><time>2026-03-29T09:28:03.952Z</time></trkpt><trkpt lat="40.7621108" lon="14.8742433"><ele>430.2</ele><time>2026-03-29T09:28:05.972Z</time></trkpt><trkpt lat="40.7620369" lon="14.8741505"><ele>427.4</ele><time>2026-03-29T09:28:07.953Z</time></trkpt><trkpt lat="40.761971" lon="14.8740249"><ele>424.59999999999997</ele><time>2026-03-29T09:28:09.952Z</time></trkpt><trkpt lat="40.7618886" lon="14.8739223"><ele>421.79999999999995</ele><time>2026-03-29T09:28:11.95Z</time></trkpt><trkpt lat="40.7617786" lon="14.8738738"><ele>419.0</ele><time>2026-03-29T09:28:13.949Z</time></trkpt><trkpt lat="40.7616816" lon="14.8738478"><ele>419.2</ele><time>2026-03-29T09:28:15.951Z</time></trkpt><trkpt lat="40.7615978" lon="14.8737367"><ele>419.4</ele><time>2026-03-29T09:28:17.953Z</time></trkpt><trkpt lat="40.7615581" lon="14.8736545"><ele>419.6</ele><time>2026-03-29T09:28:18.951Z</time></trkpt><trkpt lat="40.7615025" lon="14.8735259"><ele>419.8</ele><time>2026-03-29T09:28:20.954Z</time></trkpt><trkpt lat="40.7614556" lon="14.8734601"><ele>420.0</ele><time>2026-03-29T09:28:21.951Z</time></trkpt><trkpt lat="40.7613973" lon="14.8733838"><ele>420.0</ele><time>2026-03-29T09:28:22.952Z</time></trkpt><trkpt lat="40.7613364" lon="14.8733273"><ele>420.0</ele><time>2026-03-29T09:28:23.951Z</time></trkpt><trkpt lat="40.7612716" lon="14.8732839"><ele>420.0</ele><time>2026-03-29T09:28:24.957Z</time></trkpt><trkpt lat="40.7611731" lon="14.8732153"><ele>420.0</ele><time>2026-03-29T09:28:26.952Z</time></trkpt><trkpt lat="40.7610875" lon="14.8730936"><ele>420.0</ele><time>2026-03-29T09:28:28.952Z</time></trkpt><trkpt lat="40.7610339" lon="14.8730148"><ele>425.8333333333333</ele><time>2026-03-29T09:28:29.95Z</time></trkpt><trkpt lat="40.7609591" lon="14.8729317"><ele>431.66666666666663</ele><time>2026-03-29T09:28:30.954Z</time></trkpt><trkpt lat="40.7608773" lon="14.8728499"><ele>437.5</ele><time>2026-03-29T09:28:31.952Z</time></trkpt><trkpt lat="40.76081" lon="14.8727695"><ele>443.3333333333333</ele><time>2026-03-29T09:28:32.949Z</time></trkpt><trkpt lat="40.7607633" lon="14.8727026"><ele>449.16666666666663</ele><time>2026-03-29T09:28:33.952Z</time></trkpt><trkpt lat="40.7606988" lon="14.8726572"><ele>455.0</ele><time>2026-03-29T09:28:34.95Z</time></trkpt><trkpt lat="40.76061" lon="14.8726149"><ele>451.66666666666663</ele><time>2026-03-29T09:28:35.952Z</time></trkpt><trkpt lat="40.7605164" lon="14.872587"><ele>448.3333333333333</ele><time>2026-03-29T09:28:36.95Z</time></trkpt><trkpt lat="40.7604286" lon="14.8725561"><ele>445.0</ele><time>2026-03-29T09:28:37.943Z</time></trkpt><trkpt lat="40.7603416" lon="14.8725229"><ele>441.66666666666663</ele><time>2026-03-29T09:28:38.961Z</time></trkpt><trkpt lat="40.7602545" lon="14.8725014"><ele>438.3333333333333</ele><time>2026-03-29T09:28:39.95Z</time></trkpt><trkpt lat="40.7601754" lon="14.8724965"><ele>435.0</ele><time>2026-03-29T09:28:40.952Z</time></trkpt><trkpt lat="40.7600964" lon="14.8725109"><ele>435.0</ele><time>2026-03-29T09:28:41.958Z</time></trkpt><trkpt lat="40.7599894" lon="14.8725986"><ele>435.0</ele><time>2026-03-29T09:28:43.958Z</time></trkpt><trkpt lat="40.7599452" lon="14.872687"><ele>435.0</ele><time>2026-03-29T09:28:44.95Z</time></trkpt><trkpt lat="40.7599101" lon="14.8727826"><ele>435.0</ele><time>2026-03-29T09:28:45.95Z</time></trkpt><trkpt lat="40.7598815" lon="14.8728779"><ele>435.0</ele><time>2026-03-29T09:28:46.954Z</time></trkpt><trkpt lat="40.7598782" lon="14.8729619"><ele>435.0</ele><time>2026-03-29T09:28:47.951Z</time></trkpt><trkpt lat="40.7598886" lon="14.8730503"><ele>438.8333333333333</ele><time>2026-03-29T09:28:48.959Z</time></trkpt><trkpt lat="40.7599058" lon="14.8731634"><ele>442.66666666666663</ele><time>2026-03-29T09:28:49.948Z</time></trkpt><trkpt lat="40.7599275" lon="14.8732983"><ele>446.5</ele><time>2026-03-29T09:28:50.95Z</time></trkpt><trkpt lat="40.7599372" lon="14.8733848"><ele>450.3333333333333</ele><time>2026-03-29T09:28:51.954Z</time></trkpt><trkpt lat="40.7599187" lon="14.873477"><ele>454.16666666666663</ele><time>2026-03-29T09:28:53.965Z</time></trkpt><trkpt lat="40.7598311" lon="14.8735461"><ele>458.0</ele><time>2026-03-29T09:28:55.963Z</time></trkpt><trkpt lat="40.7597866" lon="14.8736168"><ele>462.66666666666663</ele><time>2026-03-29T09:28:56.953Z</time></trkpt><trkpt lat="40.7597384" lon="14.8737029"><ele>467.3333333333333</ele><time>2026-03-29T09:28:57.962Z</time></trkpt><trkpt lat="40.7596905" lon="14.8738053"><ele>472.0</ele><time>2026-03-29T09:28:58.948Z</time></trkpt><trkpt lat="40.7596491" lon="14.8738957"><ele>476.66666666666663</ele><time>2026-03-29T09:28:59.956Z</time></trkpt><trkpt lat="40.7596259" lon="14.8739786"><ele>481.3333333333333</ele><time>2026-03-29T09:29:00.954Z</time></trkpt><trkpt lat="40.759537" lon="14.8740102"><ele>486.0</ele><time>2026-03-29T09:29:03.953Z</time></trkpt><trkpt lat="40.7594695" lon="14.8739716"><ele>486.0</ele><time>2026-03-29T09:29:04.954Z</time></trkpt><trkpt lat="40.7594043" lon="14.8739157"><ele>486.0</ele><time>2026-03-29T09:29:05.955Z</time></trkpt><trkpt lat="40.7593359" lon="14.8738559"><ele>486.0</ele><time>2026-03-29T09:29:06.953Z</time></trkpt><trkpt lat="40.7592672" lon="14.8737913"><ele>486.0</ele><time>2026-03-29T09:29:07.953Z</time></trkpt><trkpt lat="40.7591984" lon="14.8737313"><ele>486.0</ele><time>2026-03-29T09:29:08.951Z</time></trkpt><trkpt lat="40.7591204" lon="14.8736676"><ele>486.0</ele><time>2026-03-29T09:29:09.955Z</time></trkpt><trkpt lat="40.7590343" lon="14.873601"><ele>483.1666666666667</ele><time>2026-03-29T09:29:10.956Z</time></trkpt><trkpt lat="40.7589396" lon="14.8735446"><ele>480.33333333333337</ele><time>2026-03-29T09:29:11.953Z</time></trkpt><trkpt lat="40.7588581" lon="14.8735102"><ele>477.5</ele><time>2026-03-29T09:29:12.957Z</time></trkpt><trkpt lat="40.7587951" lon="14.8734928"><ele>474.6666666666667</ele><time>2026-03-29T09:29:13.952Z</time></trkpt><trkpt lat="40.7586982" lon="14.8734875"><ele>471.83333333333337</ele><time>2026-03-29T09:29:15.956Z</time></trkpt><trkpt lat="40.7586524" lon="14.8735495"><ele>469.0</ele><time>2026-03-29T09:29:16.96Z</time></trkpt><trkpt lat="40.7585719" lon="14.8736849"><ele>466.0</ele><time>2026-03-29T09:29:18.958Z</time></trkpt><trkpt lat="40.7585262" lon="14.8737645"><ele>463.0</ele><time>2026-03-29T09:29:19.954Z</time></trkpt><trkpt lat="40.758491" lon="14.873854"><ele>460.0</ele><time>2026-03-29T09:29:21.027Z</time></trkpt><trkpt lat="40.7584452" lon="14.8739298"><ele>457.0</ele><time>2026-03-29T09:29:22.029Z</time></trkpt><trkpt lat="40.7584038" lon="14.8739982"><ele>454.0</ele><time>2026-03-29T09:29:22.957Z</time></trkpt><trkpt lat="40.7583911" lon="14.8741014"><ele>451.0</ele><time>2026-03-29T09:29:24.954Z</time></trkpt><trkpt lat="40.7583188" lon="14.8741335"><ele>448.0</ele><time>2026-03-29T09:29:31.95Z</time></trkpt><trkpt lat="40.758241" lon="14.8741311"><ele>448.00000000000006</ele><time>2026-03-29T09:29:35.954Z</time></trkpt><trkpt lat="40.75816" lon="14.8740801"><ele>448.0</ele><time>2026-03-29T09:29:37.95Z</time></trkpt><trkpt lat="40.758053" lon="14.874036"><ele>448.0</ele><time>2026-03-29T09:29:39.952Z</time></trkpt><trkpt lat="40.7579727" lon="14.8740247"><ele>448.0</ele><time>2026-03-29T09:29:40.958Z</time></trkpt><trkpt lat="40.7578966" lon="14.8739877"><ele>448.00000000000006</ele><time>2026-03-29T09:29:41.949Z</time></trkpt><trkpt lat="40.7578239" lon="14.8739389"><ele>448.0</ele><time>2026-03-29T09:29:42.952Z</time></trkpt><trkpt lat="40.7577273" lon="14.8738786"><ele>450.2</ele><time>2026-03-29T09:29:43.955Z</time></trkpt><trkpt lat="40.7576575" lon="14.8738387"><ele>452.4</ele><time>2026-03-29T09:29:44.952Z</time></trkpt><trkpt lat="40.7575714" lon="14.8738067"><ele>454.59999999999997</ele><time>2026-03-29T09:29:46.04Z</time></trkpt><trkpt lat="40.7574822" lon="14.8737723"><ele>456.79999999999995</ele><time>2026-03-29T09:29:47.051Z</time></trkpt><trkpt lat="40.7573164" lon="14.8737719"><ele>459.0</ele><time>2026-03-29T09:29:48.947Z</time></trkpt><trkpt lat="40.7572277" lon="14.8737857"><ele>459.0</ele><time>2026-03-29T09:29:49.944Z</time></trkpt><trkpt lat="40.7571534" lon="14.8738199"><ele>459.0</ele><time>2026-03-29T09:29:50.947Z</time></trkpt><trkpt lat="40.757067" lon="14.8738336"><ele>459.0</ele><time>2026-03-29T09:29:51.95Z</time></trkpt><trkpt lat="40.7570022" lon="14.8738444"><ele>459.0</ele><time>2026-03-29T09:29:52.947Z</time></trkpt><trkpt lat="40.7569198" lon="14.8738878"><ele>459.0</ele><time>2026-03-29T09:29:55.956Z</time></trkpt><trkpt lat="40.7568711" lon="14.8738196"><ele>459.0</ele><time>2026-03-29T09:29:58.947Z</time></trkpt><trkpt lat="40.7568677" lon="14.8736765"><ele>456.25</ele><time>2026-03-29T09:30:00.953Z</time></trkpt><trkpt lat="40.7568364" lon="14.8734906"><ele>453.5</ele><time>2026-03-29T09:30:02.956Z</time></trkpt><trkpt lat="40.7567731" lon="14.8733859"><ele>450.75</ele><time>2026-03-29T09:30:04.047Z</time></trkpt><trkpt lat="40.7566879" lon="14.8732859"><ele>448.0</ele><time>2026-03-29T09:30:05.028Z</time></trkpt><trkpt lat="40.7566116" lon="14.8731934"><ele>445.1666666666667</ele><time>2026-03-29T09:30:06.04Z</time></trkpt><trkpt lat="40.7565397" lon="14.8731138"><ele>442.33333333333337</ele><time>2026-03-29T09:30:06.952Z</time></trkpt><trkpt lat="40.7564676" lon="14.8730607"><ele>439.5</ele><time>2026-03-29T09:30:07.958Z</time></trkpt><trkpt lat="40.7563933" lon="14.873023"><ele>436.66666666666663</ele><time>2026-03-29T09:30:08.956Z</time></trkpt><trkpt lat="40.756323" lon="14.8729859"><ele>433.8333333333333</ele><time>2026-03-29T09:30:10.038Z</time></trkpt><trkpt lat="40.7562447" lon="14.8729595"><ele>431.0</ele><time>2026-03-29T09:30:11.032Z</time></trkpt><trkpt lat="40.7561801" lon="14.8729129"><ele>431.0</ele><time>2026-03-29T09:30:11.951Z</time></trkpt><trkpt lat="40.7561148" lon="14.8728429"><ele>431.0</ele><time>2026-03-29T09:30:12.957Z</time></trkpt><trkpt lat="40.7560265" lon="14.8727908"><ele>431.0</ele><time>2026-03-29T09:30:14.02Z</time></trkpt><trkpt lat="40.755926" lon="14.8727582"><ele>431.0</ele><time>2026-03-29T09:30:15.034Z</time></trkpt><trkpt lat="40.7558212" lon="14.8727126"><ele>431.0</ele><time>2026-03-29T09:30:16.04Z</time></trkpt><trkpt lat="40.7557256" lon="14.8726643"><ele>426.66666666666663</ele><time>2026-03-29T09:30:17.026Z</time></trkpt><trkpt lat="40.755637" lon="14.8726271"><ele>422.3333333333333</ele><time>2026-03-29T09:30:17.959Z</time></trkpt><trkpt lat="40.7555651" lon="14.8725939"><ele>418.0</ele><time>2026-03-29T09:30:18.978Z</time></trkpt><trkpt lat="40.7554829" lon="14.8725404"><ele>413.66666666666663</ele><time>2026-03-29T09:30:20.986Z</time></trkpt><trkpt lat="40.7555227" lon="14.8724274"><ele>409.3333333333333</ele><time>2026-03-29T09:30:23.963Z</time></trkpt><trkpt lat="40.7554657" lon="14.8723738"><ele>405.0</ele><time>2026-03-29T09:30:27.964Z</time></trkpt><trkpt lat="40.7553713" lon="14.8724282"><ele>405.0</ele><time>2026-03-29T09:30:29.959Z</time></trkpt><trkpt lat="40.7552878" lon="14.8725426"><ele>405.0</ele><time>2026-03-29T09:30:31.962Z</time></trkpt><trkpt lat="40.7552401" lon="14.8726135"><ele>405.0</ele><time>2026-03-29T09:30:33.957Z</time></trkpt><trkpt lat="40.7551635" lon="14.8725933"><ele>405.0</ele><time>2026-03-29T09:30:36.958Z</time></trkpt><trkpt lat="40.7551508" lon="14.8724627"><ele>405.0</ele><time>2026-03-29T09:30:38.96Z</time></trkpt><trkpt lat="40.7551496" lon="14.872334"><ele>405.0</ele><time>2026-03-29T09:30:39.95Z</time></trkpt><trkpt lat="40.7551544" lon="14.8722135"><ele>405.0</ele><time>2026-03-29T09:30:41.036Z</time></trkpt><trkpt lat="40.7551765" lon="14.8721209"><ele>405.0</ele><time>2026-03-29T09:30:42.035Z</time></trkpt><trkpt lat="40.7552198" lon="14.8720182"><ele>405.0</ele><time>2026-03-29T09:30:43.957Z</time></trkpt><trkpt lat="40.7551658" lon="14.8719287"><ele>405.0</ele><time>2026-03-29T09:30:46.954Z</time></trkpt><trkpt lat="40.7550989" lon="14.8719594"><ele>405.0</ele><time>2026-03-29T09:30:48.961Z</time></trkpt><trkpt lat="40.755034" lon="14.8720965"><ele>400.3333333333333</ele><time>2026-03-29T09:30:51.037Z</time></trkpt><trkpt lat="40.7550022" lon="14.8721947"><ele>395.6666666666667</ele><time>2026-03-29T09:30:52.954Z</time></trkpt><trkpt lat="40.7549434" lon="14.8721587"><ele>391.0</ele><time>2026-03-29T09:30:56.951Z</time></trkpt><trkpt lat="40.7549287" lon="14.8720646"><ele>386.33333333333337</ele><time>2026-03-29T09:30:57.954Z</time></trkpt><trkpt lat="40.7549366" lon="14.8719407"><ele>381.6666666666667</ele><time>2026-03-29T09:30:58.955Z</time></trkpt><trkpt lat="40.7549432" lon="14.8718286"><ele>377.0</ele><time>2026-03-29T09:30:59.955Z</time></trkpt><trkpt lat="40.7549605" lon="14.8717335"><ele>377.0</ele><time>2026-03-29T09:31:01.951Z</time></trkpt><trkpt lat="40.754878" lon="14.8718763"><ele>377.0</ele><time>2026-03-29T09:31:07.028Z</time></trkpt><trkpt lat="40.7548418" lon="14.8719639"><ele>377.0</ele><time>2026-03-29T09:31:07.95Z</time></trkpt><trkpt lat="40.7548051" lon="14.8720836"><ele>377.0</ele><time>2026-03-29T09:31:09.989Z</time></trkpt><trkpt lat="40.7547456" lon="14.8720475"><ele>377.0</ele><time>2026-03-29T09:31:13.953Z</time></trkpt><trkpt lat="40.7547439" lon="14.8719545"><ele>377.0</ele><time>2026-03-29T09:31:14.985Z</time></trkpt><trkpt lat="40.7547375" lon="14.8718479"><ele>374.6666666666667</ele><time>2026-03-29T09:31:16.033Z</time></trkpt><trkpt lat="40.7547339" lon="14.8717381"><ele>372.33333333333337</ele><time>2026-03-29T09:31:16.953Z</time></trkpt><trkpt lat="40.7547282" lon="14.8716254"><ele>370.0</ele><time>2026-03-29T09:31:17.954Z</time></trkpt><trkpt lat="40.7547277" lon="14.8715316"><ele>367.6666666666667</ele><time>2026-03-29T09:31:18.951Z</time></trkpt><trkpt lat="40.754718" lon="14.8714452"><ele>365.3333333333333</ele><time>2026-03-29T09:31:20.956Z</time></trkpt><trkpt lat="40.7546534" lon="14.8714697"><ele>363.0</ele><time>2026-03-29T09:31:24.951Z</time></trkpt><trkpt lat="40.7546359" lon="14.8715699"><ele>363.0</ele><time>2026-03-29T09:31:26.028Z</time></trkpt><trkpt lat="40.7546064" lon="14.8716812"><ele>363.0</ele><time>2026-03-29T09:31:26.966Z</time></trkpt><trkpt lat="40.7545713" lon="14.8718003"><ele>363.0</ele><time>2026-03-29T09:31:27.963Z</time></trkpt><trkpt lat="40.7545378" lon="14.8718793"><ele>363.0</ele><time>2026-03-29T09:31:28.972Z</time></trkpt><trkpt lat="40.7545047" lon="14.8719606"><ele>363.0</ele><time>2026-03-29T09:31:30.966Z</time></trkpt><trkpt lat="40.7544654" lon="14.8720302"><ele>363.0</ele><time>2026-03-29T09:31:33.983Z</time></trkpt><trkpt lat="40.7544453" lon="14.8719367"><ele>363.0</ele><time>2026-03-29T09:31:36.972Z</time></trkpt><trkpt lat="40.7544735" lon="14.871737"><ele>363.0</ele><time>2026-03-29T09:31:38.964Z</time></trkpt><trkpt lat="40.754498" lon="14.871616"><ele>363.0</ele><time>2026-03-29T09:31:40.009Z</time></trkpt><trkpt lat="40.7545236" lon="14.8715009"><ele>363.0</ele><time>2026-03-29T09:31:40.97Z</time></trkpt><trkpt lat="40.7545476" lon="14.8714091"><ele>363.0</ele><time>2026-03-29T09:31:42.029Z</time></trkpt><trkpt lat="40.7545955" lon="14.8713223"><ele>363.0</ele><time>2026-03-29T09:31:42.967Z</time></trkpt><trkpt lat="40.7546706" lon="14.8712801"><ele>363.0</ele><time>2026-03-29T09:31:43.968Z</time></trkpt><trkpt lat="40.7547662" lon="14.8712535"><ele>363.0</ele><time>2026-03-29T09:31:44.965Z</time></trkpt><trkpt lat="40.7548622" lon="14.8712152"><ele>363.0</ele><time>2026-03-29T09:31:45.968Z</time></trkpt><trkpt lat="40.7549589" lon="14.871159"><ele>363.0</ele><time>2026-03-29T09:31:46.966Z</time></trkpt><trkpt lat="40.7550545" lon="14.8710905"><ele>362.99999999999994</ele><time>2026-03-29T09:31:47.97Z</time></trkpt><trkpt lat="40.7551156" lon="14.8710283"><ele>363.0</ele><time>2026-03-29T09:31:49.05Z</time></trkpt><trkpt lat="40.7551706" lon="14.8709854"><ele>363.0</ele><time>2026-03-29T09:31:50.031Z</time></trkpt><trkpt lat="40.7552341" lon="14.8709414"><ele>363.0</ele><time>2026-03-29T09:31:51.038Z</time></trkpt><trkpt lat="40.7553093" lon="14.8709415"><ele>363.0</ele><time>2026-03-29T09:31:51.968Z</time></trkpt><trkpt lat="40.7553861" lon="14.8709682"><ele>362.99999999999994</ele><time>2026-03-29T09:31:52.972Z</time></trkpt><trkpt lat="40.7554549" lon="14.8709978"><ele>363.0</ele><time>2026-03-29T09:31:53.961Z</time></trkpt><trkpt lat="40.7555671" lon="14.8710041"><ele>364.5</ele><time>2026-03-29T09:31:55.965Z</time></trkpt><trkpt lat="40.7556545" lon="14.8709995"><ele>366.0</ele><time>2026-03-29T09:31:56.971Z</time></trkpt><trkpt lat="40.755741" lon="14.8709902"><ele>367.5</ele><time>2026-03-29T09:31:57.97Z</time></trkpt><trkpt lat="40.7558104" lon="14.8709999"><ele>369.0</ele><time>2026-03-29T09:31:58.966Z</time></trkpt><trkpt lat="40.7558883" lon="14.8710296"><ele>370.5</ele><time>2026-03-29T09:31:59.968Z</time></trkpt><trkpt lat="40.7559661" lon="14.8710912"><ele>372.0</ele><time>2026-03-29T09:32:01.037Z</time></trkpt><trkpt lat="40.7560204" lon="14.8711584"><ele>371.5</ele><time>2026-03-29T09:32:02.033Z</time></trkpt><trkpt lat="40.7560854" lon="14.8711993"><ele>371.0</ele><time>2026-03-29T09:32:02.971Z</time></trkpt><trkpt lat="40.7561914" lon="14.8711966"><ele>370.5</ele><time>2026-03-29T09:32:05.067Z</time></trkpt><trkpt lat="40.756272" lon="14.8711602"><ele>370.0</ele><time>2026-03-29T09:32:06.034Z</time></trkpt><trkpt lat="40.7563568" lon="14.8711516"><ele>369.5</ele><time>2026-03-29T09:32:07.028Z</time></trkpt><trkpt lat="40.7564262" lon="14.8711437"><ele>369.0</ele><time>2026-03-29T09:32:07.97Z</time></trkpt><trkpt lat="40.7565122" lon="14.8711296"><ele>369.0</ele><time>2026-03-29T09:32:09.966Z</time></trkpt><trkpt lat="40.7566359" lon="14.8711728"><ele>369.0</ele><time>2026-03-29T09:32:11.962Z</time></trkpt><trkpt lat="40.7567008" lon="14.8711923"><ele>369.0</ele><time>2026-03-29T09:32:12.964Z</time></trkpt><trkpt lat="40.7567937" lon="14.8712159"><ele>369.0</ele><time>2026-03-29T09:32:13.969Z</time></trkpt><trkpt lat="40.7569059" lon="14.8712415"><ele>369.0</ele><time>2026-03-29T09:32:14.981Z</time></trkpt><trkpt lat="40.7570271" lon="14.8712713"><ele>368.6</ele><time>2026-03-29T09:32:15.971Z</time></trkpt><trkpt lat="40.7571385" lon="14.8713004"><ele>368.2</ele><time>2026-03-29T09:32:16.97Z</time></trkpt><trkpt lat="40.7572505" lon="14.8713272"><ele>367.8</ele><time>2026-03-29T09:32:17.967Z</time></trkpt><trkpt lat="40.7573516" lon="14.871359"><ele>367.40000000000003</ele><time>2026-03-29T09:32:18.965Z</time></trkpt><trkpt lat="40.7574529" lon="14.871385"><ele>367.0</ele><time>2026-03-29T09:32:19.968Z</time></trkpt><trkpt lat="40.7575656" lon="14.8713957"><ele>367.0</ele><time>2026-03-29T09:32:20.981Z</time></trkpt><trkpt lat="40.7576837" lon="14.8713888"><ele>367.0</ele><time>2026-03-29T09:32:21.967Z</time></trkpt><trkpt lat="40.7577983" lon="14.8713775"><ele>367.0</ele><time>2026-03-29T09:32:22.97Z</time></trkpt><trkpt lat="40.7579072" lon="14.8713314"><ele>367.0</ele><time>2026-03-29T09:32:23.964Z</time></trkpt><trkpt lat="40.7580153" lon="14.8712478"><ele>367.8</ele><time>2026-03-29T09:32:24.962Z</time></trkpt><trkpt lat="40.7581305" lon="14.8711843"><ele>368.6</ele><time>2026-03-29T09:32:25.967Z</time></trkpt><trkpt lat="40.7582483" lon="14.8711378"><ele>369.40000000000003</ele><time>2026-03-29T09:32:26.963Z</time></trkpt><trkpt lat="40.7583443" lon="14.8711061"><ele>370.20000000000005</ele><time>2026-03-29T09:32:27.968Z</time></trkpt><trkpt lat="40.758423" lon="14.8710922"><ele>371.0</ele><time>2026-03-29T09:32:28.968Z</time></trkpt><trkpt lat="40.7585057" lon="14.8710758"><ele>371.0</ele><time>2026-03-29T09:32:29.967Z</time></trkpt><trkpt lat="40.758626" lon="14.8710522"><ele>371.0</ele><time>2026-03-29T09:32:30.971Z</time></trkpt><trkpt lat="40.7587676" lon="14.871004"><ele>371.0</ele><time>2026-03-29T09:32:32.035Z</time></trkpt><trkpt lat="40.758923" lon="14.8709262"><ele>371.0</ele><time>2026-03-29T09:32:32.968Z</time></trkpt><trkpt lat="40.7590675" lon="14.8708429"><ele>371.0</ele><time>2026-03-29T09:32:33.963Z</time></trkpt><trkpt lat="40.7591797" lon="14.8707684"><ele>371.0</ele><time>2026-03-29T09:32:34.998Z</time></trkpt><trkpt lat="40.7592664" lon="14.87073"><ele>371.0</ele><time>2026-03-29T09:32:36.033Z</time></trkpt><trkpt lat="40.7593388" lon="14.8706896"><ele>371.0</ele><time>2026-03-29T09:32:37.037Z</time></trkpt><trkpt lat="40.7594041" lon="14.8706593"><ele>371.0</ele><time>2026-03-29T09:32:37.966Z</time></trkpt><trkpt lat="40.7594731" lon="14.8706494"><ele>371.0</ele><time>2026-03-29T09:32:38.963Z</time></trkpt><trkpt lat="40.7595518" lon="14.8706632"><ele>371.5</ele><time>2026-03-29T09:32:40.073Z</time></trkpt><trkpt lat="40.7596481" lon="14.8706766"><ele>372.0</ele><time>2026-03-29T09:32:41.03Z</time></trkpt><trkpt lat="40.7597425" lon="14.8706772"><ele>372.5</ele><time>2026-03-29T09:32:42.032Z</time></trkpt><trkpt lat="40.7598138" lon="14.8706812"><ele>373.0</ele><time>2026-03-29T09:32:42.967Z</time></trkpt><trkpt lat="40.7598775" lon="14.8706901"><ele>373.5</ele><time>2026-03-29T09:32:43.967Z</time></trkpt><trkpt lat="40.7599685" lon="14.8706757"><ele>374.0</ele><time>2026-03-29T09:32:45.969Z</time></trkpt><trkpt lat="40.7600531" lon="14.870701"><ele>374.0</ele><time>2026-03-29T09:32:48.967Z</time></trkpt><trkpt lat="40.7601232" lon="14.8707477"><ele>374.0</ele><time>2026-03-29T09:32:50.967Z</time></trkpt><trkpt lat="40.7602013" lon="14.8708277"><ele>374.0</ele><time>2026-03-29T09:32:53.961Z</time></trkpt><trkpt lat="40.760262" lon="14.8708833"><ele>374.0</ele><time>2026-03-29T09:32:56.037Z</time></trkpt><trkpt lat="40.7603222" lon="14.8709361"><ele>374.0</ele><time>2026-03-29T09:32:57.965Z</time></trkpt><trkpt lat="40.7603973" lon="14.8709841"><ele>374.0</ele><time>2026-03-29T09:32:59.968Z</time></trkpt><trkpt lat="40.760472" lon="14.8710551"><ele>377.57142857142856</ele><time>2026-03-29T09:33:02.967Z</time></trkpt><trkpt lat="40.7605184" lon="14.8711149"><ele>381.14285714285717</ele><time>2026-03-29T09:33:05.97Z</time></trkpt><trkpt lat="40.7605686" lon="14.8711813"><ele>384.7142857142857</ele><time>2026-03-29T09:33:07.971Z</time></trkpt><trkpt lat="40.7606238" lon="14.8712459"><ele>388.2857142857143</ele><time>2026-03-29T09:33:10.96Z</time></trkpt><trkpt lat="40.7606851" lon="14.8712998"><ele>391.8571428571429</ele><time>2026-03-29T09:33:34.963Z</time></trkpt><trkpt lat="40.7607729" lon="14.8713374"><ele>395.42857142857144</ele><time>2026-03-29T09:33:45.972Z</time></trkpt><trkpt lat="40.7607096" lon="14.8713443"><ele>399.0</ele><time>2026-03-29T09:33:51.968Z</time></trkpt><trkpt lat="40.7606279" lon="14.8713192"><ele>399.0</ele><time>2026-03-29T09:33:55.968Z</time></trkpt><trkpt lat="40.7605289" lon="14.8712541"><ele>399.0</ele><time>2026-03-29T09:33:59.033Z</time></trkpt><trkpt lat="40.7604387" lon="14.8711845"><ele>399.0</ele><time>2026-03-29T09:34:00.96Z</time></trkpt><trkpt lat="40.7603302" lon="14.8711177"><ele>399.0</ele><time>2026-03-29T09:34:02.969Z</time></trkpt><trkpt lat="40.7602315" lon="14.8710339"><ele>394.0</ele><time>2026-03-29T09:34:05.042Z</time></trkpt><trkpt lat="40.7601415" lon="14.8709279"><ele>389.0</ele><time>2026-03-29T09:34:07.048Z</time></trkpt><trkpt lat="40.7600833" lon="14.8708107"><ele>384.0</ele><time>2026-03-29T09:34:08.971Z</time></trkpt><trkpt lat="40.7599969" lon="14.8707805"><ele>379.0</ele><time>2026-03-29T09:34:10.972Z</time></trkpt><trkpt lat="40.7599374" lon="14.8707056"><ele>374.0</ele><time>2026-03-29T09:34:13.965Z</time></trkpt><trkpt lat="40.7600123" lon="14.8706748"><ele>374.0</ele><time>2026-03-29T09:34:17.04Z</time></trkpt><trkpt lat="40.7601038" lon="14.8706656"><ele>374.0</ele><time>2026-03-29T09:34:17.965Z</time></trkpt><trkpt lat="40.7602055" lon="14.8706356"><ele>374.0</ele><time>2026-03-29T09:34:18.968Z</time></trkpt><trkpt lat="40.7603" lon="14.8706106"><ele>374.0</ele><time>2026-03-29T09:34:19.992Z</time></trkpt><trkpt lat="40.7603802" lon="14.8705851"><ele>374.0</ele><time>2026-03-29T09:34:20.97Z</time></trkpt><trkpt lat="40.760451" lon="14.8705672"><ele>374.0</ele><time>2026-03-29T09:34:21.962Z</time></trkpt><trkpt lat="40.7605225" lon="14.8705587"><ele>375.33333333333337</ele><time>2026-03-29T09:34:22.97Z</time></trkpt><trkpt lat="40.7605921" lon="14.870557"><ele>376.6666666666667</ele><time>2026-03-29T09:34:23.968Z</time></trkpt><trkpt lat="40.7606578" lon="14.8705374"><ele>378.0</ele><time>2026-03-29T09:34:24.995Z</time></trkpt><trkpt lat="40.7607251" lon="14.8704885"><ele>379.3333333333333</ele><time>2026-03-29T09:34:25.965Z</time></trkpt><trkpt lat="40.7607832" lon="14.8704039"><ele>380.66666666666663</ele><time>2026-03-29T09:34:27.041Z</time></trkpt><trkpt lat="40.7608467" lon="14.8702839"><ele>382.0</ele><time>2026-03-29T09:34:27.965Z</time></trkpt><trkpt lat="40.7609116" lon="14.8701712"><ele>382.0</ele><time>2026-03-29T09:34:28.968Z</time></trkpt><trkpt lat="40.7609707" lon="14.8701135"><ele>382.0</ele><time>2026-03-29T09:34:29.998Z</time></trkpt><trkpt lat="40.7610394" lon="14.8699753"><ele>382.0</ele><time>2026-03-29T09:34:31.967Z</time></trkpt><trkpt lat="40.76105" lon="14.869892"><ele>382.0</ele><time>2026-03-29T09:34:32.967Z</time></trkpt><trkpt lat="40.7610797" lon="14.869807"><ele>382.0</ele><time>2026-03-29T09:34:33.968Z</time></trkpt><trkpt lat="40.7611335" lon="14.8697245"><ele>382.0</ele><time>2026-03-29T09:34:35.04Z</time></trkpt><trkpt lat="40.7611892" lon="14.8696642"><ele>383.66666666666663</ele><time>2026-03-29T09:34:36.032Z</time></trkpt><trkpt lat="40.7612538" lon="14.8695817"><ele>385.3333333333333</ele><time>2026-03-29T09:34:37.971Z</time></trkpt><trkpt lat="40.7613048" lon="14.8694641"><ele>387.0</ele><time>2026-03-29T09:34:39.998Z</time></trkpt><trkpt lat="40.7613198" lon="14.8693679"><ele>388.66666666666663</ele><time>2026-03-29T09:34:40.969Z</time></trkpt><trkpt lat="40.7613279" lon="14.8692711"><ele>390.3333333333333</ele><time>2026-03-29T09:34:41.969Z</time></trkpt><trkpt lat="40.7613268" lon="14.8691749"><ele>392.0</ele><time>2026-03-29T09:34:42.966Z</time></trkpt><trkpt lat="40.76132" lon="14.8690791"><ele>392.0</ele><time>2026-03-29T09:34:43.972Z</time></trkpt><trkpt lat="40.7613215" lon="14.868991"><ele>392.0</ele><time>2026-03-29T09:34:44.972Z</time></trkpt><trkpt lat="40.7613313" lon="14.8689041"><ele>392.0</ele><time>2026-03-29T09:34:46.054Z</time></trkpt><trkpt lat="40.7613471" lon="14.8688226"><ele>392.0</ele><time>2026-03-29T09:34:47.037Z</time></trkpt><trkpt lat="40.7613707" lon="14.8687423"><ele>392.0</ele><time>2026-03-29T09:34:47.973Z</time></trkpt><trkpt lat="40.7613915" lon="14.8686454"><ele>392.0</ele><time>2026-03-29T09:34:48.965Z</time></trkpt><trkpt lat="40.7614154" lon="14.8685367"><ele>392.0</ele><time>2026-03-29T09:34:49.969Z</time></trkpt><trkpt lat="40.7614382" lon="14.8684089"><ele>392.49999999999994</ele><time>2026-03-29T09:34:50.966Z</time></trkpt><trkpt lat="40.7614544" lon="14.8682981"><ele>393.0</ele><time>2026-03-29T09:34:51.961Z</time></trkpt><trkpt lat="40.761451" lon="14.8681785"><ele>393.5</ele><time>2026-03-29T09:34:52.964Z</time></trkpt><trkpt lat="40.7614391" lon="14.8680734"><ele>394.0</ele><time>2026-03-29T09:34:53.967Z</time></trkpt><trkpt lat="40.7614367" lon="14.8679631"><ele>394.49999999999994</ele><time>2026-03-29T09:34:55.043Z</time></trkpt><trkpt lat="40.761458" lon="14.8678516"><ele>395.0</ele><time>2026-03-29T09:34:56.03Z</time></trkpt><trkpt lat="40.7614919" lon="14.8677404"><ele>394.99999999999994</ele><time>2026-03-29T09:34:57.04Z</time></trkpt><trkpt lat="40.7615309" lon="14.8676376"><ele>395.0</ele><time>2026-03-29T09:34:57.967Z</time></trkpt><trkpt lat="40.7615822" lon="14.8675349"><ele>395.0</ele><time>2026-03-29T09:34:58.963Z</time></trkpt><trkpt lat="40.761652" lon="14.867469"><ele>395.0</ele><time>2026-03-29T09:34:59.968Z</time></trkpt><trkpt lat="40.7617306" lon="14.8674235"><ele>394.99999999999994</ele><time>2026-03-29T09:35:00.97Z</time></trkpt><trkpt lat="40.7618074" lon="14.8674003"><ele>395.0</ele><time>2026-03-29T09:35:01.969Z</time></trkpt><trkpt lat="40.7618847" lon="14.8673851"><ele>397.7142857142857</ele><time>2026-03-29T09:35:02.981Z</time></trkpt><trkpt lat="40.7619608" lon="14.8673768"><ele>400.42857142857144</ele><time>2026-03-29T09:35:04.041Z</time></trkpt><trkpt lat="40.7620274" lon="14.8673656"><ele>403.14285714285717</ele><time>2026-03-29T09:35:05.036Z</time></trkpt><trkpt lat="40.7620896" lon="14.86733"><ele>405.8571428571429</ele><time>2026-03-29T09:35:06.037Z</time></trkpt><trkpt lat="40.7621599" lon="14.8672828"><ele>408.57142857142856</ele><time>2026-03-29T09:35:07.031Z</time></trkpt><trkpt lat="40.7622313" lon="14.8672422"><ele>411.28571428571433</ele><time>2026-03-29T09:35:07.97Z</time></trkpt><trkpt lat="40.7623009" lon="14.867188"><ele>414.0</ele><time>2026-03-29T09:35:08.97Z</time></trkpt><trkpt lat="40.7623682" lon="14.8671321"><ele>414.0</ele><time>2026-03-29T09:35:09.989Z</time></trkpt><trkpt lat="40.7624561" lon="14.8670732"><ele>414.0</ele><time>2026-03-29T09:35:12.045Z</time></trkpt><trkpt lat="40.7625207" lon="14.8670688"><ele>414.0</ele><time>2026-03-29T09:35:13.97Z</time></trkpt><trkpt lat="40.7626201" lon="14.8670793"><ele>414.0</ele><time>2026-03-29T09:35:16.035Z</time></trkpt><trkpt lat="40.7626941" lon="14.8670782"><ele>414.0</ele><time>2026-03-29T09:35:17.038Z</time></trkpt><trkpt lat="40.7627862" lon="14.8670671"><ele>414.0</ele><time>2026-03-29T09:35:17.968Z</time></trkpt><trkpt lat="40.7628984" lon="14.867054"><ele>420.0</ele><time>2026-03-29T09:35:18.97Z</time></trkpt><trkpt lat="40.7630224" lon="14.867044"><ele>426.0</ele><time>2026-03-29T09:35:19.965Z</time></trkpt><trkpt lat="40.7631476" lon="14.8670312"><ele>432.0</ele><time>2026-03-29T09:35:20.967Z</time></trkpt><trkpt lat="40.7632582" lon="14.8670164"><ele>438.0</ele><time>2026-03-29T09:35:21.969Z</time></trkpt><trkpt lat="40.7633719" lon="14.8670137"><ele>438.0</ele><time>2026-03-29T09:35:22.966Z</time></trkpt><trkpt lat="40.7634812" lon="14.867038"><ele>437.99999999999994</ele><time>2026-03-29T09:35:23.966Z</time></trkpt><trkpt lat="40.7635846" lon="14.8670798"><ele>437.99999999999994</ele><time>2026-03-29T09:35:24.961Z</time></trkpt><trkpt lat="40.7636644" lon="14.8671228"><ele>438.0</ele><time>2026-03-29T09:35:25.973Z</time></trkpt><trkpt lat="40.7637576" lon="14.8672096"><ele>438.0</ele><time>2026-03-29T09:35:27.963Z</time></trkpt><trkpt lat="40.7638068" lon="14.8673827"><ele>437.2</ele><time>2026-03-29T09:35:29.968Z</time></trkpt><trkpt lat="40.7638102" lon="14.8675182"><ele>436.4</ele><time>2026-03-29T09:35:30.968Z</time></trkpt><trkpt lat="40.763814" lon="14.8676498"><ele>435.59999999999997</ele><time>2026-03-29T09:35:31.966Z</time></trkpt><trkpt lat="40.7638332" lon="14.8677621"><ele>434.79999999999995</ele><time>2026-03-29T09:35:32.964Z</time></trkpt><trkpt lat="40.7638557" lon="14.8678979"><ele>434.0</ele><time>2026-03-29T09:35:35.037Z</time></trkpt><trkpt lat="40.7638983" lon="14.868044"><ele>435.99999999999994</ele><time>2026-03-29T09:35:36.97Z</time></trkpt><trkpt lat="40.7639387" lon="14.8681152"><ele>438.0</ele><time>2026-03-29T09:35:37.964Z</time></trkpt><trkpt lat="40.7640061" lon="14.8682237"><ele>440.0</ele><time>2026-03-29T09:35:40.029Z</time></trkpt><trkpt lat="40.7640722" lon="14.8682678"><ele>442.0</ele><time>2026-03-29T09:35:41.041Z</time></trkpt><trkpt lat="40.7641384" lon="14.8683058"><ele>443.99999999999994</ele><time>2026-03-29T09:35:41.966Z</time></trkpt><trkpt lat="40.7642001" lon="14.8683303"><ele>446.0</ele><time>2026-03-29T09:35:42.962Z</time></trkpt><trkpt lat="40.7643455" lon="14.8683552"><ele>446.6</ele><time>2026-03-29T09:35:44.967Z</time></trkpt><trkpt lat="40.7644383" lon="14.8683551"><ele>447.20000000000005</ele><time>2026-03-29T09:35:45.964Z</time></trkpt><trkpt lat="40.7645416" lon="14.8683788"><ele>447.79999999999995</ele><time>2026-03-29T09:35:46.974Z</time></trkpt><trkpt lat="40.7646386" lon="14.8684182"><ele>448.4</ele><time>2026-03-29T09:35:47.968Z</time></trkpt><trkpt lat="40.7647523" lon="14.868468"><ele>449.0</ele><time>2026-03-29T09:35:48.967Z</time></trkpt><trkpt lat="40.7648634" lon="14.8685456"><ele>452.79999999999995</ele><time>2026-03-29T09:35:50.04Z</time></trkpt><trkpt lat="40.7649682" lon="14.8685947"><ele>456.59999999999997</ele><time>2026-03-29T09:35:50.966Z</time></trkpt><trkpt lat="40.7650729" lon="14.8686386"><ele>460.4</ele><time>2026-03-29T09:35:51.965Z</time></trkpt><trkpt lat="40.7651627" lon="14.8686753"><ele>464.2</ele><time>2026-03-29T09:35:52.961Z</time></trkpt><trkpt lat="40.7652448" lon="14.8687042"><ele>468.0</ele><time>2026-03-29T09:35:53.963Z</time></trkpt><trkpt lat="40.765333" lon="14.8687321"><ele>468.0</ele><time>2026-03-29T09:35:54.965Z</time></trkpt><trkpt lat="40.7654111" lon="14.8687849"><ele>468.0</ele><time>2026-03-29T09:35:56.028Z</time></trkpt><trkpt lat="40.7654857" lon="14.8688404"><ele>468.0</ele><time>2026-03-29T09:35:57.025Z</time></trkpt><trkpt lat="40.7655522" lon="14.8688904"><ele>468.0</ele><time>2026-03-29T09:35:57.963Z</time></trkpt><trkpt lat="40.7656261" lon="14.8689377"><ele>468.0</ele><time>2026-03-29T09:35:58.964Z</time></trkpt><trkpt lat="40.7656897" lon="14.8689726"><ele>468.0</ele><time>2026-03-29T09:35:59.983Z</time></trkpt><trkpt lat="40.7657936" lon="14.8690632"><ele>468.0</ele><time>2026-03-29T09:36:02.042Z</time></trkpt><trkpt lat="40.7658388" lon="14.8691376"><ele>468.0</ele><time>2026-03-29T09:36:02.962Z</time></trkpt><trkpt lat="40.7658819" lon="14.8692071"><ele>468.0</ele><time>2026-03-29T09:36:03.967Z</time></trkpt><trkpt lat="40.7659329" lon="14.8692771"><ele>468.0</ele><time>2026-03-29T09:36:04.965Z</time></trkpt><trkpt lat="40.7659878" lon="14.8693378"><ele>468.0</ele><time>2026-03-29T09:36:06.039Z</time></trkpt><trkpt lat="40.7660964" lon="14.8694129"><ele>468.0</ele><time>2026-03-29T09:36:07.98Z</time></trkpt><trkpt lat="40.7661547" lon="14.8694534"><ele>470.6666666666667</ele><time>2026-03-29T09:36:09.006Z</time></trkpt><trkpt lat="40.7662256" lon="14.8695012"><ele>473.33333333333337</ele><time>2026-03-29T09:36:09.966Z</time></trkpt><trkpt lat="40.766294" lon="14.8695593"><ele>476.0</ele><time>2026-03-29T09:36:11.031Z</time></trkpt><trkpt lat="40.7663536" lon="14.8696051"><ele>478.6666666666667</ele><time>2026-03-29T09:36:12.042Z</time></trkpt><trkpt lat="40.766422" lon="14.8696576"><ele>481.33333333333337</ele><time>2026-03-29T09:36:12.97Z</time></trkpt><trkpt lat="40.7665029" lon="14.8697306"><ele>484.0</ele><time>2026-03-29T09:36:13.965Z</time></trkpt><trkpt lat="40.7665732" lon="14.8698069"><ele>484.00000000000006</ele><time>2026-03-29T09:36:14.995Z</time></trkpt><trkpt lat="40.7666277" lon="14.8698724"><ele>484.0</ele><time>2026-03-29T09:36:16.036Z</time></trkpt><trkpt lat="40.766696" lon="14.8700012"><ele>484.0</ele><time>2026-03-29T09:36:17.966Z</time></trkpt><trkpt lat="40.7667226" lon="14.8700789"><ele>484.0</ele><time>2026-03-29T09:36:18.966Z</time></trkpt><trkpt lat="40.766782" lon="14.8701555"><ele>484.00000000000006</ele><time>2026-03-29T09:36:20.969Z</time></trkpt><trkpt lat="40.7668406" lon="14.8702146"><ele>484.0</ele><time>2026-03-29T09:36:22.967Z</time></trkpt><trkpt lat="40.7667782" lon="14.8701773"><ele>484.00000000000006</ele><time>2026-03-29T09:36:28.966Z</time></trkpt><trkpt lat="40.7667155" lon="14.8701436"><ele>484.0</ele><time>2026-03-29T09:36:29.962Z</time></trkpt><trkpt lat="40.7666459" lon="14.8700996"><ele>484.0</ele><time>2026-03-29T09:36:31.028Z</time></trkpt><trkpt lat="40.7665737" lon="14.8700597"><ele>484.0</ele><time>2026-03-29T09:36:32.04Z</time></trkpt><trkpt lat="40.7665014" lon="14.87004"><ele>484.00000000000006</ele><time>2026-03-29T09:36:32.964Z</time></trkpt><trkpt lat="40.7664145" lon="14.8700293"><ele>484.0</ele><time>2026-03-29T09:36:33.969Z</time></trkpt><trkpt lat="40.7663116" lon="14.8700334"><ele>484.0</ele><time>2026-03-29T09:36:34.964Z</time></trkpt><trkpt lat="40.7662259" lon="14.8700438"><ele>483.99999999999994</ele><time>2026-03-29T09:36:35.966Z</time></trkpt><trkpt lat="40.76616" lon="14.870055"><ele>484.0</ele><time>2026-03-29T09:36:36.969Z</time></trkpt><trkpt lat="40.766096" lon="14.8700658"><ele>484.0</ele><time>2026-03-29T09:36:37.969Z</time></trkpt><trkpt lat="40.7660308" lon="14.8700353"><ele>483.99999999999994</ele><time>2026-03-29T09:36:38.973Z</time></trkpt><trkpt lat="40.7659698" lon="14.8700089"><ele>484.0</ele><time>2026-03-29T09:36:39.964Z</time></trkpt><trkpt lat="40.7659062" lon="14.8699795"><ele>484.0</ele><time>2026-03-29T09:36:40.971Z</time></trkpt><trkpt lat="40.7658195" lon="14.8699623"><ele>487.6</ele><time>2026-03-29T09:36:41.96Z</time></trkpt><trkpt lat="40.7657494" lon="14.8699395"><ele>491.2</ele><time>2026-03-29T09:36:42.966Z</time></trkpt><trkpt lat="40.7656817" lon="14.8699284"><ele>494.80000000000007</ele><time>2026-03-29T09:36:43.994Z</time></trkpt><trkpt lat="40.7656113" lon="14.8699377"><ele>498.40000000000003</ele><time>2026-03-29T09:36:44.966Z</time></trkpt><trkpt lat="40.7654556" lon="14.8699599"><ele>502.0</ele><time>2026-03-29T09:36:46.03Z</time></trkpt><trkpt lat="40.7652912" lon="14.8699597"><ele>505.5</ele><time>2026-03-29T09:36:47.034Z</time></trkpt><trkpt lat="40.7651534" lon="14.8699416"><ele>509.0</ele><time>2026-03-29T09:36:47.964Z</time></trkpt><trkpt lat="40.7650214" lon="14.8699264"><ele>512.5</ele><time>2026-03-29T09:36:48.971Z</time></trkpt><trkpt lat="40.764882" lon="14.8699178"><ele>516.0</ele><time>2026-03-29T09:36:49.981Z</time></trkpt><trkpt lat="40.7647408" lon="14.8699132"><ele>516.0</ele><time>2026-03-29T09:36:51.038Z</time></trkpt><trkpt lat="40.7646" lon="14.8698843"><ele>516.0</ele><time>2026-03-29T09:36:52.034Z</time></trkpt><trkpt lat="40.7644923" lon="14.8698637"><ele>516.0</ele><time>2026-03-29T09:36:52.971Z</time></trkpt><trkpt lat="40.7644144" lon="14.8698696"><ele>516.0</ele><time>2026-03-29T09:36:53.964Z</time></trkpt><trkpt lat="40.7643424" lon="14.8698764"><ele>516.0</ele><time>2026-03-29T09:36:54.967Z</time></trkpt><trkpt lat="40.7642726" lon="14.8699462"><ele>516.6666666666666</ele><time>2026-03-29T09:36:56.971Z</time></trkpt><trkpt lat="40.7642343" lon="14.8700299"><ele>517.3333333333334</ele><time>2026-03-29T09:36:57.966Z</time></trkpt><trkpt lat="40.7641921" lon="14.8701162"><ele>518.0</ele><time>2026-03-29T09:36:58.98Z</time></trkpt><trkpt lat="40.7641498" lon="14.8702164"><ele>518.6666666666667</ele><time>2026-03-29T09:37:00.039Z</time></trkpt><trkpt lat="40.7641119" lon="14.870302"><ele>519.3333333333334</ele><time>2026-03-29T09:37:00.981Z</time></trkpt><trkpt lat="40.7640751" lon="14.870375"><ele>520.0</ele><time>2026-03-29T09:37:01.966Z</time></trkpt><trkpt lat="40.7640099" lon="14.8704606"><ele>520.0</ele><time>2026-03-29T09:37:03.971Z</time></trkpt><trkpt lat="40.7639143" lon="14.8705454"><ele>520.0</ele><time>2026-03-29T09:37:05.969Z</time></trkpt><trkpt lat="40.7638306" lon="14.8706199"><ele>520.0</ele><time>2026-03-29T09:37:06.97Z</time></trkpt><trkpt lat="40.7637606" lon="14.870675"><ele>520.0</ele><time>2026-03-29T09:37:07.963Z</time></trkpt><trkpt lat="40.7636903" lon="14.8707237"><ele>520.0</ele><time>2026-03-29T09:37:08.974Z</time></trkpt><trkpt lat="40.7636283" lon="14.8707774"><ele>520.0</ele><time>2026-03-29T09:37:09.969Z</time></trkpt><trkpt lat="40.7635718" lon="14.8708315"><ele>520.0</ele><time>2026-03-29T09:37:10.972Z</time></trkpt><trkpt lat="40.7635309" lon="14.8709079"><ele>520.0</ele><time>2026-03-29T09:37:12.975Z</time></trkpt><trkpt lat="40.763616" lon="14.8710126"><ele>520.0</ele><time>2026-03-29T09:37:15.969Z</time></trkpt><trkpt lat="40.763679" lon="14.8710424"><ele>520.0</ele><time>2026-03-29T09:37:16.972Z</time></trkpt><trkpt lat="40.7637463" lon="14.8710738"><ele>520.0</ele><time>2026-03-29T09:37:17.968Z</time></trkpt><trkpt lat="40.7638307" lon="14.8711633"><ele>515.4</ele><time>2026-03-29T09:37:19.973Z</time></trkpt><trkpt lat="40.7638893" lon="14.8712672"><ele>510.8</ele><time>2026-03-29T09:37:21.973Z</time></trkpt><trkpt lat="40.7639562" lon="14.8713536"><ele>506.20000000000005</ele><time>2026-03-29T09:37:23.974Z</time></trkpt><trkpt lat="40.7640128" lon="14.8714124"><ele>501.6</ele><time>2026-03-29T09:37:24.973Z</time></trkpt><trkpt lat="40.7640976" lon="14.8715041"><ele>497.0</ele><time>2026-03-29T09:37:26.968Z</time></trkpt><trkpt lat="40.7641555" lon="14.8716167"><ele>497.0</ele><time>2026-03-29T09:37:28.963Z</time></trkpt><trkpt lat="40.7641753" lon="14.8717544"><ele>497.00000000000006</ele><time>2026-03-29T09:37:30.97Z</time></trkpt><trkpt lat="40.7642481" lon="14.871841"><ele>497.00000000000006</ele><time>2026-03-29T09:37:32.971Z</time></trkpt><trkpt lat="40.7643076" lon="14.8718869"><ele>497.0</ele><time>2026-03-29T09:37:33.972Z</time></trkpt><trkpt lat="40.7643816" lon="14.8719594"><ele>497.0</ele><time>2026-03-29T09:37:35.97Z</time></trkpt><trkpt lat="40.76443" lon="14.8720582"><ele>496.3333333333333</ele><time>2026-03-29T09:37:37.968Z</time></trkpt><trkpt lat="40.7644641" lon="14.8721979"><ele>495.66666666666663</ele><time>2026-03-29T09:37:39.971Z</time></trkpt><trkpt lat="40.7644889" lon="14.8722959"><ele>495.0</ele><time>2026-03-29T09:37:41.971Z</time></trkpt><trkpt lat="40.7644418" lon="14.8723652"><ele>494.33333333333337</ele><time>2026-03-29T09:37:43.971Z</time></trkpt><trkpt lat="40.7643849" lon="14.8724674"><ele>493.6666666666667</ele><time>2026-03-29T09:37:45.967Z</time></trkpt><trkpt lat="40.764373" lon="14.872569"><ele>493.0</ele><time>2026-03-29T09:37:47.97Z</time></trkpt><trkpt lat="40.764339" lon="14.8726495"><ele>493.00000000000006</ele><time>2026-03-29T09:37:51.031Z</time></trkpt><trkpt lat="40.7642757" lon="14.8727523"><ele>493.0</ele><time>2026-03-29T09:37:52.972Z</time></trkpt><trkpt lat="40.7642136" lon="14.8728414"><ele>493.0</ele><time>2026-03-29T09:37:53.967Z</time></trkpt><trkpt lat="40.7641615" lon="14.8728944"><ele>493.0</ele><time>2026-03-29T09:37:54.977Z</time></trkpt><trkpt lat="40.7640868" lon="14.8729411"><ele>493.00000000000006</ele><time>2026-03-29T09:37:55.964Z</time></trkpt><trkpt lat="40.764025" lon="14.8729779"><ele>493.0</ele><time>2026-03-29T09:37:56.971Z</time></trkpt><trkpt lat="40.7639541" lon="14.8730357"><ele>493.0</ele><time>2026-03-29T09:37:57.969Z</time></trkpt><trkpt lat="40.763896" lon="14.8731218"><ele>492.99999999999994</ele><time>2026-03-29T09:37:59.967Z</time></trkpt><trkpt lat="40.7638812" lon="14.8732708"><ele>492.99999999999994</ele><time>2026-03-29T09:38:01.969Z</time></trkpt><trkpt lat="40.7638842" lon="14.8733784"><ele>493.0</ele><time>2026-03-29T09:38:04.044Z</time></trkpt><trkpt lat="40.7638752" lon="14.873514"><ele>493.0</ele><time>2026-03-29T09:38:05.968Z</time></trkpt><trkpt lat="40.7638524" lon="14.8736117"><ele>493.00000000000006</ele><time>2026-03-29T09:38:07.97Z</time></trkpt><trkpt lat="40.7637885" lon="14.873652"><ele>493.0</ele><time>2026-03-29T09:38:10.97Z</time></trkpt><trkpt lat="40.7637283" lon="14.8735796"><ele>493.0</ele><time>2026-03-29T09:38:12.976Z</time></trkpt><trkpt lat="40.7636711" lon="14.873506"><ele>493.0</ele><time>2026-03-29T09:38:14.97Z</time></trkpt><trkpt lat="40.7636312" lon="14.8734117"><ele>493.00000000000006</ele><time>2026-03-29T09:38:16.972Z</time></trkpt><trkpt lat="40.7635746" lon="14.8733131"><ele>493.0</ele><time>2026-03-29T09:38:18.971Z</time></trkpt><trkpt lat="40.7635099" lon="14.8732114"><ele>493.0</ele><time>2026-03-29T09:38:21.055Z</time></trkpt><trkpt lat="40.76346" lon="14.8731092"><ele>492.99999999999994</ele><time>2026-03-29T09:38:22.973Z</time></trkpt><trkpt lat="40.7634862" lon="14.8729989"><ele>492.99999999999994</ele><time>2026-03-29T09:38:24.97Z</time></trkpt><trkpt lat="40.7635392" lon="14.8729331"><ele>493.0</ele><time>2026-03-29T09:38:26.961Z</time></trkpt><trkpt lat="40.7636334" lon="14.8728763"><ele>493.0</ele><time>2026-03-29T09:38:28.969Z</time></trkpt><trkpt lat="40.7637237" lon="14.8728164"><ele>493.0</ele><time>2026-03-29T09:38:31.038Z</time></trkpt><trkpt lat="40.7637643" lon="14.8727478"><ele>493.0</ele><time>2026-03-29T09:38:32.954Z</time></trkpt><trkpt lat="40.7638028" lon="14.8726516"><ele>493.0</ele><time>2026-03-29T09:38:34.958Z</time></trkpt><trkpt lat="40.7637345" lon="14.8726415"><ele>493.0</ele><time>2026-03-29T09:38:41.948Z</time></trkpt><trkpt lat="40.7636352" lon="14.8726331"><ele>493.0</ele><time>2026-03-29T09:38:43.957Z</time></trkpt><trkpt lat="40.7635741" lon="14.8726004"><ele>493.0</ele><time>2026-03-29T09:38:45.954Z</time></trkpt><trkpt lat="40.7635895" lon="14.8725145"><ele>493.0</ele><time>2026-03-29T09:38:47.966Z</time></trkpt><trkpt lat="40.7636084" lon="14.8724102"><ele>489.79999999999995</ele><time>2026-03-29T09:38:49.967Z</time></trkpt><trkpt lat="40.7635758" lon="14.8723024"><ele>486.59999999999997</ele><time>2026-03-29T09:38:52.042Z</time></trkpt><trkpt lat="40.7634901" lon="14.8722972"><ele>483.40000000000003</ele><time>2026-03-29T09:38:54.951Z</time></trkpt><trkpt lat="40.763405" lon="14.8722653"><ele>480.20000000000005</ele><time>2026-03-29T09:38:56.956Z</time></trkpt><trkpt lat="40.763318" lon="14.8722151"><ele>477.0</ele><time>2026-03-29T09:38:59.059Z</time></trkpt><trkpt lat="40.7631974" lon="14.8721434"><ele>471.0</ele><time>2026-03-29T09:39:01.036Z</time></trkpt><trkpt lat="40.7631277" lon="14.8720779"><ele>465.0</ele><time>2026-03-29T09:39:02.019Z</time></trkpt><trkpt lat="40.7630673" lon="14.8720131"><ele>459.0</ele><time>2026-03-29T09:39:02.954Z</time></trkpt><trkpt lat="40.7630177" lon="14.871961"><ele>453.0</ele><time>2026-03-29T09:39:03.956Z</time></trkpt><trkpt lat="40.7628986" lon="14.8718933"><ele>447.0</ele><time>2026-03-29T09:39:05.954Z</time></trkpt><trkpt lat="40.7628254" lon="14.8718809"><ele>441.0</ele><time>2026-03-29T09:39:06.952Z</time></trkpt><trkpt lat="40.7627449" lon="14.8718464"><ele>439.8333333333333</ele><time>2026-03-29T09:39:07.956Z</time></trkpt><trkpt lat="40.7626784" lon="14.8718119"><ele>438.66666666666663</ele><time>2026-03-29T09:39:08.961Z</time></trkpt><trkpt lat="40.7625568" lon="14.8717759"><ele>437.5</ele><time>2026-03-29T09:39:11.023Z</time></trkpt><trkpt lat="40.7624929" lon="14.8717774"><ele>436.3333333333333</ele><time>2026-03-29T09:39:12.032Z</time></trkpt><trkpt lat="40.7624212" lon="14.8717763"><ele>435.16666666666663</ele><time>2026-03-29T09:39:12.954Z</time></trkpt><trkpt lat="40.7623566" lon="14.8717714"><ele>434.0</ele><time>2026-03-29T09:39:13.955Z</time></trkpt><trkpt lat="40.7622704" lon="14.8717287"><ele>433.99999999999994</ele><time>2026-03-29T09:39:16.021Z</time></trkpt><trkpt lat="40.7623329" lon="14.8717168"><ele>434.0</ele><time>2026-03-29T09:39:21.015Z</time></trkpt><trkpt lat="40.7624183" lon="14.8717541"><ele>434.0</ele><time>2026-03-29T09:39:22.951Z</time></trkpt><trkpt lat="40.7624847" lon="14.8717863"><ele>434.0</ele><time>2026-03-29T09:39:24.952Z</time></trkpt><trkpt lat="40.7624069" lon="14.8718507"><ele>433.99999999999994</ele><time>2026-03-29T09:39:30.952Z</time></trkpt><trkpt lat="40.7623248" lon="14.871885"><ele>434.0</ele><time>2026-03-29T09:39:32.957Z</time></trkpt><trkpt lat="40.7622007" lon="14.8719011"><ele>433.99999999999994</ele><time>2026-03-29T09:39:34.957Z</time></trkpt><trkpt lat="40.7621191" lon="14.871816"><ele>434.0</ele><time>2026-03-29T09:39:36.955Z</time></trkpt><trkpt lat="40.762062" lon="14.8716862"><ele>434.0</ele><time>2026-03-29T09:39:38.955Z</time></trkpt><trkpt lat="40.7620259" lon="14.8715997"><ele>434.0</ele><time>2026-03-29T09:39:41.034Z</time></trkpt><trkpt lat="40.7620338" lon="14.871698"><ele>433.99999999999994</ele><time>2026-03-29T09:39:49.024Z</time></trkpt><trkpt lat="40.7620277" lon="14.8718056"><ele>434.0</ele><time>2026-03-29T09:39:51.956Z</time></trkpt><trkpt lat="40.761956" lon="14.8717769"><ele>433.99999999999994</ele><time>2026-03-29T09:39:55.954Z</time></trkpt><trkpt lat="40.7619127" lon="14.8716971"><ele>434.0</ele><time>2026-03-29T09:39:57.948Z</time></trkpt><trkpt lat="40.761846" lon="14.8715962"><ele>434.0</ele><time>2026-03-29T09:39:59.976Z</time></trkpt><trkpt lat="40.7618194" lon="14.8714878"><ele>434.0</ele><time>2026-03-29T09:40:02.017Z</time></trkpt><trkpt lat="40.7617664" lon="14.8714148"><ele>433.99999999999994</ele><time>2026-03-29T09:40:03.952Z</time></trkpt><trkpt lat="40.761691" lon="14.8714247"><ele>434.0</ele><time>2026-03-29T09:40:05.956Z</time></trkpt><trkpt lat="40.7616175" lon="14.8714365"><ele>428.8333333333333</ele><time>2026-03-29T09:40:08.949Z</time></trkpt><trkpt lat="40.7615468" lon="14.8713931"><ele>423.66666666666663</ele><time>2026-03-29T09:40:10.951Z</time></trkpt><trkpt lat="40.7614463" lon="14.8713601"><ele>418.5</ele><time>2026-03-29T09:40:12.954Z</time></trkpt><trkpt lat="40.7613787" lon="14.8713449"><ele>413.33333333333337</ele><time>2026-03-29T09:40:13.943Z</time></trkpt><trkpt lat="40.7612953" lon="14.8713346"><ele>408.1666666666667</ele><time>2026-03-29T09:40:14.947Z</time></trkpt><trkpt lat="40.7612187" lon="14.8713092"><ele>403.0</ele><time>2026-03-29T09:40:15.951Z</time></trkpt><trkpt lat="40.7611451" lon="14.8712735"><ele>403.0</ele><time>2026-03-29T09:40:16.945Z</time></trkpt><trkpt lat="40.7610763" lon="14.8712455"><ele>403.0</ele><time>2026-03-29T09:40:17.94Z</time></trkpt><trkpt lat="40.7609945" lon="14.8712244"><ele>403.0</ele><time>2026-03-29T09:40:18.951Z</time></trkpt><trkpt lat="40.7609181" lon="14.871206"><ele>403.0</ele><time>2026-03-29T09:40:19.936Z</time></trkpt><trkpt lat="40.7608454" lon="14.8711924"><ele>403.0</ele><time>2026-03-29T09:40:20.952Z</time></trkpt><trkpt lat="40.7607853" lon="14.871167"><ele>403.0</ele><time>2026-03-29T09:40:21.956Z</time></trkpt><trkpt lat="40.7607221" lon="14.8711261"><ele>403.0</ele><time>2026-03-29T09:40:22.94Z</time></trkpt><trkpt lat="40.7606634" lon="14.871089"><ele>402.42857142857144</ele><time>2026-03-29T09:40:23.944Z</time></trkpt><trkpt lat="40.7606105" lon="14.8710418"><ele>401.85714285714283</ele><time>2026-03-29T09:40:24.948Z</time></trkpt><trkpt lat="40.7605642" lon="14.8709836"><ele>401.2857142857143</ele><time>2026-03-29T09:40:25.951Z</time></trkpt><trkpt lat="40.7605246" lon="14.8709038"><ele>400.7142857142857</ele><time>2026-03-29T09:40:27.954Z</time></trkpt><trkpt lat="40.7604888" lon="14.8709776"><ele>400.1428571428571</ele><time>2026-03-29T09:40:37.952Z</time></trkpt><trkpt lat="40.7605461" lon="14.8710882"><ele>399.57142857142856</ele><time>2026-03-29T09:40:47.951Z</time></trkpt><trkpt lat="40.7605806" lon="14.871162"><ele>399.0</ele><time>2026-03-29T09:40:50.948Z</time></trkpt><trkpt lat="40.7606105" lon="14.8712736"><ele>399.0</ele><time>2026-03-29T09:40:57.951Z</time></trkpt><trkpt lat="40.7606671" lon="14.8713201"><ele>399.0</ele><time>2026-03-29T09:40:59.957Z</time></trkpt><trkpt lat="40.7607453" lon="14.8713884"><ele>399.0</ele><time>2026-03-29T09:41:01.955Z</time></trkpt><trkpt lat="40.7608436" lon="14.8714341"><ele>399.0</ele><time>2026-03-29T09:41:03.954Z</time></trkpt><trkpt lat="40.7609436" lon="14.8714817"><ele>399.0</ele><time>2026-03-29T09:41:05.948Z</time></trkpt><trkpt lat="40.7610526" lon="14.8715039"><ele>399.5</ele><time>2026-03-29T09:41:07.959Z</time></trkpt><trkpt lat="40.7611682" lon="14.8715391"><ele>400.0</ele><time>2026-03-29T09:41:09.956Z</time></trkpt><trkpt lat="40.7612314" lon="14.8715676"><ele>400.5</ele><time>2026-03-29T09:41:10.952Z</time></trkpt><trkpt lat="40.761287" lon="14.871608"><ele>401.0</ele><time>2026-03-29T09:41:11.951Z</time></trkpt><trkpt lat="40.7613736" lon="14.871663"><ele>401.5</ele><time>2026-03-29T09:41:13.95Z</time></trkpt><trkpt lat="40.761465" lon="14.8717277"><ele>402.0</ele><time>2026-03-29T09:41:16.02Z</time></trkpt><trkpt lat="40.7615315" lon="14.8717816"><ele>402.0</ele><time>2026-03-29T09:41:17.953Z</time></trkpt><trkpt lat="40.7615926" lon="14.8718645"><ele>402.0</ele><time>2026-03-29T09:41:21.006Z</time></trkpt><trkpt lat="40.761636" lon="14.8719542"><ele>402.0</ele><time>2026-03-29T09:41:24.954Z</time></trkpt><trkpt lat="40.7616637" lon="14.872072"><ele>402.0</ele><time>2026-03-29T09:41:27.948Z</time></trkpt><trkpt lat="40.7617135" lon="14.8721686"><ele>402.0</ele><time>2026-03-29T09:41:30.017Z</time></trkpt><trkpt lat="40.7617637" lon="14.8722568"><ele>402.0</ele><time>2026-03-29T09:41:31.956Z</time></trkpt><trkpt lat="40.7618037" lon="14.8723498"><ele>402.0</ele><time>2026-03-29T09:41:33.95Z</time></trkpt><trkpt lat="40.7618488" lon="14.8724344"><ele>402.0</ele><time>2026-03-29T09:41:36.018Z</time></trkpt><trkpt lat="40.7618804" lon="14.8725113"><ele>402.0</ele><time>2026-03-29T09:41:37.959Z</time></trkpt><trkpt lat="40.7619138" lon="14.8725977"><ele>402.0</ele><time>2026-03-29T09:41:39.952Z</time></trkpt><trkpt lat="40.7619449" lon="14.8726711"><ele>402.0</ele><time>2026-03-29T09:41:41.952Z</time></trkpt><trkpt lat="40.762001" lon="14.8727278"><ele>402.0</ele><time>2026-03-29T09:41:45.954Z</time></trkpt><trkpt lat="40.7620632" lon="14.8727723"><ele>402.0</ele><time>2026-03-29T09:41:48.955Z</time></trkpt><trkpt lat="40.7621194" lon="14.8728434"><ele>403.6</ele><time>2026-03-29T09:41:51.951Z</time></trkpt><trkpt lat="40.7622538" lon="14.8729946"><ele>405.20000000000005</ele><time>2026-03-29T09:41:55.948Z</time></trkpt><trkpt lat="40.7623168" lon="14.8730656"><ele>406.8</ele><time>2026-03-29T09:41:57.924Z</time></trkpt><trkpt lat="40.7623744" lon="14.8731351"><ele>408.4</ele><time>2026-03-29T09:41:59.887Z</time></trkpt><trkpt lat="40.7624373" lon="14.8731477"><ele>410.0</ele><time>2026-03-29T09:42:02.024Z</time></trkpt><trkpt lat="40.7624825" lon="14.8732464"><ele>410.0</ele><time>2026-03-29T09:42:02.949Z</time></trkpt><trkpt lat="40.7625079" lon="14.8733397"><ele>410.0</ele><time>2026-03-29T09:42:03.958Z</time></trkpt><trkpt lat="40.7625429" lon="14.8734338"><ele>410.0</ele><time>2026-03-29T09:42:04.961Z</time></trkpt><trkpt lat="40.7625899" lon="14.873554"><ele>410.0</ele><time>2026-03-29T09:42:07.949Z</time></trkpt><trkpt lat="40.7626685" lon="14.8737409"><ele>410.0</ele><time>2026-03-29T09:42:09.953Z</time></trkpt><trkpt lat="40.7626789" lon="14.8738606"><ele>411.49999999999994</ele><time>2026-03-29T09:42:11.954Z</time></trkpt><trkpt lat="40.7626716" lon="14.8739927"><ele>413.0</ele><time>2026-03-29T09:42:14.02Z</time></trkpt><trkpt lat="40.7626889" lon="14.8740803"><ele>414.5</ele><time>2026-03-29T09:42:15.033Z</time></trkpt><trkpt lat="40.7627" lon="14.8741836"><ele>416.0</ele><time>2026-03-29T09:42:15.956Z</time></trkpt><trkpt lat="40.7627125" lon="14.8742893"><ele>417.49999999999994</ele><time>2026-03-29T09:42:16.948Z</time></trkpt><trkpt lat="40.7627287" lon="14.8743934"><ele>419.0</ele><time>2026-03-29T09:42:17.948Z</time></trkpt><trkpt lat="40.7627432" lon="14.8744934"><ele>422.99999999999994</ele><time>2026-03-29T09:42:18.952Z</time></trkpt><trkpt lat="40.7627508" lon="14.8745976"><ele>427.0</ele><time>2026-03-29T09:42:19.949Z</time></trkpt><trkpt lat="40.7627546" lon="14.8746866"><ele>431.0</ele><time>2026-03-29T09:42:20.948Z</time></trkpt><trkpt lat="40.7627623" lon="14.874789"><ele>435.0</ele><time>2026-03-29T09:42:22.015Z</time></trkpt><trkpt lat="40.7627768" lon="14.874871"><ele>438.99999999999994</ele><time>2026-03-29T09:42:22.955Z</time></trkpt><trkpt lat="40.7627896" lon="14.8750285"><ele>443.0</ele><time>2026-03-29T09:42:24.95Z</time></trkpt><trkpt lat="40.762806" lon="14.8751241"><ele>443.3333333333333</ele><time>2026-03-29T09:42:27.021Z</time></trkpt><trkpt lat="40.7628393" lon="14.8752021"><ele>443.66666666666663</ele><time>2026-03-29T09:42:29.94Z</time></trkpt><trkpt lat="40.762892" lon="14.8752755"><ele>444.0</ele><time>2026-03-29T09:42:32.946Z</time></trkpt><trkpt lat="40.7629495" lon="14.8753215"><ele>444.33333333333337</ele><time>2026-03-29T09:42:52.953Z</time></trkpt><trkpt lat="40.7630214" lon="14.8753748"><ele>444.6666666666667</ele><time>2026-03-29T09:42:56.015Z</time></trkpt><trkpt lat="40.7630985" lon="14.8754464"><ele>445.0</ele><time>2026-03-29T09:42:58.947Z</time></trkpt><trkpt lat="40.7631579" lon="14.8755014"><ele>445.0</ele><time>2026-03-29T09:43:01.952Z</time></trkpt><trkpt lat="40.7632446" lon="14.8756578"><ele>445.0</ele><time>2026-03-29T09:43:12.949Z</time></trkpt><trkpt lat="40.763153" lon="14.8756788"><ele>445.0</ele><time>2026-03-29T09:46:25.958Z</time></trkpt><trkpt lat="40.7630878" lon="14.8756534"><ele>445.0</ele><time>2026-03-29T09:46:28.954Z</time></trkpt><trkpt lat="40.7629722" lon="14.8756119"><ele>445.0</ele><time>2026-03-29T09:46:30.95Z</time></trkpt><trkpt lat="40.7628787" lon="14.8755504"><ele>445.0</ele><time>2026-03-29T09:46:32.955Z</time></trkpt><trkpt lat="40.7627936" lon="14.8755478"><ele>445.0</ele><time>2026-03-29T09:46:35.947Z</time></trkpt><trkpt lat="40.7627494" lon="14.8754566"><ele>445.0</ele><time>2026-03-29T09:46:41.024Z</time></trkpt><trkpt lat="40.7627001" lon="14.8753655"><ele>445.0</ele><time>2026-03-29T09:46:42.952Z</time></trkpt><trkpt lat="40.7626605" lon="14.8752465"><ele>445.0</ele><time>2026-03-29T09:46:44.954Z</time></trkpt><trkpt lat="40.7626221" lon="14.8750975"><ele>443.00000000000006</ele><time>2026-03-29T09:46:46.953Z</time></trkpt><trkpt lat="40.7625964" lon="14.8750125"><ele>441.0</ele><time>2026-03-29T09:46:47.953Z</time></trkpt><trkpt lat="40.7625864" lon="14.8749007"><ele>439.0</ele><time>2026-03-29T09:46:48.956Z</time></trkpt><trkpt lat="40.762565" lon="14.8747978"><ele>437.0</ele><time>2026-03-29T09:46:49.95Z</time></trkpt><trkpt lat="40.7625294" lon="14.8746844"><ele>435.00000000000006</ele><time>2026-03-29T09:46:50.949Z</time></trkpt><trkpt lat="40.7625043" lon="14.8746001"><ele>433.0</ele><time>2026-03-29T09:46:51.956Z</time></trkpt><trkpt lat="40.7624726" lon="14.8745145"><ele>433.0</ele><time>2026-03-29T09:46:52.952Z</time></trkpt><trkpt lat="40.7624054" lon="14.8744193"><ele>432.99999999999994</ele><time>2026-03-29T09:46:53.954Z</time></trkpt><trkpt lat="40.7623544" lon="14.8743477"><ele>432.99999999999994</ele><time>2026-03-29T09:46:54.955Z</time></trkpt><trkpt lat="40.7622716" lon="14.8742625"><ele>433.0</ele><time>2026-03-29T09:46:56.956Z</time></trkpt><trkpt lat="40.7621802" lon="14.8742127"><ele>433.0</ele><time>2026-03-29T09:46:58.958Z</time></trkpt><trkpt lat="40.7621188" lon="14.8741452"><ele>430.6666666666667</ele><time>2026-03-29T09:47:01.053Z</time></trkpt><trkpt lat="40.7620764" lon="14.8740536"><ele>428.33333333333337</ele><time>2026-03-29T09:47:02.961Z</time></trkpt><trkpt lat="40.7620066" lon="14.8739394"><ele>426.0</ele><time>2026-03-29T09:47:04.963Z</time></trkpt><trkpt lat="40.7619591" lon="14.8738663"><ele>423.66666666666663</ele><time>2026-03-29T09:47:05.951Z</time></trkpt><trkpt lat="40.7619077" lon="14.8738142"><ele>421.3333333333333</ele><time>2026-03-29T09:47:06.956Z</time></trkpt><trkpt lat="40.7618385" lon="14.8737922"><ele>419.0</ele><time>2026-03-29T09:47:07.961Z</time></trkpt><trkpt lat="40.7617751" lon="14.8737868"><ele>423.8333333333333</ele><time>2026-03-29T09:47:08.967Z</time></trkpt><trkpt lat="40.7616831" lon="14.8737877"><ele>428.66666666666663</ele><time>2026-03-29T09:47:10.967Z</time></trkpt><trkpt lat="40.7616019" lon="14.8737628"><ele>433.5</ele><time>2026-03-29T09:47:12.963Z</time></trkpt><trkpt lat="40.7615099" lon="14.8736873"><ele>438.33333333333337</ele><time>2026-03-29T09:47:15.038Z</time></trkpt><trkpt lat="40.7614635" lon="14.8736103"><ele>443.1666666666667</ele><time>2026-03-29T09:47:15.968Z</time></trkpt><trkpt lat="40.7614131" lon="14.8735376"><ele>448.0</ele><time>2026-03-29T09:47:16.966Z</time></trkpt><trkpt lat="40.7613683" lon="14.8734657"><ele>449.4</ele><time>2026-03-29T09:47:17.959Z</time></trkpt><trkpt lat="40.7612777" lon="14.8733577"><ele>450.79999999999995</ele><time>2026-03-29T09:47:19.963Z</time></trkpt><trkpt lat="40.7612026" lon="14.8732696"><ele>452.2</ele><time>2026-03-29T09:47:21.951Z</time></trkpt><trkpt lat="40.7611331" lon="14.8731787"><ele>453.6</ele><time>2026-03-29T09:47:23.952Z</time></trkpt><trkpt lat="40.7610627" lon="14.8730397"><ele>455.0</ele><time>2026-03-29T09:47:25.947Z</time></trkpt><trkpt lat="40.7609873" lon="14.8729291"><ele>455.0</ele><time>2026-03-29T09:47:27.956Z</time></trkpt><trkpt lat="40.7609249" lon="14.8728752"><ele>455.0</ele><time>2026-03-29T09:47:28.944Z</time></trkpt><trkpt lat="40.7608755" lon="14.8728153"><ele>455.0</ele><time>2026-03-29T09:47:29.945Z</time></trkpt><trkpt lat="40.760823" lon="14.872751"><ele>455.0</ele><time>2026-03-29T09:47:30.944Z</time></trkpt><trkpt lat="40.7607633" lon="14.8726865"><ele>455.0</ele><time>2026-03-29T09:47:31.95Z</time></trkpt><trkpt lat="40.7607079" lon="14.872633"><ele>455.0</ele><time>2026-03-29T09:47:32.95Z</time></trkpt><trkpt lat="40.7606295" lon="14.8726003"><ele>455.0</ele><time>2026-03-29T09:47:33.946Z</time></trkpt><trkpt lat="40.7605249" lon="14.8725589"><ele>451.0</ele><time>2026-03-29T09:47:34.968Z</time></trkpt><trkpt lat="40.760416" lon="14.8725206"><ele>447.0</ele><time>2026-03-29T09:47:35.947Z</time></trkpt><trkpt lat="40.7603133" lon="14.8724911"><ele>443.0</ele><time>2026-03-29T09:47:36.953Z</time></trkpt><trkpt lat="40.7602381" lon="14.8724768"><ele>439.0</ele><time>2026-03-29T09:47:37.949Z</time></trkpt><trkpt lat="40.7601704" lon="14.8724833"><ele>435.0</ele><time>2026-03-29T09:47:38.948Z</time></trkpt><trkpt lat="40.7600535" lon="14.8724979"><ele>438.8333333333333</ele><time>2026-03-29T09:47:40.952Z</time></trkpt><trkpt lat="40.7599547" lon="14.8726133"><ele>442.66666666666663</ele><time>2026-03-29T09:47:42.955Z</time></trkpt><trkpt lat="40.759921" lon="14.8727131"><ele>446.5</ele><time>2026-03-29T09:47:43.955Z</time></trkpt><trkpt lat="40.7598912" lon="14.8728179"><ele>450.3333333333333</ele><time>2026-03-29T09:47:44.941Z</time></trkpt><trkpt lat="40.7598624" lon="14.8729193"><ele>454.16666666666663</ele><time>2026-03-29T09:47:45.946Z</time></trkpt><trkpt lat="40.7598547" lon="14.8730042"><ele>458.0</ele><time>2026-03-29T09:47:46.947Z</time></trkpt><trkpt lat="40.7598573" lon="14.8730996"><ele>458.0</ele><time>2026-03-29T09:47:47.948Z</time></trkpt><trkpt lat="40.7598886" lon="14.8732446"><ele>457.99999999999994</ele><time>2026-03-29T09:47:49.949Z</time></trkpt><trkpt lat="40.7599129" lon="14.8733975"><ele>457.99999999999994</ele><time>2026-03-29T09:47:51.949Z</time></trkpt><trkpt lat="40.7598946" lon="14.8734952"><ele>458.0</ele><time>2026-03-29T09:47:54.029Z</time></trkpt><trkpt lat="40.7598375" lon="14.8735688"><ele>458.0</ele><time>2026-03-29T09:47:56.018Z</time></trkpt><trkpt lat="40.7597901" lon="14.8736542"><ele>463.59999999999997</ele><time>2026-03-29T09:47:56.993Z</time></trkpt><trkpt lat="40.7597254" lon="14.8737549"><ele>469.19999999999993</ele><time>2026-03-29T09:47:57.969Z</time></trkpt><trkpt lat="40.7596693" lon="14.8738778"><ele>474.8</ele><time>2026-03-29T09:47:58.947Z</time></trkpt><trkpt lat="40.759624" lon="14.873971"><ele>480.4</ele><time>2026-03-29T09:47:59.947Z</time></trkpt><trkpt lat="40.7595787" lon="14.8740568"><ele>486.0</ele><time>2026-03-29T09:48:01.947Z</time></trkpt><trkpt lat="40.7594786" lon="14.8740109"><ele>486.0</ele><time>2026-03-29T09:48:03.952Z</time></trkpt><trkpt lat="40.7594224" lon="14.8739645"><ele>486.0</ele><time>2026-03-29T09:48:04.946Z</time></trkpt><trkpt lat="40.7593644" lon="14.873916"><ele>486.0</ele><time>2026-03-29T09:48:05.941Z</time></trkpt><trkpt lat="40.7593141" lon="14.8738606"><ele>486.0</ele><time>2026-03-29T09:48:06.941Z</time></trkpt><trkpt lat="40.7592191" lon="14.8737567"><ele>486.0</ele><time>2026-03-29T09:48:08.947Z</time></trkpt><trkpt lat="40.7591535" lon="14.8736939"><ele>486.0</ele><time>2026-03-29T09:48:09.948Z</time></trkpt><trkpt lat="40.7590761" lon="14.8736435"><ele>483.1666666666667</ele><time>2026-03-29T09:48:11.019Z</time></trkpt><trkpt lat="40.7590121" lon="14.8735852"><ele>480.33333333333337</ele><time>2026-03-29T09:48:12.031Z</time></trkpt><trkpt lat="40.7589398" lon="14.8735371"><ele>477.5</ele><time>2026-03-29T09:48:13Z</time></trkpt><trkpt lat="40.7588691" lon="14.8735106"><ele>474.6666666666667</ele><time>2026-03-29T09:48:14.048Z</time></trkpt><trkpt lat="40.7588045" lon="14.8735021"><ele>471.83333333333337</ele><time>2026-03-29T09:48:14.966Z</time></trkpt><trkpt lat="40.7586985" lon="14.8735159"><ele>469.0</ele><time>2026-03-29T09:48:16.955Z</time></trkpt><trkpt lat="40.7586099" lon="14.8735894"><ele>465.50000000000006</ele><time>2026-03-29T09:48:18.952Z</time></trkpt><trkpt lat="40.7585276" lon="14.8737025"><ele>462.0</ele><time>2026-03-29T09:48:21.025Z</time></trkpt><trkpt lat="40.7584888" lon="14.8737765"><ele>458.5</ele><time>2026-03-29T09:48:22.021Z</time></trkpt><trkpt lat="40.7584613" lon="14.8738592"><ele>455.0</ele><time>2026-03-29T09:48:22.952Z</time></trkpt><trkpt lat="40.7584353" lon="14.8739613"><ele>451.50000000000006</ele><time>2026-03-29T09:48:23.955Z</time></trkpt><trkpt lat="40.7584128" lon="14.8740603"><ele>448.0</ele><time>2026-03-29T09:48:24.952Z</time></trkpt><trkpt lat="40.7584037" lon="14.874143"><ele>448.00000000000006</ele><time>2026-03-29T09:48:25.95Z</time></trkpt><trkpt lat="40.7583379" lon="14.874097"><ele>448.0</ele><time>2026-03-29T09:48:31.956Z</time></trkpt><trkpt lat="40.7582512" lon="14.8741079"><ele>448.0</ele><time>2026-03-29T09:48:33.959Z</time></trkpt><trkpt lat="40.7581882" lon="14.8741452"><ele>448.0</ele><time>2026-03-29T09:48:34.954Z</time></trkpt><trkpt lat="40.7581232" lon="14.8741884"><ele>448.00000000000006</ele><time>2026-03-29T09:48:35.952Z</time></trkpt><trkpt lat="40.7580288" lon="14.8741578"><ele>448.0</ele><time>2026-03-29T09:48:38.953Z</time></trkpt><trkpt lat="40.7579462" lon="14.8741197"><ele>448.0</ele><time>2026-03-29T09:48:41.021Z</time></trkpt><trkpt lat="40.7578805" lon="14.8740463"><ele>447.99999999999994</ele><time>2026-03-29T09:48:42.952Z</time></trkpt><trkpt lat="40.757807" lon="14.8739579"><ele>447.99999999999994</ele><time>2026-03-29T09:48:44.95Z</time></trkpt><trkpt lat="40.7577072" lon="14.8738598"><ele>448.0</ele><time>2026-03-29T09:48:46.952Z</time></trkpt><trkpt lat="40.7576146" lon="14.873821"><ele>448.0</ele><time>2026-03-29T09:48:47.954Z</time></trkpt><trkpt lat="40.7575219" lon="14.8737897"><ele>450.2</ele><time>2026-03-29T09:48:48.948Z</time></trkpt><trkpt lat="40.7574354" lon="14.8737702"><ele>452.4</ele><time>2026-03-29T09:48:49.98Z</time></trkpt><trkpt lat="40.7573431" lon="14.8737767"><ele>454.59999999999997</ele><time>2026-03-29T09:48:50.964Z</time></trkpt><trkpt lat="40.7572517" lon="14.8737913"><ele>456.79999999999995</ele><time>2026-03-29T09:48:51.946Z</time></trkpt><trkpt lat="40.7571587" lon="14.8738205"><ele>459.0</ele><time>2026-03-29T09:48:52.951Z</time></trkpt><trkpt lat="40.7570606" lon="14.8738472"><ele>459.0</ele><time>2026-03-29T09:48:53.946Z</time></trkpt><trkpt lat="40.7569827" lon="14.8738842"><ele>459.0</ele><time>2026-03-29T09:48:54.952Z</time></trkpt><trkpt lat="40.7569015" lon="14.8739086"><ele>459.0</ele><time>2026-03-29T09:48:56.958Z</time></trkpt><trkpt lat="40.7568252" lon="14.8739228"><ele>459.0</ele><time>2026-03-29T09:49:00.947Z</time></trkpt><trkpt lat="40.7567953" lon="14.8737927"><ele>459.0</ele><time>2026-03-29T09:56:55.963Z</time></trkpt><trkpt lat="40.7568045" lon="14.8737023"><ele>459.0</ele><time>2026-03-29T09:56:56.96Z</time></trkpt><trkpt lat="40.7567985" lon="14.873596"><ele>456.79999999999995</ele><time>2026-03-29T09:56:57.955Z</time></trkpt><trkpt lat="40.7567889" lon="14.8734851"><ele>454.59999999999997</ele><time>2026-03-29T09:56:59.025Z</time></trkpt><trkpt lat="40.7567598" lon="14.8733843"><ele>452.4</ele><time>2026-03-29T09:57:00.023Z</time></trkpt><trkpt lat="40.756681" lon="14.8732956"><ele>450.2</ele><time>2026-03-29T09:57:00.953Z</time></trkpt><trkpt lat="40.7565952" lon="14.8732082"><ele>448.0</ele><time>2026-03-29T09:57:02.037Z</time></trkpt><trkpt lat="40.7565157" lon="14.873132"><ele>444.59999999999997</ele><time>2026-03-29T09:57:02.969Z</time></trkpt><trkpt lat="40.7564451" lon="14.8730711"><ele>441.19999999999993</ele><time>2026-03-29T09:57:03.963Z</time></trkpt><trkpt lat="40.7563719" lon="14.8730289"><ele>437.8</ele><time>2026-03-29T09:57:04.971Z</time></trkpt><trkpt lat="40.7563013" lon="14.8729884"><ele>434.4</ele><time>2026-03-29T09:57:05.965Z</time></trkpt><trkpt lat="40.7562312" lon="14.8729492"><ele>431.0</ele><time>2026-03-29T09:57:07.056Z</time></trkpt><trkpt lat="40.7561152" lon="14.8728277"><ele>425.0</ele><time>2026-03-29T09:57:08.957Z</time></trkpt><trkpt lat="40.7560262" lon="14.8727856"><ele>419.0</ele><time>2026-03-29T09:57:09.948Z</time></trkpt><trkpt lat="40.7559216" lon="14.8727525"><ele>413.0</ele><time>2026-03-29T09:57:11.032Z</time></trkpt><trkpt lat="40.7558025" lon="14.8727191"><ele>407.0</ele><time>2026-03-29T09:57:11.958Z</time></trkpt><trkpt lat="40.7557023" lon="14.8726785"><ele>401.0</ele><time>2026-03-29T09:57:12.959Z</time></trkpt><trkpt lat="40.7556302" lon="14.8726393"><ele>400.99999999999994</ele><time>2026-03-29T09:57:13.946Z</time></trkpt><trkpt lat="40.7555613" lon="14.8726094"><ele>401.0</ele><time>2026-03-29T09:57:14.959Z</time></trkpt><trkpt lat="40.7554853" lon="14.8725269"><ele>401.0</ele><time>2026-03-29T09:57:17.034Z</time></trkpt><trkpt lat="40.7555199" lon="14.8724474"><ele>401.0</ele><time>2026-03-29T09:57:18.955Z</time></trkpt><trkpt lat="40.7555022" lon="14.8723527"><ele>400.99999999999994</ele><time>2026-03-29T09:57:21.959Z</time></trkpt><trkpt lat="40.7554359" lon="14.8723562"><ele>401.0</ele><time>2026-03-29T09:57:23.963Z</time></trkpt><trkpt lat="40.7553671" lon="14.8724079"><ele>400.99999999999994</ele><time>2026-03-29T09:57:25.956Z</time></trkpt><trkpt lat="40.755294" lon="14.8725209"><ele>401.0</ele><time>2026-03-29T09:57:27.942Z</time></trkpt><trkpt lat="40.7552407" lon="14.8726316"><ele>401.0</ele><time>2026-03-29T09:57:30.028Z</time></trkpt><trkpt lat="40.7551739" lon="14.8726025"><ele>401.0</ele><time>2026-03-29T09:57:32.957Z</time></trkpt><trkpt lat="40.7551867" lon="14.8724846"><ele>400.99999999999994</ele><time>2026-03-29T09:57:34.956Z</time></trkpt><trkpt lat="40.755191" lon="14.8723939"><ele>401.0</ele><time>2026-03-29T09:57:35.954Z</time></trkpt><trkpt lat="40.7551865" lon="14.8722853"><ele>401.66666666666663</ele><time>2026-03-29T09:57:37.028Z</time></trkpt><trkpt lat="40.7551827" lon="14.872189"><ele>402.3333333333333</ele><time>2026-03-29T09:57:37.953Z</time></trkpt><trkpt lat="40.7551948" lon="14.8721024"><ele>403.0</ele><time>2026-03-29T09:57:38.956Z</time></trkpt><trkpt lat="40.7552304" lon="14.8719999"><ele>403.66666666666663</ele><time>2026-03-29T09:57:41.032Z</time></trkpt><trkpt lat="40.7551611" lon="14.8719335"><ele>404.3333333333333</ele><time>2026-03-29T09:57:44.953Z</time></trkpt><trkpt lat="40.755092" lon="14.8719985"><ele>405.0</ele><time>2026-03-29T09:57:46.953Z</time></trkpt><trkpt lat="40.7550586" lon="14.8721408"><ele>399.4</ele><time>2026-03-29T09:57:49.026Z</time></trkpt><trkpt lat="40.7550412" lon="14.8722363"><ele>393.8</ele><time>2026-03-29T09:57:50.955Z</time></trkpt><trkpt lat="40.7549726" lon="14.8722385"><ele>388.20000000000005</ele><time>2026-03-29T09:57:55.032Z</time></trkpt><trkpt lat="40.7549561" lon="14.872048"><ele>382.6</ele><time>2026-03-29T09:57:56.949Z</time></trkpt><trkpt lat="40.7549537" lon="14.8719332"><ele>377.0</ele><time>2026-03-29T09:57:57.951Z</time></trkpt><trkpt lat="40.7549596" lon="14.8718209"><ele>377.0</ele><time>2026-03-29T09:57:58.947Z</time></trkpt><trkpt lat="40.7549825" lon="14.8717209"><ele>377.0</ele><time>2026-03-29T09:58:00.95Z</time></trkpt><trkpt lat="40.7549114" lon="14.871831"><ele>377.0</ele><time>2026-03-29T09:58:06.953Z</time></trkpt><trkpt lat="40.7548765" lon="14.8719028"><ele>377.0</ele><time>2026-03-29T09:58:07.945Z</time></trkpt><trkpt lat="40.7548486" lon="14.871983"><ele>377.0</ele><time>2026-03-29T09:58:08.95Z</time></trkpt><trkpt lat="40.7548279" lon="14.8720892"><ele>377.0</ele><time>2026-03-29T09:58:11.022Z</time></trkpt><trkpt lat="40.7547648" lon="14.8721404"><ele>377.0</ele><time>2026-03-29T09:58:13.95Z</time></trkpt><trkpt lat="40.7547377" lon="14.8719418"><ele>377.0</ele><time>2026-03-29T09:58:15.951Z</time></trkpt><trkpt lat="40.7547236" lon="14.8718123"><ele>377.0</ele><time>2026-03-29T09:58:17.039Z</time></trkpt><trkpt lat="40.7547073" lon="14.8716868"><ele>377.0</ele><time>2026-03-29T09:58:17.952Z</time></trkpt><trkpt lat="40.7546997" lon="14.871584"><ele>377.0</ele><time>2026-03-29T09:58:19.021Z</time></trkpt><trkpt lat="40.7546953" lon="14.8714526"><ele>377.0</ele><time>2026-03-29T09:58:20.956Z</time></trkpt><trkpt lat="40.7546323" lon="14.871479"><ele>377.0</ele><time>2026-03-29T09:58:24.952Z</time></trkpt><trkpt lat="40.7546148" lon="14.8716018"><ele>377.0</ele><time>2026-03-29T09:58:27.045Z</time></trkpt><trkpt lat="40.7545748" lon="14.871771"><ele>377.0</ele><time>2026-03-29T09:58:28.958Z</time></trkpt><trkpt lat="40.7545507" lon="14.8718608"><ele>377.0</ele><time>2026-03-29T09:58:29.946Z</time></trkpt><trkpt lat="40.7545233" lon="14.8719881"><ele>377.0</ele><time>2026-03-29T09:58:32.031Z</time></trkpt><trkpt lat="40.7544808" lon="14.8720602"><ele>377.0</ele><time>2026-03-29T09:58:35.967Z</time></trkpt><trkpt lat="40.7544432" lon="14.8719772"><ele>377.0</ele><time>2026-03-29T09:58:39.968Z</time></trkpt><trkpt lat="40.7544765" lon="14.8718117"><ele>377.0</ele><time>2026-03-29T09:58:41.949Z</time></trkpt><trkpt lat="40.7545073" lon="14.8716803"><ele>377.0</ele><time>2026-03-29T09:58:42.95Z</time></trkpt><trkpt lat="40.7545369" lon="14.8715606"><ele>374.20000000000005</ele><time>2026-03-29T09:58:43.97Z</time></trkpt><trkpt lat="40.7545796" lon="14.8714571"><ele>371.4</ele><time>2026-03-29T09:58:44.993Z</time></trkpt><trkpt lat="40.7546498" lon="14.871376"><ele>368.6</ele><time>2026-03-29T09:58:45.947Z</time></trkpt><trkpt lat="40.7547098" lon="14.8713375"><ele>365.79999999999995</ele><time>2026-03-29T09:58:47.018Z</time></trkpt><trkpt lat="40.7548124" lon="14.871283"><ele>363.0</ele><time>2026-03-29T09:58:48.952Z</time></trkpt><trkpt lat="40.7548944" lon="14.8712323"><ele>363.0</ele><time>2026-03-29T09:58:50.949Z</time></trkpt><trkpt lat="40.7549575" lon="14.871136"><ele>363.0</ele><time>2026-03-29T09:58:52.958Z</time></trkpt><trkpt lat="40.7550304" lon="14.8710538"><ele>363.0</ele><time>2026-03-29T09:58:54.949Z</time></trkpt><trkpt lat="40.7551335" lon="14.8710135"><ele>363.0</ele><time>2026-03-29T09:58:56.951Z</time></trkpt><trkpt lat="40.7552519" lon="14.871043"><ele>363.0</ele><time>2026-03-29T09:58:58.953Z</time></trkpt><trkpt lat="40.7553576" lon="14.8711084"><ele>364.79999999999995</ele><time>2026-03-29T09:59:00.974Z</time></trkpt><trkpt lat="40.7554329" lon="14.8711348"><ele>366.6</ele><time>2026-03-29T09:59:02.95Z</time></trkpt><trkpt lat="40.7555417" lon="14.8711057"><ele>368.4</ele><time>2026-03-29T09:59:04.945Z</time></trkpt><trkpt lat="40.7556536" lon="14.8710399"><ele>370.20000000000005</ele><time>2026-03-29T09:59:07.026Z</time></trkpt><trkpt lat="40.7557848" lon="14.8710208"><ele>372.0</ele><time>2026-03-29T09:59:08.953Z</time></trkpt><trkpt lat="40.755854" lon="14.8710512"><ele>372.00000000000006</ele><time>2026-03-29T09:59:09.948Z</time></trkpt><trkpt lat="40.755926" lon="14.8710985"><ele>372.0</ele><time>2026-03-29T09:59:10.946Z</time></trkpt><trkpt lat="40.7559877" lon="14.8711347"><ele>372.0</ele><time>2026-03-29T09:59:11.944Z</time></trkpt><trkpt lat="40.7560623" lon="14.8711527"><ele>372.0</ele><time>2026-03-29T09:59:12.95Z</time></trkpt><trkpt lat="40.7561262" lon="14.8711368"><ele>372.0</ele><time>2026-03-29T09:59:13.973Z</time></trkpt><trkpt lat="40.7561916" lon="14.871095"><ele>372.00000000000006</ele><time>2026-03-29T09:59:15.021Z</time></trkpt><trkpt lat="40.7562742" lon="14.8710569"><ele>372.0</ele><time>2026-03-29T09:59:16.008Z</time></trkpt><trkpt lat="40.756352" lon="14.8710325"><ele>371.40000000000003</ele><time>2026-03-29T09:59:17.015Z</time></trkpt><trkpt lat="40.7564373" lon="14.871052"><ele>370.8</ele><time>2026-03-29T09:59:18.951Z</time></trkpt><trkpt lat="40.7565498" lon="14.8711197"><ele>370.2</ele><time>2026-03-29T09:59:20.951Z</time></trkpt><trkpt lat="40.756652" lon="14.8711609"><ele>369.6</ele><time>2026-03-29T09:59:21.949Z</time></trkpt><trkpt lat="40.7567479" lon="14.8711905"><ele>369.0</ele><time>2026-03-29T09:59:22.945Z</time></trkpt><trkpt lat="40.7568403" lon="14.8712164"><ele>368.6</ele><time>2026-03-29T09:59:23.953Z</time></trkpt><trkpt lat="40.7569389" lon="14.8712524"><ele>368.2</ele><time>2026-03-29T09:59:24.953Z</time></trkpt><trkpt lat="40.7570441" lon="14.87128"><ele>367.8</ele><time>2026-03-29T09:59:25.944Z</time></trkpt><trkpt lat="40.7571446" lon="14.8712991"><ele>367.40000000000003</ele><time>2026-03-29T09:59:26.952Z</time></trkpt><trkpt lat="40.7572433" lon="14.8713262"><ele>367.0</ele><time>2026-03-29T09:59:27.949Z</time></trkpt><trkpt lat="40.7573376" lon="14.8713561"><ele>367.0</ele><time>2026-03-29T09:59:28.953Z</time></trkpt><trkpt lat="40.7574443" lon="14.8713953"><ele>367.0</ele><time>2026-03-29T09:59:29.951Z</time></trkpt><trkpt lat="40.7575538" lon="14.8714102"><ele>367.0</ele><time>2026-03-29T09:59:30.979Z</time></trkpt><trkpt lat="40.7576635" lon="14.8714077"><ele>367.0</ele><time>2026-03-29T09:59:31.947Z</time></trkpt><trkpt lat="40.7577703" lon="14.8713865"><ele>367.0</ele><time>2026-03-29T09:59:32.947Z</time></trkpt><trkpt lat="40.7578727" lon="14.8713714"><ele>368.0</ele><time>2026-03-29T09:59:33.951Z</time></trkpt><trkpt lat="40.7579747" lon="14.8713427"><ele>369.0</ele><time>2026-03-29T09:59:34.954Z</time></trkpt><trkpt lat="40.7580844" lon="14.8712962"><ele>370.0</ele><time>2026-03-29T09:59:35.944Z</time></trkpt><trkpt lat="40.7581985" lon="14.8712278"><ele>371.0</ele><time>2026-03-29T09:59:36.951Z</time></trkpt><trkpt lat="40.7583065" lon="14.871188"><ele>371.0</ele><time>2026-03-29T09:59:37.947Z</time></trkpt><trkpt lat="40.7584096" lon="14.8711463"><ele>371.0</ele><time>2026-03-29T09:59:38.946Z</time></trkpt><trkpt lat="40.7585131" lon="14.8710974"><ele>371.0</ele><time>2026-03-29T09:59:39.943Z</time></trkpt><trkpt lat="40.7586185" lon="14.871078"><ele>371.0</ele><time>2026-03-29T09:59:40.948Z</time></trkpt><trkpt lat="40.7587298" lon="14.8710648"><ele>371.0</ele><time>2026-03-29T09:59:42.014Z</time></trkpt><trkpt lat="40.7588533" lon="14.8710241"><ele>371.0</ele><time>2026-03-29T09:59:42.946Z</time></trkpt><trkpt lat="40.7589664" lon="14.8709437"><ele>371.0</ele><time>2026-03-29T09:59:43.952Z</time></trkpt><trkpt lat="40.7590809" lon="14.8708725"><ele>371.0</ele><time>2026-03-29T09:59:44.973Z</time></trkpt><trkpt lat="40.7591869" lon="14.8708026"><ele>371.0</ele><time>2026-03-29T09:59:46.032Z</time></trkpt><trkpt lat="40.7592872" lon="14.8707417"><ele>371.5</ele><time>2026-03-29T09:59:47.015Z</time></trkpt><trkpt lat="40.7593788" lon="14.8706928"><ele>372.0</ele><time>2026-03-29T09:59:47.952Z</time></trkpt><trkpt lat="40.7594544" lon="14.8706544"><ele>372.5</ele><time>2026-03-29T09:59:48.953Z</time></trkpt><trkpt lat="40.7595316" lon="14.8706483"><ele>373.0</ele><time>2026-03-29T09:59:50.046Z</time></trkpt><trkpt lat="40.7596179" lon="14.8706518"><ele>373.5</ele><time>2026-03-29T09:59:51.013Z</time></trkpt><trkpt lat="40.7597089" lon="14.8706694"><ele>374.0</ele><time>2026-03-29T09:59:52.023Z</time></trkpt><trkpt lat="40.7597967" lon="14.8706761"><ele>374.0</ele><time>2026-03-29T09:59:52.949Z</time></trkpt><trkpt lat="40.7598748" lon="14.870676"><ele>374.0</ele><time>2026-03-29T09:59:53.946Z</time></trkpt><trkpt lat="40.7599613" lon="14.8706773"><ele>374.0</ele><time>2026-03-29T09:59:56.016Z</time></trkpt><trkpt lat="40.7600358" lon="14.8706865"><ele>374.0</ele><time>2026-03-29T09:59:57.949Z</time></trkpt><trkpt lat="40.7601069" lon="14.8707341"><ele>374.0</ele><time>2026-03-29T10:00:00.019Z</time></trkpt><trkpt lat="40.7601796" lon="14.8707908"><ele>374.0</ele><time>2026-03-29T10:00:01.946Z</time></trkpt><trkpt lat="40.7602438" lon="14.8708767"><ele>379.0</ele><time>2026-03-29T10:00:03.95Z</time></trkpt><trkpt lat="40.7603105" lon="14.8709664"><ele>384.0</ele><time>2026-03-29T10:00:05.948Z</time></trkpt><trkpt lat="40.760401" lon="14.8710794"><ele>389.0</ele><time>2026-03-29T10:00:08.951Z</time></trkpt><trkpt lat="40.7604901" lon="14.8711692"><ele>394.0</ele><time>2026-03-29T10:00:10.947Z</time></trkpt><trkpt lat="40.7605492" lon="14.8711997"><ele>399.0</ele><time>2026-03-29T10:00:12.946Z</time></trkpt><trkpt lat="40.7606129" lon="14.8712231"><ele>399.0</ele><time>2026-03-29T10:00:15.029Z</time></trkpt><trkpt lat="40.7606936" lon="14.8712693"><ele>399.0</ele><time>2026-03-29T10:00:17.948Z</time></trkpt><trkpt lat="40.7607485" lon="14.8713125"><ele>399.0</ele><time>2026-03-29T10:03:54.946Z</time></trkpt><trkpt lat="40.7606852" lon="14.8712749"><ele>399.0</ele><time>2026-03-29T10:04:16.95Z</time></trkpt><trkpt lat="40.7606177" lon="14.8712522"><ele>399.0</ele><time>2026-03-29T10:04:19.949Z</time></trkpt><trkpt lat="40.7605532" lon="14.8712454"><ele>399.0</ele><time>2026-03-29T10:04:22.946Z</time></trkpt><trkpt lat="40.760483" lon="14.8711903"><ele>399.0</ele><time>2026-03-29T10:04:25.951Z</time></trkpt><trkpt lat="40.7604203" lon="14.8711259"><ele>399.0</ele><time>2026-03-29T10:04:27.946Z</time></trkpt><trkpt lat="40.7603434" lon="14.8710676"><ele>399.0</ele><time>2026-03-29T10:04:29.947Z</time></trkpt><trkpt lat="40.7602206" lon="14.8709351"><ele>399.0</ele><time>2026-03-29T10:04:32.022Z</time></trkpt><trkpt lat="40.760167" lon="14.8708676"><ele>399.0</ele><time>2026-03-29T10:04:32.956Z</time></trkpt><trkpt lat="40.7601202" lon="14.870799"><ele>399.0</ele><time>2026-03-29T10:04:33.95Z</time></trkpt><trkpt lat="40.7600604" lon="14.8707437"><ele>394.8333333333333</ele><time>2026-03-29T10:04:34.948Z</time></trkpt><trkpt lat="40.7599753" lon="14.8707299"><ele>390.6666666666667</ele><time>2026-03-29T10:04:36.948Z</time></trkpt><trkpt lat="40.7598976" lon="14.8707027"><ele>386.5</ele><time>2026-03-29T10:04:39.952Z</time></trkpt><trkpt lat="40.7598123" lon="14.8706875"><ele>382.33333333333337</ele><time>2026-03-29T10:09:50.967Z</time></trkpt><trkpt lat="40.7597096" lon="14.8706814"><ele>378.1666666666667</ele><time>2026-03-29T10:09:52.967Z</time></trkpt><trkpt lat="40.7596361" lon="14.8707067"><ele>374.0</ele><time>2026-03-29T10:09:54.027Z</time></trkpt><trkpt lat="40.7595739" lon="14.8707298"><ele>374.0</ele><time>2026-03-29T10:09:54.976Z</time></trkpt><trkpt lat="40.7594964" lon="14.870783"><ele>374.0</ele><time>2026-03-29T10:09:55.97Z</time></trkpt><trkpt lat="40.7593903" lon="14.8708387"><ele>374.0</ele><time>2026-03-29T10:09:56.967Z</time></trkpt><trkpt lat="40.7592755" lon="14.8708888"><ele>374.0</ele><time>2026-03-29T10:09:57.966Z</time></trkpt><trkpt lat="40.7591405" lon="14.8709681"><ele>376.25</ele><time>2026-03-29T10:09:58.971Z</time></trkpt><trkpt lat="40.7590102" lon="14.8710428"><ele>378.5</ele><time>2026-03-29T10:09:59.967Z</time></trkpt><trkpt lat="40.7588877" lon="14.8711049"><ele>380.75</ele><time>2026-03-29T10:10:00.962Z</time></trkpt><trkpt lat="40.7587718" lon="14.8711458"><ele>383.0</ele><time>2026-03-29T10:10:01.979Z</time></trkpt><trkpt lat="40.7586601" lon="14.8711616"><ele>383.0</ele><time>2026-03-29T10:10:02.971Z</time></trkpt><trkpt lat="40.7585439" lon="14.8711709"><ele>383.0</ele><time>2026-03-29T10:10:03.968Z</time></trkpt><trkpt lat="40.758431" lon="14.8712029"><ele>383.0</ele><time>2026-03-29T10:10:04.968Z</time></trkpt><trkpt lat="40.7583281" lon="14.8712476"><ele>383.0</ele><time>2026-03-29T10:10:05.97Z</time></trkpt><trkpt lat="40.7582276" lon="14.8713078"><ele>380.0</ele><time>2026-03-29T10:10:06.969Z</time></trkpt><trkpt lat="40.7581275" lon="14.8713654"><ele>377.0</ele><time>2026-03-29T10:10:07.968Z</time></trkpt><trkpt lat="40.7580248" lon="14.8714267"><ele>374.0</ele><time>2026-03-29T10:10:08.972Z</time></trkpt><trkpt lat="40.7579147" lon="14.8714795"><ele>371.0</ele><time>2026-03-29T10:10:10.077Z</time></trkpt><trkpt lat="40.7578075" lon="14.8715175"><ele>371.0</ele><time>2026-03-29T10:10:11.045Z</time></trkpt><trkpt lat="40.7577064" lon="14.8715373"><ele>371.0</ele><time>2026-03-29T10:10:12.039Z</time></trkpt><trkpt lat="40.7576111" lon="14.8715313"><ele>371.0</ele><time>2026-03-29T10:10:12.961Z</time></trkpt><trkpt lat="40.757514" lon="14.8715133"><ele>371.0</ele><time>2026-03-29T10:10:13.957Z</time></trkpt><trkpt lat="40.7574148" lon="14.8714724"><ele>371.0</ele><time>2026-03-29T10:10:15.043Z</time></trkpt><trkpt lat="40.7573153" lon="14.8714357"><ele>370.6</ele><time>2026-03-29T10:10:16.033Z</time></trkpt><trkpt lat="40.7572197" lon="14.8714023"><ele>370.20000000000005</ele><time>2026-03-29T10:10:17.033Z</time></trkpt><trkpt lat="40.7571128" lon="14.8713874"><ele>369.79999999999995</ele><time>2026-03-29T10:10:17.951Z</time></trkpt><trkpt lat="40.7569893" lon="14.8713876"><ele>369.4</ele><time>2026-03-29T10:10:18.957Z</time></trkpt><trkpt lat="40.7568784" lon="14.8713723"><ele>369.0</ele><time>2026-03-29T10:10:19.988Z</time></trkpt><trkpt lat="40.756803" lon="14.8713528"><ele>369.0</ele><time>2026-03-29T10:10:21.03Z</time></trkpt><trkpt lat="40.756723" lon="14.8713346"><ele>369.0</ele><time>2026-03-29T10:10:22.037Z</time></trkpt><trkpt lat="40.7566454" lon="14.8713099"><ele>369.0</ele><time>2026-03-29T10:10:22.965Z</time></trkpt><trkpt lat="40.7565751" lon="14.8712797"><ele>369.0</ele><time>2026-03-29T10:10:23.968Z</time></trkpt><trkpt lat="40.7564714" lon="14.8712522"><ele>369.0</ele><time>2026-03-29T10:10:26.036Z</time></trkpt><trkpt lat="40.7563827" lon="14.8712913"><ele>369.0</ele><time>2026-03-29T10:10:27.949Z</time></trkpt><trkpt lat="40.7563169" lon="14.8713254"><ele>369.0</ele><time>2026-03-29T10:10:28.95Z</time></trkpt><trkpt lat="40.7561926" lon="14.8713224"><ele>369.0</ele><time>2026-03-29T10:10:30.949Z</time></trkpt><trkpt lat="40.7561167" lon="14.871319"><ele>369.0</ele><time>2026-03-29T10:10:32.012Z</time></trkpt><trkpt lat="40.7559887" lon="14.8712456"><ele>369.0</ele><time>2026-03-29T10:10:33.95Z</time></trkpt><trkpt lat="40.7559136" lon="14.8712093"><ele>369.0</ele><time>2026-03-29T10:10:35.089Z</time></trkpt><trkpt lat="40.7558342" lon="14.8711861"><ele>369.6</ele><time>2026-03-29T10:10:36.033Z</time></trkpt><trkpt lat="40.7557612" lon="14.8711853"><ele>370.2</ele><time>2026-03-29T10:10:37.035Z</time></trkpt><trkpt lat="40.7556543" lon="14.871205"><ele>370.8</ele><time>2026-03-29T10:10:38.952Z</time></trkpt><trkpt lat="40.7555823" lon="14.8712422"><ele>371.40000000000003</ele><time>2026-03-29T10:10:40.95Z</time></trkpt><trkpt lat="40.7554854" lon="14.8711838"><ele>372.0</ele><time>2026-03-29T10:10:43.946Z</time></trkpt><trkpt lat="40.7554133" lon="14.8711237"><ele>372.0</ele><time>2026-03-29T10:10:47.957Z</time></trkpt><trkpt lat="40.7553706" lon="14.8710592"><ele>372.0</ele><time>2026-03-29T10:10:50.048Z</time></trkpt><trkpt lat="40.7552843" lon="14.870993"><ele>372.0</ele><time>2026-03-29T10:10:52.038Z</time></trkpt><trkpt lat="40.7552037" lon="14.8710102"><ele>372.0</ele><time>2026-03-29T10:10:52.962Z</time></trkpt><trkpt lat="40.7551088" lon="14.8710371"><ele>372.0</ele><time>2026-03-29T10:10:53.955Z</time></trkpt><trkpt lat="40.7550387" lon="14.8710605"><ele>372.0</ele><time>2026-03-29T10:10:54.959Z</time></trkpt><trkpt lat="40.754958" lon="14.8711082"><ele>370.5</ele><time>2026-03-29T10:10:55.962Z</time></trkpt><trkpt lat="40.7548952" lon="14.8711465"><ele>369.0</ele><time>2026-03-29T10:10:56.958Z</time></trkpt><trkpt lat="40.7548217" lon="14.8712061"><ele>367.5</ele><time>2026-03-29T10:10:57.958Z</time></trkpt><trkpt lat="40.7547602" lon="14.8712744"><ele>366.0</ele><time>2026-03-29T10:10:58.961Z</time></trkpt><trkpt lat="40.754713" lon="14.8713616"><ele>364.5</ele><time>2026-03-29T10:10:59.956Z</time></trkpt><trkpt lat="40.7546798" lon="14.8714511"><ele>363.0</ele><time>2026-03-29T10:11:00.96Z</time></trkpt><trkpt lat="40.7546114" lon="14.8715918"><ele>363.0</ele><time>2026-03-29T10:11:03Z</time></trkpt><trkpt lat="40.7545828" lon="14.8716687"><ele>363.0</ele><time>2026-03-29T10:11:03.957Z</time></trkpt><trkpt lat="40.7545403" lon="14.8717882"><ele>363.0</ele><time>2026-03-29T10:11:05.955Z</time></trkpt><trkpt lat="40.7545067" lon="14.8718867"><ele>363.0</ele><time>2026-03-29T10:11:08.959Z</time></trkpt><trkpt lat="40.7545176" lon="14.8720438"><ele>363.0</ele><time>2026-03-29T10:12:14.961Z</time></trkpt><trkpt lat="40.7545163" lon="14.8721496"><ele>363.0</ele><time>2026-03-29T10:14:57.958Z</time></trkpt><trkpt lat="40.7544556" lon="14.8722533"><ele>365.3333333333333</ele><time>2026-03-29T10:15:01.945Z</time></trkpt><trkpt lat="40.7543935" lon="14.8723372"><ele>367.6666666666667</ele><time>2026-03-29T10:15:02.952Z</time></trkpt><trkpt lat="40.7543262" lon="14.8724114"><ele>370.0</ele><time>2026-03-29T10:15:03.949Z</time></trkpt><trkpt lat="40.7542602" lon="14.8724952"><ele>372.33333333333337</ele><time>2026-03-29T10:15:04.954Z</time></trkpt><trkpt lat="40.7542073" lon="14.8725683"><ele>374.6666666666667</ele><time>2026-03-29T10:15:06.02Z</time></trkpt><trkpt lat="40.7541626" lon="14.8726539"><ele>377.0</ele><time>2026-03-29T10:15:06.954Z</time></trkpt><trkpt lat="40.7541308" lon="14.8727645"><ele>371.33333333333337</ele><time>2026-03-29T10:15:07.954Z</time></trkpt><trkpt lat="40.7541117" lon="14.8728854"><ele>365.6666666666667</ele><time>2026-03-29T10:15:08.949Z</time></trkpt><trkpt lat="40.7540861" lon="14.8729906"><ele>360.0</ele><time>2026-03-29T10:15:09.951Z</time></trkpt><trkpt lat="40.7540748" lon="14.8730896"><ele>354.3333333333333</ele><time>2026-03-29T10:15:10.953Z</time></trkpt><trkpt lat="40.7540709" lon="14.873209"><ele>348.66666666666663</ele><time>2026-03-29T10:15:11.952Z</time></trkpt><trkpt lat="40.7540769" lon="14.8733302"><ele>343.0</ele><time>2026-03-29T10:15:12.956Z</time></trkpt><trkpt lat="40.7540528" lon="14.8734723"><ele>343.0</ele><time>2026-03-29T10:15:15.027Z</time></trkpt><trkpt lat="40.7540113" lon="14.8735371"><ele>343.0</ele><time>2026-03-29T10:15:16.029Z</time></trkpt><trkpt lat="40.7539507" lon="14.8736001"><ele>343.0</ele><time>2026-03-29T10:15:17.021Z</time></trkpt><trkpt lat="40.7538614" lon="14.8736751"><ele>343.0</ele><time>2026-03-29T10:15:17.955Z</time></trkpt><trkpt lat="40.7537882" lon="14.8737582"><ele>343.0</ele><time>2026-03-29T10:15:18.946Z</time></trkpt><trkpt lat="40.7537265" lon="14.8738187"><ele>343.0</ele><time>2026-03-29T10:15:19.983Z</time></trkpt><trkpt lat="40.7536123" lon="14.8738132"><ele>342.3333333333333</ele><time>2026-03-29T10:15:22.022Z</time></trkpt><trkpt lat="40.7535202" lon="14.8737481"><ele>341.66666666666663</ele><time>2026-03-29T10:15:22.948Z</time></trkpt><trkpt lat="40.7534324" lon="14.8736994"><ele>341.0</ele><time>2026-03-29T10:15:23.948Z</time></trkpt><trkpt lat="40.7533602" lon="14.8736721"><ele>340.3333333333333</ele><time>2026-03-29T10:15:25.029Z</time></trkpt><trkpt lat="40.7532908" lon="14.8736502"><ele>339.6666666666667</ele><time>2026-03-29T10:15:26.021Z</time></trkpt><trkpt lat="40.7532108" lon="14.8736386"><ele>339.0</ele><time>2026-03-29T10:15:27.022Z</time></trkpt><trkpt lat="40.7531208" lon="14.8736474"><ele>339.0</ele><time>2026-03-29T10:15:27.952Z</time></trkpt><trkpt lat="40.7530332" lon="14.8736698"><ele>339.0</ele><time>2026-03-29T10:15:28.95Z</time></trkpt><trkpt lat="40.7529494" lon="14.8736776"><ele>339.0</ele><time>2026-03-29T10:15:29.984Z</time></trkpt><trkpt lat="40.7528638" lon="14.8736813"><ele>339.0</ele><time>2026-03-29T10:15:31.022Z</time></trkpt><trkpt lat="40.7527778" lon="14.8736888"><ele>339.0</ele><time>2026-03-29T10:15:32.028Z</time></trkpt><trkpt lat="40.7527" lon="14.8737071"><ele>339.0</ele><time>2026-03-29T10:15:32.944Z</time></trkpt><trkpt lat="40.7526274" lon="14.8737315"><ele>338.7142857142857</ele><time>2026-03-29T10:15:33.947Z</time></trkpt><trkpt lat="40.7525541" lon="14.873739"><ele>338.42857142857144</ele><time>2026-03-29T10:15:35.056Z</time></trkpt><trkpt lat="40.7524801" lon="14.8737231"><ele>338.14285714285717</ele><time>2026-03-29T10:15:36.02Z</time></trkpt><trkpt lat="40.7524022" lon="14.8736912"><ele>337.8571428571429</ele><time>2026-03-29T10:15:37.019Z</time></trkpt><trkpt lat="40.7523208" lon="14.8736694"><ele>337.57142857142856</ele><time>2026-03-29T10:15:37.947Z</time></trkpt><trkpt lat="40.7522562" lon="14.8736807"><ele>337.28571428571433</ele><time>2026-03-29T10:15:38.947Z</time></trkpt><trkpt lat="40.7521921" lon="14.87371"><ele>337.0</ele><time>2026-03-29T10:15:39.956Z</time></trkpt><trkpt lat="40.7521201" lon="14.8737408"><ele>337.0</ele><time>2026-03-29T10:15:40.958Z</time></trkpt><trkpt lat="40.7520438" lon="14.8737651"><ele>337.0</ele><time>2026-03-29T10:15:41.953Z</time></trkpt><trkpt lat="40.7519709" lon="14.8737731"><ele>337.0</ele><time>2026-03-29T10:15:42.955Z</time></trkpt><trkpt lat="40.7518983" lon="14.8737836"><ele>337.0</ele><time>2026-03-29T10:15:43.952Z</time></trkpt><trkpt lat="40.7518363" lon="14.8738064"><ele>337.0</ele><time>2026-03-29T10:15:45.012Z</time></trkpt><trkpt lat="40.7517192" lon="14.8738342"><ele>337.0</ele><time>2026-03-29T10:15:47.029Z</time></trkpt><trkpt lat="40.7516552" lon="14.8738436"><ele>333.8333333333333</ele><time>2026-03-29T10:15:47.95Z</time></trkpt><trkpt lat="40.751592" lon="14.8738486"><ele>330.66666666666663</ele><time>2026-03-29T10:15:48.953Z</time></trkpt><trkpt lat="40.7515246" lon="14.8738661"><ele>327.5</ele><time>2026-03-29T10:15:49.954Z</time></trkpt><trkpt lat="40.7514538" lon="14.8738943"><ele>324.3333333333333</ele><time>2026-03-29T10:15:50.952Z</time></trkpt><trkpt lat="40.7513831" lon="14.8739442"><ele>321.1666666666667</ele><time>2026-03-29T10:15:51.95Z</time></trkpt><trkpt lat="40.7513028" lon="14.8740214"><ele>318.0</ele><time>2026-03-29T10:15:52.954Z</time></trkpt><trkpt lat="40.7512175" lon="14.8741071"><ele>318.0</ele><time>2026-03-29T10:15:54.029Z</time></trkpt><trkpt lat="40.7511211" lon="14.8742023"><ele>318.0</ele><time>2026-03-29T10:15:55.016Z</time></trkpt><trkpt lat="40.7510385" lon="14.8742832"><ele>318.0</ele><time>2026-03-29T10:15:56.023Z</time></trkpt><trkpt lat="40.750967" lon="14.8743781"><ele>318.0</ele><time>2026-03-29T10:15:56.959Z</time></trkpt><trkpt lat="40.7509133" lon="14.8744832"><ele>318.0</ele><time>2026-03-29T10:15:57.955Z</time></trkpt><trkpt lat="40.7508348" lon="14.8745748"><ele>316.0</ele><time>2026-03-29T10:15:58.951Z</time></trkpt><trkpt lat="40.7507581" lon="14.8746603"><ele>314.0</ele><time>2026-03-29T10:15:59.947Z</time></trkpt><trkpt lat="40.7506835" lon="14.8747352"><ele>312.0</ele><time>2026-03-29T10:16:00.949Z</time></trkpt><trkpt lat="40.7506172" lon="14.8747779"><ele>310.0</ele><time>2026-03-29T10:16:01.946Z</time></trkpt><trkpt lat="40.7505456" lon="14.8748185"><ele>308.0</ele><time>2026-03-29T10:16:02.957Z</time></trkpt><trkpt lat="40.7504704" lon="14.8748662"><ele>306.0</ele><time>2026-03-29T10:16:03.954Z</time></trkpt><trkpt lat="40.750404" lon="14.874928"><ele>306.0</ele><time>2026-03-29T10:16:05.03Z</time></trkpt><trkpt lat="40.7503352" lon="14.8749808"><ele>306.0</ele><time>2026-03-29T10:16:06.013Z</time></trkpt><trkpt lat="40.7502528" lon="14.8750217"><ele>306.0</ele><time>2026-03-29T10:16:07.016Z</time></trkpt><trkpt lat="40.7501764" lon="14.8750974"><ele>306.0</ele><time>2026-03-29T10:16:08.96Z</time></trkpt><trkpt lat="40.7501188" lon="14.8751702"><ele>306.0</ele><time>2026-03-29T10:16:14.953Z</time></trkpt><trkpt lat="40.7500378" lon="14.875198"><ele>306.0</ele><time>2026-03-29T10:16:26.95Z</time></trkpt><trkpt lat="40.749976" lon="14.8753062"><ele>304.2</ele><time>2026-03-29T10:16:29.026Z</time></trkpt><trkpt lat="40.7499339" lon="14.8753947"><ele>302.40000000000003</ele><time>2026-03-29T10:16:30.024Z</time></trkpt><trkpt lat="40.7498859" lon="14.875502"><ele>300.6</ele><time>2026-03-29T10:16:31.036Z</time></trkpt><trkpt lat="40.7498364" lon="14.8756122"><ele>298.8</ele><time>2026-03-29T10:16:32.009Z</time></trkpt><trkpt lat="40.7497832" lon="14.8757208"><ele>297.0</ele><time>2026-03-29T10:16:32.954Z</time></trkpt><trkpt lat="40.749734" lon="14.8758305"><ele>297.0</ele><time>2026-03-29T10:16:33.945Z</time></trkpt><trkpt lat="40.7496833" lon="14.8759361"><ele>297.0</ele><time>2026-03-29T10:16:35.04Z</time></trkpt><trkpt lat="40.7496198" lon="14.8760334"><ele>297.0</ele><time>2026-03-29T10:16:36.025Z</time></trkpt><trkpt lat="40.7495322" lon="14.8761095"><ele>297.0</ele><time>2026-03-29T10:16:37.007Z</time></trkpt><trkpt lat="40.7494208" lon="14.8761822"><ele>297.0</ele><time>2026-03-29T10:16:37.953Z</time></trkpt><trkpt lat="40.7493134" lon="14.8762516"><ele>294.2</ele><time>2026-03-29T10:16:38.949Z</time></trkpt><trkpt lat="40.7492125" lon="14.876339"><ele>291.4</ele><time>2026-03-29T10:16:40.039Z</time></trkpt><trkpt lat="40.7491253" lon="14.8764399"><ele>288.6</ele><time>2026-03-29T10:16:41.023Z</time></trkpt><trkpt lat="40.7490556" lon="14.8765517"><ele>285.8</ele><time>2026-03-29T10:16:42.027Z</time></trkpt><trkpt lat="40.7490047" lon="14.8766577"><ele>283.0</ele><time>2026-03-29T10:16:42.953Z</time></trkpt><trkpt lat="40.7489777" lon="14.8767979"><ele>282.25</ele><time>2026-03-29T10:16:43.955Z</time></trkpt><trkpt lat="40.7489652" lon="14.8769497"><ele>281.5</ele><time>2026-03-29T10:16:44.975Z</time></trkpt><trkpt lat="40.7489609" lon="14.8771083"><ele>280.75</ele><time>2026-03-29T10:16:46.021Z</time></trkpt><trkpt lat="40.7489679" lon="14.8772698"><ele>280.0</ele><time>2026-03-29T10:16:47.031Z</time></trkpt><trkpt lat="40.748955" lon="14.8774284"><ele>280.0</ele><time>2026-03-29T10:16:47.951Z</time></trkpt><trkpt lat="40.74894" lon="14.8775801"><ele>280.0</ele><time>2026-03-29T10:16:48.948Z</time></trkpt><trkpt lat="40.7488911" lon="14.8777002"><ele>280.0</ele><time>2026-03-29T10:16:50.064Z</time></trkpt><trkpt lat="40.7487945" lon="14.8778044"><ele>280.0</ele><time>2026-03-29T10:16:51.017Z</time></trkpt><trkpt lat="40.7486824" lon="14.8778903"><ele>278.5</ele><time>2026-03-29T10:16:52.015Z</time></trkpt><trkpt lat="40.7485822" lon="14.8779669"><ele>277.0</ele><time>2026-03-29T10:16:52.952Z</time></trkpt><trkpt lat="40.748497" lon="14.8780593"><ele>275.5</ele><time>2026-03-29T10:16:53.955Z</time></trkpt><trkpt lat="40.7484356" lon="14.8781791"><ele>274.0</ele><time>2026-03-29T10:16:54.948Z</time></trkpt><trkpt lat="40.7483743" lon="14.8783303"><ele>277.5</ele><time>2026-03-29T10:16:55.95Z</time></trkpt><trkpt lat="40.7483066" lon="14.8784893"><ele>281.0</ele><time>2026-03-29T10:16:56.956Z</time></trkpt><trkpt lat="40.7482333" lon="14.8786468"><ele>284.5</ele><time>2026-03-29T10:16:57.956Z</time></trkpt><trkpt lat="40.7481713" lon="14.8787763"><ele>288.0</ele><time>2026-03-29T10:16:58.951Z</time></trkpt><trkpt lat="40.7480981" lon="14.8788578"><ele>288.0</ele><time>2026-03-29T10:16:59.953Z</time></trkpt><trkpt lat="40.7480074" lon="14.8789168"><ele>288.0</ele><time>2026-03-29T10:17:01.011Z</time></trkpt><trkpt lat="40.7478943" lon="14.8789854"><ele>288.0</ele><time>2026-03-29T10:17:02.011Z</time></trkpt><trkpt lat="40.7477796" lon="14.8790519"><ele>288.0</ele><time>2026-03-29T10:17:02.952Z</time></trkpt><trkpt lat="40.7476774" lon="14.8791252"><ele>283.75</ele><time>2026-03-29T10:17:03.953Z</time></trkpt><trkpt lat="40.7475844" lon="14.8792316"><ele>279.5</ele><time>2026-03-29T10:17:04.952Z</time></trkpt><trkpt lat="40.7475157" lon="14.8793661"><ele>275.25</ele><time>2026-03-29T10:17:05.948Z</time></trkpt><trkpt lat="40.7474555" lon="14.8795198"><ele>271.0</ele><time>2026-03-29T10:17:06.947Z</time></trkpt><trkpt lat="40.747404" lon="14.879689"><ele>270.3333333333333</ele><time>2026-03-29T10:17:07.949Z</time></trkpt><trkpt lat="40.7473471" lon="14.8798701"><ele>269.6666666666667</ele><time>2026-03-29T10:17:09.027Z</time></trkpt><trkpt lat="40.7472875" lon="14.8800506"><ele>269.0</ele><time>2026-03-29T10:17:09.949Z</time></trkpt><trkpt lat="40.7472263" lon="14.8802354"><ele>269.0</ele><time>2026-03-29T10:17:11.032Z</time></trkpt><trkpt lat="40.7471713" lon="14.8804144"><ele>269.0</ele><time>2026-03-29T10:17:11.947Z</time></trkpt><trkpt lat="40.74713" lon="14.8806006"><ele>269.0</ele><time>2026-03-29T10:17:12.958Z</time></trkpt><trkpt lat="40.7470962" lon="14.8807933"><ele>269.0</ele><time>2026-03-29T10:17:13.948Z</time></trkpt><trkpt lat="40.7470607" lon="14.8809825"><ele>270.0</ele><time>2026-03-29T10:17:14.952Z</time></trkpt><trkpt lat="40.7470321" lon="14.8811617"><ele>271.0</ele><time>2026-03-29T10:17:15.954Z</time></trkpt><trkpt lat="40.7470057" lon="14.8813399"><ele>272.0</ele><time>2026-03-29T10:17:16.954Z</time></trkpt><trkpt lat="40.7469742" lon="14.8814982"><ele>273.0</ele><time>2026-03-29T10:17:17.955Z</time></trkpt><trkpt lat="40.7469432" lon="14.881646"><ele>272.0</ele><time>2026-03-29T10:17:18.958Z</time></trkpt><trkpt lat="40.7469128" lon="14.8817781"><ele>271.0</ele><time>2026-03-29T10:17:20.023Z</time></trkpt><trkpt lat="40.7468885" lon="14.8819102"><ele>270.0</ele><time>2026-03-29T10:17:21.014Z</time></trkpt><trkpt lat="40.746856" lon="14.882015"><ele>269.0</ele><time>2026-03-29T10:17:22.02Z</time></trkpt><trkpt lat="40.7468167" lon="14.8820981"><ele>268.0</ele><time>2026-03-29T10:17:22.956Z</time></trkpt><trkpt lat="40.746761" lon="14.8821716"><ele>267.0</ele><time>2026-03-29T10:17:23.941Z</time></trkpt><trkpt lat="40.7466987" lon="14.8822269"><ele>264.6</ele><time>2026-03-29T10:17:24.977Z</time></trkpt><trkpt lat="40.7466124" lon="14.8822415"><ele>262.2</ele><time>2026-03-29T10:17:26.013Z</time></trkpt><trkpt lat="40.7465252" lon="14.8822069"><ele>259.8</ele><time>2026-03-29T10:17:27.021Z</time></trkpt><trkpt lat="40.746437" lon="14.882134"><ele>257.4</ele><time>2026-03-29T10:17:27.955Z</time></trkpt><trkpt lat="40.7463429" lon="14.8820551"><ele>255.0</ele><time>2026-03-29T10:17:28.959Z</time></trkpt><trkpt lat="40.7462556" lon="14.8819835"><ele>255.0</ele><time>2026-03-29T10:17:29.991Z</time></trkpt><trkpt lat="40.746172" lon="14.8819155"><ele>255.0</ele><time>2026-03-29T10:17:31.024Z</time></trkpt><trkpt lat="40.7460836" lon="14.8818765"><ele>255.0</ele><time>2026-03-29T10:17:32.023Z</time></trkpt><trkpt lat="40.7459895" lon="14.8818776"><ele>255.0</ele><time>2026-03-29T10:17:32.955Z</time></trkpt><trkpt lat="40.7458968" lon="14.8818967"><ele>255.0</ele><time>2026-03-29T10:17:33.952Z</time></trkpt><trkpt lat="40.7458076" lon="14.8819444"><ele>254.5</ele><time>2026-03-29T10:17:35.057Z</time></trkpt><trkpt lat="40.7457142" lon="14.8820107"><ele>254.0</ele><time>2026-03-29T10:17:36.021Z</time></trkpt><trkpt lat="40.7456197" lon="14.8820792"><ele>253.5</ele><time>2026-03-29T10:17:37.013Z</time></trkpt><trkpt lat="40.7455113" lon="14.8821583"><ele>253.0</ele><time>2026-03-29T10:17:37.952Z</time></trkpt><trkpt lat="40.7454053" lon="14.8822313"><ele>253.0</ele><time>2026-03-29T10:17:38.956Z</time></trkpt><trkpt lat="40.7453095" lon="14.8823036"><ele>253.0</ele><time>2026-03-29T10:17:40.055Z</time></trkpt><trkpt lat="40.7452206" lon="14.8823937"><ele>253.0</ele><time>2026-03-29T10:17:41.017Z</time></trkpt><trkpt lat="40.745134" lon="14.8825036"><ele>253.0</ele><time>2026-03-29T10:17:42.023Z</time></trkpt><trkpt lat="40.7450573" lon="14.8826116"><ele>251.25</ele><time>2026-03-29T10:17:42.953Z</time></trkpt><trkpt lat="40.7450041" lon="14.8827385"><ele>249.5</ele><time>2026-03-29T10:17:43.953Z</time></trkpt><trkpt lat="40.7449579" lon="14.8828974"><ele>247.75</ele><time>2026-03-29T10:17:44.955Z</time></trkpt><trkpt lat="40.7449064" lon="14.8830513"><ele>246.0</ele><time>2026-03-29T10:17:45.952Z</time></trkpt><trkpt lat="40.7448502" lon="14.8831851"><ele>246.0</ele><time>2026-03-29T10:17:46.953Z</time></trkpt><trkpt lat="40.7447931" lon="14.8833107"><ele>246.00000000000003</ele><time>2026-03-29T10:17:47.953Z</time></trkpt><trkpt lat="40.7447337" lon="14.8834259"><ele>246.00000000000003</ele><time>2026-03-29T10:17:48.952Z</time></trkpt><trkpt lat="40.74466" lon="14.8835282"><ele>246.0</ele><time>2026-03-29T10:17:50.033Z</time></trkpt><trkpt lat="40.7445879" lon="14.8836336"><ele>246.0</ele><time>2026-03-29T10:17:51.015Z</time></trkpt><trkpt lat="40.7445397" lon="14.883757"><ele>245.5</ele><time>2026-03-29T10:17:52.033Z</time></trkpt><trkpt lat="40.7445049" lon="14.8839162"><ele>245.0</ele><time>2026-03-29T10:17:52.951Z</time></trkpt><trkpt lat="40.7444548" lon="14.8840757"><ele>244.5</ele><time>2026-03-29T10:17:53.956Z</time></trkpt><trkpt lat="40.7443974" lon="14.8842337"><ele>244.0</ele><time>2026-03-29T10:17:54.942Z</time></trkpt><trkpt lat="40.7443279" lon="14.8843752"><ele>244.0</ele><time>2026-03-29T10:17:55.954Z</time></trkpt><trkpt lat="40.7442597" lon="14.8844977"><ele>244.0</ele><time>2026-03-29T10:17:56.95Z</time></trkpt><trkpt lat="40.744177" lon="14.8846025"><ele>244.0</ele><time>2026-03-29T10:17:57.954Z</time></trkpt><trkpt lat="40.7440711" lon="14.884706"><ele>244.0</ele><time>2026-03-29T10:17:59.043Z</time></trkpt><trkpt lat="40.7439549" lon="14.8848138"><ele>244.0</ele><time>2026-03-29T10:18:00.042Z</time></trkpt><trkpt lat="40.7438354" lon="14.8849262"><ele>244.0</ele><time>2026-03-29T10:18:01.045Z</time></trkpt><trkpt lat="40.7437307" lon="14.8850515"><ele>244.0</ele><time>2026-03-29T10:18:01.956Z</time></trkpt><trkpt lat="40.7436485" lon="14.8851682"><ele>244.0</ele><time>2026-03-29T10:18:02.955Z</time></trkpt><trkpt lat="40.7435744" lon="14.8852596"><ele>242.5</ele><time>2026-03-29T10:18:03.953Z</time></trkpt><trkpt lat="40.7434832" lon="14.8853298"><ele>241.0</ele><time>2026-03-29T10:18:04.952Z</time></trkpt><trkpt lat="40.7433582" lon="14.8853755"><ele>239.5</ele><time>2026-03-29T10:18:05.954Z</time></trkpt><trkpt lat="40.7432196" lon="14.8854076"><ele>238.0</ele><time>2026-03-29T10:18:06.956Z</time></trkpt><trkpt lat="40.7430904" lon="14.8854511"><ele>238.0</ele><time>2026-03-29T10:18:07.955Z</time></trkpt><trkpt lat="40.7429627" lon="14.8855223"><ele>238.0</ele><time>2026-03-29T10:18:08.951Z</time></trkpt><trkpt lat="40.7428317" lon="14.8856062"><ele>238.0</ele><time>2026-03-29T10:18:10.026Z</time></trkpt><trkpt lat="40.7426982" lon="14.8856997"><ele>238.0</ele><time>2026-03-29T10:18:10.957Z</time></trkpt><trkpt lat="40.7425688" lon="14.8857927"><ele>238.0</ele><time>2026-03-29T10:18:11.957Z</time></trkpt><trkpt lat="40.7424551" lon="14.8858762"><ele>238.0</ele><time>2026-03-29T10:18:12.957Z</time></trkpt><trkpt lat="40.7423438" lon="14.8859693"><ele>238.0</ele><time>2026-03-29T10:18:13.952Z</time></trkpt><trkpt lat="40.7422389" lon="14.8860678"><ele>238.0</ele><time>2026-03-29T10:18:14.955Z</time></trkpt><trkpt lat="40.7421318" lon="14.88619"><ele>236.75</ele><time>2026-03-29T10:18:15.953Z</time></trkpt><trkpt lat="40.7420304" lon="14.8863219"><ele>235.5</ele><time>2026-03-29T10:18:16.946Z</time></trkpt><trkpt lat="40.7419367" lon="14.8864682"><ele>234.25</ele><time>2026-03-29T10:18:17.954Z</time></trkpt><trkpt lat="40.7418491" lon="14.8866231"><ele>233.0</ele><time>2026-03-29T10:18:18.951Z</time></trkpt><trkpt lat="40.7417605" lon="14.8867659"><ele>232.25</ele><time>2026-03-29T10:18:19.953Z</time></trkpt><trkpt lat="40.7416818" lon="14.8868933"><ele>231.5</ele><time>2026-03-29T10:18:20.955Z</time></trkpt><trkpt lat="40.7416257" lon="14.8870263"><ele>230.75</ele><time>2026-03-29T10:18:21.952Z</time></trkpt><trkpt lat="40.7415925" lon="14.8871669"><ele>230.0</ele><time>2026-03-29T10:18:22.953Z</time></trkpt><trkpt lat="40.7415758" lon="14.8873261"><ele>230.0</ele><time>2026-03-29T10:18:23.951Z</time></trkpt><trkpt lat="40.7415587" lon="14.887491"><ele>230.0</ele><time>2026-03-29T10:18:24.961Z</time></trkpt><trkpt lat="40.7415328" lon="14.8876601"><ele>230.0</ele><time>2026-03-29T10:18:25.944Z</time></trkpt><trkpt lat="40.7415045" lon="14.8878395"><ele>230.0</ele><time>2026-03-29T10:18:26.946Z</time></trkpt><trkpt lat="40.7414711" lon="14.888025"><ele>229.25</ele><time>2026-03-29T10:18:27.952Z</time></trkpt><trkpt lat="40.7414241" lon="14.8882122"><ele>228.5</ele><time>2026-03-29T10:18:28.955Z</time></trkpt><trkpt lat="40.741369" lon="14.8883915"><ele>227.75</ele><time>2026-03-29T10:18:29.951Z</time></trkpt><trkpt lat="40.7413021" lon="14.8885612"><ele>227.0</ele><time>2026-03-29T10:18:30.951Z</time></trkpt><trkpt lat="40.7412231" lon="14.888715"><ele>226.25</ele><time>2026-03-29T10:18:31.954Z</time></trkpt><trkpt lat="40.7411348" lon="14.8888552"><ele>225.5</ele><time>2026-03-29T10:18:32.948Z</time></trkpt><trkpt lat="40.7410348" lon="14.8889875"><ele>224.75</ele><time>2026-03-29T10:18:33.951Z</time></trkpt><trkpt lat="40.740914" lon="14.8891119"><ele>224.0</ele><time>2026-03-29T10:18:34.957Z</time></trkpt><trkpt lat="40.7407958" lon="14.8892283"><ele>222.66666666666669</ele><time>2026-03-29T10:18:35.953Z</time></trkpt><trkpt lat="40.7406692" lon="14.8893467"><ele>221.33333333333331</ele><time>2026-03-29T10:18:36.95Z</time></trkpt><trkpt lat="40.740542" lon="14.8894706"><ele>220.0</ele><time>2026-03-29T10:18:37.951Z</time></trkpt><trkpt lat="40.7404165" lon="14.8896025"><ele>220.0</ele><time>2026-03-29T10:18:38.951Z</time></trkpt><trkpt lat="40.7403" lon="14.8897371"><ele>220.0</ele><time>2026-03-29T10:18:39.951Z</time></trkpt><trkpt lat="40.7401912" lon="14.8898693"><ele>220.0</ele><time>2026-03-29T10:18:40.956Z</time></trkpt><trkpt lat="40.7400843" lon="14.8899938"><ele>220.0</ele><time>2026-03-29T10:18:41.949Z</time></trkpt><trkpt lat="40.7399838" lon="14.8901074"><ele>219.0</ele><time>2026-03-29T10:18:42.951Z</time></trkpt><trkpt lat="40.7398693" lon="14.8902086"><ele>218.0</ele><time>2026-03-29T10:18:43.947Z</time></trkpt><trkpt lat="40.7397388" lon="14.8902931"><ele>217.0</ele><time>2026-03-29T10:18:44.954Z</time></trkpt><trkpt lat="40.7395941" lon="14.8903642"><ele>216.0</ele><time>2026-03-29T10:18:45.95Z</time></trkpt><trkpt lat="40.7394422" lon="14.8904273"><ele>215.66666666666669</ele><time>2026-03-29T10:18:46.953Z</time></trkpt><trkpt lat="40.7392889" lon="14.8904948"><ele>215.33333333333334</ele><time>2026-03-29T10:18:47.953Z</time></trkpt><trkpt lat="40.7391419" lon="14.8905719"><ele>215.0</ele><time>2026-03-29T10:18:48.959Z</time></trkpt><trkpt lat="40.7390024" lon="14.8906542"><ele>215.0</ele><time>2026-03-29T10:18:49.96Z</time></trkpt><trkpt lat="40.738874" lon="14.8907372"><ele>215.0</ele><time>2026-03-29T10:18:50.952Z</time></trkpt><trkpt lat="40.7387527" lon="14.8908429"><ele>215.0</ele><time>2026-03-29T10:18:51.954Z</time></trkpt><trkpt lat="40.7386391" lon="14.8909613"><ele>215.0</ele><time>2026-03-29T10:18:52.951Z</time></trkpt><trkpt lat="40.7385361" lon="14.891084"><ele>213.75</ele><time>2026-03-29T10:18:53.958Z</time></trkpt><trkpt lat="40.7384359" lon="14.8911934"><ele>212.5</ele><time>2026-03-29T10:18:54.957Z</time></trkpt><trkpt lat="40.7383194" lon="14.8912614"><ele>211.25</ele><time>2026-03-29T10:18:55.956Z</time></trkpt><trkpt lat="40.7382013" lon="14.891293"><ele>210.0</ele><time>2026-03-29T10:18:57.029Z</time></trkpt><trkpt lat="40.7380759" lon="14.8913103"><ele>210.0</ele><time>2026-03-29T10:18:57.957Z</time></trkpt><trkpt lat="40.7379377" lon="14.8913091"><ele>210.0</ele><time>2026-03-29T10:18:58.952Z</time></trkpt><trkpt lat="40.7377875" lon="14.8912771"><ele>210.0</ele><time>2026-03-29T10:18:59.954Z</time></trkpt><trkpt lat="40.7376354" lon="14.8912048"><ele>209.66666666666669</ele><time>2026-03-29T10:19:00.958Z</time></trkpt><trkpt lat="40.7374928" lon="14.8911343"><ele>209.33333333333334</ele><time>2026-03-29T10:19:01.95Z</time></trkpt><trkpt lat="40.7373388" lon="14.8910584"><ele>209.0</ele><time>2026-03-29T10:19:02.956Z</time></trkpt><trkpt lat="40.737193" lon="14.8909739"><ele>210.0</ele><time>2026-03-29T10:19:03.957Z</time></trkpt><trkpt lat="40.7370526" lon="14.8909014"><ele>211.0</ele><time>2026-03-29T10:19:04.953Z</time></trkpt><trkpt lat="40.7369043" lon="14.890841"><ele>212.0</ele><time>2026-03-29T10:19:05.951Z</time></trkpt><trkpt lat="40.7367496" lon="14.8907977"><ele>212.0</ele><time>2026-03-29T10:19:07.021Z</time></trkpt><trkpt lat="40.7365898" lon="14.8907557"><ele>212.0</ele><time>2026-03-29T10:19:07.956Z</time></trkpt><trkpt lat="40.7364336" lon="14.8907168"><ele>212.0</ele><time>2026-03-29T10:19:08.952Z</time></trkpt><trkpt lat="40.736279" lon="14.8906725"><ele>212.0</ele><time>2026-03-29T10:19:09.98Z</time></trkpt><trkpt lat="40.7361352" lon="14.8906315"><ele>212.0</ele><time>2026-03-29T10:19:10.953Z</time></trkpt><trkpt lat="40.7359988" lon="14.8906091"><ele>212.0</ele><time>2026-03-29T10:19:11.956Z</time></trkpt><trkpt lat="40.7358655" lon="14.8906298"><ele>212.0</ele><time>2026-03-29T10:19:12.955Z</time></trkpt><trkpt lat="40.7357234" lon="14.8906666"><ele>210.25</ele><time>2026-03-29T10:19:13.953Z</time></trkpt><trkpt lat="40.7355777" lon="14.8907091"><ele>208.5</ele><time>2026-03-29T10:19:14.951Z</time></trkpt><trkpt lat="40.7354283" lon="14.8907331"><ele>206.75</ele><time>2026-03-29T10:19:15.953Z</time></trkpt><trkpt lat="40.7352847" lon="14.8907713"><ele>205.0</ele><time>2026-03-29T10:19:17.033Z</time></trkpt><trkpt lat="40.7351489" lon="14.8908327"><ele>204.2</ele><time>2026-03-29T10:19:17.952Z</time></trkpt><trkpt lat="40.7350347" lon="14.8909097"><ele>203.4</ele><time>2026-03-29T10:19:18.955Z</time></trkpt><trkpt lat="40.7349432" lon="14.8910176"><ele>202.60000000000002</ele><time>2026-03-29T10:19:19.955Z</time></trkpt><trkpt lat="40.7348702" lon="14.8911192"><ele>201.8</ele><time>2026-03-29T10:19:20.953Z</time></trkpt><trkpt lat="40.7348176" lon="14.8912013"><ele>201.0</ele><time>2026-03-29T10:19:21.94Z</time></trkpt><trkpt lat="40.7347689" lon="14.8912667"><ele>201.0</ele><time>2026-03-29T10:19:22.945Z</time></trkpt><trkpt lat="40.7346846" lon="14.8912847"><ele>201.0</ele><time>2026-03-29T10:19:23.955Z</time></trkpt><trkpt lat="40.7345603" lon="14.8912789"><ele>201.0</ele><time>2026-03-29T10:19:24.946Z</time></trkpt><trkpt lat="40.7344201" lon="14.8912366"><ele>201.0</ele><time>2026-03-29T10:19:25.951Z</time></trkpt><trkpt lat="40.7342715" lon="14.8911978"><ele>201.75</ele><time>2026-03-29T10:19:26.951Z</time></trkpt><trkpt lat="40.7341309" lon="14.8911468"><ele>202.5</ele><time>2026-03-29T10:19:27.955Z</time></trkpt><trkpt lat="40.7339943" lon="14.8910754"><ele>203.25</ele><time>2026-03-29T10:19:28.958Z</time></trkpt><trkpt lat="40.7338683" lon="14.8909922"><ele>204.0</ele><time>2026-03-29T10:19:29.953Z</time></trkpt><trkpt lat="40.7337585" lon="14.8908931"><ele>202.25</ele><time>2026-03-29T10:19:30.95Z</time></trkpt><trkpt lat="40.7336717" lon="14.8907905"><ele>200.5</ele><time>2026-03-29T10:19:31.957Z</time></trkpt><trkpt lat="40.7336078" lon="14.8906641"><ele>198.75</ele><time>2026-03-29T10:19:32.955Z</time></trkpt><trkpt lat="40.7335291" lon="14.8905553"><ele>197.0</ele><time>2026-03-29T10:19:33.948Z</time></trkpt><trkpt lat="40.7334373" lon="14.8904726"><ele>196.5</ele><time>2026-03-29T10:19:34.953Z</time></trkpt><trkpt lat="40.7333323" lon="14.8903981"><ele>196.0</ele><time>2026-03-29T10:19:35.954Z</time></trkpt><trkpt lat="40.7332231" lon="14.8903426"><ele>195.5</ele><time>2026-03-29T10:19:36.958Z</time></trkpt><trkpt lat="40.7331141" lon="14.8903215"><ele>195.0</ele><time>2026-03-29T10:19:37.955Z</time></trkpt><trkpt lat="40.7330048" lon="14.8903139"><ele>195.0</ele><time>2026-03-29T10:19:38.952Z</time></trkpt><trkpt lat="40.7328919" lon="14.8903084"><ele>195.0</ele><time>2026-03-29T10:19:39.951Z</time></trkpt><trkpt lat="40.7327663" lon="14.8903082"><ele>195.0</ele><time>2026-03-29T10:19:40.954Z</time></trkpt><trkpt lat="40.7326362" lon="14.8903365"><ele>195.0</ele><time>2026-03-29T10:19:41.956Z</time></trkpt><trkpt lat="40.7325031" lon="14.8903789"><ele>195.0</ele><time>2026-03-29T10:19:42.956Z</time></trkpt><trkpt lat="40.7323728" lon="14.8904315"><ele>195.0</ele><time>2026-03-29T10:19:43.954Z</time></trkpt><trkpt lat="40.7322397" lon="14.890475"><ele>195.0</ele><time>2026-03-29T10:19:44.961Z</time></trkpt><trkpt lat="40.7321081" lon="14.8905036"><ele>195.0</ele><time>2026-03-29T10:19:45.96Z</time></trkpt><trkpt lat="40.7319732" lon="14.8905333"><ele>193.75</ele><time>2026-03-29T10:19:46.954Z</time></trkpt><trkpt lat="40.7318486" lon="14.8905687"><ele>192.5</ele><time>2026-03-29T10:19:47.959Z</time></trkpt><trkpt lat="40.7317359" lon="14.8906035"><ele>191.25</ele><time>2026-03-29T10:19:48.956Z</time></trkpt><trkpt lat="40.7316243" lon="14.8906214"><ele>190.0</ele><time>2026-03-29T10:19:49.958Z</time></trkpt><trkpt lat="40.7315182" lon="14.8906207"><ele>190.0</ele><time>2026-03-29T10:19:50.959Z</time></trkpt><trkpt lat="40.7314158" lon="14.8906037"><ele>190.0</ele><time>2026-03-29T10:19:51.956Z</time></trkpt><trkpt lat="40.7312995" lon="14.8905662"><ele>190.0</ele><time>2026-03-29T10:19:52.956Z</time></trkpt><trkpt lat="40.7311869" lon="14.8904983"><ele>190.0</ele><time>2026-03-29T10:19:53.96Z</time></trkpt><trkpt lat="40.7310771" lon="14.8903966"><ele>190.0</ele><time>2026-03-29T10:19:54.957Z</time></trkpt><trkpt lat="40.7309719" lon="14.8902807"><ele>190.0</ele><time>2026-03-29T10:19:55.957Z</time></trkpt><trkpt lat="40.7308689" lon="14.8901865"><ele>190.0</ele><time>2026-03-29T10:19:56.961Z</time></trkpt><trkpt lat="40.730766" lon="14.8901113"><ele>190.0</ele><time>2026-03-29T10:19:57.945Z</time></trkpt><trkpt lat="40.7306577" lon="14.8900519"><ele>190.0</ele><time>2026-03-29T10:19:58.956Z</time></trkpt><trkpt lat="40.7305525" lon="14.8900057"><ele>190.0</ele><time>2026-03-29T10:19:59.956Z</time></trkpt><trkpt lat="40.7304437" lon="14.8899949"><ele>190.0</ele><time>2026-03-29T10:20:00.957Z</time></trkpt><trkpt lat="40.7303393" lon="14.890027"><ele>190.0</ele><time>2026-03-29T10:20:01.953Z</time></trkpt><trkpt lat="40.7302425" lon="14.8900902"><ele>190.0</ele><time>2026-03-29T10:20:02.952Z</time></trkpt><trkpt lat="40.7301453" lon="14.8901884"><ele>188.25</ele><time>2026-03-29T10:20:03.951Z</time></trkpt><trkpt lat="40.7300527" lon="14.8902823"><ele>186.5</ele><time>2026-03-29T10:20:04.956Z</time></trkpt><trkpt lat="40.7299609" lon="14.8903824"><ele>184.75</ele><time>2026-03-29T10:20:05.944Z</time></trkpt><trkpt lat="40.7298719" lon="14.8904812"><ele>183.0</ele><time>2026-03-29T10:20:06.953Z</time></trkpt><trkpt lat="40.7297944" lon="14.8905704"><ele>183.0</ele><time>2026-03-29T10:20:07.953Z</time></trkpt><trkpt lat="40.7297313" lon="14.8906552"><ele>183.0</ele><time>2026-03-29T10:20:08.957Z</time></trkpt><trkpt lat="40.7296919" lon="14.8907491"><ele>183.0</ele><time>2026-03-29T10:20:10.046Z</time></trkpt><trkpt lat="40.7296541" lon="14.8908503"><ele>183.0</ele><time>2026-03-29T10:20:11.034Z</time></trkpt><trkpt lat="40.7296174" lon="14.8909589"><ele>183.0</ele><time>2026-03-29T10:20:11.955Z</time></trkpt><trkpt lat="40.7295929" lon="14.8910748"><ele>183.0</ele><time>2026-03-29T10:20:12.949Z</time></trkpt><trkpt lat="40.7295734" lon="14.8911676"><ele>182.66666666666666</ele><time>2026-03-29T10:20:13.957Z</time></trkpt><trkpt lat="40.7294923" lon="14.8912773"><ele>182.33333333333334</ele><time>2026-03-29T10:20:15.955Z</time></trkpt><trkpt lat="40.7294195" lon="14.8912927"><ele>182.0</ele><time>2026-03-29T10:20:16.958Z</time></trkpt><trkpt lat="40.7293464" lon="14.891305"><ele>181.66666666666669</ele><time>2026-03-29T10:20:17.952Z</time></trkpt><trkpt lat="40.7292776" lon="14.891302"><ele>181.33333333333334</ele><time>2026-03-29T10:20:18.953Z</time></trkpt><trkpt lat="40.7292079" lon="14.8912955"><ele>181.0</ele><time>2026-03-29T10:20:19.943Z</time></trkpt><trkpt lat="40.7291426" lon="14.8912931"><ele>181.0</ele><time>2026-03-29T10:20:20.953Z</time></trkpt><trkpt lat="40.7290257" lon="14.8913132"><ele>181.0</ele><time>2026-03-29T10:20:22.956Z</time></trkpt><trkpt lat="40.728899" lon="14.8913462"><ele>181.0</ele><time>2026-03-29T10:20:24.955Z</time></trkpt><trkpt lat="40.7288286" lon="14.8913671"><ele>181.0</ele><time>2026-03-29T10:20:25.96Z</time></trkpt><trkpt lat="40.728759" lon="14.8913918"><ele>181.0</ele><time>2026-03-29T10:20:26.954Z</time></trkpt><trkpt lat="40.7286872" lon="14.8914053"><ele>181.0</ele><time>2026-03-29T10:20:27.957Z</time></trkpt><trkpt lat="40.7286139" lon="14.8914045"><ele>181.0</ele><time>2026-03-29T10:20:28.954Z</time></trkpt><trkpt lat="40.7284904" lon="14.8913945"><ele>181.0</ele><time>2026-03-29T10:20:30.957Z</time></trkpt><trkpt lat="40.7284214" lon="14.8914144"><ele>181.0</ele><time>2026-03-29T10:20:31.955Z</time></trkpt><trkpt lat="40.7283542" lon="14.8914368"><ele>181.0</ele><time>2026-03-29T10:20:32.949Z</time></trkpt><trkpt lat="40.7282835" lon="14.8914392"><ele>181.0</ele><time>2026-03-29T10:20:33.951Z</time></trkpt><trkpt lat="40.7282086" lon="14.8914284"><ele>180.83333333333334</ele><time>2026-03-29T10:20:34.955Z</time></trkpt><trkpt lat="40.728139" lon="14.8914066"><ele>180.66666666666669</ele><time>2026-03-29T10:20:36.02Z</time></trkpt><trkpt lat="40.7280686" lon="14.8913985"><ele>180.5</ele><time>2026-03-29T10:20:37.036Z</time></trkpt><trkpt lat="40.7279951" lon="14.8914006"><ele>180.33333333333334</ele><time>2026-03-29T10:20:37.966Z</time></trkpt><trkpt lat="40.7279223" lon="14.8914098"><ele>180.16666666666666</ele><time>2026-03-29T10:20:39.034Z</time></trkpt><trkpt lat="40.7278554" lon="14.8914327"><ele>180.0</ele><time>2026-03-29T10:20:39.965Z</time></trkpt><trkpt lat="40.7277704" lon="14.8914841"><ele>179.4</ele><time>2026-03-29T10:20:41.044Z</time></trkpt><trkpt lat="40.7276769" lon="14.8915286"><ele>178.8</ele><time>2026-03-29T10:20:42.034Z</time></trkpt><trkpt lat="40.7275755" lon="14.891583"><ele>178.2</ele><time>2026-03-29T10:20:42.954Z</time></trkpt><trkpt lat="40.7274804" lon="14.8916477"><ele>177.6</ele><time>2026-03-29T10:20:43.954Z</time></trkpt><trkpt lat="40.7273916" lon="14.891708"><ele>177.0</ele><time>2026-03-29T10:20:44.99Z</time></trkpt><trkpt lat="40.7273142" lon="14.8917622"><ele>176.33333333333334</ele><time>2026-03-29T10:20:46.039Z</time></trkpt><trkpt lat="40.7272453" lon="14.891805"><ele>175.66666666666666</ele><time>2026-03-29T10:20:47.042Z</time></trkpt><trkpt lat="40.7271856" lon="14.8918495"><ele>175.0</ele><time>2026-03-29T10:20:47.955Z</time></trkpt><trkpt lat="40.7270889" lon="14.8919404"><ele>174.33333333333331</ele><time>2026-03-29T10:20:49.971Z</time></trkpt><trkpt lat="40.7270006" lon="14.8920052"><ele>173.66666666666666</ele><time>2026-03-29T10:20:51.957Z</time></trkpt><trkpt lat="40.7269485" lon="14.8920532"><ele>173.0</ele><time>2026-03-29T10:20:53.956Z</time></trkpt><trkpt lat="40.7268988" lon="14.8921111"><ele>172.83333333333331</ele><time>2026-03-29T10:20:55.955Z</time></trkpt><trkpt lat="40.7268368" lon="14.8921676"><ele>172.66666666666666</ele><time>2026-03-29T10:20:57.961Z</time></trkpt><trkpt lat="40.7267678" lon="14.8922184"><ele>172.5</ele><time>2026-03-29T10:20:59.953Z</time></trkpt><trkpt lat="40.7267078" lon="14.8922747"><ele>172.33333333333334</ele><time>2026-03-29T10:21:01.953Z</time></trkpt><trkpt lat="40.7266265" lon="14.8923348"><ele>172.16666666666669</ele><time>2026-03-29T10:21:03.979Z</time></trkpt><trkpt lat="40.7265321" lon="14.892388"><ele>172.0</ele><time>2026-03-29T10:21:06.032Z</time></trkpt><trkpt lat="40.7264393" lon="14.8924149"><ele>172.0</ele><time>2026-03-29T10:21:07.957Z</time></trkpt><trkpt lat="40.726348" lon="14.8924647"><ele>172.0</ele><time>2026-03-29T10:21:09.948Z</time></trkpt><trkpt lat="40.7262451" lon="14.8925086"><ele>172.0</ele><time>2026-03-29T10:21:11.949Z</time></trkpt><trkpt lat="40.7261555" lon="14.8924976"><ele>172.0</ele><time>2026-03-29T10:21:13.952Z</time></trkpt><trkpt lat="40.7260937" lon="14.8924622"><ele>172.0</ele><time>2026-03-29T10:21:15.948Z</time></trkpt><trkpt lat="40.7260321" lon="14.892432"><ele>172.0</ele><time>2026-03-29T10:21:16.958Z</time></trkpt><trkpt lat="40.7259433" lon="14.8923879"><ele>172.0</ele><time>2026-03-29T10:21:17.945Z</time></trkpt><trkpt lat="40.7258382" lon="14.8923343"><ele>172.0</ele><time>2026-03-29T10:21:18.953Z</time></trkpt><trkpt lat="40.725731" lon="14.8922594"><ele>172.0</ele><time>2026-03-29T10:21:19.953Z</time></trkpt><trkpt lat="40.7256033" lon="14.8921878"><ele>172.0</ele><time>2026-03-29T10:21:21.037Z</time></trkpt><trkpt lat="40.725469" lon="14.8921083"><ele>172.0</ele><time>2026-03-29T10:21:22.061Z</time></trkpt><trkpt lat="40.7253343" lon="14.892025"><ele>172.0</ele><time>2026-03-29T10:21:22.963Z</time></trkpt><trkpt lat="40.7252061" lon="14.8919395"><ele>172.0</ele><time>2026-03-29T10:21:23.96Z</time></trkpt><trkpt lat="40.7250871" lon="14.8918667"><ele>172.0</ele><time>2026-03-29T10:21:24.972Z</time></trkpt><trkpt lat="40.7249647" lon="14.8918011"><ele>172.5</ele><time>2026-03-29T10:21:25.958Z</time></trkpt><trkpt lat="40.7248434" lon="14.8917249"><ele>173.0</ele><time>2026-03-29T10:21:26.956Z</time></trkpt><trkpt lat="40.7247191" lon="14.89163"><ele>173.5</ele><time>2026-03-29T10:21:27.958Z</time></trkpt><trkpt lat="40.7245866" lon="14.8915303"><ele>174.0</ele><time>2026-03-29T10:21:28.951Z</time></trkpt><trkpt lat="40.7244514" lon="14.8914359"><ele>174.33333333333334</ele><time>2026-03-29T10:21:30.018Z</time></trkpt><trkpt lat="40.7243195" lon="14.8913439"><ele>174.66666666666669</ele><time>2026-03-29T10:21:30.956Z</time></trkpt><trkpt lat="40.7241845" lon="14.891252"><ele>175.0</ele><time>2026-03-29T10:21:32.029Z</time></trkpt><trkpt lat="40.7240397" lon="14.8911613"><ele>175.0</ele><time>2026-03-29T10:21:32.964Z</time></trkpt><trkpt lat="40.7238928" lon="14.8910668"><ele>175.0</ele><time>2026-03-29T10:21:33.961Z</time></trkpt><trkpt lat="40.7237497" lon="14.890969"><ele>175.0</ele><time>2026-03-29T10:21:34.954Z</time></trkpt><trkpt lat="40.7236065" lon="14.8908671"><ele>177.0</ele><time>2026-03-29T10:21:35.959Z</time></trkpt><trkpt lat="40.7234645" lon="14.8907687"><ele>179.0</ele><time>2026-03-29T10:21:36.96Z</time></trkpt><trkpt lat="40.7233236" lon="14.8906693"><ele>181.0</ele><time>2026-03-29T10:21:37.954Z</time></trkpt><trkpt lat="40.7231777" lon="14.890578"><ele>181.0</ele><time>2026-03-29T10:21:38.957Z</time></trkpt><trkpt lat="40.7230402" lon="14.8904823"><ele>181.0</ele><time>2026-03-29T10:21:39.956Z</time></trkpt><trkpt lat="40.722906" lon="14.8903841"><ele>181.0</ele><time>2026-03-29T10:21:40.959Z</time></trkpt><trkpt lat="40.7227717" lon="14.8902748"><ele>181.33333333333334</ele><time>2026-03-29T10:21:41.962Z</time></trkpt><trkpt lat="40.7226382" lon="14.8901601"><ele>181.66666666666666</ele><time>2026-03-29T10:21:42.956Z</time></trkpt><trkpt lat="40.7225196" lon="14.8900424"><ele>182.0</ele><time>2026-03-29T10:21:43.959Z</time></trkpt><trkpt lat="40.7224067" lon="14.8899072"><ele>184.66666666666666</ele><time>2026-03-29T10:21:44.953Z</time></trkpt><trkpt lat="40.7223005" lon="14.8897586"><ele>187.33333333333334</ele><time>2026-03-29T10:21:45.957Z</time></trkpt><trkpt lat="40.722195" lon="14.8896095"><ele>190.0</ele><time>2026-03-29T10:21:46.957Z</time></trkpt><trkpt lat="40.7220974" lon="14.889472"><ele>190.0</ele><time>2026-03-29T10:21:47.951Z</time></trkpt><trkpt lat="40.7220068" lon="14.8893564"><ele>190.0</ele><time>2026-03-29T10:21:49.061Z</time></trkpt><trkpt lat="40.7218545" lon="14.8892439"><ele>190.0</ele><time>2026-03-29T10:21:50.956Z</time></trkpt><trkpt lat="40.7217692" lon="14.889281"><ele>190.0</ele><time>2026-03-29T10:21:51.96Z</time></trkpt><trkpt lat="40.7216957" lon="14.8893742"><ele>189.4</ele><time>2026-03-29T10:21:52.951Z</time></trkpt><trkpt lat="40.7216319" lon="14.8894916"><ele>188.8</ele><time>2026-03-29T10:21:53.959Z</time></trkpt><trkpt lat="40.721588" lon="14.8896337"><ele>188.2</ele><time>2026-03-29T10:21:55.038Z</time></trkpt><trkpt lat="40.7215501" lon="14.8897578"><ele>187.6</ele><time>2026-03-29T10:21:56.037Z</time></trkpt><trkpt lat="40.7215011" lon="14.8898226"><ele>187.0</ele><time>2026-03-29T10:21:56.954Z</time></trkpt><trkpt lat="40.7213915" lon="14.8897908"><ele>187.0</ele><time>2026-03-29T10:21:58.957Z</time></trkpt><trkpt lat="40.7213677" lon="14.8896115"><ele>187.0</ele><time>2026-03-29T10:22:00.977Z</time></trkpt><trkpt lat="40.7213996" lon="14.889496"><ele>187.0</ele><time>2026-03-29T10:22:02.042Z</time></trkpt><trkpt lat="40.7214335" lon="14.8893648"><ele>187.0</ele><time>2026-03-29T10:22:02.953Z</time></trkpt><trkpt lat="40.7214681" lon="14.8892312"><ele>187.0</ele><time>2026-03-29T10:22:03.954Z</time></trkpt><trkpt lat="40.7214995" lon="14.8891038"><ele>188.8</ele><time>2026-03-29T10:22:04.97Z</time></trkpt><trkpt lat="40.7215007" lon="14.8890012"><ele>190.6</ele><time>2026-03-29T10:22:05.95Z</time></trkpt><trkpt lat="40.7214616" lon="14.8889064"><ele>192.4</ele><time>2026-03-29T10:22:06.944Z</time></trkpt><trkpt lat="40.7213901" lon="14.8888396"><ele>194.20000000000002</ele><time>2026-03-29T10:22:07.954Z</time></trkpt><trkpt lat="40.7212951" lon="14.8888216"><ele>196.0</ele><time>2026-03-29T10:22:09.03Z</time></trkpt><trkpt lat="40.721189" lon="14.8888477"><ele>196.0</ele><time>2026-03-29T10:22:10.045Z</time></trkpt><trkpt lat="40.7210718" lon="14.8888799"><ele>196.0</ele><time>2026-03-29T10:22:10.951Z</time></trkpt><trkpt lat="40.7209477" lon="14.888898"><ele>196.0</ele><time>2026-03-29T10:22:12.037Z</time></trkpt><trkpt lat="40.7208205" lon="14.8889127"><ele>196.0</ele><time>2026-03-29T10:22:12.955Z</time></trkpt><trkpt lat="40.720683" lon="14.8889401"><ele>196.8</ele><time>2026-03-29T10:22:13.955Z</time></trkpt><trkpt lat="40.7205522" lon="14.8889681"><ele>197.60000000000002</ele><time>2026-03-29T10:22:15.061Z</time></trkpt><trkpt lat="40.7204511" lon="14.8889728"><ele>198.4</ele><time>2026-03-29T10:22:16.034Z</time></trkpt><trkpt lat="40.7203732" lon="14.8889382"><ele>199.2</ele><time>2026-03-29T10:22:17.036Z</time></trkpt><trkpt lat="40.7203378" lon="14.8888616"><ele>200.0</ele><time>2026-03-29T10:22:17.948Z</time></trkpt><trkpt lat="40.7203456" lon="14.8887637"><ele>200.0</ele><time>2026-03-29T10:22:18.955Z</time></trkpt><trkpt lat="40.720383" lon="14.8886716"><ele>200.0</ele><time>2026-03-29T10:22:19.96Z</time></trkpt><trkpt lat="40.7204361" lon="14.8885638"><ele>200.0</ele><time>2026-03-29T10:22:21.031Z</time></trkpt><trkpt lat="40.720483" lon="14.8884474"><ele>200.0</ele><time>2026-03-29T10:22:21.96Z</time></trkpt><trkpt lat="40.7205206" lon="14.8883113"><ele>200.0</ele><time>2026-03-29T10:22:22.964Z</time></trkpt><trkpt lat="40.720545" lon="14.8881639"><ele>202.2</ele><time>2026-03-29T10:22:23.954Z</time></trkpt><trkpt lat="40.7205708" lon="14.8880118"><ele>204.4</ele><time>2026-03-29T10:22:24.963Z</time></trkpt><trkpt lat="40.7206084" lon="14.8878832"><ele>206.60000000000002</ele><time>2026-03-29T10:22:25.961Z</time></trkpt><trkpt lat="40.7206724" lon="14.8878043"><ele>208.8</ele><time>2026-03-29T10:22:26.965Z</time></trkpt><trkpt lat="40.7207635" lon="14.887754"><ele>211.0</ele><time>2026-03-29T10:22:27.96Z</time></trkpt><trkpt lat="40.7208692" lon="14.8877425"><ele>211.0</ele><time>2026-03-29T10:22:28.969Z</time></trkpt><trkpt lat="40.7209782" lon="14.8877301"><ele>211.0</ele><time>2026-03-29T10:22:30.05Z</time></trkpt><trkpt lat="40.7210917" lon="14.8877227"><ele>211.0</ele><time>2026-03-29T10:22:30.968Z</time></trkpt><trkpt lat="40.7212081" lon="14.8877208"><ele>211.0</ele><time>2026-03-29T10:22:31.96Z</time></trkpt><trkpt lat="40.7213205" lon="14.887722"><ele>211.0</ele><time>2026-03-29T10:22:32.969Z</time></trkpt><trkpt lat="40.7214298" lon="14.8877284"><ele>211.0</ele><time>2026-03-29T10:22:33.968Z</time></trkpt><trkpt lat="40.7215413" lon="14.8877593"><ele>211.0</ele><time>2026-03-29T10:22:34.961Z</time></trkpt><trkpt lat="40.7216402" lon="14.8878016"><ele>211.0</ele><time>2026-03-29T10:22:36.03Z</time></trkpt><trkpt lat="40.7217265" lon="14.8878224"><ele>211.0</ele><time>2026-03-29T10:22:37.033Z</time></trkpt><trkpt lat="40.7217999" lon="14.8877876"><ele>211.0</ele><time>2026-03-29T10:22:37.974Z</time></trkpt><trkpt lat="40.7218655" lon="14.887695"><ele>211.0</ele><time>2026-03-29T10:22:39.048Z</time></trkpt><trkpt lat="40.7219335" lon="14.887578"><ele>211.0</ele><time>2026-03-29T10:22:39.954Z</time></trkpt><trkpt lat="40.7220045" lon="14.887466"><ele>211.0</ele><time>2026-03-29T10:22:40.968Z</time></trkpt><trkpt lat="40.7220629" lon="14.8873666"><ele>211.0</ele><time>2026-03-29T10:22:41.96Z</time></trkpt><trkpt lat="40.722085" lon="14.8872788"><ele>214.16666666666666</ele><time>2026-03-29T10:22:42.967Z</time></trkpt><trkpt lat="40.7220606" lon="14.887195"><ele>217.33333333333331</ele><time>2026-03-29T10:22:43.957Z</time></trkpt><trkpt lat="40.7219827" lon="14.8871689"><ele>220.5</ele><time>2026-03-29T10:22:46.036Z</time></trkpt><trkpt lat="40.7219168" lon="14.8872322"><ele>223.66666666666669</ele><time>2026-03-29T10:22:47.033Z</time></trkpt><trkpt lat="40.7218307" lon="14.8872736"><ele>226.83333333333334</ele><time>2026-03-29T10:22:47.952Z</time></trkpt><trkpt lat="40.7217207" lon="14.8872402"><ele>230.0</ele><time>2026-03-29T10:22:48.961Z</time></trkpt><trkpt lat="40.7216128" lon="14.887151"><ele>230.0</ele><time>2026-03-29T10:22:50Z</time></trkpt><trkpt lat="40.7215071" lon="14.8870623"><ele>230.0</ele><time>2026-03-29T10:22:51.036Z</time></trkpt><trkpt lat="40.7214116" lon="14.8869551"><ele>230.0</ele><time>2026-03-29T10:22:51.953Z</time></trkpt><trkpt lat="40.7213331" lon="14.8868213"><ele>230.0</ele><time>2026-03-29T10:22:52.954Z</time></trkpt><trkpt lat="40.7212906" lon="14.8866496"><ele>234.0</ele><time>2026-03-29T10:22:53.953Z</time></trkpt><trkpt lat="40.7212562" lon="14.8864679"><ele>238.0</ele><time>2026-03-29T10:22:55.027Z</time></trkpt><trkpt lat="40.7212043" lon="14.8862912"><ele>242.0</ele><time>2026-03-29T10:22:55.965Z</time></trkpt><trkpt lat="40.7211475" lon="14.8861294"><ele>246.0</ele><time>2026-03-29T10:22:57.036Z</time></trkpt><trkpt lat="40.721071" lon="14.8859777"><ele>245.25</ele><time>2026-03-29T10:22:57.957Z</time></trkpt><trkpt lat="40.7209745" lon="14.8858455"><ele>244.5</ele><time>2026-03-29T10:22:58.952Z</time></trkpt><trkpt lat="40.7208725" lon="14.885713"><ele>243.75</ele><time>2026-03-29T10:22:59.98Z</time></trkpt><trkpt lat="40.7207704" lon="14.8855735"><ele>243.0</ele><time>2026-03-29T10:23:00.956Z</time></trkpt><trkpt lat="40.7206869" lon="14.885419"><ele>243.0</ele><time>2026-03-29T10:23:02.048Z</time></trkpt><trkpt lat="40.7206202" lon="14.8852527"><ele>243.0</ele><time>2026-03-29T10:23:02.958Z</time></trkpt><trkpt lat="40.720562" lon="14.8850788"><ele>243.0</ele><time>2026-03-29T10:23:03.966Z</time></trkpt><trkpt lat="40.720512" lon="14.8848956"><ele>243.0</ele><time>2026-03-29T10:23:04.974Z</time></trkpt><trkpt lat="40.7204622" lon="14.8847155"><ele>246.66666666666669</ele><time>2026-03-29T10:23:06.042Z</time></trkpt><trkpt lat="40.7204109" lon="14.8845281"><ele>250.33333333333334</ele><time>2026-03-29T10:23:06.959Z</time></trkpt><trkpt lat="40.7203593" lon="14.8843401"><ele>254.0</ele><time>2026-03-29T10:23:07.96Z</time></trkpt><trkpt lat="40.7203017" lon="14.8841554"><ele>252.0</ele><time>2026-03-29T10:23:08.963Z</time></trkpt><trkpt lat="40.7202486" lon="14.8839857"><ele>250.0</ele><time>2026-03-29T10:23:10.027Z</time></trkpt><trkpt lat="40.7202016" lon="14.8838177"><ele>248.0</ele><time>2026-03-29T10:23:11.032Z</time></trkpt><trkpt lat="40.7201724" lon="14.8836362"><ele>246.0</ele><time>2026-03-29T10:23:11.966Z</time></trkpt><trkpt lat="40.7201603" lon="14.8834593"><ele>247.0</ele><time>2026-03-29T10:23:12.96Z</time></trkpt><trkpt lat="40.7201447" lon="14.8832917"><ele>248.0</ele><time>2026-03-29T10:23:13.953Z</time></trkpt><trkpt lat="40.7201284" lon="14.8831459"><ele>249.0</ele><time>2026-03-29T10:23:14.954Z</time></trkpt><trkpt lat="40.7200972" lon="14.8830066"><ele>250.0</ele><time>2026-03-29T10:23:15.954Z</time></trkpt><trkpt lat="40.7200597" lon="14.8828779"><ele>250.0</ele><time>2026-03-29T10:23:16.961Z</time></trkpt><trkpt lat="40.720033" lon="14.8827763"><ele>250.0</ele><time>2026-03-29T10:23:17.956Z</time></trkpt><trkpt lat="40.7199271" lon="14.8827231"><ele>250.0</ele><time>2026-03-29T10:23:19.945Z</time></trkpt><trkpt lat="40.719812" lon="14.8827667"><ele>250.0</ele><time>2026-03-29T10:23:21.95Z</time></trkpt><trkpt lat="40.7197303" lon="14.882775"><ele>250.0</ele><time>2026-03-29T10:23:22.953Z</time></trkpt><trkpt lat="40.7196112" lon="14.8827197"><ele>250.0</ele><time>2026-03-29T10:23:23.951Z</time></trkpt><trkpt lat="40.7195014" lon="14.8826187"><ele>250.0</ele><time>2026-03-29T10:23:24.947Z</time></trkpt><trkpt lat="40.7194143" lon="14.8824898"><ele>250.0</ele><time>2026-03-29T10:23:25.952Z</time></trkpt><trkpt lat="40.7193283" lon="14.8823521"><ele>250.0</ele><time>2026-03-29T10:23:27.021Z</time></trkpt><trkpt lat="40.7192623" lon="14.8822241"><ele>250.66666666666666</ele><time>2026-03-29T10:23:27.955Z</time></trkpt><trkpt lat="40.71922" lon="14.88212"><ele>251.33333333333331</ele><time>2026-03-29T10:23:28.964Z</time></trkpt><trkpt lat="40.7192507" lon="14.8820338"><ele>252.0</ele><time>2026-03-29T10:23:29.948Z</time></trkpt><trkpt lat="40.719314" lon="14.8819667"><ele>252.66666666666669</ele><time>2026-03-29T10:23:30.957Z</time></trkpt><trkpt lat="40.7193989" lon="14.8819427"><ele>253.33333333333334</ele><time>2026-03-29T10:23:31.96Z</time></trkpt><trkpt lat="40.7194933" lon="14.8819708"><ele>254.0</ele><time>2026-03-29T10:23:32.963Z</time></trkpt><trkpt lat="40.7195871" lon="14.8820161"><ele>254.25</ele><time>2026-03-29T10:23:33.958Z</time></trkpt><trkpt lat="40.7196954" lon="14.8820676"><ele>254.5</ele><time>2026-03-29T10:23:34.953Z</time></trkpt><trkpt lat="40.719806" lon="14.8820651"><ele>254.75</ele><time>2026-03-29T10:23:35.967Z</time></trkpt><trkpt lat="40.7199109" lon="14.8820037"><ele>255.0</ele><time>2026-03-29T10:23:36.955Z</time></trkpt><trkpt lat="40.7200086" lon="14.8819195"><ele>255.0</ele><time>2026-03-29T10:23:37.986Z</time></trkpt><trkpt lat="40.7200867" lon="14.8818334"><ele>255.0</ele><time>2026-03-29T10:23:38.963Z</time></trkpt><trkpt lat="40.7201294" lon="14.8817395"><ele>255.0</ele><time>2026-03-29T10:23:39.957Z</time></trkpt><trkpt lat="40.7201056" lon="14.8816351"><ele>255.0</ele><time>2026-03-29T10:23:40.956Z</time></trkpt><trkpt lat="40.7200604" lon="14.8815479"><ele>255.0</ele><time>2026-03-29T10:23:41.956Z</time></trkpt><trkpt lat="40.7199697" lon="14.8815129"><ele>255.0</ele><time>2026-03-29T10:23:42.957Z</time></trkpt><trkpt lat="40.7198642" lon="14.8814607"><ele>258.0</ele><time>2026-03-29T10:23:43.957Z</time></trkpt><trkpt lat="40.7197768" lon="14.8813624"><ele>261.0</ele><time>2026-03-29T10:23:44.957Z</time></trkpt><trkpt lat="40.7197309" lon="14.8812079"><ele>264.0</ele><time>2026-03-29T10:23:45.962Z</time></trkpt><trkpt lat="40.7196936" lon="14.8810463"><ele>267.0</ele><time>2026-03-29T10:23:46.957Z</time></trkpt><trkpt lat="40.7196546" lon="14.8808776"><ele>268.8333333333333</ele><time>2026-03-29T10:23:47.952Z</time></trkpt><trkpt lat="40.7196105" lon="14.8807328"><ele>270.6666666666667</ele><time>2026-03-29T10:23:48.957Z</time></trkpt><trkpt lat="40.7195723" lon="14.8806204"><ele>272.5</ele><time>2026-03-29T10:23:49.959Z</time></trkpt><trkpt lat="40.7195303" lon="14.8805242"><ele>274.33333333333337</ele><time>2026-03-29T10:23:50.954Z</time></trkpt><trkpt lat="40.7194916" lon="14.8804448"><ele>276.1666666666667</ele><time>2026-03-29T10:23:51.956Z</time></trkpt><trkpt lat="40.7194587" lon="14.8803729"><ele>278.0</ele><time>2026-03-29T10:23:52.956Z</time></trkpt><trkpt lat="40.7194049" lon="14.8802481"><ele>277.6</ele><time>2026-03-29T10:23:54.963Z</time></trkpt><trkpt lat="40.7193978" lon="14.8801065"><ele>277.20000000000005</ele><time>2026-03-29T10:23:56.958Z</time></trkpt><trkpt lat="40.7194078" lon="14.8800084"><ele>276.8</ele><time>2026-03-29T10:23:57.962Z</time></trkpt><trkpt lat="40.7193984" lon="14.8798879"><ele>276.40000000000003</ele><time>2026-03-29T10:23:58.96Z</time></trkpt><trkpt lat="40.7193666" lon="14.8797373"><ele>276.0</ele><time>2026-03-29T10:23:59.954Z</time></trkpt><trkpt lat="40.7193115" lon="14.8795885"><ele>276.0</ele><time>2026-03-29T10:24:00.957Z</time></trkpt><trkpt lat="40.719243" lon="14.8794409"><ele>276.0</ele><time>2026-03-29T10:24:01.954Z</time></trkpt><trkpt lat="40.7191859" lon="14.8792943"><ele>276.0</ele><time>2026-03-29T10:24:02.954Z</time></trkpt><trkpt lat="40.7191472" lon="14.8791588"><ele>276.0</ele><time>2026-03-29T10:24:03.959Z</time></trkpt><trkpt lat="40.7191465" lon="14.8790288"><ele>278.2</ele><time>2026-03-29T10:24:04.961Z</time></trkpt><trkpt lat="40.7191706" lon="14.8788879"><ele>280.40000000000003</ele><time>2026-03-29T10:24:05.957Z</time></trkpt><trkpt lat="40.7192068" lon="14.8787465"><ele>282.6</ele><time>2026-03-29T10:24:06.957Z</time></trkpt><trkpt lat="40.7192571" lon="14.8786139"><ele>284.8</ele><time>2026-03-29T10:24:07.957Z</time></trkpt><trkpt lat="40.7193037" lon="14.878479"><ele>287.0</ele><time>2026-03-29T10:24:08.958Z</time></trkpt><trkpt lat="40.7193463" lon="14.878349"><ele>288.8</ele><time>2026-03-29T10:24:09.956Z</time></trkpt><trkpt lat="40.7193902" lon="14.8782222"><ele>290.6</ele><time>2026-03-29T10:24:10.954Z</time></trkpt><trkpt lat="40.7193975" lon="14.8781049"><ele>292.40000000000003</ele><time>2026-03-29T10:24:11.959Z</time></trkpt><trkpt lat="40.7194203" lon="14.87796"><ele>294.2</ele><time>2026-03-29T10:24:13.953Z</time></trkpt><trkpt lat="40.7195444" lon="14.877879"><ele>296.0</ele><time>2026-03-29T10:24:15.948Z</time></trkpt><trkpt lat="40.7196116" lon="14.8778464"><ele>296.83333333333337</ele><time>2026-03-29T10:24:16.952Z</time></trkpt><trkpt lat="40.7196772" lon="14.8778104"><ele>297.6666666666667</ele><time>2026-03-29T10:24:17.954Z</time></trkpt><trkpt lat="40.7197681" lon="14.8777684"><ele>298.5</ele><time>2026-03-29T10:24:19.953Z</time></trkpt><trkpt lat="40.7198445" lon="14.8777342"><ele>299.3333333333333</ele><time>2026-03-29T10:24:22.962Z</time></trkpt><trkpt lat="40.7198896" lon="14.8776737"><ele>300.16666666666663</ele><time>2026-03-29T10:24:23.958Z</time></trkpt><trkpt lat="40.719943" lon="14.8775985"><ele>301.0</ele><time>2026-03-29T10:24:24.955Z</time></trkpt><trkpt lat="40.7200084" lon="14.8775108"><ele>302.8</ele><time>2026-03-29T10:24:25.958Z</time></trkpt><trkpt lat="40.7200832" lon="14.8774241"><ele>304.6</ele><time>2026-03-29T10:24:26.957Z</time></trkpt><trkpt lat="40.7201629" lon="14.877348"><ele>306.4</ele><time>2026-03-29T10:24:27.962Z</time></trkpt><trkpt lat="40.7202483" lon="14.8772875"><ele>308.2</ele><time>2026-03-29T10:24:29.035Z</time></trkpt><trkpt lat="40.7203288" lon="14.8772476"><ele>310.0</ele><time>2026-03-29T10:24:30.017Z</time></trkpt><trkpt lat="40.7204064" lon="14.8772347"><ele>311.3333333333333</ele><time>2026-03-29T10:24:30.964Z</time></trkpt><trkpt lat="40.7204759" lon="14.8772333"><ele>312.66666666666663</ele><time>2026-03-29T10:24:31.957Z</time></trkpt><trkpt lat="40.7205442" lon="14.8772132"><ele>314.0</ele><time>2026-03-29T10:24:32.952Z</time></trkpt><trkpt lat="40.7206153" lon="14.8771803"><ele>315.3333333333333</ele><time>2026-03-29T10:24:33.955Z</time></trkpt><trkpt lat="40.7206932" lon="14.8771388"><ele>316.6666666666667</ele><time>2026-03-29T10:24:35.035Z</time></trkpt><trkpt lat="40.7207888" lon="14.877087"><ele>318.0</ele><time>2026-03-29T10:24:36.033Z</time></trkpt><trkpt lat="40.7208933" lon="14.8770254"><ele>318.0</ele><time>2026-03-29T10:24:37.037Z</time></trkpt><trkpt lat="40.7209897" lon="14.8769435"><ele>318.0</ele><time>2026-03-29T10:24:37.963Z</time></trkpt><trkpt lat="40.72105" lon="14.8768731"><ele>318.0</ele><time>2026-03-29T10:24:38.966Z</time></trkpt><trkpt lat="40.7210941" lon="14.8767329"><ele>318.0</ele><time>2026-03-29T10:24:41.955Z</time></trkpt><trkpt lat="40.7211016" lon="14.8766183"><ele>318.0</ele><time>2026-03-29T10:24:43.955Z</time></trkpt><trkpt lat="40.7210754" lon="14.8764986"><ele>320.2</ele><time>2026-03-29T10:24:45.038Z</time></trkpt><trkpt lat="40.721029" lon="14.8763833"><ele>322.4</ele><time>2026-03-29T10:24:45.951Z</time></trkpt><trkpt lat="40.7209629" lon="14.8762836"><ele>324.59999999999997</ele><time>2026-03-29T10:24:47.032Z</time></trkpt><trkpt lat="40.7208825" lon="14.8761748"><ele>326.8</ele><time>2026-03-29T10:24:47.963Z</time></trkpt><trkpt lat="40.7207909" lon="14.8760554"><ele>329.0</ele><time>2026-03-29T10:24:48.971Z</time></trkpt><trkpt lat="40.7207024" lon="14.8759181"><ele>331.33333333333337</ele><time>2026-03-29T10:24:49.973Z</time></trkpt><trkpt lat="40.7206284" lon="14.8757532"><ele>333.6666666666667</ele><time>2026-03-29T10:24:50.968Z</time></trkpt><trkpt lat="40.7205659" lon="14.8755741"><ele>336.0</ele><time>2026-03-29T10:24:51.969Z</time></trkpt><trkpt lat="40.7205023" lon="14.8753791"><ele>336.0</ele><time>2026-03-29T10:24:52.985Z</time></trkpt><trkpt lat="40.7204364" lon="14.8752012"><ele>336.0</ele><time>2026-03-29T10:24:54.036Z</time></trkpt><trkpt lat="40.7203803" lon="14.8750481"><ele>336.0</ele><time>2026-03-29T10:24:55.039Z</time></trkpt><trkpt lat="40.7203486" lon="14.8749036"><ele>336.0</ele><time>2026-03-29T10:24:55.994Z</time></trkpt><trkpt lat="40.7203486" lon="14.8747628"><ele>337.8</ele><time>2026-03-29T10:24:56.947Z</time></trkpt><trkpt lat="40.720368" lon="14.8746161"><ele>339.6</ele><time>2026-03-29T10:24:57.949Z</time></trkpt><trkpt lat="40.7203994" lon="14.874465"><ele>341.4</ele><time>2026-03-29T10:24:58.949Z</time></trkpt><trkpt lat="40.7204449" lon="14.8743271"><ele>343.2</ele><time>2026-03-29T10:24:59.952Z</time></trkpt><trkpt lat="40.7204988" lon="14.8742178"><ele>345.0</ele><time>2026-03-29T10:25:00.952Z</time></trkpt><trkpt lat="40.7205645" lon="14.8741358"><ele>346.0</ele><time>2026-03-29T10:25:02.034Z</time></trkpt><trkpt lat="40.7206235" lon="14.8740588"><ele>347.0</ele><time>2026-03-29T10:25:02.954Z</time></trkpt><trkpt lat="40.7206682" lon="14.873993"><ele>348.0</ele><time>2026-03-29T10:25:03.958Z</time></trkpt><trkpt lat="40.7207025" lon="14.8738402"><ele>349.0</ele><time>2026-03-29T10:25:06.036Z</time></trkpt><trkpt lat="40.7206862" lon="14.8737413"><ele>350.0</ele><time>2026-03-29T10:25:07.032Z</time></trkpt><trkpt lat="40.7206552" lon="14.8736593"><ele>351.0</ele><time>2026-03-29T10:25:07.956Z</time></trkpt><trkpt lat="40.7206028" lon="14.8735578"><ele>351.00000000000006</ele><time>2026-03-29T10:25:09.972Z</time></trkpt><trkpt lat="40.7206687" lon="14.8736096"><ele>351.0</ele><time>2026-03-29T10:25:15.96Z</time></trkpt><trkpt lat="40.720716" lon="14.8736668"><ele>351.0</ele><time>2026-03-29T10:25:22.953Z</time></trkpt><trkpt lat="40.7206752" lon="14.8737465"><ele>351.0</ele><time>2026-03-29T10:26:38.962Z</time></trkpt><trkpt lat="40.720614" lon="14.8737746"><ele>351.0</ele><time>2026-03-29T10:26:50.959Z</time></trkpt><trkpt lat="40.7205456" lon="14.8737486"><ele>351.00000000000006</ele><time>2026-03-29T10:27:07.958Z</time></trkpt><trkpt lat="40.7206104" lon="14.8737324"><ele>351.0</ele><time>2026-03-29T10:30:31.967Z</time></trkpt><trkpt lat="40.7206663" lon="14.873637"><ele>351.0</ele><time>2026-03-29T10:30:50.966Z</time></trkpt><trkpt lat="40.7207325" lon="14.8736374"><ele>351.0</ele><time>2026-03-29T10:31:05.956Z</time></trkpt><trkpt lat="40.7207157" lon="14.8737374"><ele>351.0</ele><time>2026-03-29T10:31:36.949Z</time></trkpt><trkpt lat="40.7207985" lon="14.8737991"><ele>351.0</ele><time>2026-03-29T10:31:40.951Z</time></trkpt><trkpt lat="40.7207524" lon="14.8737154"><ele>351.0</ele><time>2026-03-29T10:31:57.939Z</time></trkpt><trkpt lat="40.7206677" lon="14.8739036"><ele>351.0</ele><time>2026-03-29T10:31:59.959Z</time></trkpt><trkpt lat="40.7205598" lon="14.8740912"><ele>351.0</ele><time>2026-03-29T10:32:00.952Z</time></trkpt><trkpt lat="40.7205188" lon="14.8742086"><ele>351.0</ele><time>2026-03-29T10:32:01.956Z</time></trkpt><trkpt lat="40.7205212" lon="14.874079"><ele>351.0</ele><time>2026-03-29T10:32:04.954Z</time></trkpt><trkpt lat="40.7205485" lon="14.8739687"><ele>351.0</ele><time>2026-03-29T10:32:05.953Z</time></trkpt><trkpt lat="40.7205749" lon="14.8738695"><ele>351.0</ele><time>2026-03-29T10:32:06.946Z</time></trkpt><trkpt lat="40.7205865" lon="14.8737682"><ele>351.0</ele><time>2026-03-29T10:32:08.962Z</time></trkpt><trkpt lat="40.7205865" lon="14.8737682"><ele>351.0</ele><time>2026-03-29T10:32:08.962Z</time></trkpt><trkpt lat="40.7205865" lon="14.8737682"><ele>351.0</ele><time>2026-03-29T10:32:08.962Z</time></trkpt><trkpt lat="40.7205865" lon="14.8737682"><ele>351.0</ele><time>2026-03-29T10:32:08.962Z</time></trkpt></trkseg></trk></gpx>